﻿<?xml version="1.0" encoding="UTF-8"?>
<gpx xmlns="http://www.topografix.com/GPX/1/1" creator="HOLUX ezTour Plus" version="1.1">
<metadata>
<link href="http://www.holux.com"><text>HOLUX Technology, Inc.</text></link>
<time>2012-08-01T18:49:41Z</time></metadata>
<trk>
<name><![CDATA[raw6a]]></name>
<trkseg>
<trkpt lat="63.990535736" lon="-19.062469482">
<ele>534.718750</ele>
<time>2012-07-23T14:56:37Z</time>
<speed>0.960000</speed>
<extensions>
<speed>1.0</speed>
<temp>0.00</temp>
<bpm>0</bpm>
<rpm>0.00</rpm>
</extensions>
</trkpt>
<trkpt lat="63.990810394" lon="-19.062534332">
<ele>604.890625</ele>
<time>2012-07-23T14:56:42Z</time>
<speed>1.210000</speed>
<extensions>
<speed>1.2</speed>
<temp>0.00</temp>
<bpm>0</bpm>
<rpm>0.00</rpm>
</extensions>
</trkpt>
<trkpt lat="63.990840912" lon="-19.062393188">
<ele>611.843750</ele>
<time>2012-07-23T14:56:47Z</time>
<speed>1.230000</speed>
<extensions>
<speed>1.2</speed>
<temp>0.00</temp>
<bpm>0</bpm>
<rpm>0.00</rpm>
</extensions>
</trkpt>
<trkpt lat="63.990871429" lon="-19.062633514">
<ele>612.515625</ele>
<time>2012-07-23T14:56:52Z</time>
<speed>0.930000</speed>
<extensions>
<speed>0.9</speed>
<temp>0.00</temp>
<bpm>0</bpm>
<rpm>0.00</rpm>
</extensions>
</trkpt>
<trkpt lat="63.990852356" lon="-19.062801361">
<ele>608.671875</ele>
<time>2012-07-23T14:56:57Z</time>
<speed>1.370000</speed>
<extensions>
<speed>1.4</speed>
<temp>0.00</temp>
<bpm>0</bpm>
<rpm>0.00</rpm>
</extensions>
</trkpt>
<trkpt lat="63.990837097" lon="-19.062778473">
<ele>605.000000</ele>
<time>2012-07-23T14:57:02Z</time>
<speed>0.870000</speed>
<extensions>
<speed>0.9</speed>
<temp>0.00</temp>
<bpm>0</bpm>
<rpm>0.00</rpm>
</extensions>
</trkpt>
<trkpt lat="63.990764618" lon="-19.062984467">
<ele>578.828125</ele>
<time>2012-07-23T14:57:07Z</time>
<speed>1.280000</speed>
<extensions>
<speed>1.3</speed>
<temp>0.00</temp>
<bpm>0</bpm>
<rpm>0.00</rpm>
</extensions>
</trkpt>
<trkpt lat="63.990779877" lon="-19.063013077">
<ele>581.500000</ele>
<time>2012-07-23T14:57:12Z</time>
<speed>0.640000</speed>
<extensions>
<speed>0.6</speed>
<temp>0.00</temp>
<bpm>0</bpm>
<rpm>0.00</rpm>
</extensions>
</trkpt>
<trkpt lat="63.990783691" lon="-19.063074112">
<ele>579.359375</ele>
<time>2012-07-23T14:57:17Z</time>
<speed>0.880000</speed>
<extensions>
<speed>0.9</speed>
<temp>0.00</temp>
<bpm>0</bpm>
<rpm>0.00</rpm>
</extensions>
</trkpt>
<trkpt lat="63.990776062" lon="-19.063182831">
<ele>577.968750</ele>
<time>2012-07-23T14:57:22Z</time>
<speed>0.830000</speed>
<extensions>
<speed>0.8</speed>
<temp>0.00</temp>
<bpm>0</bpm>
<rpm>0.00</rpm>
</extensions>
</trkpt>
<trkpt lat="63.990783691" lon="-19.063190460">
<ele>579.359375</ele>
<time>2012-07-23T14:57:27Z</time>
<speed>0.140000</speed>
<extensions>
<speed>0.1</speed>
<temp>0.00</temp>
<bpm>0</bpm>
<rpm>0.00</rpm>
</extensions>
</trkpt>
<trkpt lat="63.990779877" lon="-19.063262939">
<ele>579.875000</ele>
<time>2012-07-23T14:57:32Z</time>
<speed>1.000000</speed>
<extensions>
<speed>1.0</speed>
<temp>0.00</temp>
<bpm>0</bpm>
<rpm>0.00</rpm>
</extensions>
</trkpt>
<trkpt lat="63.990802765" lon="-19.063341141">
<ele>579.359375</ele>
<time>2012-07-23T14:57:37Z</time>
<speed>0.940000</speed>
<extensions>
<speed>0.9</speed>
<temp>0.00</temp>
<bpm>0</bpm>
<rpm>0.00</rpm>
</extensions>
</trkpt>
<trkpt lat="63.990837097" lon="-19.063358307">
<ele>578.921875</ele>
<time>2012-07-23T14:57:42Z</time>
<speed>1.240000</speed>
<extensions>
<speed>1.2</speed>
<temp>0.00</temp>
<bpm>0</bpm>
<rpm>0.00</rpm>
</extensions>
</trkpt>
<trkpt lat="63.990879059" lon="-19.063417435">
<ele>577.640625</ele>
<time>2012-07-23T14:57:47Z</time>
<speed>1.190000</speed>
<extensions>
<speed>1.2</speed>
<temp>0.00</temp>
<bpm>0</bpm>
<rpm>0.00</rpm>
</extensions>
</trkpt>
<trkpt lat="63.990882874" lon="-19.063508987">
<ele>578.859375</ele>
<time>2012-07-23T14:57:52Z</time>
<speed>1.080000</speed>
<extensions>
<speed>1.1</speed>
<temp>0.00</temp>
<bpm>0</bpm>
<rpm>0.00</rpm>
</extensions>
</trkpt>
<trkpt lat="63.990898132" lon="-19.063579559">
<ele>580.984375</ele>
<time>2012-07-23T14:57:57Z</time>
<speed>0.150000</speed>
<extensions>
<speed>0.2</speed>
<temp>0.00</temp>
<bpm>0</bpm>
<rpm>0.00</rpm>
</extensions>
</trkpt>
<trkpt lat="63.990882874" lon="-19.063659668">
<ele>581.171875</ele>
<time>2012-07-23T14:58:02Z</time>
<speed>0.420000</speed>
<extensions>
<speed>0.4</speed>
<temp>0.00</temp>
<bpm>0</bpm>
<rpm>0.00</rpm>
</extensions>
</trkpt>
<trkpt lat="63.990875244" lon="-19.063728333">
<ele>581.921875</ele>
<time>2012-07-23T14:58:07Z</time>
<speed>0.800000</speed>
<extensions>
<speed>0.8</speed>
<temp>0.00</temp>
<bpm>0</bpm>
<rpm>0.00</rpm>
</extensions>
</trkpt>
<trkpt lat="63.990875244" lon="-19.063779831">
<ele>583.984375</ele>
<time>2012-07-23T14:58:12Z</time>
<speed>0.770000</speed>
<extensions>
<speed>0.8</speed>
<temp>0.00</temp>
<bpm>0</bpm>
<rpm>0.00</rpm>
</extensions>
</trkpt>
<trkpt lat="63.990871429" lon="-19.063858032">
<ele>584.375000</ele>
<time>2012-07-23T14:58:17Z</time>
<speed>0.780000</speed>
<extensions>
<speed>0.8</speed>
<temp>0.00</temp>
<bpm>0</bpm>
<rpm>0.00</rpm>
</extensions>
</trkpt>
<trkpt lat="63.990852356" lon="-19.063926697">
<ele>585.187500</ele>
<time>2012-07-23T14:58:22Z</time>
<speed>0.790000</speed>
<extensions>
<speed>0.8</speed>
<temp>0.00</temp>
<bpm>0</bpm>
<rpm>0.00</rpm>
</extensions>
</trkpt>
<trkpt lat="63.990844727" lon="-19.064012527">
<ele>585.515625</ele>
<time>2012-07-23T14:58:27Z</time>
<speed>1.000000</speed>
<extensions>
<speed>1.0</speed>
<temp>0.00</temp>
<bpm>0</bpm>
<rpm>0.00</rpm>
</extensions>
</trkpt>
<trkpt lat="63.990840912" lon="-19.064086914">
<ele>584.765625</ele>
<time>2012-07-23T14:58:32Z</time>
<speed>0.420000</speed>
<extensions>
<speed>0.4</speed>
<temp>0.00</temp>
<bpm>0</bpm>
<rpm>0.00</rpm>
</extensions>
</trkpt>
<trkpt lat="63.990818024" lon="-19.064121246">
<ele>585.046875</ele>
<time>2012-07-23T14:58:37Z</time>
<speed>0.910000</speed>
<extensions>
<speed>0.9</speed>
<temp>0.00</temp>
<bpm>0</bpm>
<rpm>0.00</rpm>
</extensions>
</trkpt>
<trkpt lat="63.990798950" lon="-19.064184189">
<ele>585.453125</ele>
<time>2012-07-23T14:58:42Z</time>
<speed>0.700000</speed>
<extensions>
<speed>0.7</speed>
<temp>0.00</temp>
<bpm>0</bpm>
<rpm>0.00</rpm>
</extensions>
</trkpt>
<trkpt lat="63.990783691" lon="-19.064235687">
<ele>586.000000</ele>
<time>2012-07-23T14:58:47Z</time>
<speed>1.290000</speed>
<extensions>
<speed>1.3</speed>
<temp>0.00</temp>
<bpm>0</bpm>
<rpm>0.00</rpm>
</extensions>
</trkpt>
<trkpt lat="63.990768433" lon="-19.064310074">
<ele>587.171875</ele>
<time>2012-07-23T14:58:52Z</time>
<speed>0.800000</speed>
<extensions>
<speed>0.8</speed>
<temp>0.00</temp>
<bpm>0</bpm>
<rpm>0.00</rpm>
</extensions>
</trkpt>
<trkpt lat="63.990753174" lon="-19.064414978">
<ele>585.593750</ele>
<time>2012-07-23T14:58:57Z</time>
<speed>1.010000</speed>
<extensions>
<speed>1.0</speed>
<temp>0.00</temp>
<bpm>0</bpm>
<rpm>0.00</rpm>
</extensions>
</trkpt>
<trkpt lat="63.990707397" lon="-19.064449310">
<ele>584.250000</ele>
<time>2012-07-23T14:59:02Z</time>
<speed>1.240000</speed>
<extensions>
<speed>1.2</speed>
<temp>0.00</temp>
<bpm>0</bpm>
<rpm>0.00</rpm>
</extensions>
</trkpt>
<trkpt lat="63.990665436" lon="-19.064500809">
<ele>583.984375</ele>
<time>2012-07-23T14:59:07Z</time>
<speed>1.190000</speed>
<extensions>
<speed>1.2</speed>
<temp>0.00</temp>
<bpm>0</bpm>
<rpm>0.00</rpm>
</extensions>
</trkpt>
<trkpt lat="63.990650177" lon="-19.064580917">
<ele>586.781250</ele>
<time>2012-07-23T14:59:12Z</time>
<speed>1.000000</speed>
<extensions>
<speed>1.0</speed>
<temp>0.00</temp>
<bpm>0</bpm>
<rpm>0.00</rpm>
</extensions>
</trkpt>
<trkpt lat="63.990615845" lon="-19.064666748">
<ele>587.046875</ele>
<time>2012-07-23T14:59:17Z</time>
<speed>1.170000</speed>
<extensions>
<speed>1.2</speed>
<temp>0.00</temp>
<bpm>0</bpm>
<rpm>0.00</rpm>
</extensions>
</trkpt>
<trkpt lat="63.990600586" lon="-19.064748764">
<ele>584.671875</ele>
<time>2012-07-23T14:59:22Z</time>
<speed>1.430000</speed>
<extensions>
<speed>1.4</speed>
<temp>0.00</temp>
<bpm>0</bpm>
<rpm>0.00</rpm>
</extensions>
</trkpt>
<trkpt lat="63.990619659" lon="-19.064817429">
<ele>584.078125</ele>
<time>2012-07-23T14:59:27Z</time>
<speed>0.930000</speed>
<extensions>
<speed>0.9</speed>
<temp>0.00</temp>
<bpm>0</bpm>
<rpm>0.00</rpm>
</extensions>
</trkpt>
<trkpt lat="63.990627289" lon="-19.064872742">
<ele>584.312500</ele>
<time>2012-07-23T14:59:32Z</time>
<speed>0.770000</speed>
<extensions>
<speed>0.8</speed>
<temp>0.00</temp>
<bpm>0</bpm>
<rpm>0.00</rpm>
</extensions>
</trkpt>
<trkpt lat="63.990631104" lon="-19.064861298">
<ele>583.734375</ele>
<time>2012-07-23T14:59:37Z</time>
<speed>0.600000</speed>
<extensions>
<speed>0.6</speed>
<temp>0.00</temp>
<bpm>0</bpm>
<rpm>0.00</rpm>
</extensions>
</trkpt>
<trkpt lat="63.990646362" lon="-19.064907074">
<ele>587.828125</ele>
<time>2012-07-23T14:59:42Z</time>
<speed>0.730000</speed>
<extensions>
<speed>0.7</speed>
<temp>0.00</temp>
<bpm>0</bpm>
<rpm>0.00</rpm>
</extensions>
</trkpt>
<trkpt lat="63.990680695" lon="-19.064914703">
<ele>592.984375</ele>
<time>2012-07-23T14:59:47Z</time>
<speed>0.640000</speed>
<extensions>
<speed>0.6</speed>
<temp>0.00</temp>
<bpm>0</bpm>
<rpm>0.00</rpm>
</extensions>
</trkpt>
<trkpt lat="63.990692139" lon="-19.064916611">
<ele>594.921875</ele>
<time>2012-07-23T14:59:52Z</time>
<speed>0.620000</speed>
<extensions>
<speed>0.6</speed>
<temp>0.00</temp>
<bpm>0</bpm>
<rpm>0.00</rpm>
</extensions>
</trkpt>
<trkpt lat="63.990703583" lon="-19.064916611">
<ele>596.000000</ele>
<time>2012-07-23T14:59:57Z</time>
<speed>0.770000</speed>
<extensions>
<speed>0.8</speed>
<temp>0.00</temp>
<bpm>0</bpm>
<rpm>0.00</rpm>
</extensions>
</trkpt>
<trkpt lat="63.990722656" lon="-19.064922333">
<ele>596.015625</ele>
<time>2012-07-23T15:00:02Z</time>
<speed>1.300000</speed>
<extensions>
<speed>1.3</speed>
<temp>0.00</temp>
<bpm>0</bpm>
<rpm>0.00</rpm>
</extensions>
</trkpt>
<trkpt lat="63.990756989" lon="-19.064966202">
<ele>598.687500</ele>
<time>2012-07-23T15:00:07Z</time>
<speed>1.010000</speed>
<extensions>
<speed>1.0</speed>
<temp>0.00</temp>
<bpm>0</bpm>
<rpm>0.00</rpm>
</extensions>
</trkpt>
<trkpt lat="63.990798950" lon="-19.065019608">
<ele>600.531250</ele>
<time>2012-07-23T15:00:12Z</time>
<speed>0.990000</speed>
<extensions>
<speed>1.0</speed>
<temp>0.00</temp>
<bpm>0</bpm>
<rpm>0.00</rpm>
</extensions>
</trkpt>
<trkpt lat="63.990821838" lon="-19.065073013">
<ele>601.359375</ele>
<time>2012-07-23T15:00:17Z</time>
<speed>0.690000</speed>
<extensions>
<speed>0.7</speed>
<temp>0.00</temp>
<bpm>0</bpm>
<rpm>0.00</rpm>
</extensions>
</trkpt>
<trkpt lat="63.990863800" lon="-19.065122604">
<ele>602.109375</ele>
<time>2012-07-23T15:00:22Z</time>
<speed>1.290000</speed>
<extensions>
<speed>1.3</speed>
<temp>0.00</temp>
<bpm>0</bpm>
<rpm>0.00</rpm>
</extensions>
</trkpt>
<trkpt lat="63.990917206" lon="-19.065109253">
<ele>599.734375</ele>
<time>2012-07-23T15:00:27Z</time>
<speed>1.760000</speed>
<extensions>
<speed>1.8</speed>
<temp>0.00</temp>
<bpm>0</bpm>
<rpm>0.00</rpm>
</extensions>
</trkpt>
<trkpt lat="63.990978241" lon="-19.065116882">
<ele>597.515625</ele>
<time>2012-07-23T15:00:32Z</time>
<speed>1.340000</speed>
<extensions>
<speed>1.3</speed>
<temp>0.00</temp>
<bpm>0</bpm>
<rpm>0.00</rpm>
</extensions>
</trkpt>
<trkpt lat="63.991016388" lon="-19.065128326">
<ele>598.031250</ele>
<time>2012-07-23T15:00:37Z</time>
<speed>0.480000</speed>
<extensions>
<speed>0.5</speed>
<temp>0.00</temp>
<bpm>0</bpm>
<rpm>0.00</rpm>
</extensions>
</trkpt>
<trkpt lat="63.991031647" lon="-19.065137863">
<ele>599.468750</ele>
<time>2012-07-23T15:00:42Z</time>
<speed>0.030000</speed>
<extensions>
<speed>0.0</speed>
<temp>0.00</temp>
<bpm>0</bpm>
<rpm>0.00</rpm>
</extensions>
</trkpt>
<trkpt lat="63.991039276" lon="-19.065139771">
<ele>599.500000</ele>
<time>2012-07-23T15:00:47Z</time>
<extensions>
<speed>0.0</speed>
<temp>0.00</temp>
<bpm>0</bpm>
<rpm>0.00</rpm>
</extensions>
</trkpt>
<trkpt lat="63.991039276" lon="-19.065139771">
<ele>599.406250</ele>
<time>2012-07-23T15:00:52Z</time>
<extensions>
<speed>0.0</speed>
<temp>0.00</temp>
<bpm>0</bpm>
<rpm>0.00</rpm>
</extensions>
</trkpt>
<trkpt lat="63.991039276" lon="-19.065139771">
<ele>599.453125</ele>
<time>2012-07-23T15:00:57Z</time>
<extensions>
<speed>0.0</speed>
<temp>0.00</temp>
<bpm>0</bpm>
<rpm>0.00</rpm>
</extensions>
</trkpt>
<trkpt lat="63.991039276" lon="-19.065137863">
<ele>599.500000</ele>
<time>2012-07-23T15:01:02Z</time>
<extensions>
<speed>0.0</speed>
<temp>0.00</temp>
<bpm>0</bpm>
<rpm>0.00</rpm>
</extensions>
</trkpt>
<trkpt lat="63.991039276" lon="-19.065137863">
<ele>599.562500</ele>
<time>2012-07-23T15:01:07Z</time>
<extensions>
<speed>0.0</speed>
<temp>0.00</temp>
<bpm>0</bpm>
<rpm>0.00</rpm>
</extensions>
</trkpt>
<trkpt lat="63.991039276" lon="-19.065137863">
<ele>599.609375</ele>
<time>2012-07-23T15:01:12Z</time>
<speed>0.010000</speed>
<extensions>
<speed>0.0</speed>
<temp>0.00</temp>
<bpm>0</bpm>
<rpm>0.00</rpm>
</extensions>
</trkpt>
<trkpt lat="63.991039276" lon="-19.065135956">
<ele>599.640625</ele>
<time>2012-07-23T15:01:17Z</time>
<speed>0.020000</speed>
<extensions>
<speed>0.0</speed>
<temp>0.00</temp>
<bpm>0</bpm>
<rpm>0.00</rpm>
</extensions>
</trkpt>
<trkpt lat="63.991039276" lon="-19.065135956">
<ele>599.656250</ele>
<time>2012-07-23T15:01:22Z</time>
<extensions>
<speed>0.0</speed>
<temp>0.00</temp>
<bpm>0</bpm>
<rpm>0.00</rpm>
</extensions>
</trkpt>
<trkpt lat="63.991024017" lon="-19.065156937">
<ele>599.625000</ele>
<time>2012-07-23T15:01:27Z</time>
<speed>1.090000</speed>
<extensions>
<speed>1.1</speed>
<temp>0.00</temp>
<bpm>0</bpm>
<rpm>0.00</rpm>
</extensions>
</trkpt>
<trkpt lat="63.990997314" lon="-19.065196991">
<ele>602.187500</ele>
<time>2012-07-23T15:01:32Z</time>
<speed>0.770000</speed>
<extensions>
<speed>0.8</speed>
<temp>0.00</temp>
<bpm>0</bpm>
<rpm>0.00</rpm>
</extensions>
</trkpt>
<trkpt lat="63.990959167" lon="-19.065246582">
<ele>604.328125</ele>
<time>2012-07-23T15:01:37Z</time>
<speed>0.860000</speed>
<extensions>
<speed>0.9</speed>
<temp>0.00</temp>
<bpm>0</bpm>
<rpm>0.00</rpm>
</extensions>
</trkpt>
<trkpt lat="63.990932465" lon="-19.065273285">
<ele>607.359375</ele>
<time>2012-07-23T15:01:42Z</time>
<speed>1.040000</speed>
<extensions>
<speed>1.0</speed>
<temp>0.00</temp>
<bpm>0</bpm>
<rpm>0.00</rpm>
</extensions>
</trkpt>
<trkpt lat="63.990886688" lon="-19.065305710">
<ele>609.171875</ele>
<time>2012-07-23T15:01:47Z</time>
<speed>1.310000</speed>
<extensions>
<speed>1.3</speed>
<temp>0.00</temp>
<bpm>0</bpm>
<rpm>0.00</rpm>
</extensions>
</trkpt>
<trkpt lat="63.990833282" lon="-19.065294266">
<ele>611.312500</ele>
<time>2012-07-23T15:01:52Z</time>
<speed>0.990000</speed>
<extensions>
<speed>1.0</speed>
<temp>0.00</temp>
<bpm>0</bpm>
<rpm>0.00</rpm>
</extensions>
</trkpt>
<trkpt lat="63.990791321" lon="-19.065288544">
<ele>612.578125</ele>
<time>2012-07-23T15:01:57Z</time>
<speed>1.290000</speed>
<extensions>
<speed>1.3</speed>
<temp>0.00</temp>
<bpm>0</bpm>
<rpm>0.00</rpm>
</extensions>
</trkpt>
<trkpt lat="63.990734100" lon="-19.065290451">
<ele>612.265625</ele>
<time>2012-07-23T15:02:02Z</time>
<speed>1.500000</speed>
<extensions>
<speed>1.5</speed>
<temp>0.00</temp>
<bpm>0</bpm>
<rpm>0.00</rpm>
</extensions>
</trkpt>
<trkpt lat="63.990676880" lon="-19.065351486">
<ele>613.171875</ele>
<time>2012-07-23T15:02:07Z</time>
<speed>1.260000</speed>
<extensions>
<speed>1.3</speed>
<temp>0.00</temp>
<bpm>0</bpm>
<rpm>0.00</rpm>
</extensions>
</trkpt>
<trkpt lat="63.990631104" lon="-19.065422058">
<ele>614.937500</ele>
<time>2012-07-23T15:02:12Z</time>
<speed>1.120000</speed>
<extensions>
<speed>1.1</speed>
<temp>0.00</temp>
<bpm>0</bpm>
<rpm>0.00</rpm>
</extensions>
</trkpt>
<trkpt lat="63.990589142" lon="-19.065492630">
<ele>616.750000</ele>
<time>2012-07-23T15:02:17Z</time>
<speed>1.040000</speed>
<extensions>
<speed>1.0</speed>
<temp>0.00</temp>
<bpm>0</bpm>
<rpm>0.00</rpm>
</extensions>
</trkpt>
<trkpt lat="63.990573883" lon="-19.065580368">
<ele>618.484375</ele>
<time>2012-07-23T15:02:22Z</time>
<speed>0.950000</speed>
<extensions>
<speed>1.0</speed>
<temp>0.00</temp>
<bpm>0</bpm>
<rpm>0.00</rpm>
</extensions>
</trkpt>
<trkpt lat="63.990573883" lon="-19.065656662">
<ele>619.812500</ele>
<time>2012-07-23T15:02:27Z</time>
<speed>0.880000</speed>
<extensions>
<speed>0.9</speed>
<temp>0.00</temp>
<bpm>0</bpm>
<rpm>0.00</rpm>
</extensions>
</trkpt>
<trkpt lat="63.990577698" lon="-19.065689087">
<ele>620.312500</ele>
<time>2012-07-23T15:02:32Z</time>
<speed>0.060000</speed>
<extensions>
<speed>0.1</speed>
<temp>0.00</temp>
<bpm>0</bpm>
<rpm>0.00</rpm>
</extensions>
</trkpt>
<trkpt lat="63.990577698" lon="-19.065675735">
<ele>621.031250</ele>
<time>2012-07-23T15:02:37Z</time>
<speed>0.130000</speed>
<extensions>
<speed>0.1</speed>
<temp>0.00</temp>
<bpm>0</bpm>
<rpm>0.00</rpm>
</extensions>
</trkpt>
<trkpt lat="63.990589142" lon="-19.065752029">
<ele>621.250000</ele>
<time>2012-07-23T15:02:42Z</time>
<speed>1.350000</speed>
<extensions>
<speed>1.4</speed>
<temp>0.00</temp>
<bpm>0</bpm>
<rpm>0.00</rpm>
</extensions>
</trkpt>
<trkpt lat="63.990608215" lon="-19.065891266">
<ele>621.500000</ele>
<time>2012-07-23T15:02:47Z</time>
<speed>1.390000</speed>
<extensions>
<speed>1.4</speed>
<temp>0.00</temp>
<bpm>0</bpm>
<rpm>0.00</rpm>
</extensions>
</trkpt>
<trkpt lat="63.990634918" lon="-19.066001892">
<ele>621.437500</ele>
<time>2012-07-23T15:02:52Z</time>
<speed>1.550000</speed>
<extensions>
<speed>1.5</speed>
<temp>0.00</temp>
<bpm>0</bpm>
<rpm>0.00</rpm>
</extensions>
</trkpt>
<trkpt lat="63.990638733" lon="-19.066137314">
<ele>620.906250</ele>
<time>2012-07-23T15:02:57Z</time>
<speed>1.420000</speed>
<extensions>
<speed>1.4</speed>
<temp>0.00</temp>
<bpm>0</bpm>
<rpm>0.00</rpm>
</extensions>
</trkpt>
<trkpt lat="63.990646362" lon="-19.066282272">
<ele>620.812500</ele>
<time>2012-07-23T15:03:02Z</time>
<speed>1.210000</speed>
<extensions>
<speed>1.2</speed>
<temp>0.00</temp>
<bpm>0</bpm>
<rpm>0.00</rpm>
</extensions>
</trkpt>
<trkpt lat="63.990650177" lon="-19.066411972">
<ele>620.812500</ele>
<time>2012-07-23T15:03:07Z</time>
<speed>1.280000</speed>
<extensions>
<speed>1.3</speed>
<temp>0.00</temp>
<bpm>0</bpm>
<rpm>0.00</rpm>
</extensions>
</trkpt>
<trkpt lat="63.990646362" lon="-19.066562653">
<ele>620.812500</ele>
<time>2012-07-23T15:03:12Z</time>
<speed>1.500000</speed>
<extensions>
<speed>1.5</speed>
<temp>0.00</temp>
<bpm>0</bpm>
<rpm>0.00</rpm>
</extensions>
</trkpt>
<trkpt lat="63.990642548" lon="-19.066711426">
<ele>619.703125</ele>
<time>2012-07-23T15:03:17Z</time>
<speed>1.510000</speed>
<extensions>
<speed>1.5</speed>
<temp>0.00</temp>
<bpm>0</bpm>
<rpm>0.00</rpm>
</extensions>
</trkpt>
<trkpt lat="63.990627289" lon="-19.066864014">
<ele>619.546875</ele>
<time>2012-07-23T15:03:22Z</time>
<speed>1.370000</speed>
<extensions>
<speed>1.4</speed>
<temp>0.00</temp>
<bpm>0</bpm>
<rpm>0.00</rpm>
</extensions>
</trkpt>
<trkpt lat="63.990623474" lon="-19.066986084">
<ele>619.265625</ele>
<time>2012-07-23T15:03:27Z</time>
<speed>1.340000</speed>
<extensions>
<speed>1.3</speed>
<temp>0.00</temp>
<bpm>0</bpm>
<rpm>0.00</rpm>
</extensions>
</trkpt>
<trkpt lat="63.990627289" lon="-19.067136765">
<ele>617.953125</ele>
<time>2012-07-23T15:03:32Z</time>
<speed>1.540000</speed>
<extensions>
<speed>1.5</speed>
<temp>0.00</temp>
<bpm>0</bpm>
<rpm>0.00</rpm>
</extensions>
</trkpt>
<trkpt lat="63.990642548" lon="-19.067251205">
<ele>616.812500</ele>
<time>2012-07-23T15:03:37Z</time>
<speed>1.400000</speed>
<extensions>
<speed>1.4</speed>
<temp>0.00</temp>
<bpm>0</bpm>
<rpm>0.00</rpm>
</extensions>
</trkpt>
<trkpt lat="63.990673065" lon="-19.067371368">
<ele>616.140625</ele>
<time>2012-07-23T15:03:42Z</time>
<speed>1.660000</speed>
<extensions>
<speed>1.7</speed>
<temp>0.00</temp>
<bpm>0</bpm>
<rpm>0.00</rpm>
</extensions>
</trkpt>
<trkpt lat="63.990688324" lon="-19.067432404">
<ele>615.906250</ele>
<time>2012-07-23T15:03:47Z</time>
<speed>0.020000</speed>
<extensions>
<speed>0.0</speed>
<temp>0.00</temp>
<bpm>0</bpm>
<rpm>0.00</rpm>
</extensions>
</trkpt>
<trkpt lat="63.990703583" lon="-19.067470551">
<ele>616.531250</ele>
<time>2012-07-23T15:03:52Z</time>
<speed>1.150000</speed>
<extensions>
<speed>1.1</speed>
<temp>0.00</temp>
<bpm>0</bpm>
<rpm>0.00</rpm>
</extensions>
</trkpt>
<trkpt lat="63.990730286" lon="-19.067552567">
<ele>617.093750</ele>
<time>2012-07-23T15:03:57Z</time>
<speed>0.130000</speed>
<extensions>
<speed>0.1</speed>
<temp>0.00</temp>
<bpm>0</bpm>
<rpm>0.00</rpm>
</extensions>
</trkpt>
<trkpt lat="63.990715027" lon="-19.067502975">
<ele>617.812500</ele>
<time>2012-07-23T15:04:02Z</time>
<speed>0.280000</speed>
<extensions>
<speed>0.3</speed>
<temp>0.00</temp>
<bpm>0</bpm>
<rpm>0.00</rpm>
</extensions>
</trkpt>
<trkpt lat="63.990715027" lon="-19.067508698">
<ele>617.531250</ele>
<time>2012-07-23T15:04:07Z</time>
<speed>0.210000</speed>
<extensions>
<speed>0.2</speed>
<temp>0.00</temp>
<bpm>0</bpm>
<rpm>0.00</rpm>
</extensions>
</trkpt>
<trkpt lat="63.990718842" lon="-19.067543030">
<ele>617.656250</ele>
<time>2012-07-23T15:04:12Z</time>
<speed>0.860000</speed>
<extensions>
<speed>0.9</speed>
<temp>0.00</temp>
<bpm>0</bpm>
<rpm>0.00</rpm>
</extensions>
</trkpt>
<trkpt lat="63.990734100" lon="-19.067657471">
<ele>617.250000</ele>
<time>2012-07-23T15:04:17Z</time>
<speed>1.300000</speed>
<extensions>
<speed>1.3</speed>
<temp>0.00</temp>
<bpm>0</bpm>
<rpm>0.00</rpm>
</extensions>
</trkpt>
<trkpt lat="63.990749359" lon="-19.067771912">
<ele>618.625000</ele>
<time>2012-07-23T15:04:22Z</time>
<speed>1.310000</speed>
<extensions>
<speed>1.3</speed>
<temp>0.00</temp>
<bpm>0</bpm>
<rpm>0.00</rpm>
</extensions>
</trkpt>
<trkpt lat="63.990779877" lon="-19.067857742">
<ele>619.265625</ele>
<time>2012-07-23T15:04:27Z</time>
<speed>1.320000</speed>
<extensions>
<speed>1.3</speed>
<temp>0.00</temp>
<bpm>0</bpm>
<rpm>0.00</rpm>
</extensions>
</trkpt>
<trkpt lat="63.990791321" lon="-19.067991257">
<ele>620.046875</ele>
<time>2012-07-23T15:04:32Z</time>
<speed>1.400000</speed>
<extensions>
<speed>1.4</speed>
<temp>0.00</temp>
<bpm>0</bpm>
<rpm>0.00</rpm>
</extensions>
</trkpt>
<trkpt lat="63.990783691" lon="-19.068115234">
<ele>621.546875</ele>
<time>2012-07-23T15:04:37Z</time>
<speed>1.220000</speed>
<extensions>
<speed>1.2</speed>
<temp>0.00</temp>
<bpm>0</bpm>
<rpm>0.00</rpm>
</extensions>
</trkpt>
<trkpt lat="63.990806580" lon="-19.068212509">
<ele>621.890625</ele>
<time>2012-07-23T15:04:42Z</time>
<speed>1.150000</speed>
<extensions>
<speed>1.1</speed>
<temp>0.00</temp>
<bpm>0</bpm>
<rpm>0.00</rpm>
</extensions>
</trkpt>
<trkpt lat="63.990821838" lon="-19.068323135">
<ele>622.750000</ele>
<time>2012-07-23T15:04:47Z</time>
<speed>1.060000</speed>
<extensions>
<speed>1.1</speed>
<temp>0.00</temp>
<bpm>0</bpm>
<rpm>0.00</rpm>
</extensions>
</trkpt>
<trkpt lat="63.990833282" lon="-19.068407059">
<ele>623.796875</ele>
<time>2012-07-23T15:04:52Z</time>
<speed>1.020000</speed>
<extensions>
<speed>1.0</speed>
<temp>0.00</temp>
<bpm>0</bpm>
<rpm>0.00</rpm>
</extensions>
</trkpt>
<trkpt lat="63.990818024" lon="-19.068510056">
<ele>625.171875</ele>
<time>2012-07-23T15:04:57Z</time>
<speed>1.210000</speed>
<extensions>
<speed>1.2</speed>
<temp>0.00</temp>
<bpm>0</bpm>
<rpm>0.00</rpm>
</extensions>
</trkpt>
<trkpt lat="63.990806580" lon="-19.068588257">
<ele>624.843750</ele>
<time>2012-07-23T15:05:02Z</time>
<speed>1.300000</speed>
<extensions>
<speed>1.3</speed>
<temp>0.00</temp>
<bpm>0</bpm>
<rpm>0.00</rpm>
</extensions>
</trkpt>
<trkpt lat="63.990791321" lon="-19.068729401">
<ele>625.359375</ele>
<time>2012-07-23T15:05:07Z</time>
<speed>1.300000</speed>
<extensions>
<speed>1.3</speed>
<temp>0.00</temp>
<bpm>0</bpm>
<rpm>0.00</rpm>
</extensions>
</trkpt>
<trkpt lat="63.990776062" lon="-19.068847656">
<ele>626.640625</ele>
<time>2012-07-23T15:05:12Z</time>
<speed>1.280000</speed>
<extensions>
<speed>1.3</speed>
<temp>0.00</temp>
<bpm>0</bpm>
<rpm>0.00</rpm>
</extensions>
</trkpt>
<trkpt lat="63.990756989" lon="-19.068964005">
<ele>628.375000</ele>
<time>2012-07-23T15:05:17Z</time>
<speed>1.220000</speed>
<extensions>
<speed>1.2</speed>
<temp>0.00</temp>
<bpm>0</bpm>
<rpm>0.00</rpm>
</extensions>
</trkpt>
<trkpt lat="63.990749359" lon="-19.069095612">
<ele>628.187500</ele>
<time>2012-07-23T15:05:22Z</time>
<speed>1.360000</speed>
<extensions>
<speed>1.4</speed>
<temp>0.00</temp>
<bpm>0</bpm>
<rpm>0.00</rpm>
</extensions>
</trkpt>
<trkpt lat="63.990726471" lon="-19.069221497">
<ele>628.421875</ele>
<time>2012-07-23T15:05:27Z</time>
<speed>1.400000</speed>
<extensions>
<speed>1.4</speed>
<temp>0.00</temp>
<bpm>0</bpm>
<rpm>0.00</rpm>
</extensions>
</trkpt>
<trkpt lat="63.990711212" lon="-19.069353104">
<ele>627.468750</ele>
<time>2012-07-23T15:05:32Z</time>
<speed>1.360000</speed>
<extensions>
<speed>1.4</speed>
<temp>0.00</temp>
<bpm>0</bpm>
<rpm>0.00</rpm>
</extensions>
</trkpt>
<trkpt lat="63.990703583" lon="-19.069478989">
<ele>627.125000</ele>
<time>2012-07-23T15:05:37Z</time>
<speed>1.270000</speed>
<extensions>
<speed>1.3</speed>
<temp>0.00</temp>
<bpm>0</bpm>
<rpm>0.00</rpm>
</extensions>
</trkpt>
<trkpt lat="63.990688324" lon="-19.069620132">
<ele>625.937500</ele>
<time>2012-07-23T15:05:42Z</time>
<speed>1.660000</speed>
<extensions>
<speed>1.7</speed>
<temp>0.00</temp>
<bpm>0</bpm>
<rpm>0.00</rpm>
</extensions>
</trkpt>
<trkpt lat="63.990673065" lon="-19.069738388">
<ele>625.781250</ele>
<time>2012-07-23T15:05:47Z</time>
<speed>1.100000</speed>
<extensions>
<speed>1.1</speed>
<temp>0.00</temp>
<bpm>0</bpm>
<rpm>0.00</rpm>
</extensions>
</trkpt>
<trkpt lat="63.990673065" lon="-19.069845200">
<ele>626.078125</ele>
<time>2012-07-23T15:05:52Z</time>
<speed>1.380000</speed>
<extensions>
<speed>1.4</speed>
<temp>0.00</temp>
<bpm>0</bpm>
<rpm>0.00</rpm>
</extensions>
</trkpt>
<trkpt lat="63.990653992" lon="-19.069965363">
<ele>627.125000</ele>
<time>2012-07-23T15:05:57Z</time>
<speed>1.200000</speed>
<extensions>
<speed>1.2</speed>
<temp>0.00</temp>
<bpm>0</bpm>
<rpm>0.00</rpm>
</extensions>
</trkpt>
<trkpt lat="63.990642548" lon="-19.070079803">
<ele>627.453125</ele>
<time>2012-07-23T15:06:02Z</time>
<speed>1.370000</speed>
<extensions>
<speed>1.4</speed>
<temp>0.00</temp>
<bpm>0</bpm>
<rpm>0.00</rpm>
</extensions>
</trkpt>
<trkpt lat="63.990612030" lon="-19.070203781">
<ele>627.062500</ele>
<time>2012-07-23T15:06:07Z</time>
<speed>1.030000</speed>
<extensions>
<speed>1.0</speed>
<temp>0.00</temp>
<bpm>0</bpm>
<rpm>0.00</rpm>
</extensions>
</trkpt>
<trkpt lat="63.990577698" lon="-19.070327759">
<ele>626.531250</ele>
<time>2012-07-23T15:06:12Z</time>
<speed>1.200000</speed>
<extensions>
<speed>1.2</speed>
<temp>0.00</temp>
<bpm>0</bpm>
<rpm>0.00</rpm>
</extensions>
</trkpt>
<trkpt lat="63.990543365" lon="-19.070425034">
<ele>626.781250</ele>
<time>2012-07-23T15:06:17Z</time>
<speed>1.240000</speed>
<extensions>
<speed>1.2</speed>
<temp>0.00</temp>
<bpm>0</bpm>
<rpm>0.00</rpm>
</extensions>
</trkpt>
<trkpt lat="63.990509033" lon="-19.070512772">
<ele>628.015625</ele>
<time>2012-07-23T15:06:22Z</time>
<speed>1.120000</speed>
<extensions>
<speed>1.1</speed>
<temp>0.00</temp>
<bpm>0</bpm>
<rpm>0.00</rpm>
</extensions>
</trkpt>
<trkpt lat="63.990489960" lon="-19.070611954">
<ele>629.375000</ele>
<time>2012-07-23T15:06:27Z</time>
<speed>1.180000</speed>
<extensions>
<speed>1.2</speed>
<temp>0.00</temp>
<bpm>0</bpm>
<rpm>0.00</rpm>
</extensions>
</trkpt>
<trkpt lat="63.990478516" lon="-19.070709229">
<ele>629.468750</ele>
<time>2012-07-23T15:06:32Z</time>
<speed>1.210000</speed>
<extensions>
<speed>1.2</speed>
<temp>0.00</temp>
<bpm>0</bpm>
<rpm>0.00</rpm>
</extensions>
</trkpt>
<trkpt lat="63.990451813" lon="-19.070838928">
<ele>629.515625</ele>
<time>2012-07-23T15:06:37Z</time>
<speed>1.440000</speed>
<extensions>
<speed>1.4</speed>
<temp>0.00</temp>
<bpm>0</bpm>
<rpm>0.00</rpm>
</extensions>
</trkpt>
<trkpt lat="63.990417480" lon="-19.070968628">
<ele>629.203125</ele>
<time>2012-07-23T15:06:42Z</time>
<speed>1.560000</speed>
<extensions>
<speed>1.6</speed>
<temp>0.00</temp>
<bpm>0</bpm>
<rpm>0.00</rpm>
</extensions>
</trkpt>
<trkpt lat="63.990394592" lon="-19.071119308">
<ele>628.578125</ele>
<time>2012-07-23T15:06:47Z</time>
<speed>1.570000</speed>
<extensions>
<speed>1.6</speed>
<temp>0.00</temp>
<bpm>0</bpm>
<rpm>0.00</rpm>
</extensions>
</trkpt>
<trkpt lat="63.990383148" lon="-19.071235657">
<ele>629.453125</ele>
<time>2012-07-23T15:06:52Z</time>
<speed>1.440000</speed>
<extensions>
<speed>1.4</speed>
<temp>0.00</temp>
<bpm>0</bpm>
<rpm>0.00</rpm>
</extensions>
</trkpt>
<trkpt lat="63.990364075" lon="-19.071334839">
<ele>629.500000</ele>
<time>2012-07-23T15:06:57Z</time>
<speed>0.920000</speed>
<extensions>
<speed>0.9</speed>
<temp>0.00</temp>
<bpm>0</bpm>
<rpm>0.00</rpm>
</extensions>
</trkpt>
<trkpt lat="63.990345001" lon="-19.071321487">
<ele>629.468750</ele>
<time>2012-07-23T15:07:02Z</time>
<speed>0.220000</speed>
<extensions>
<speed>0.2</speed>
<temp>0.00</temp>
<bpm>0</bpm>
<rpm>0.00</rpm>
</extensions>
</trkpt>
<trkpt lat="63.990348816" lon="-19.071340561">
<ele>629.250000</ele>
<time>2012-07-23T15:07:07Z</time>
<speed>0.880000</speed>
<extensions>
<speed>0.9</speed>
<temp>0.00</temp>
<bpm>0</bpm>
<rpm>0.00</rpm>
</extensions>
</trkpt>
<trkpt lat="63.990367889" lon="-19.071456909">
<ele>628.203125</ele>
<time>2012-07-23T15:07:12Z</time>
<speed>1.420000</speed>
<extensions>
<speed>1.4</speed>
<temp>0.00</temp>
<bpm>0</bpm>
<rpm>0.00</rpm>
</extensions>
</trkpt>
<trkpt lat="63.990383148" lon="-19.071611404">
<ele>627.906250</ele>
<time>2012-07-23T15:07:17Z</time>
<speed>1.530000</speed>
<extensions>
<speed>1.5</speed>
<temp>0.00</temp>
<bpm>0</bpm>
<rpm>0.00</rpm>
</extensions>
</trkpt>
<trkpt lat="63.990402222" lon="-19.071758270">
<ele>627.625000</ele>
<time>2012-07-23T15:07:22Z</time>
<speed>1.500000</speed>
<extensions>
<speed>1.5</speed>
<temp>0.00</temp>
<bpm>0</bpm>
<rpm>0.00</rpm>
</extensions>
</trkpt>
<trkpt lat="63.990417480" lon="-19.071886063">
<ele>628.750000</ele>
<time>2012-07-23T15:07:27Z</time>
<speed>1.410000</speed>
<extensions>
<speed>1.4</speed>
<temp>0.00</temp>
<bpm>0</bpm>
<rpm>0.00</rpm>
</extensions>
</trkpt>
<trkpt lat="63.990428925" lon="-19.072017670">
<ele>629.781250</ele>
<time>2012-07-23T15:07:32Z</time>
<speed>1.210000</speed>
<extensions>
<speed>1.2</speed>
<temp>0.00</temp>
<bpm>0</bpm>
<rpm>0.00</rpm>
</extensions>
</trkpt>
<trkpt lat="63.990432739" lon="-19.072168350">
<ele>630.156250</ele>
<time>2012-07-23T15:07:37Z</time>
<speed>1.370000</speed>
<extensions>
<speed>1.4</speed>
<temp>0.00</temp>
<bpm>0</bpm>
<rpm>0.00</rpm>
</extensions>
</trkpt>
<trkpt lat="63.990417480" lon="-19.072317123">
<ele>631.750000</ele>
<time>2012-07-23T15:07:42Z</time>
<speed>1.370000</speed>
<extensions>
<speed>1.4</speed>
<temp>0.00</temp>
<bpm>0</bpm>
<rpm>0.00</rpm>
</extensions>
</trkpt>
<trkpt lat="63.990394592" lon="-19.072452545">
<ele>632.421875</ele>
<time>2012-07-23T15:07:47Z</time>
<speed>1.230000</speed>
<extensions>
<speed>1.2</speed>
<temp>0.00</temp>
<bpm>0</bpm>
<rpm>0.00</rpm>
</extensions>
</trkpt>
<trkpt lat="63.990406036" lon="-19.072546005">
<ele>633.156250</ele>
<time>2012-07-23T15:07:52Z</time>
<speed>1.340000</speed>
<extensions>
<speed>1.3</speed>
<temp>0.00</temp>
<bpm>0</bpm>
<rpm>0.00</rpm>
</extensions>
</trkpt>
<trkpt lat="63.990428925" lon="-19.072656631">
<ele>632.234375</ele>
<time>2012-07-23T15:07:57Z</time>
<speed>1.320000</speed>
<extensions>
<speed>1.3</speed>
<temp>0.00</temp>
<bpm>0</bpm>
<rpm>0.00</rpm>
</extensions>
</trkpt>
<trkpt lat="63.990459442" lon="-19.072771072">
<ele>632.125000</ele>
<time>2012-07-23T15:08:02Z</time>
<speed>1.550000</speed>
<extensions>
<speed>1.5</speed>
<temp>0.00</temp>
<bpm>0</bpm>
<rpm>0.00</rpm>
</extensions>
</trkpt>
<trkpt lat="63.990486145" lon="-19.072906494">
<ele>631.890625</ele>
<time>2012-07-23T15:08:07Z</time>
<speed>1.430000</speed>
<extensions>
<speed>1.4</speed>
<temp>0.00</temp>
<bpm>0</bpm>
<rpm>0.00</rpm>
</extensions>
</trkpt>
<trkpt lat="63.990516663" lon="-19.073005676">
<ele>631.593750</ele>
<time>2012-07-23T15:08:12Z</time>
<speed>1.340000</speed>
<extensions>
<speed>1.3</speed>
<temp>0.00</temp>
<bpm>0</bpm>
<rpm>0.00</rpm>
</extensions>
</trkpt>
<trkpt lat="63.990550995" lon="-19.073110580">
<ele>631.703125</ele>
<time>2012-07-23T15:08:17Z</time>
<speed>1.150000</speed>
<extensions>
<speed>1.1</speed>
<temp>0.00</temp>
<bpm>0</bpm>
<rpm>0.00</rpm>
</extensions>
</trkpt>
<trkpt lat="63.990581512" lon="-19.073190689">
<ele>632.781250</ele>
<time>2012-07-23T15:08:22Z</time>
<speed>1.250000</speed>
<extensions>
<speed>1.3</speed>
<temp>0.00</temp>
<bpm>0</bpm>
<rpm>0.00</rpm>
</extensions>
</trkpt>
<trkpt lat="63.990623474" lon="-19.073270798">
<ele>633.968750</ele>
<time>2012-07-23T15:08:27Z</time>
<speed>0.990000</speed>
<extensions>
<speed>1.0</speed>
<temp>0.00</temp>
<bpm>0</bpm>
<rpm>0.00</rpm>
</extensions>
</trkpt>
<trkpt lat="63.990661621" lon="-19.073337555">
<ele>634.062500</ele>
<time>2012-07-23T15:08:32Z</time>
<speed>0.750000</speed>
<extensions>
<speed>0.8</speed>
<temp>0.00</temp>
<bpm>0</bpm>
<rpm>0.00</rpm>
</extensions>
</trkpt>
<trkpt lat="63.990680695" lon="-19.073410034">
<ele>633.484375</ele>
<time>2012-07-23T15:08:37Z</time>
<speed>1.220000</speed>
<extensions>
<speed>1.2</speed>
<temp>0.00</temp>
<bpm>0</bpm>
<rpm>0.00</rpm>
</extensions>
</trkpt>
<trkpt lat="63.990715027" lon="-19.073505402">
<ele>632.281250</ele>
<time>2012-07-23T15:08:42Z</time>
<speed>1.530000</speed>
<extensions>
<speed>1.5</speed>
<temp>0.00</temp>
<bpm>0</bpm>
<rpm>0.00</rpm>
</extensions>
</trkpt>
<trkpt lat="63.990749359" lon="-19.073619843">
<ele>631.640625</ele>
<time>2012-07-23T15:08:47Z</time>
<speed>1.280000</speed>
<extensions>
<speed>1.3</speed>
<temp>0.00</temp>
<bpm>0</bpm>
<rpm>0.00</rpm>
</extensions>
</trkpt>
<trkpt lat="63.990779877" lon="-19.073690414">
<ele>631.843750</ele>
<time>2012-07-23T15:08:52Z</time>
<speed>0.760000</speed>
<extensions>
<speed>0.8</speed>
<temp>0.00</temp>
<bpm>0</bpm>
<rpm>0.00</rpm>
</extensions>
</trkpt>
<trkpt lat="63.990818024" lon="-19.073740005">
<ele>630.937500</ele>
<time>2012-07-23T15:08:57Z</time>
<speed>0.940000</speed>
<extensions>
<speed>0.9</speed>
<temp>0.00</temp>
<bpm>0</bpm>
<rpm>0.00</rpm>
</extensions>
</trkpt>
<trkpt lat="63.990867615" lon="-19.073741913">
<ele>630.343750</ele>
<time>2012-07-23T15:09:02Z</time>
<speed>1.300000</speed>
<extensions>
<speed>1.3</speed>
<temp>0.00</temp>
<bpm>0</bpm>
<rpm>0.00</rpm>
</extensions>
</trkpt>
<trkpt lat="63.990890503" lon="-19.073867798">
<ele>632.218750</ele>
<time>2012-07-23T15:09:07Z</time>
<speed>1.180000</speed>
<extensions>
<speed>1.2</speed>
<temp>0.00</temp>
<bpm>0</bpm>
<rpm>0.00</rpm>
</extensions>
</trkpt>
<trkpt lat="63.990905762" lon="-19.073976517">
<ele>632.890625</ele>
<time>2012-07-23T15:09:12Z</time>
<speed>1.230000</speed>
<extensions>
<speed>1.2</speed>
<temp>0.00</temp>
<bpm>0</bpm>
<rpm>0.00</rpm>
</extensions>
</trkpt>
<trkpt lat="63.990928650" lon="-19.074100494">
<ele>633.390625</ele>
<time>2012-07-23T15:09:17Z</time>
<speed>1.220000</speed>
<extensions>
<speed>1.2</speed>
<temp>0.00</temp>
<bpm>0</bpm>
<rpm>0.00</rpm>
</extensions>
</trkpt>
<trkpt lat="63.990936279" lon="-19.074239731">
<ele>634.609375</ele>
<time>2012-07-23T15:09:22Z</time>
<speed>1.190000</speed>
<extensions>
<speed>1.2</speed>
<temp>0.00</temp>
<bpm>0</bpm>
<rpm>0.00</rpm>
</extensions>
</trkpt>
<trkpt lat="63.990932465" lon="-19.074356079">
<ele>634.171875</ele>
<time>2012-07-23T15:09:27Z</time>
<speed>0.830000</speed>
<extensions>
<speed>0.8</speed>
<temp>0.00</temp>
<bpm>0</bpm>
<rpm>0.00</rpm>
</extensions>
</trkpt>
<trkpt lat="63.990917206" lon="-19.074464798">
<ele>633.406250</ele>
<time>2012-07-23T15:09:32Z</time>
<speed>1.450000</speed>
<extensions>
<speed>1.4</speed>
<temp>0.00</temp>
<bpm>0</bpm>
<rpm>0.00</rpm>
</extensions>
</trkpt>
<trkpt lat="63.990875244" lon="-19.074550629">
<ele>633.203125</ele>
<time>2012-07-23T15:09:37Z</time>
<speed>0.920000</speed>
<extensions>
<speed>0.9</speed>
<temp>0.00</temp>
<bpm>0</bpm>
<rpm>0.00</rpm>
</extensions>
</trkpt>
<trkpt lat="63.990859985" lon="-19.074579239">
<ele>633.218750</ele>
<time>2012-07-23T15:09:42Z</time>
<speed>0.680000</speed>
<extensions>
<speed>0.7</speed>
<temp>0.00</temp>
<bpm>0</bpm>
<rpm>0.00</rpm>
</extensions>
</trkpt>
<trkpt lat="63.990821838" lon="-19.074586868">
<ele>633.609375</ele>
<time>2012-07-23T15:09:47Z</time>
<speed>0.270000</speed>
<extensions>
<speed>0.3</speed>
<temp>0.00</temp>
<bpm>0</bpm>
<rpm>0.00</rpm>
</extensions>
</trkpt>
<trkpt lat="63.990818024" lon="-19.074621201">
<ele>633.062500</ele>
<time>2012-07-23T15:09:52Z</time>
<speed>0.610000</speed>
<extensions>
<speed>0.6</speed>
<temp>0.00</temp>
<bpm>0</bpm>
<rpm>0.00</rpm>
</extensions>
</trkpt>
<trkpt lat="63.990814209" lon="-19.074623108">
<ele>633.578125</ele>
<time>2012-07-23T15:09:57Z</time>
<speed>0.010000</speed>
<extensions>
<speed>0.0</speed>
<temp>0.00</temp>
<bpm>0</bpm>
<rpm>0.00</rpm>
</extensions>
</trkpt>
<trkpt lat="63.990814209" lon="-19.074623108">
<ele>633.515625</ele>
<time>2012-07-23T15:10:02Z</time>
<speed>0.010000</speed>
<extensions>
<speed>0.0</speed>
<temp>0.00</temp>
<bpm>0</bpm>
<rpm>0.00</rpm>
</extensions>
</trkpt>
<trkpt lat="63.990814209" lon="-19.074623108">
<ele>633.468750</ele>
<time>2012-07-23T15:10:07Z</time>
<extensions>
<speed>0.0</speed>
<temp>0.00</temp>
<bpm>0</bpm>
<rpm>0.00</rpm>
</extensions>
</trkpt>
<trkpt lat="63.990814209" lon="-19.074621201">
<ele>633.468750</ele>
<time>2012-07-23T15:10:12Z</time>
<extensions>
<speed>0.0</speed>
<temp>0.00</temp>
<bpm>0</bpm>
<rpm>0.00</rpm>
</extensions>
</trkpt>
<trkpt lat="63.990814209" lon="-19.074621201">
<ele>633.468750</ele>
<time>2012-07-23T15:10:17Z</time>
<speed>0.050000</speed>
<extensions>
<speed>0.1</speed>
<temp>0.00</temp>
<bpm>0</bpm>
<rpm>0.00</rpm>
</extensions>
</trkpt>
<trkpt lat="63.990810394" lon="-19.074657440">
<ele>633.078125</ele>
<time>2012-07-23T15:10:22Z</time>
<speed>0.660000</speed>
<extensions>
<speed>0.7</speed>
<temp>0.00</temp>
<bpm>0</bpm>
<rpm>0.00</rpm>
</extensions>
</trkpt>
<trkpt lat="63.990779877" lon="-19.074775696">
<ele>632.468750</ele>
<time>2012-07-23T15:10:27Z</time>
<speed>1.750000</speed>
<extensions>
<speed>1.8</speed>
<temp>0.00</temp>
<bpm>0</bpm>
<rpm>0.00</rpm>
</extensions>
</trkpt>
<trkpt lat="63.990741730" lon="-19.074882507">
<ele>633.593750</ele>
<time>2012-07-23T15:10:32Z</time>
<speed>1.300000</speed>
<extensions>
<speed>1.3</speed>
<temp>0.00</temp>
<bpm>0</bpm>
<rpm>0.00</rpm>
</extensions>
</trkpt>
<trkpt lat="63.990695953" lon="-19.074964523">
<ele>632.906250</ele>
<time>2012-07-23T15:10:37Z</time>
<speed>1.330000</speed>
<extensions>
<speed>1.3</speed>
<temp>0.00</temp>
<bpm>0</bpm>
<rpm>0.00</rpm>
</extensions>
</trkpt>
<trkpt lat="63.990669250" lon="-19.075069427">
<ele>632.375000</ele>
<time>2012-07-23T15:10:42Z</time>
<speed>1.670000</speed>
<extensions>
<speed>1.7</speed>
<temp>0.00</temp>
<bpm>0</bpm>
<rpm>0.00</rpm>
</extensions>
</trkpt>
<trkpt lat="63.990638733" lon="-19.075206757">
<ele>632.343750</ele>
<time>2012-07-23T15:10:47Z</time>
<speed>1.070000</speed>
<extensions>
<speed>1.1</speed>
<temp>0.00</temp>
<bpm>0</bpm>
<rpm>0.00</rpm>
</extensions>
</trkpt>
<trkpt lat="63.990627289" lon="-19.075326920">
<ele>632.500000</ele>
<time>2012-07-23T15:10:52Z</time>
<speed>1.470000</speed>
<extensions>
<speed>1.5</speed>
<temp>0.00</temp>
<bpm>0</bpm>
<rpm>0.00</rpm>
</extensions>
</trkpt>
<trkpt lat="63.990631104" lon="-19.075469971">
<ele>633.406250</ele>
<time>2012-07-23T15:10:57Z</time>
<speed>1.240000</speed>
<extensions>
<speed>1.2</speed>
<temp>0.00</temp>
<bpm>0</bpm>
<rpm>0.00</rpm>
</extensions>
</trkpt>
<trkpt lat="63.990642548" lon="-19.075588226">
<ele>635.375000</ele>
<time>2012-07-23T15:11:02Z</time>
<speed>1.050000</speed>
<extensions>
<speed>1.0</speed>
<temp>0.00</temp>
<bpm>0</bpm>
<rpm>0.00</rpm>
</extensions>
</trkpt>
<trkpt lat="63.990615845" lon="-19.075719833">
<ele>637.000000</ele>
<time>2012-07-23T15:11:07Z</time>
<speed>1.380000</speed>
<extensions>
<speed>1.4</speed>
<temp>0.00</temp>
<bpm>0</bpm>
<rpm>0.00</rpm>
</extensions>
</trkpt>
<trkpt lat="63.990581512" lon="-19.075887680">
<ele>635.953125</ele>
<time>2012-07-23T15:11:12Z</time>
<speed>1.160000</speed>
<extensions>
<speed>1.2</speed>
<temp>0.00</temp>
<bpm>0</bpm>
<rpm>0.00</rpm>
</extensions>
</trkpt>
<trkpt lat="63.990566254" lon="-19.075973511">
<ele>634.203125</ele>
<time>2012-07-23T15:11:17Z</time>
<speed>1.480000</speed>
<extensions>
<speed>1.5</speed>
<temp>0.00</temp>
<bpm>0</bpm>
<rpm>0.00</rpm>
</extensions>
</trkpt>
<trkpt lat="63.990562439" lon="-19.076070786">
<ele>632.890625</ele>
<time>2012-07-23T15:11:22Z</time>
<speed>1.070000</speed>
<extensions>
<speed>1.1</speed>
<temp>0.00</temp>
<bpm>0</bpm>
<rpm>0.00</rpm>
</extensions>
</trkpt>
<trkpt lat="63.990573883" lon="-19.076152802">
<ele>633.062500</ele>
<time>2012-07-23T15:11:27Z</time>
<speed>1.080000</speed>
<extensions>
<speed>1.1</speed>
<temp>0.00</temp>
<bpm>0</bpm>
<rpm>0.00</rpm>
</extensions>
</trkpt>
<trkpt lat="63.990577698" lon="-19.076274872">
<ele>631.000000</ele>
<time>2012-07-23T15:11:32Z</time>
<speed>1.200000</speed>
<extensions>
<speed>1.2</speed>
<temp>0.00</temp>
<bpm>0</bpm>
<rpm>0.00</rpm>
</extensions>
</trkpt>
<trkpt lat="63.990589142" lon="-19.076400757">
<ele>628.468750</ele>
<time>2012-07-23T15:11:37Z</time>
<speed>1.160000</speed>
<extensions>
<speed>1.2</speed>
<temp>0.00</temp>
<bpm>0</bpm>
<rpm>0.00</rpm>
</extensions>
</trkpt>
<trkpt lat="63.990573883" lon="-19.076520920">
<ele>628.703125</ele>
<time>2012-07-23T15:11:42Z</time>
<speed>1.190000</speed>
<extensions>
<speed>1.2</speed>
<temp>0.00</temp>
<bpm>0</bpm>
<rpm>0.00</rpm>
</extensions>
</trkpt>
<trkpt lat="63.990585327" lon="-19.076629639">
<ele>630.015625</ele>
<time>2012-07-23T15:11:47Z</time>
<speed>0.810000</speed>
<extensions>
<speed>0.8</speed>
<temp>0.00</temp>
<bpm>0</bpm>
<rpm>0.00</rpm>
</extensions>
</trkpt>
<trkpt lat="63.990596771" lon="-19.076728821">
<ele>630.906250</ele>
<time>2012-07-23T15:11:52Z</time>
<speed>0.790000</speed>
<extensions>
<speed>0.8</speed>
<temp>0.00</temp>
<bpm>0</bpm>
<rpm>0.00</rpm>
</extensions>
</trkpt>
<trkpt lat="63.990638733" lon="-19.076745987">
<ele>633.734375</ele>
<time>2012-07-23T15:11:57Z</time>
<speed>0.530000</speed>
<extensions>
<speed>0.5</speed>
<temp>0.00</temp>
<bpm>0</bpm>
<rpm>0.00</rpm>
</extensions>
</trkpt>
<trkpt lat="63.990657806" lon="-19.076818466">
<ele>637.265625</ele>
<time>2012-07-23T15:12:02Z</time>
<speed>0.840000</speed>
<extensions>
<speed>0.8</speed>
<temp>0.00</temp>
<bpm>0</bpm>
<rpm>0.00</rpm>
</extensions>
</trkpt>
<trkpt lat="63.990684509" lon="-19.076879501">
<ele>638.796875</ele>
<time>2012-07-23T15:12:07Z</time>
<speed>0.850000</speed>
<extensions>
<speed>0.8</speed>
<temp>0.00</temp>
<bpm>0</bpm>
<rpm>0.00</rpm>
</extensions>
</trkpt>
<trkpt lat="63.990699768" lon="-19.076993942">
<ele>637.671875</ele>
<time>2012-07-23T15:12:12Z</time>
<speed>1.120000</speed>
<extensions>
<speed>1.1</speed>
<temp>0.00</temp>
<bpm>0</bpm>
<rpm>0.00</rpm>
</extensions>
</trkpt>
<trkpt lat="63.990715027" lon="-19.077068329">
<ele>638.375000</ele>
<time>2012-07-23T15:12:17Z</time>
<speed>1.040000</speed>
<extensions>
<speed>1.0</speed>
<temp>0.00</temp>
<bpm>0</bpm>
<rpm>0.00</rpm>
</extensions>
</trkpt>
<trkpt lat="63.990722656" lon="-19.077194214">
<ele>638.062500</ele>
<time>2012-07-23T15:12:22Z</time>
<speed>1.200000</speed>
<extensions>
<speed>1.2</speed>
<temp>0.00</temp>
<bpm>0</bpm>
<rpm>0.00</rpm>
</extensions>
</trkpt>
<trkpt lat="63.990718842" lon="-19.077304840">
<ele>639.218750</ele>
<time>2012-07-23T15:12:27Z</time>
<speed>1.060000</speed>
<extensions>
<speed>1.1</speed>
<temp>0.00</temp>
<bpm>0</bpm>
<rpm>0.00</rpm>
</extensions>
</trkpt>
<trkpt lat="63.990703583" lon="-19.077421188">
<ele>638.703125</ele>
<time>2012-07-23T15:12:32Z</time>
<speed>1.380000</speed>
<extensions>
<speed>1.4</speed>
<temp>0.00</temp>
<bpm>0</bpm>
<rpm>0.00</rpm>
</extensions>
</trkpt>
<trkpt lat="63.990695953" lon="-19.077552795">
<ele>638.609375</ele>
<time>2012-07-23T15:12:37Z</time>
<speed>1.240000</speed>
<extensions>
<speed>1.2</speed>
<temp>0.00</temp>
<bpm>0</bpm>
<rpm>0.00</rpm>
</extensions>
</trkpt>
<trkpt lat="63.990669250" lon="-19.077688217">
<ele>637.281250</ele>
<time>2012-07-23T15:12:42Z</time>
<speed>1.090000</speed>
<extensions>
<speed>1.1</speed>
<temp>0.00</temp>
<bpm>0</bpm>
<rpm>0.00</rpm>
</extensions>
</trkpt>
<trkpt lat="63.990657806" lon="-19.077800751">
<ele>637.765625</ele>
<time>2012-07-23T15:12:47Z</time>
<speed>0.910000</speed>
<extensions>
<speed>0.9</speed>
<temp>0.00</temp>
<bpm>0</bpm>
<rpm>0.00</rpm>
</extensions>
</trkpt>
<trkpt lat="63.990657806" lon="-19.077909470">
<ele>638.343750</ele>
<time>2012-07-23T15:12:52Z</time>
<speed>0.930000</speed>
<extensions>
<speed>0.9</speed>
<temp>0.00</temp>
<bpm>0</bpm>
<rpm>0.00</rpm>
</extensions>
</trkpt>
<trkpt lat="63.990638733" lon="-19.078023911">
<ele>637.437500</ele>
<time>2012-07-23T15:12:57Z</time>
<speed>1.040000</speed>
<extensions>
<speed>1.0</speed>
<temp>0.00</temp>
<bpm>0</bpm>
<rpm>0.00</rpm>
</extensions>
</trkpt>
<trkpt lat="63.990638733" lon="-19.078123093">
<ele>638.281250</ele>
<time>2012-07-23T15:13:02Z</time>
<speed>1.160000</speed>
<extensions>
<speed>1.2</speed>
<temp>0.00</temp>
<bpm>0</bpm>
<rpm>0.00</rpm>
</extensions>
</trkpt>
<trkpt lat="63.990646362" lon="-19.078216553">
<ele>639.453125</ele>
<time>2012-07-23T15:13:07Z</time>
<speed>0.990000</speed>
<extensions>
<speed>1.0</speed>
<temp>0.00</temp>
<bpm>0</bpm>
<rpm>0.00</rpm>
</extensions>
</trkpt>
<trkpt lat="63.990650177" lon="-19.078321457">
<ele>639.093750</ele>
<time>2012-07-23T15:13:12Z</time>
<speed>1.290000</speed>
<extensions>
<speed>1.3</speed>
<temp>0.00</temp>
<bpm>0</bpm>
<rpm>0.00</rpm>
</extensions>
</trkpt>
<trkpt lat="63.990661621" lon="-19.078445435">
<ele>639.312500</ele>
<time>2012-07-23T15:13:17Z</time>
<speed>1.100000</speed>
<extensions>
<speed>1.1</speed>
<temp>0.00</temp>
<bpm>0</bpm>
<rpm>0.00</rpm>
</extensions>
</trkpt>
<trkpt lat="63.990642548" lon="-19.078588486">
<ele>637.687500</ele>
<time>2012-07-23T15:13:22Z</time>
<speed>1.220000</speed>
<extensions>
<speed>1.2</speed>
<temp>0.00</temp>
<bpm>0</bpm>
<rpm>0.00</rpm>
</extensions>
</trkpt>
<trkpt lat="63.990631104" lon="-19.078699112">
<ele>638.031250</ele>
<time>2012-07-23T15:13:27Z</time>
<speed>1.000000</speed>
<extensions>
<speed>1.0</speed>
<temp>0.00</temp>
<bpm>0</bpm>
<rpm>0.00</rpm>
</extensions>
</trkpt>
<trkpt lat="63.990619659" lon="-19.078807831">
<ele>638.890625</ele>
<time>2012-07-23T15:13:32Z</time>
<speed>1.010000</speed>
<extensions>
<speed>1.0</speed>
<temp>0.00</temp>
<bpm>0</bpm>
<rpm>0.00</rpm>
</extensions>
</trkpt>
<trkpt lat="63.990623474" lon="-19.078895569">
<ele>640.328125</ele>
<time>2012-07-23T15:13:37Z</time>
<speed>1.110000</speed>
<extensions>
<speed>1.1</speed>
<temp>0.00</temp>
<bpm>0</bpm>
<rpm>0.00</rpm>
</extensions>
</trkpt>
<trkpt lat="63.990623474" lon="-19.079038620">
<ele>638.890625</ele>
<time>2012-07-23T15:13:42Z</time>
<speed>1.370000</speed>
<extensions>
<speed>1.4</speed>
<temp>0.00</temp>
<bpm>0</bpm>
<rpm>0.00</rpm>
</extensions>
</trkpt>
<trkpt lat="63.990631104" lon="-19.079179764">
<ele>638.843750</ele>
<time>2012-07-23T15:13:47Z</time>
<speed>0.890000</speed>
<extensions>
<speed>0.9</speed>
<temp>0.00</temp>
<bpm>0</bpm>
<rpm>0.00</rpm>
</extensions>
</trkpt>
<trkpt lat="63.990615845" lon="-19.079303741">
<ele>639.781250</ele>
<time>2012-07-23T15:13:52Z</time>
<speed>1.070000</speed>
<extensions>
<speed>1.1</speed>
<temp>0.00</temp>
<bpm>0</bpm>
<rpm>0.00</rpm>
</extensions>
</trkpt>
<trkpt lat="63.990600586" lon="-19.079397202">
<ele>640.765625</ele>
<time>2012-07-23T15:13:57Z</time>
<speed>1.390000</speed>
<extensions>
<speed>1.4</speed>
<temp>0.00</temp>
<bpm>0</bpm>
<rpm>0.00</rpm>
</extensions>
</trkpt>
<trkpt lat="63.990592957" lon="-19.079530716">
<ele>639.796875</ele>
<time>2012-07-23T15:14:02Z</time>
<speed>1.070000</speed>
<extensions>
<speed>1.1</speed>
<temp>0.00</temp>
<bpm>0</bpm>
<rpm>0.00</rpm>
</extensions>
</trkpt>
<trkpt lat="63.990566254" lon="-19.079647064">
<ele>640.234375</ele>
<time>2012-07-23T15:14:07Z</time>
<speed>1.360000</speed>
<extensions>
<speed>1.4</speed>
<temp>0.00</temp>
<bpm>0</bpm>
<rpm>0.00</rpm>
</extensions>
</trkpt>
<trkpt lat="63.990524292" lon="-19.079750061">
<ele>639.031250</ele>
<time>2012-07-23T15:14:12Z</time>
<speed>1.470000</speed>
<extensions>
<speed>1.5</speed>
<temp>0.00</temp>
<bpm>0</bpm>
<rpm>0.00</rpm>
</extensions>
</trkpt>
<trkpt lat="63.990497589" lon="-19.079849243">
<ele>638.406250</ele>
<time>2012-07-23T15:14:17Z</time>
<speed>0.960000</speed>
<extensions>
<speed>1.0</speed>
<temp>0.00</temp>
<bpm>0</bpm>
<rpm>0.00</rpm>
</extensions>
</trkpt>
<trkpt lat="63.990482330" lon="-19.079959869">
<ele>637.656250</ele>
<time>2012-07-23T15:14:22Z</time>
<speed>1.360000</speed>
<extensions>
<speed>1.4</speed>
<temp>0.00</temp>
<bpm>0</bpm>
<rpm>0.00</rpm>
</extensions>
</trkpt>
<trkpt lat="63.990505219" lon="-19.080080032">
<ele>639.218750</ele>
<time>2012-07-23T15:14:27Z</time>
<speed>1.400000</speed>
<extensions>
<speed>1.4</speed>
<temp>0.00</temp>
<bpm>0</bpm>
<rpm>0.00</rpm>
</extensions>
</trkpt>
<trkpt lat="63.990528107" lon="-19.080186844">
<ele>639.734375</ele>
<time>2012-07-23T15:14:32Z</time>
<speed>1.200000</speed>
<extensions>
<speed>1.2</speed>
<temp>0.00</temp>
<bpm>0</bpm>
<rpm>0.00</rpm>
</extensions>
</trkpt>
<trkpt lat="63.990516663" lon="-19.080289841">
<ele>639.296875</ele>
<time>2012-07-23T15:14:37Z</time>
<speed>1.120000</speed>
<extensions>
<speed>1.1</speed>
<temp>0.00</temp>
<bpm>0</bpm>
<rpm>0.00</rpm>
</extensions>
</trkpt>
<trkpt lat="63.990516663" lon="-19.080421448">
<ele>639.031250</ele>
<time>2012-07-23T15:14:42Z</time>
<speed>1.030000</speed>
<extensions>
<speed>1.0</speed>
<temp>0.00</temp>
<bpm>0</bpm>
<rpm>0.00</rpm>
</extensions>
</trkpt>
<trkpt lat="63.990531921" lon="-19.080547333">
<ele>638.390625</ele>
<time>2012-07-23T15:14:47Z</time>
<speed>1.300000</speed>
<extensions>
<speed>1.3</speed>
<temp>0.00</temp>
<bpm>0</bpm>
<rpm>0.00</rpm>
</extensions>
</trkpt>
<trkpt lat="63.990562439" lon="-19.080636978">
<ele>638.375000</ele>
<time>2012-07-23T15:14:52Z</time>
<speed>0.820000</speed>
<extensions>
<speed>0.8</speed>
<temp>0.00</temp>
<bpm>0</bpm>
<rpm>0.00</rpm>
</extensions>
</trkpt>
<trkpt lat="63.990577698" lon="-19.080698013">
<ele>638.734375</ele>
<time>2012-07-23T15:14:57Z</time>
<speed>0.020000</speed>
<extensions>
<speed>0.0</speed>
<temp>0.00</temp>
<bpm>0</bpm>
<rpm>0.00</rpm>
</extensions>
</trkpt>
<trkpt lat="63.990577698" lon="-19.080696106">
<ele>638.656250</ele>
<time>2012-07-23T15:15:02Z</time>
<speed>0.260000</speed>
<extensions>
<speed>0.3</speed>
<temp>0.00</temp>
<bpm>0</bpm>
<rpm>0.00</rpm>
</extensions>
</trkpt>
<trkpt lat="63.990581512" lon="-19.080783844">
<ele>638.781250</ele>
<time>2012-07-23T15:15:07Z</time>
<speed>1.290000</speed>
<extensions>
<speed>1.3</speed>
<temp>0.00</temp>
<bpm>0</bpm>
<rpm>0.00</rpm>
</extensions>
</trkpt>
<trkpt lat="63.990585327" lon="-19.080867767">
<ele>639.531250</ele>
<time>2012-07-23T15:15:12Z</time>
<speed>0.840000</speed>
<extensions>
<speed>0.8</speed>
<temp>0.00</temp>
<bpm>0</bpm>
<rpm>0.00</rpm>
</extensions>
</trkpt>
<trkpt lat="63.990615845" lon="-19.080940247">
<ele>638.296875</ele>
<time>2012-07-23T15:15:17Z</time>
<speed>1.110000</speed>
<extensions>
<speed>1.1</speed>
<temp>0.00</temp>
<bpm>0</bpm>
<rpm>0.00</rpm>
</extensions>
</trkpt>
<trkpt lat="63.990634918" lon="-19.081090927">
<ele>637.640625</ele>
<time>2012-07-23T15:15:22Z</time>
<speed>1.360000</speed>
<extensions>
<speed>1.4</speed>
<temp>0.00</temp>
<bpm>0</bpm>
<rpm>0.00</rpm>
</extensions>
</trkpt>
<trkpt lat="63.990653992" lon="-19.081220627">
<ele>637.125000</ele>
<time>2012-07-23T15:15:27Z</time>
<speed>0.980000</speed>
<extensions>
<speed>1.0</speed>
<temp>0.00</temp>
<bpm>0</bpm>
<rpm>0.00</rpm>
</extensions>
</trkpt>
<trkpt lat="63.990646362" lon="-19.081333160">
<ele>636.343750</ele>
<time>2012-07-23T15:15:32Z</time>
<speed>1.320000</speed>
<extensions>
<speed>1.3</speed>
<temp>0.00</temp>
<bpm>0</bpm>
<rpm>0.00</rpm>
</extensions>
</trkpt>
<trkpt lat="63.990653992" lon="-19.081476212">
<ele>636.640625</ele>
<time>2012-07-23T15:15:37Z</time>
<speed>1.090000</speed>
<extensions>
<speed>1.1</speed>
<temp>0.00</temp>
<bpm>0</bpm>
<rpm>0.00</rpm>
</extensions>
</trkpt>
<trkpt lat="63.990638733" lon="-19.081628799">
<ele>635.359375</ele>
<time>2012-07-23T15:15:42Z</time>
<speed>1.410000</speed>
<extensions>
<speed>1.4</speed>
<temp>0.00</temp>
<bpm>0</bpm>
<rpm>0.00</rpm>
</extensions>
</trkpt>
<trkpt lat="63.990623474" lon="-19.081768036">
<ele>635.125000</ele>
<time>2012-07-23T15:15:47Z</time>
<speed>1.350000</speed>
<extensions>
<speed>1.4</speed>
<temp>0.00</temp>
<bpm>0</bpm>
<rpm>0.00</rpm>
</extensions>
</trkpt>
<trkpt lat="63.990612030" lon="-19.081901550">
<ele>635.250000</ele>
<time>2012-07-23T15:15:52Z</time>
<speed>1.210000</speed>
<extensions>
<speed>1.2</speed>
<temp>0.00</temp>
<bpm>0</bpm>
<rpm>0.00</rpm>
</extensions>
</trkpt>
<trkpt lat="63.990604401" lon="-19.082036972">
<ele>634.343750</ele>
<time>2012-07-23T15:15:57Z</time>
<speed>0.980000</speed>
<extensions>
<speed>1.0</speed>
<temp>0.00</temp>
<bpm>0</bpm>
<rpm>0.00</rpm>
</extensions>
</trkpt>
<trkpt lat="63.990577698" lon="-19.082149506">
<ele>634.187500</ele>
<time>2012-07-23T15:16:02Z</time>
<speed>1.450000</speed>
<extensions>
<speed>1.4</speed>
<temp>0.00</temp>
<bpm>0</bpm>
<rpm>0.00</rpm>
</extensions>
</trkpt>
<trkpt lat="63.990581512" lon="-19.082292557">
<ele>632.796875</ele>
<time>2012-07-23T15:16:07Z</time>
<speed>1.380000</speed>
<extensions>
<speed>1.4</speed>
<temp>0.00</temp>
<bpm>0</bpm>
<rpm>0.00</rpm>
</extensions>
</trkpt>
<trkpt lat="63.990596771" lon="-19.082403183">
<ele>632.531250</ele>
<time>2012-07-23T15:16:12Z</time>
<speed>1.540000</speed>
<extensions>
<speed>1.5</speed>
<temp>0.00</temp>
<bpm>0</bpm>
<rpm>0.00</rpm>
</extensions>
</trkpt>
<trkpt lat="63.990612030" lon="-19.082544327">
<ele>631.625000</ele>
<time>2012-07-23T15:16:17Z</time>
<speed>1.410000</speed>
<extensions>
<speed>1.4</speed>
<temp>0.00</temp>
<bpm>0</bpm>
<rpm>0.00</rpm>
</extensions>
</trkpt>
<trkpt lat="63.990604401" lon="-19.082670212">
<ele>631.718750</ele>
<time>2012-07-23T15:16:22Z</time>
<speed>1.280000</speed>
<extensions>
<speed>1.3</speed>
<temp>0.00</temp>
<bpm>0</bpm>
<rpm>0.00</rpm>
</extensions>
</trkpt>
<trkpt lat="63.990608215" lon="-19.082796097">
<ele>631.390625</ele>
<time>2012-07-23T15:16:27Z</time>
<speed>1.430000</speed>
<extensions>
<speed>1.4</speed>
<temp>0.00</temp>
<bpm>0</bpm>
<rpm>0.00</rpm>
</extensions>
</trkpt>
<trkpt lat="63.990623474" lon="-19.082927704">
<ele>631.656250</ele>
<time>2012-07-23T15:16:32Z</time>
<speed>1.460000</speed>
<extensions>
<speed>1.5</speed>
<temp>0.00</temp>
<bpm>0</bpm>
<rpm>0.00</rpm>
</extensions>
</trkpt>
<trkpt lat="63.990615845" lon="-19.083089828">
<ele>632.093750</ele>
<time>2012-07-23T15:16:37Z</time>
<speed>1.440000</speed>
<extensions>
<speed>1.4</speed>
<temp>0.00</temp>
<bpm>0</bpm>
<rpm>0.00</rpm>
</extensions>
</trkpt>
<trkpt lat="63.990585327" lon="-19.083250046">
<ele>631.562500</ele>
<time>2012-07-23T15:16:42Z</time>
<speed>1.330000</speed>
<extensions>
<speed>1.3</speed>
<temp>0.00</temp>
<bpm>0</bpm>
<rpm>0.00</rpm>
</extensions>
</trkpt>
<trkpt lat="63.990570068" lon="-19.083385468">
<ele>631.890625</ele>
<time>2012-07-23T15:16:47Z</time>
<speed>1.550000</speed>
<extensions>
<speed>1.5</speed>
<temp>0.00</temp>
<bpm>0</bpm>
<rpm>0.00</rpm>
</extensions>
</trkpt>
<trkpt lat="63.990581512" lon="-19.083534241">
<ele>631.640625</ele>
<time>2012-07-23T15:16:52Z</time>
<speed>1.540000</speed>
<extensions>
<speed>1.5</speed>
<temp>0.00</temp>
<bpm>0</bpm>
<rpm>0.00</rpm>
</extensions>
</trkpt>
<trkpt lat="63.990585327" lon="-19.083654404">
<ele>632.171875</ele>
<time>2012-07-23T15:16:57Z</time>
<speed>1.500000</speed>
<extensions>
<speed>1.5</speed>
<temp>0.00</temp>
<bpm>0</bpm>
<rpm>0.00</rpm>
</extensions>
</trkpt>
<trkpt lat="63.990566254" lon="-19.083778381">
<ele>633.328125</ele>
<time>2012-07-23T15:17:02Z</time>
<speed>1.260000</speed>
<extensions>
<speed>1.3</speed>
<temp>0.00</temp>
<bpm>0</bpm>
<rpm>0.00</rpm>
</extensions>
</trkpt>
<trkpt lat="63.990592957" lon="-19.083877563">
<ele>634.187500</ele>
<time>2012-07-23T15:17:07Z</time>
<speed>1.150000</speed>
<extensions>
<speed>1.1</speed>
<temp>0.00</temp>
<bpm>0</bpm>
<rpm>0.00</rpm>
</extensions>
</trkpt>
<trkpt lat="63.990623474" lon="-19.084001541">
<ele>633.531250</ele>
<time>2012-07-23T15:17:12Z</time>
<speed>1.410000</speed>
<extensions>
<speed>1.4</speed>
<temp>0.00</temp>
<bpm>0</bpm>
<rpm>0.00</rpm>
</extensions>
</trkpt>
<trkpt lat="63.990631104" lon="-19.084165573">
<ele>632.640625</ele>
<time>2012-07-23T15:17:17Z</time>
<speed>1.010000</speed>
<extensions>
<speed>1.0</speed>
<temp>0.00</temp>
<bpm>0</bpm>
<rpm>0.00</rpm>
</extensions>
</trkpt>
<trkpt lat="63.990612030" lon="-19.084299088">
<ele>632.921875</ele>
<time>2012-07-23T15:17:22Z</time>
<speed>1.260000</speed>
<extensions>
<speed>1.3</speed>
<temp>0.00</temp>
<bpm>0</bpm>
<rpm>0.00</rpm>
</extensions>
</trkpt>
<trkpt lat="63.990558624" lon="-19.084415436">
<ele>633.578125</ele>
<time>2012-07-23T15:17:27Z</time>
<speed>1.490000</speed>
<extensions>
<speed>1.5</speed>
<temp>0.00</temp>
<bpm>0</bpm>
<rpm>0.00</rpm>
</extensions>
</trkpt>
<trkpt lat="63.990516663" lon="-19.084497452">
<ele>633.156250</ele>
<time>2012-07-23T15:17:32Z</time>
<speed>0.600000</speed>
<extensions>
<speed>0.6</speed>
<temp>0.00</temp>
<bpm>0</bpm>
<rpm>0.00</rpm>
</extensions>
</trkpt>
<trkpt lat="63.990470886" lon="-19.084579468">
<ele>632.031250</ele>
<time>2012-07-23T15:17:37Z</time>
<speed>1.190000</speed>
<extensions>
<speed>1.2</speed>
<temp>0.00</temp>
<bpm>0</bpm>
<rpm>0.00</rpm>
</extensions>
</trkpt>
<trkpt lat="63.990432739" lon="-19.084648132">
<ele>631.203125</ele>
<time>2012-07-23T15:17:42Z</time>
<speed>1.250000</speed>
<extensions>
<speed>1.3</speed>
<temp>0.00</temp>
<bpm>0</bpm>
<rpm>0.00</rpm>
</extensions>
</trkpt>
<trkpt lat="63.990386963" lon="-19.084720612">
<ele>630.781250</ele>
<time>2012-07-23T15:17:47Z</time>
<speed>1.390000</speed>
<extensions>
<speed>1.4</speed>
<temp>0.00</temp>
<bpm>0</bpm>
<rpm>0.00</rpm>
</extensions>
</trkpt>
<trkpt lat="63.990345001" lon="-19.084800720">
<ele>629.828125</ele>
<time>2012-07-23T15:17:52Z</time>
<speed>0.820000</speed>
<extensions>
<speed>0.8</speed>
<temp>0.00</temp>
<bpm>0</bpm>
<rpm>0.00</rpm>
</extensions>
</trkpt>
<trkpt lat="63.990306854" lon="-19.084913254">
<ele>628.578125</ele>
<time>2012-07-23T15:17:57Z</time>
<speed>1.400000</speed>
<extensions>
<speed>1.4</speed>
<temp>0.00</temp>
<bpm>0</bpm>
<rpm>0.00</rpm>
</extensions>
</trkpt>
<trkpt lat="63.990268707" lon="-19.085010529">
<ele>628.250000</ele>
<time>2012-07-23T15:18:02Z</time>
<speed>1.310000</speed>
<extensions>
<speed>1.3</speed>
<temp>0.00</temp>
<bpm>0</bpm>
<rpm>0.00</rpm>
</extensions>
</trkpt>
<trkpt lat="63.990226746" lon="-19.085117340">
<ele>627.687500</ele>
<time>2012-07-23T15:18:07Z</time>
<speed>1.420000</speed>
<extensions>
<speed>1.4</speed>
<temp>0.00</temp>
<bpm>0</bpm>
<rpm>0.00</rpm>
</extensions>
</trkpt>
<trkpt lat="63.990180969" lon="-19.085224152">
<ele>626.812500</ele>
<time>2012-07-23T15:18:12Z</time>
<speed>1.280000</speed>
<extensions>
<speed>1.3</speed>
<temp>0.00</temp>
<bpm>0</bpm>
<rpm>0.00</rpm>
</extensions>
</trkpt>
<trkpt lat="63.990142822" lon="-19.085311890">
<ele>626.062500</ele>
<time>2012-07-23T15:18:17Z</time>
<speed>1.160000</speed>
<extensions>
<speed>1.2</speed>
<temp>0.00</temp>
<bpm>0</bpm>
<rpm>0.00</rpm>
</extensions>
</trkpt>
<trkpt lat="63.990097046" lon="-19.085401535">
<ele>624.703125</ele>
<time>2012-07-23T15:18:22Z</time>
<speed>1.240000</speed>
<extensions>
<speed>1.2</speed>
<temp>0.00</temp>
<bpm>0</bpm>
<rpm>0.00</rpm>
</extensions>
</trkpt>
<trkpt lat="63.990058899" lon="-19.085489273">
<ele>624.390625</ele>
<time>2012-07-23T15:18:27Z</time>
<speed>1.250000</speed>
<extensions>
<speed>1.3</speed>
<temp>0.00</temp>
<bpm>0</bpm>
<rpm>0.00</rpm>
</extensions>
</trkpt>
<trkpt lat="63.990016937" lon="-19.085588455">
<ele>623.046875</ele>
<time>2012-07-23T15:18:32Z</time>
<speed>1.290000</speed>
<extensions>
<speed>1.3</speed>
<temp>0.00</temp>
<bpm>0</bpm>
<rpm>0.00</rpm>
</extensions>
</trkpt>
<trkpt lat="63.989986420" lon="-19.085699081">
<ele>621.859375</ele>
<time>2012-07-23T15:18:37Z</time>
<speed>1.330000</speed>
<extensions>
<speed>1.3</speed>
<temp>0.00</temp>
<bpm>0</bpm>
<rpm>0.00</rpm>
</extensions>
</trkpt>
<trkpt lat="63.989940643" lon="-19.085807800">
<ele>620.578125</ele>
<time>2012-07-23T15:18:42Z</time>
<speed>1.080000</speed>
<extensions>
<speed>1.1</speed>
<temp>0.00</temp>
<bpm>0</bpm>
<rpm>0.00</rpm>
</extensions>
</trkpt>
<trkpt lat="63.989917755" lon="-19.085824966">
<ele>620.015625</ele>
<time>2012-07-23T15:18:47Z</time>
<speed>0.060000</speed>
<extensions>
<speed>0.1</speed>
<temp>0.00</temp>
<bpm>0</bpm>
<rpm>0.00</rpm>
</extensions>
</trkpt>
<trkpt lat="63.989913940" lon="-19.085826874">
<ele>620.031250</ele>
<time>2012-07-23T15:18:52Z</time>
<speed>0.570000</speed>
<extensions>
<speed>0.6</speed>
<temp>0.00</temp>
<bpm>0</bpm>
<rpm>0.00</rpm>
</extensions>
</trkpt>
<trkpt lat="63.989864349" lon="-19.085849762">
<ele>619.781250</ele>
<time>2012-07-23T15:18:57Z</time>
<speed>0.550000</speed>
<extensions>
<speed>0.6</speed>
<temp>0.00</temp>
<bpm>0</bpm>
<rpm>0.00</rpm>
</extensions>
</trkpt>
<trkpt lat="63.989833832" lon="-19.085859299">
<ele>619.468750</ele>
<time>2012-07-23T15:19:02Z</time>
<speed>0.930000</speed>
<extensions>
<speed>0.9</speed>
<temp>0.00</temp>
<bpm>0</bpm>
<rpm>0.00</rpm>
</extensions>
</trkpt>
<trkpt lat="63.989784241" lon="-19.085866928">
<ele>619.156250</ele>
<time>2012-07-23T15:19:07Z</time>
<speed>1.290000</speed>
<extensions>
<speed>1.3</speed>
<temp>0.00</temp>
<bpm>0</bpm>
<rpm>0.00</rpm>
</extensions>
</trkpt>
<trkpt lat="63.989738464" lon="-19.085918427">
<ele>619.046875</ele>
<time>2012-07-23T15:19:12Z</time>
<speed>1.320000</speed>
<extensions>
<speed>1.3</speed>
<temp>0.00</temp>
<bpm>0</bpm>
<rpm>0.00</rpm>
</extensions>
</trkpt>
<trkpt lat="63.989677429" lon="-19.085931778">
<ele>619.609375</ele>
<time>2012-07-23T15:19:17Z</time>
<speed>1.300000</speed>
<extensions>
<speed>1.3</speed>
<temp>0.00</temp>
<bpm>0</bpm>
<rpm>0.00</rpm>
</extensions>
</trkpt>
<trkpt lat="63.989620209" lon="-19.085931778">
<ele>620.375000</ele>
<time>2012-07-23T15:19:22Z</time>
<speed>1.280000</speed>
<extensions>
<speed>1.3</speed>
<temp>0.00</temp>
<bpm>0</bpm>
<rpm>0.00</rpm>
</extensions>
</trkpt>
<trkpt lat="63.989555359" lon="-19.085905075">
<ele>620.593750</ele>
<time>2012-07-23T15:19:27Z</time>
<speed>1.340000</speed>
<extensions>
<speed>1.3</speed>
<temp>0.00</temp>
<bpm>0</bpm>
<rpm>0.00</rpm>
</extensions>
</trkpt>
<trkpt lat="63.989505768" lon="-19.085901260">
<ele>620.843750</ele>
<time>2012-07-23T15:19:32Z</time>
<speed>0.150000</speed>
<extensions>
<speed>0.2</speed>
<temp>0.00</temp>
<bpm>0</bpm>
<rpm>0.00</rpm>
</extensions>
</trkpt>
<trkpt lat="63.989486694" lon="-19.085914612">
<ele>620.546875</ele>
<time>2012-07-23T15:19:37Z</time>
<speed>1.180000</speed>
<extensions>
<speed>1.2</speed>
<temp>0.00</temp>
<bpm>0</bpm>
<rpm>0.00</rpm>
</extensions>
</trkpt>
<trkpt lat="63.989425659" lon="-19.085891724">
<ele>620.281250</ele>
<time>2012-07-23T15:19:42Z</time>
<speed>1.420000</speed>
<extensions>
<speed>1.4</speed>
<temp>0.00</temp>
<bpm>0</bpm>
<rpm>0.00</rpm>
</extensions>
</trkpt>
<trkpt lat="63.989364624" lon="-19.085889816">
<ele>620.375000</ele>
<time>2012-07-23T15:19:47Z</time>
<speed>1.240000</speed>
<extensions>
<speed>1.2</speed>
<temp>0.00</temp>
<bpm>0</bpm>
<rpm>0.00</rpm>
</extensions>
</trkpt>
<trkpt lat="63.989307404" lon="-19.085901260">
<ele>620.187500</ele>
<time>2012-07-23T15:19:52Z</time>
<speed>1.270000</speed>
<extensions>
<speed>1.3</speed>
<temp>0.00</temp>
<bpm>0</bpm>
<rpm>0.00</rpm>
</extensions>
</trkpt>
<trkpt lat="63.989250183" lon="-19.085876465">
<ele>620.515625</ele>
<time>2012-07-23T15:19:57Z</time>
<speed>1.310000</speed>
<extensions>
<speed>1.3</speed>
<temp>0.00</temp>
<bpm>0</bpm>
<rpm>0.00</rpm>
</extensions>
</trkpt>
<trkpt lat="63.989192963" lon="-19.085868835">
<ele>620.125000</ele>
<time>2012-07-23T15:20:02Z</time>
<speed>1.290000</speed>
<extensions>
<speed>1.3</speed>
<temp>0.00</temp>
<bpm>0</bpm>
<rpm>0.00</rpm>
</extensions>
</trkpt>
<trkpt lat="63.989135742" lon="-19.085868835">
<ele>620.359375</ele>
<time>2012-07-23T15:20:07Z</time>
<speed>1.210000</speed>
<extensions>
<speed>1.2</speed>
<temp>0.00</temp>
<bpm>0</bpm>
<rpm>0.00</rpm>
</extensions>
</trkpt>
<trkpt lat="63.989078522" lon="-19.085865021">
<ele>620.531250</ele>
<time>2012-07-23T15:20:12Z</time>
<speed>1.340000</speed>
<extensions>
<speed>1.3</speed>
<temp>0.00</temp>
<bpm>0</bpm>
<rpm>0.00</rpm>
</extensions>
</trkpt>
<trkpt lat="63.989021301" lon="-19.085847855">
<ele>621.078125</ele>
<time>2012-07-23T15:20:17Z</time>
<speed>1.290000</speed>
<extensions>
<speed>1.3</speed>
<temp>0.00</temp>
<bpm>0</bpm>
<rpm>0.00</rpm>
</extensions>
</trkpt>
<trkpt lat="63.988960266" lon="-19.085826874">
<ele>621.031250</ele>
<time>2012-07-23T15:20:22Z</time>
<speed>1.420000</speed>
<extensions>
<speed>1.4</speed>
<temp>0.00</temp>
<bpm>0</bpm>
<rpm>0.00</rpm>
</extensions>
</trkpt>
<trkpt lat="63.988910675" lon="-19.085840225">
<ele>620.828125</ele>
<time>2012-07-23T15:20:27Z</time>
<speed>1.340000</speed>
<extensions>
<speed>1.3</speed>
<temp>0.00</temp>
<bpm>0</bpm>
<rpm>0.00</rpm>
</extensions>
</trkpt>
<trkpt lat="63.988845825" lon="-19.085861206">
<ele>621.671875</ele>
<time>2012-07-23T15:20:32Z</time>
<speed>1.070000</speed>
<extensions>
<speed>1.1</speed>
<temp>0.00</temp>
<bpm>0</bpm>
<rpm>0.00</rpm>
</extensions>
</trkpt>
<trkpt lat="63.988819122" lon="-19.085870743">
<ele>620.687500</ele>
<time>2012-07-23T15:20:37Z</time>
<speed>0.310000</speed>
<extensions>
<speed>0.3</speed>
<temp>0.00</temp>
<bpm>0</bpm>
<rpm>0.00</rpm>
</extensions>
</trkpt>
<trkpt lat="63.988815308" lon="-19.085937500">
<ele>619.859375</ele>
<time>2012-07-23T15:20:42Z</time>
<speed>1.240000</speed>
<extensions>
<speed>1.2</speed>
<temp>0.00</temp>
<bpm>0</bpm>
<rpm>0.00</rpm>
</extensions>
</trkpt>
<trkpt lat="63.988811493" lon="-19.086057663">
<ele>619.218750</ele>
<time>2012-07-23T15:20:47Z</time>
<speed>1.360000</speed>
<extensions>
<speed>1.4</speed>
<temp>0.00</temp>
<bpm>0</bpm>
<rpm>0.00</rpm>
</extensions>
</trkpt>
<trkpt lat="63.988811493" lon="-19.086154938">
<ele>618.828125</ele>
<time>2012-07-23T15:20:52Z</time>
<speed>1.260000</speed>
<extensions>
<speed>1.3</speed>
<temp>0.00</temp>
<bpm>0</bpm>
<rpm>0.00</rpm>
</extensions>
</trkpt>
<trkpt lat="63.988811493" lon="-19.086269379">
<ele>618.875000</ele>
<time>2012-07-23T15:20:57Z</time>
<speed>1.270000</speed>
<extensions>
<speed>1.3</speed>
<temp>0.00</temp>
<bpm>0</bpm>
<rpm>0.00</rpm>
</extensions>
</trkpt>
<trkpt lat="63.988803864" lon="-19.086385727">
<ele>618.562500</ele>
<time>2012-07-23T15:21:02Z</time>
<speed>1.240000</speed>
<extensions>
<speed>1.2</speed>
<temp>0.00</temp>
<bpm>0</bpm>
<rpm>0.00</rpm>
</extensions>
</trkpt>
<trkpt lat="63.988800049" lon="-19.086528778">
<ele>618.359375</ele>
<time>2012-07-23T15:21:07Z</time>
<speed>1.280000</speed>
<extensions>
<speed>1.3</speed>
<temp>0.00</temp>
<bpm>0</bpm>
<rpm>0.00</rpm>
</extensions>
</trkpt>
<trkpt lat="63.988792419" lon="-19.086673737">
<ele>618.093750</ele>
<time>2012-07-23T15:21:12Z</time>
<speed>1.270000</speed>
<extensions>
<speed>1.3</speed>
<temp>0.00</temp>
<bpm>0</bpm>
<rpm>0.00</rpm>
</extensions>
</trkpt>
<trkpt lat="63.988777161" lon="-19.086812973">
<ele>617.640625</ele>
<time>2012-07-23T15:21:17Z</time>
<speed>1.240000</speed>
<extensions>
<speed>1.2</speed>
<temp>0.00</temp>
<bpm>0</bpm>
<rpm>0.00</rpm>
</extensions>
</trkpt>
<trkpt lat="63.988769531" lon="-19.086923599">
<ele>617.546875</ele>
<time>2012-07-23T15:21:22Z</time>
<speed>1.510000</speed>
<extensions>
<speed>1.5</speed>
<temp>0.00</temp>
<bpm>0</bpm>
<rpm>0.00</rpm>
</extensions>
</trkpt>
<trkpt lat="63.988780975" lon="-19.087041855">
<ele>616.437500</ele>
<time>2012-07-23T15:21:27Z</time>
<speed>1.260000</speed>
<extensions>
<speed>1.3</speed>
<temp>0.00</temp>
<bpm>0</bpm>
<rpm>0.00</rpm>
</extensions>
</trkpt>
<trkpt lat="63.988784790" lon="-19.087179184">
<ele>616.578125</ele>
<time>2012-07-23T15:21:32Z</time>
<speed>1.400000</speed>
<extensions>
<speed>1.4</speed>
<temp>0.00</temp>
<bpm>0</bpm>
<rpm>0.00</rpm>
</extensions>
</trkpt>
<trkpt lat="63.988792419" lon="-19.087324142">
<ele>616.093750</ele>
<time>2012-07-23T15:21:37Z</time>
<speed>1.410000</speed>
<extensions>
<speed>1.4</speed>
<temp>0.00</temp>
<bpm>0</bpm>
<rpm>0.00</rpm>
</extensions>
</trkpt>
<trkpt lat="63.988800049" lon="-19.087444305">
<ele>615.609375</ele>
<time>2012-07-23T15:21:42Z</time>
<speed>1.370000</speed>
<extensions>
<speed>1.4</speed>
<temp>0.00</temp>
<bpm>0</bpm>
<rpm>0.00</rpm>
</extensions>
</trkpt>
<trkpt lat="63.988811493" lon="-19.087583542">
<ele>615.312500</ele>
<time>2012-07-23T15:21:47Z</time>
<speed>1.300000</speed>
<extensions>
<speed>1.3</speed>
<temp>0.00</temp>
<bpm>0</bpm>
<rpm>0.00</rpm>
</extensions>
</trkpt>
<trkpt lat="63.988815308" lon="-19.087726593">
<ele>615.531250</ele>
<time>2012-07-23T15:21:52Z</time>
<speed>1.410000</speed>
<extensions>
<speed>1.4</speed>
<temp>0.00</temp>
<bpm>0</bpm>
<rpm>0.00</rpm>
</extensions>
</trkpt>
<trkpt lat="63.988830566" lon="-19.087856293">
<ele>615.609375</ele>
<time>2012-07-23T15:21:57Z</time>
<speed>1.390000</speed>
<extensions>
<speed>1.4</speed>
<temp>0.00</temp>
<bpm>0</bpm>
<rpm>0.00</rpm>
</extensions>
</trkpt>
<trkpt lat="63.988849640" lon="-19.087985992">
<ele>615.765625</ele>
<time>2012-07-23T15:22:02Z</time>
<speed>1.410000</speed>
<extensions>
<speed>1.4</speed>
<temp>0.00</temp>
<bpm>0</bpm>
<rpm>0.00</rpm>
</extensions>
</trkpt>
<trkpt lat="63.988872528" lon="-19.088115692">
<ele>615.890625</ele>
<time>2012-07-23T15:22:07Z</time>
<speed>1.420000</speed>
<extensions>
<speed>1.4</speed>
<temp>0.00</temp>
<bpm>0</bpm>
<rpm>0.00</rpm>
</extensions>
</trkpt>
<trkpt lat="63.988895416" lon="-19.088262558">
<ele>616.140625</ele>
<time>2012-07-23T15:22:12Z</time>
<speed>1.400000</speed>
<extensions>
<speed>1.4</speed>
<temp>0.00</temp>
<bpm>0</bpm>
<rpm>0.00</rpm>
</extensions>
</trkpt>
<trkpt lat="63.988922119" lon="-19.088388443">
<ele>616.109375</ele>
<time>2012-07-23T15:22:17Z</time>
<speed>1.450000</speed>
<extensions>
<speed>1.4</speed>
<temp>0.00</temp>
<bpm>0</bpm>
<rpm>0.00</rpm>
</extensions>
</trkpt>
<trkpt lat="63.988941193" lon="-19.088541031">
<ele>615.718750</ele>
<time>2012-07-23T15:22:22Z</time>
<speed>1.410000</speed>
<extensions>
<speed>1.4</speed>
<temp>0.00</temp>
<bpm>0</bpm>
<rpm>0.00</rpm>
</extensions>
</trkpt>
<trkpt lat="63.988956451" lon="-19.088682175">
<ele>614.968750</ele>
<time>2012-07-23T15:22:27Z</time>
<speed>1.360000</speed>
<extensions>
<speed>1.4</speed>
<temp>0.00</temp>
<bpm>0</bpm>
<rpm>0.00</rpm>
</extensions>
</trkpt>
<trkpt lat="63.988986969" lon="-19.088804245">
<ele>614.828125</ele>
<time>2012-07-23T15:22:32Z</time>
<speed>1.300000</speed>
<extensions>
<speed>1.3</speed>
<temp>0.00</temp>
<bpm>0</bpm>
<rpm>0.00</rpm>
</extensions>
</trkpt>
<trkpt lat="63.989006042" lon="-19.088939667">
<ele>615.484375</ele>
<time>2012-07-23T15:22:37Z</time>
<speed>1.330000</speed>
<extensions>
<speed>1.3</speed>
<temp>0.00</temp>
<bpm>0</bpm>
<rpm>0.00</rpm>
</extensions>
</trkpt>
<trkpt lat="63.989013672" lon="-19.089090347">
<ele>615.421875</ele>
<time>2012-07-23T15:22:42Z</time>
<speed>1.200000</speed>
<extensions>
<speed>1.2</speed>
<temp>0.00</temp>
<bpm>0</bpm>
<rpm>0.00</rpm>
</extensions>
</trkpt>
<trkpt lat="63.989028931" lon="-19.089223862">
<ele>615.171875</ele>
<time>2012-07-23T15:22:47Z</time>
<speed>1.490000</speed>
<extensions>
<speed>1.5</speed>
<temp>0.00</temp>
<bpm>0</bpm>
<rpm>0.00</rpm>
</extensions>
</trkpt>
<trkpt lat="63.989063263" lon="-19.089324951">
<ele>615.015625</ele>
<time>2012-07-23T15:22:52Z</time>
<speed>1.280000</speed>
<extensions>
<speed>1.3</speed>
<temp>0.00</temp>
<bpm>0</bpm>
<rpm>0.00</rpm>
</extensions>
</trkpt>
<trkpt lat="63.989101410" lon="-19.089424133">
<ele>614.656250</ele>
<time>2012-07-23T15:22:57Z</time>
<speed>1.410000</speed>
<extensions>
<speed>1.4</speed>
<temp>0.00</temp>
<bpm>0</bpm>
<rpm>0.00</rpm>
</extensions>
</trkpt>
<trkpt lat="63.989131927" lon="-19.089519501">
<ele>614.203125</ele>
<time>2012-07-23T15:23:02Z</time>
<speed>0.980000</speed>
<extensions>
<speed>1.0</speed>
<temp>0.00</temp>
<bpm>0</bpm>
<rpm>0.00</rpm>
</extensions>
</trkpt>
<trkpt lat="63.989154816" lon="-19.089572906">
<ele>614.062500</ele>
<time>2012-07-23T15:23:07Z</time>
<speed>0.010000</speed>
<extensions>
<speed>0.0</speed>
<temp>0.00</temp>
<bpm>0</bpm>
<rpm>0.00</rpm>
</extensions>
</trkpt>
<trkpt lat="63.989151001" lon="-19.089574814">
<ele>614.140625</ele>
<time>2012-07-23T15:23:12Z</time>
<speed>0.130000</speed>
<extensions>
<speed>0.1</speed>
<temp>0.00</temp>
<bpm>0</bpm>
<rpm>0.00</rpm>
</extensions>
</trkpt>
<trkpt lat="63.989189148" lon="-19.089645386">
<ele>614.625000</ele>
<time>2012-07-23T15:23:17Z</time>
<speed>1.370000</speed>
<extensions>
<speed>1.4</speed>
<temp>0.00</temp>
<bpm>0</bpm>
<rpm>0.00</rpm>
</extensions>
</trkpt>
<trkpt lat="63.989238739" lon="-19.089735031">
<ele>615.296875</ele>
<time>2012-07-23T15:23:22Z</time>
<speed>1.410000</speed>
<extensions>
<speed>1.4</speed>
<temp>0.00</temp>
<bpm>0</bpm>
<rpm>0.00</rpm>
</extensions>
</trkpt>
<trkpt lat="63.989299774" lon="-19.089780807">
<ele>615.640625</ele>
<time>2012-07-23T15:23:27Z</time>
<speed>1.350000</speed>
<extensions>
<speed>1.4</speed>
<temp>0.00</temp>
<bpm>0</bpm>
<rpm>0.00</rpm>
</extensions>
</trkpt>
<trkpt lat="63.989356995" lon="-19.089796066">
<ele>615.421875</ele>
<time>2012-07-23T15:23:32Z</time>
<speed>1.310000</speed>
<extensions>
<speed>1.3</speed>
<temp>0.00</temp>
<bpm>0</bpm>
<rpm>0.00</rpm>
</extensions>
</trkpt>
<trkpt lat="63.989421844" lon="-19.089818954">
<ele>615.640625</ele>
<time>2012-07-23T15:23:37Z</time>
<speed>1.510000</speed>
<extensions>
<speed>1.5</speed>
<temp>0.00</temp>
<bpm>0</bpm>
<rpm>0.00</rpm>
</extensions>
</trkpt>
<trkpt lat="63.989475250" lon="-19.089870453">
<ele>616.578125</ele>
<time>2012-07-23T15:23:42Z</time>
<speed>1.140000</speed>
<extensions>
<speed>1.1</speed>
<temp>0.00</temp>
<bpm>0</bpm>
<rpm>0.00</rpm>
</extensions>
</trkpt>
<trkpt lat="63.989513397" lon="-19.089893341">
<ele>617.406250</ele>
<time>2012-07-23T15:23:47Z</time>
<speed>0.990000</speed>
<extensions>
<speed>1.0</speed>
<temp>0.00</temp>
<bpm>0</bpm>
<rpm>0.00</rpm>
</extensions>
</trkpt>
<trkpt lat="63.989570618" lon="-19.089908600">
<ele>617.921875</ele>
<time>2012-07-23T15:23:52Z</time>
<speed>1.420000</speed>
<extensions>
<speed>1.4</speed>
<temp>0.00</temp>
<bpm>0</bpm>
<rpm>0.00</rpm>
</extensions>
</trkpt>
<trkpt lat="63.989604950" lon="-19.089908600">
<ele>619.000000</ele>
<time>2012-07-23T15:23:57Z</time>
<speed>0.560000</speed>
<extensions>
<speed>0.6</speed>
<temp>0.00</temp>
<bpm>0</bpm>
<rpm>0.00</rpm>
</extensions>
</trkpt>
<trkpt lat="63.989639282" lon="-19.089912415">
<ele>619.468750</ele>
<time>2012-07-23T15:24:02Z</time>
<speed>1.210000</speed>
<extensions>
<speed>1.2</speed>
<temp>0.00</temp>
<bpm>0</bpm>
<rpm>0.00</rpm>
</extensions>
</trkpt>
<trkpt lat="63.989700317" lon="-19.089939117">
<ele>620.093750</ele>
<time>2012-07-23T15:24:07Z</time>
<speed>1.220000</speed>
<extensions>
<speed>1.2</speed>
<temp>0.00</temp>
<bpm>0</bpm>
<rpm>0.00</rpm>
</extensions>
</trkpt>
<trkpt lat="63.989742279" lon="-19.089988708">
<ele>620.328125</ele>
<time>2012-07-23T15:24:12Z</time>
<speed>1.090000</speed>
<extensions>
<speed>1.1</speed>
<temp>0.00</temp>
<bpm>0</bpm>
<rpm>0.00</rpm>
</extensions>
</trkpt>
<trkpt lat="63.989788055" lon="-19.090030670">
<ele>620.718750</ele>
<time>2012-07-23T15:24:17Z</time>
<speed>1.100000</speed>
<extensions>
<speed>1.1</speed>
<temp>0.00</temp>
<bpm>0</bpm>
<rpm>0.00</rpm>
</extensions>
</trkpt>
<trkpt lat="63.989830017" lon="-19.090066910">
<ele>620.953125</ele>
<time>2012-07-23T15:24:22Z</time>
<speed>1.140000</speed>
<extensions>
<speed>1.1</speed>
<temp>0.00</temp>
<bpm>0</bpm>
<rpm>0.00</rpm>
</extensions>
</trkpt>
<trkpt lat="63.989883423" lon="-19.090118408">
<ele>621.250000</ele>
<time>2012-07-23T15:24:27Z</time>
<speed>1.280000</speed>
<extensions>
<speed>1.3</speed>
<temp>0.00</temp>
<bpm>0</bpm>
<rpm>0.00</rpm>
</extensions>
</trkpt>
<trkpt lat="63.989940643" lon="-19.090175629">
<ele>621.843750</ele>
<time>2012-07-23T15:24:32Z</time>
<speed>1.150000</speed>
<extensions>
<speed>1.1</speed>
<temp>0.00</temp>
<bpm>0</bpm>
<rpm>0.00</rpm>
</extensions>
</trkpt>
<trkpt lat="63.989994049" lon="-19.090219498">
<ele>622.062500</ele>
<time>2012-07-23T15:24:37Z</time>
<speed>1.320000</speed>
<extensions>
<speed>1.3</speed>
<temp>0.00</temp>
<bpm>0</bpm>
<rpm>0.00</rpm>
</extensions>
</trkpt>
<trkpt lat="63.990036011" lon="-19.090284348">
<ele>621.703125</ele>
<time>2012-07-23T15:24:42Z</time>
<speed>1.190000</speed>
<extensions>
<speed>1.2</speed>
<temp>0.00</temp>
<bpm>0</bpm>
<rpm>0.00</rpm>
</extensions>
</trkpt>
<trkpt lat="63.990058899" lon="-19.090404510">
<ele>621.515625</ele>
<time>2012-07-23T15:24:47Z</time>
<speed>1.250000</speed>
<extensions>
<speed>1.3</speed>
<temp>0.00</temp>
<bpm>0</bpm>
<rpm>0.00</rpm>
</extensions>
</trkpt>
<trkpt lat="63.990089417" lon="-19.090499878">
<ele>621.421875</ele>
<time>2012-07-23T15:24:52Z</time>
<speed>0.230000</speed>
<extensions>
<speed>0.2</speed>
<temp>0.00</temp>
<bpm>0</bpm>
<rpm>0.00</rpm>
</extensions>
</trkpt>
<trkpt lat="63.990093231" lon="-19.090515137">
<ele>622.953125</ele>
<time>2012-07-23T15:24:57Z</time>
<speed>0.070000</speed>
<extensions>
<speed>0.1</speed>
<temp>0.00</temp>
<bpm>0</bpm>
<rpm>0.00</rpm>
</extensions>
</trkpt>
<trkpt lat="63.990104675" lon="-19.090562820">
<ele>623.046875</ele>
<time>2012-07-23T15:25:02Z</time>
<speed>1.230000</speed>
<extensions>
<speed>1.2</speed>
<temp>0.00</temp>
<bpm>0</bpm>
<rpm>0.00</rpm>
</extensions>
</trkpt>
<trkpt lat="63.990127563" lon="-19.090669632">
<ele>622.296875</ele>
<time>2012-07-23T15:25:07Z</time>
<speed>1.320000</speed>
<extensions>
<speed>1.3</speed>
<temp>0.00</temp>
<bpm>0</bpm>
<rpm>0.00</rpm>
</extensions>
</trkpt>
<trkpt lat="63.990142822" lon="-19.090778351">
<ele>622.234375</ele>
<time>2012-07-23T15:25:12Z</time>
<speed>1.180000</speed>
<extensions>
<speed>1.2</speed>
<temp>0.00</temp>
<bpm>0</bpm>
<rpm>0.00</rpm>
</extensions>
</trkpt>
<trkpt lat="63.990158081" lon="-19.090869904">
<ele>622.062500</ele>
<time>2012-07-23T15:25:17Z</time>
<speed>1.120000</speed>
<extensions>
<speed>1.1</speed>
<temp>0.00</temp>
<bpm>0</bpm>
<rpm>0.00</rpm>
</extensions>
</trkpt>
<trkpt lat="63.990165710" lon="-19.090984344">
<ele>620.984375</ele>
<time>2012-07-23T15:25:22Z</time>
<speed>1.300000</speed>
<extensions>
<speed>1.3</speed>
<temp>0.00</temp>
<bpm>0</bpm>
<rpm>0.00</rpm>
</extensions>
</trkpt>
<trkpt lat="63.990161896" lon="-19.091127396">
<ele>619.984375</ele>
<time>2012-07-23T15:25:27Z</time>
<speed>1.350000</speed>
<extensions>
<speed>1.4</speed>
<temp>0.00</temp>
<bpm>0</bpm>
<rpm>0.00</rpm>
</extensions>
</trkpt>
<trkpt lat="63.990165710" lon="-19.091255188">
<ele>619.171875</ele>
<time>2012-07-23T15:25:32Z</time>
<speed>1.330000</speed>
<extensions>
<speed>1.3</speed>
<temp>0.00</temp>
<bpm>0</bpm>
<rpm>0.00</rpm>
</extensions>
</trkpt>
<trkpt lat="63.990165710" lon="-19.091371536">
<ele>618.437500</ele>
<time>2012-07-23T15:25:37Z</time>
<speed>1.360000</speed>
<extensions>
<speed>1.4</speed>
<temp>0.00</temp>
<bpm>0</bpm>
<rpm>0.00</rpm>
</extensions>
</trkpt>
<trkpt lat="63.990161896" lon="-19.091505051">
<ele>618.812500</ele>
<time>2012-07-23T15:25:42Z</time>
<speed>1.400000</speed>
<extensions>
<speed>1.4</speed>
<temp>0.00</temp>
<bpm>0</bpm>
<rpm>0.00</rpm>
</extensions>
</trkpt>
<trkpt lat="63.990169525" lon="-19.091630936">
<ele>618.750000</ele>
<time>2012-07-23T15:25:47Z</time>
<speed>1.300000</speed>
<extensions>
<speed>1.3</speed>
<temp>0.00</temp>
<bpm>0</bpm>
<rpm>0.00</rpm>
</extensions>
</trkpt>
<trkpt lat="63.990158081" lon="-19.091777802">
<ele>618.265625</ele>
<time>2012-07-23T15:25:52Z</time>
<speed>1.290000</speed>
<extensions>
<speed>1.3</speed>
<temp>0.00</temp>
<bpm>0</bpm>
<rpm>0.00</rpm>
</extensions>
</trkpt>
<trkpt lat="63.990127563" lon="-19.091897964">
<ele>618.562500</ele>
<time>2012-07-23T15:25:57Z</time>
<speed>1.000000</speed>
<extensions>
<speed>1.0</speed>
<temp>0.00</temp>
<bpm>0</bpm>
<rpm>0.00</rpm>
</extensions>
</trkpt>
<trkpt lat="63.990097046" lon="-19.091995239">
<ele>619.015625</ele>
<time>2012-07-23T15:26:02Z</time>
<speed>1.110000</speed>
<extensions>
<speed>1.1</speed>
<temp>0.00</temp>
<bpm>0</bpm>
<rpm>0.00</rpm>
</extensions>
</trkpt>
<trkpt lat="63.990066528" lon="-19.092115402">
<ele>618.968750</ele>
<time>2012-07-23T15:26:07Z</time>
<speed>1.320000</speed>
<extensions>
<speed>1.3</speed>
<temp>0.00</temp>
<bpm>0</bpm>
<rpm>0.00</rpm>
</extensions>
</trkpt>
<trkpt lat="63.990032196" lon="-19.092222214">
<ele>620.156250</ele>
<time>2012-07-23T15:26:12Z</time>
<speed>1.200000</speed>
<extensions>
<speed>1.2</speed>
<temp>0.00</temp>
<bpm>0</bpm>
<rpm>0.00</rpm>
</extensions>
</trkpt>
<trkpt lat="63.989994049" lon="-19.092296600">
<ele>620.593750</ele>
<time>2012-07-23T15:26:17Z</time>
<speed>1.190000</speed>
<extensions>
<speed>1.2</speed>
<temp>0.00</temp>
<bpm>0</bpm>
<rpm>0.00</rpm>
</extensions>
</trkpt>
<trkpt lat="63.989982605" lon="-19.092298508">
<ele>620.781250</ele>
<time>2012-07-23T15:26:22Z</time>
<speed>0.330000</speed>
<extensions>
<speed>0.3</speed>
<temp>0.00</temp>
<bpm>0</bpm>
<rpm>0.00</rpm>
</extensions>
</trkpt>
<trkpt lat="63.989963531" lon="-19.092355728">
<ele>620.750000</ele>
<time>2012-07-23T15:26:27Z</time>
<speed>1.200000</speed>
<extensions>
<speed>1.2</speed>
<temp>0.00</temp>
<bpm>0</bpm>
<rpm>0.00</rpm>
</extensions>
</trkpt>
<trkpt lat="63.989925385" lon="-19.092453003">
<ele>621.250000</ele>
<time>2012-07-23T15:26:32Z</time>
<speed>1.120000</speed>
<extensions>
<speed>1.1</speed>
<temp>0.00</temp>
<bpm>0</bpm>
<rpm>0.00</rpm>
</extensions>
</trkpt>
<trkpt lat="63.989902496" lon="-19.092546463">
<ele>621.046875</ele>
<time>2012-07-23T15:26:37Z</time>
<speed>1.370000</speed>
<extensions>
<speed>1.4</speed>
<temp>0.00</temp>
<bpm>0</bpm>
<rpm>0.00</rpm>
</extensions>
</trkpt>
<trkpt lat="63.989875793" lon="-19.092678070">
<ele>620.281250</ele>
<time>2012-07-23T15:26:42Z</time>
<speed>1.430000</speed>
<extensions>
<speed>1.4</speed>
<temp>0.00</temp>
<bpm>0</bpm>
<rpm>0.00</rpm>
</extensions>
</trkpt>
<trkpt lat="63.989871979" lon="-19.092807770">
<ele>620.312500</ele>
<time>2012-07-23T15:26:47Z</time>
<speed>1.340000</speed>
<extensions>
<speed>1.3</speed>
<temp>0.00</temp>
<bpm>0</bpm>
<rpm>0.00</rpm>
</extensions>
</trkpt>
<trkpt lat="63.989868164" lon="-19.092866898">
<ele>620.265625</ele>
<time>2012-07-23T15:26:52Z</time>
<extensions>
<speed>0.0</speed>
<temp>0.00</temp>
<bpm>0</bpm>
<rpm>0.00</rpm>
</extensions>
</trkpt>
<trkpt lat="63.989871979" lon="-19.092891693">
<ele>620.359375</ele>
<time>2012-07-23T15:26:57Z</time>
<speed>1.060000</speed>
<extensions>
<speed>1.1</speed>
<temp>0.00</temp>
<bpm>0</bpm>
<rpm>0.00</rpm>
</extensions>
</trkpt>
<trkpt lat="63.989879608" lon="-19.092983246">
<ele>620.140625</ele>
<time>2012-07-23T15:27:02Z</time>
<speed>1.240000</speed>
<extensions>
<speed>1.2</speed>
<temp>0.00</temp>
<bpm>0</bpm>
<rpm>0.00</rpm>
</extensions>
</trkpt>
<trkpt lat="63.989887238" lon="-19.093090057">
<ele>620.265625</ele>
<time>2012-07-23T15:27:07Z</time>
<speed>1.120000</speed>
<extensions>
<speed>1.1</speed>
<temp>0.00</temp>
<bpm>0</bpm>
<rpm>0.00</rpm>
</extensions>
</trkpt>
<trkpt lat="63.989921570" lon="-19.093202591">
<ele>620.906250</ele>
<time>2012-07-23T15:27:12Z</time>
<speed>1.530000</speed>
<extensions>
<speed>1.5</speed>
<temp>0.00</temp>
<bpm>0</bpm>
<rpm>0.00</rpm>
</extensions>
</trkpt>
<trkpt lat="63.989955902" lon="-19.093292236">
<ele>620.656250</ele>
<time>2012-07-23T15:27:17Z</time>
<speed>1.440000</speed>
<extensions>
<speed>1.4</speed>
<temp>0.00</temp>
<bpm>0</bpm>
<rpm>0.00</rpm>
</extensions>
</trkpt>
<trkpt lat="63.990005493" lon="-19.093366623">
<ele>620.046875</ele>
<time>2012-07-23T15:27:22Z</time>
<speed>1.200000</speed>
<extensions>
<speed>1.2</speed>
<temp>0.00</temp>
<bpm>0</bpm>
<rpm>0.00</rpm>
</extensions>
</trkpt>
<trkpt lat="63.990066528" lon="-19.093421936">
<ele>620.078125</ele>
<time>2012-07-23T15:27:27Z</time>
<speed>1.370000</speed>
<extensions>
<speed>1.4</speed>
<temp>0.00</temp>
<bpm>0</bpm>
<rpm>0.00</rpm>
</extensions>
</trkpt>
<trkpt lat="63.990119934" lon="-19.093490601">
<ele>620.578125</ele>
<time>2012-07-23T15:27:32Z</time>
<speed>1.090000</speed>
<extensions>
<speed>1.1</speed>
<temp>0.00</temp>
<bpm>0</bpm>
<rpm>0.00</rpm>
</extensions>
</trkpt>
<trkpt lat="63.990165710" lon="-19.093538284">
<ele>620.984375</ele>
<time>2012-07-23T15:27:37Z</time>
<speed>1.380000</speed>
<extensions>
<speed>1.4</speed>
<temp>0.00</temp>
<bpm>0</bpm>
<rpm>0.00</rpm>
</extensions>
</trkpt>
<trkpt lat="63.990215302" lon="-19.093606949">
<ele>621.218750</ele>
<time>2012-07-23T15:27:42Z</time>
<speed>1.270000</speed>
<extensions>
<speed>1.3</speed>
<temp>0.00</temp>
<bpm>0</bpm>
<rpm>0.00</rpm>
</extensions>
</trkpt>
<trkpt lat="63.990257263" lon="-19.093688965">
<ele>620.968750</ele>
<time>2012-07-23T15:27:47Z</time>
<speed>0.730000</speed>
<extensions>
<speed>0.7</speed>
<temp>0.00</temp>
<bpm>0</bpm>
<rpm>0.00</rpm>
</extensions>
</trkpt>
<trkpt lat="63.990261078" lon="-19.093692780">
<ele>620.734375</ele>
<time>2012-07-23T15:27:52Z</time>
<speed>0.290000</speed>
<extensions>
<speed>0.3</speed>
<temp>0.00</temp>
<bpm>0</bpm>
<rpm>0.00</rpm>
</extensions>
</trkpt>
<trkpt lat="63.990264893" lon="-19.093700409">
<ele>620.640625</ele>
<time>2012-07-23T15:27:57Z</time>
<speed>0.010000</speed>
<extensions>
<speed>0.0</speed>
<temp>0.00</temp>
<bpm>0</bpm>
<rpm>0.00</rpm>
</extensions>
</trkpt>
<trkpt lat="63.990264893" lon="-19.093700409">
<ele>620.640625</ele>
<time>2012-07-23T15:28:02Z</time>
<speed>0.050000</speed>
<extensions>
<speed>0.1</speed>
<temp>0.00</temp>
<bpm>0</bpm>
<rpm>0.00</rpm>
</extensions>
</trkpt>
<trkpt lat="63.990264893" lon="-19.093700409">
<ele>620.609375</ele>
<time>2012-07-23T15:28:07Z</time>
<speed>0.030000</speed>
<extensions>
<speed>0.0</speed>
<temp>0.00</temp>
<bpm>0</bpm>
<rpm>0.00</rpm>
</extensions>
</trkpt>
<trkpt lat="63.990276337" lon="-19.093763351">
<ele>621.421875</ele>
<time>2012-07-23T15:28:12Z</time>
<speed>1.160000</speed>
<extensions>
<speed>1.2</speed>
<temp>0.00</temp>
<bpm>0</bpm>
<rpm>0.00</rpm>
</extensions>
</trkpt>
<trkpt lat="63.990280151" lon="-19.093902588">
<ele>621.859375</ele>
<time>2012-07-23T15:28:17Z</time>
<speed>1.330000</speed>
<extensions>
<speed>1.3</speed>
<temp>0.00</temp>
<bpm>0</bpm>
<rpm>0.00</rpm>
</extensions>
</trkpt>
<trkpt lat="63.990287781" lon="-19.094018936">
<ele>622.281250</ele>
<time>2012-07-23T15:28:22Z</time>
<speed>1.240000</speed>
<extensions>
<speed>1.2</speed>
<temp>0.00</temp>
<bpm>0</bpm>
<rpm>0.00</rpm>
</extensions>
</trkpt>
<trkpt lat="63.990295410" lon="-19.094161987">
<ele>622.093750</ele>
<time>2012-07-23T15:28:27Z</time>
<speed>1.290000</speed>
<extensions>
<speed>1.3</speed>
<temp>0.00</temp>
<bpm>0</bpm>
<rpm>0.00</rpm>
</extensions>
</trkpt>
<trkpt lat="63.990295410" lon="-19.094314575">
<ele>621.656250</ele>
<time>2012-07-23T15:28:32Z</time>
<speed>1.520000</speed>
<extensions>
<speed>1.5</speed>
<temp>0.00</temp>
<bpm>0</bpm>
<rpm>0.00</rpm>
</extensions>
</trkpt>
<trkpt lat="63.990295410" lon="-19.094419479">
<ele>621.625000</ele>
<time>2012-07-23T15:28:37Z</time>
<speed>0.740000</speed>
<extensions>
<speed>0.7</speed>
<temp>0.00</temp>
<bpm>0</bpm>
<rpm>0.00</rpm>
</extensions>
</trkpt>
<trkpt lat="63.990306854" lon="-19.094541550">
<ele>620.984375</ele>
<time>2012-07-23T15:28:42Z</time>
<speed>1.150000</speed>
<extensions>
<speed>1.1</speed>
<temp>0.00</temp>
<bpm>0</bpm>
<rpm>0.00</rpm>
</extensions>
</trkpt>
<trkpt lat="63.990314484" lon="-19.094671249">
<ele>620.171875</ele>
<time>2012-07-23T15:28:47Z</time>
<speed>1.320000</speed>
<extensions>
<speed>1.3</speed>
<temp>0.00</temp>
<bpm>0</bpm>
<rpm>0.00</rpm>
</extensions>
</trkpt>
<trkpt lat="63.990318298" lon="-19.094823837">
<ele>619.171875</ele>
<time>2012-07-23T15:28:52Z</time>
<speed>1.230000</speed>
<extensions>
<speed>1.2</speed>
<temp>0.00</temp>
<bpm>0</bpm>
<rpm>0.00</rpm>
</extensions>
</trkpt>
<trkpt lat="63.990318298" lon="-19.094945908">
<ele>620.718750</ele>
<time>2012-07-23T15:28:57Z</time>
<speed>0.620000</speed>
<extensions>
<speed>0.6</speed>
<temp>0.00</temp>
<bpm>0</bpm>
<rpm>0.00</rpm>
</extensions>
</trkpt>
<trkpt lat="63.990325928" lon="-19.095060349">
<ele>621.515625</ele>
<time>2012-07-23T15:29:02Z</time>
<speed>0.960000</speed>
<extensions>
<speed>1.0</speed>
<temp>0.00</temp>
<bpm>0</bpm>
<rpm>0.00</rpm>
</extensions>
</trkpt>
<trkpt lat="63.990322113" lon="-19.095144272">
<ele>623.750000</ele>
<time>2012-07-23T15:29:07Z</time>
<speed>0.650000</speed>
<extensions>
<speed>0.6</speed>
<temp>0.00</temp>
<bpm>0</bpm>
<rpm>0.00</rpm>
</extensions>
</trkpt>
<trkpt lat="63.990337372" lon="-19.095233917">
<ele>623.093750</ele>
<time>2012-07-23T15:29:12Z</time>
<speed>0.630000</speed>
<extensions>
<speed>0.6</speed>
<temp>0.00</temp>
<bpm>0</bpm>
<rpm>0.00</rpm>
</extensions>
</trkpt>
<trkpt lat="63.990341187" lon="-19.095310211">
<ele>624.406250</ele>
<time>2012-07-23T15:29:17Z</time>
<speed>0.760000</speed>
<extensions>
<speed>0.8</speed>
<temp>0.00</temp>
<bpm>0</bpm>
<rpm>0.00</rpm>
</extensions>
</trkpt>
<trkpt lat="63.990356445" lon="-19.095409393">
<ele>624.218750</ele>
<time>2012-07-23T15:29:22Z</time>
<speed>1.170000</speed>
<extensions>
<speed>1.2</speed>
<temp>0.00</temp>
<bpm>0</bpm>
<rpm>0.00</rpm>
</extensions>
</trkpt>
<trkpt lat="63.990364075" lon="-19.095544815">
<ele>623.015625</ele>
<time>2012-07-23T15:29:27Z</time>
<speed>1.370000</speed>
<extensions>
<speed>1.4</speed>
<temp>0.00</temp>
<bpm>0</bpm>
<rpm>0.00</rpm>
</extensions>
</trkpt>
<trkpt lat="63.990371704" lon="-19.095672607">
<ele>622.703125</ele>
<time>2012-07-23T15:29:32Z</time>
<speed>1.320000</speed>
<extensions>
<speed>1.3</speed>
<temp>0.00</temp>
<bpm>0</bpm>
<rpm>0.00</rpm>
</extensions>
</trkpt>
<trkpt lat="63.990390778" lon="-19.095796585">
<ele>622.468750</ele>
<time>2012-07-23T15:29:37Z</time>
<speed>1.300000</speed>
<extensions>
<speed>1.3</speed>
<temp>0.00</temp>
<bpm>0</bpm>
<rpm>0.00</rpm>
</extensions>
</trkpt>
<trkpt lat="63.990406036" lon="-19.095893860">
<ele>622.312500</ele>
<time>2012-07-23T15:29:42Z</time>
<speed>1.170000</speed>
<extensions>
<speed>1.2</speed>
<temp>0.00</temp>
<bpm>0</bpm>
<rpm>0.00</rpm>
</extensions>
</trkpt>
<trkpt lat="63.990406036" lon="-19.095928192">
<ele>622.968750</ele>
<time>2012-07-23T15:29:47Z</time>
<speed>0.340000</speed>
<extensions>
<speed>0.3</speed>
<temp>0.00</temp>
<bpm>0</bpm>
<rpm>0.00</rpm>
</extensions>
</trkpt>
<trkpt lat="63.990390778" lon="-19.095973969">
<ele>624.203125</ele>
<time>2012-07-23T15:29:52Z</time>
<speed>0.780000</speed>
<extensions>
<speed>0.8</speed>
<temp>0.00</temp>
<bpm>0</bpm>
<rpm>0.00</rpm>
</extensions>
</trkpt>
<trkpt lat="63.990386963" lon="-19.096019745">
<ele>625.140625</ele>
<time>2012-07-23T15:29:57Z</time>
<speed>0.170000</speed>
<extensions>
<speed>0.2</speed>
<temp>0.00</temp>
<bpm>0</bpm>
<rpm>0.00</rpm>
</extensions>
</trkpt>
<trkpt lat="63.990375519" lon="-19.096002579">
<ele>624.593750</ele>
<time>2012-07-23T15:30:02Z</time>
<speed>0.710000</speed>
<extensions>
<speed>0.7</speed>
<temp>0.00</temp>
<bpm>0</bpm>
<rpm>0.00</rpm>
</extensions>
</trkpt>
<trkpt lat="63.990375519" lon="-19.095949173">
<ele>623.921875</ele>
<time>2012-07-23T15:30:07Z</time>
<speed>0.450000</speed>
<extensions>
<speed>0.5</speed>
<temp>0.00</temp>
<bpm>0</bpm>
<rpm>0.00</rpm>
</extensions>
</trkpt>
<trkpt lat="63.990394592" lon="-19.096035004">
<ele>624.250000</ele>
<time>2012-07-23T15:30:12Z</time>
<speed>0.650000</speed>
<extensions>
<speed>0.6</speed>
<temp>0.00</temp>
<bpm>0</bpm>
<rpm>0.00</rpm>
</extensions>
</trkpt>
<trkpt lat="63.990406036" lon="-19.096136093">
<ele>624.875000</ele>
<time>2012-07-23T15:30:17Z</time>
<speed>1.090000</speed>
<extensions>
<speed>1.1</speed>
<temp>0.00</temp>
<bpm>0</bpm>
<rpm>0.00</rpm>
</extensions>
</trkpt>
<trkpt lat="63.990413666" lon="-19.096244812">
<ele>624.921875</ele>
<time>2012-07-23T15:30:22Z</time>
<speed>1.130000</speed>
<extensions>
<speed>1.1</speed>
<temp>0.00</temp>
<bpm>0</bpm>
<rpm>0.00</rpm>
</extensions>
</trkpt>
<trkpt lat="63.990413666" lon="-19.096342087">
<ele>625.703125</ele>
<time>2012-07-23T15:30:27Z</time>
<speed>1.120000</speed>
<extensions>
<speed>1.1</speed>
<temp>0.00</temp>
<bpm>0</bpm>
<rpm>0.00</rpm>
</extensions>
</trkpt>
<trkpt lat="63.990409851" lon="-19.096454620">
<ele>625.890625</ele>
<time>2012-07-23T15:30:32Z</time>
<speed>1.110000</speed>
<extensions>
<speed>1.1</speed>
<temp>0.00</temp>
<bpm>0</bpm>
<rpm>0.00</rpm>
</extensions>
</trkpt>
<trkpt lat="63.990413666" lon="-19.096570969">
<ele>625.718750</ele>
<time>2012-07-23T15:30:37Z</time>
<speed>1.020000</speed>
<extensions>
<speed>1.0</speed>
<temp>0.00</temp>
<bpm>0</bpm>
<rpm>0.00</rpm>
</extensions>
</trkpt>
<trkpt lat="63.990425110" lon="-19.096681595">
<ele>625.593750</ele>
<time>2012-07-23T15:30:42Z</time>
<speed>1.200000</speed>
<extensions>
<speed>1.2</speed>
<temp>0.00</temp>
<bpm>0</bpm>
<rpm>0.00</rpm>
</extensions>
</trkpt>
<trkpt lat="63.990432739" lon="-19.096832275">
<ele>622.937500</ele>
<time>2012-07-23T15:30:47Z</time>
<speed>1.380000</speed>
<extensions>
<speed>1.4</speed>
<temp>0.00</temp>
<bpm>0</bpm>
<rpm>0.00</rpm>
</extensions>
</trkpt>
<trkpt lat="63.990440369" lon="-19.096946716">
<ele>623.859375</ele>
<time>2012-07-23T15:30:52Z</time>
<speed>1.060000</speed>
<extensions>
<speed>1.1</speed>
<temp>0.00</temp>
<bpm>0</bpm>
<rpm>0.00</rpm>
</extensions>
</trkpt>
<trkpt lat="63.990440369" lon="-19.097043991">
<ele>624.406250</ele>
<time>2012-07-23T15:30:57Z</time>
<speed>0.540000</speed>
<extensions>
<speed>0.5</speed>
<temp>0.00</temp>
<bpm>0</bpm>
<rpm>0.00</rpm>
</extensions>
</trkpt>
<trkpt lat="63.990440369" lon="-19.097118378">
<ele>625.187500</ele>
<time>2012-07-23T15:31:02Z</time>
<speed>0.110000</speed>
<extensions>
<speed>0.1</speed>
<temp>0.00</temp>
<bpm>0</bpm>
<rpm>0.00</rpm>
</extensions>
</trkpt>
<trkpt lat="63.990444183" lon="-19.097171783">
<ele>624.593750</ele>
<time>2012-07-23T15:31:07Z</time>
<speed>0.990000</speed>
<extensions>
<speed>1.0</speed>
<temp>0.00</temp>
<bpm>0</bpm>
<rpm>0.00</rpm>
</extensions>
</trkpt>
<trkpt lat="63.990455627" lon="-19.097257614">
<ele>624.765625</ele>
<time>2012-07-23T15:31:12Z</time>
<speed>0.870000</speed>
<extensions>
<speed>0.9</speed>
<temp>0.00</temp>
<bpm>0</bpm>
<rpm>0.00</rpm>
</extensions>
</trkpt>
<trkpt lat="63.990474701" lon="-19.097366333">
<ele>624.250000</ele>
<time>2012-07-23T15:31:17Z</time>
<speed>1.300000</speed>
<extensions>
<speed>1.3</speed>
<temp>0.00</temp>
<bpm>0</bpm>
<rpm>0.00</rpm>
</extensions>
</trkpt>
<trkpt lat="63.990493774" lon="-19.097431183">
<ele>623.343750</ele>
<time>2012-07-23T15:31:22Z</time>
<speed>0.820000</speed>
<extensions>
<speed>0.8</speed>
<temp>0.00</temp>
<bpm>0</bpm>
<rpm>0.00</rpm>
</extensions>
</trkpt>
<trkpt lat="63.990528107" lon="-19.097560883">
<ele>622.906250</ele>
<time>2012-07-23T15:31:27Z</time>
<speed>1.310000</speed>
<extensions>
<speed>1.3</speed>
<temp>0.00</temp>
<bpm>0</bpm>
<rpm>0.00</rpm>
</extensions>
</trkpt>
<trkpt lat="63.990550995" lon="-19.097669601">
<ele>623.140625</ele>
<time>2012-07-23T15:31:32Z</time>
<speed>1.270000</speed>
<extensions>
<speed>1.3</speed>
<temp>0.00</temp>
<bpm>0</bpm>
<rpm>0.00</rpm>
</extensions>
</trkpt>
<trkpt lat="63.990577698" lon="-19.097772598">
<ele>623.968750</ele>
<time>2012-07-23T15:31:37Z</time>
<speed>1.130000</speed>
<extensions>
<speed>1.1</speed>
<temp>0.00</temp>
<bpm>0</bpm>
<rpm>0.00</rpm>
</extensions>
</trkpt>
<trkpt lat="63.990596771" lon="-19.097860336">
<ele>624.187500</ele>
<time>2012-07-23T15:31:42Z</time>
<speed>1.050000</speed>
<extensions>
<speed>1.0</speed>
<temp>0.00</temp>
<bpm>0</bpm>
<rpm>0.00</rpm>
</extensions>
</trkpt>
<trkpt lat="63.990585327" lon="-19.097869873">
<ele>623.390625</ele>
<time>2012-07-23T15:31:47Z</time>
<speed>0.170000</speed>
<extensions>
<speed>0.2</speed>
<temp>0.00</temp>
<bpm>0</bpm>
<rpm>0.00</rpm>
</extensions>
</trkpt>
<trkpt lat="63.990592957" lon="-19.097843170">
<ele>622.609375</ele>
<time>2012-07-23T15:31:52Z</time>
<speed>0.240000</speed>
<extensions>
<speed>0.2</speed>
<temp>0.00</temp>
<bpm>0</bpm>
<rpm>0.00</rpm>
</extensions>
</trkpt>
<trkpt lat="63.990623474" lon="-19.097862244">
<ele>622.500000</ele>
<time>2012-07-23T15:31:57Z</time>
<speed>1.910000</speed>
<extensions>
<speed>1.9</speed>
<temp>0.00</temp>
<bpm>0</bpm>
<rpm>0.00</rpm>
</extensions>
</trkpt>
<trkpt lat="63.990661621" lon="-19.097900391">
<ele>622.859375</ele>
<time>2012-07-23T15:32:02Z</time>
<speed>1.560000</speed>
<extensions>
<speed>1.6</speed>
<temp>0.00</temp>
<bpm>0</bpm>
<rpm>0.00</rpm>
</extensions>
</trkpt>
<trkpt lat="63.990676880" lon="-19.097988129">
<ele>623.828125</ele>
<time>2012-07-23T15:32:07Z</time>
<speed>1.240000</speed>
<extensions>
<speed>1.2</speed>
<temp>0.00</temp>
<bpm>0</bpm>
<rpm>0.00</rpm>
</extensions>
</trkpt>
<trkpt lat="63.990718842" lon="-19.098087311">
<ele>624.734375</ele>
<time>2012-07-23T15:32:12Z</time>
<speed>1.240000</speed>
<extensions>
<speed>1.2</speed>
<temp>0.00</temp>
<bpm>0</bpm>
<rpm>0.00</rpm>
</extensions>
</trkpt>
<trkpt lat="63.990753174" lon="-19.098169327">
<ele>625.656250</ele>
<time>2012-07-23T15:32:17Z</time>
<speed>1.310000</speed>
<extensions>
<speed>1.3</speed>
<temp>0.00</temp>
<bpm>0</bpm>
<rpm>0.00</rpm>
</extensions>
</trkpt>
<trkpt lat="63.990795135" lon="-19.098257065">
<ele>626.890625</ele>
<time>2012-07-23T15:32:22Z</time>
<speed>1.310000</speed>
<extensions>
<speed>1.3</speed>
<temp>0.00</temp>
<bpm>0</bpm>
<rpm>0.00</rpm>
</extensions>
</trkpt>
<trkpt lat="63.990829468" lon="-19.098356247">
<ele>627.562500</ele>
<time>2012-07-23T15:32:27Z</time>
<speed>1.570000</speed>
<extensions>
<speed>1.6</speed>
<temp>0.00</temp>
<bpm>0</bpm>
<rpm>0.00</rpm>
</extensions>
</trkpt>
<trkpt lat="63.990886688" lon="-19.098390579">
<ele>627.921875</ele>
<time>2012-07-23T15:32:32Z</time>
<speed>1.070000</speed>
<extensions>
<speed>1.1</speed>
<temp>0.00</temp>
<bpm>0</bpm>
<rpm>0.00</rpm>
</extensions>
</trkpt>
<trkpt lat="63.990932465" lon="-19.098419189">
<ele>628.140625</ele>
<time>2012-07-23T15:32:37Z</time>
<speed>1.350000</speed>
<extensions>
<speed>1.4</speed>
<temp>0.00</temp>
<bpm>0</bpm>
<rpm>0.00</rpm>
</extensions>
</trkpt>
<trkpt lat="63.990982056" lon="-19.098526001">
<ele>628.484375</ele>
<time>2012-07-23T15:32:42Z</time>
<speed>1.350000</speed>
<extensions>
<speed>1.4</speed>
<temp>0.00</temp>
<bpm>0</bpm>
<rpm>0.00</rpm>
</extensions>
</trkpt>
<trkpt lat="63.991027832" lon="-19.098627090">
<ele>628.406250</ele>
<time>2012-07-23T15:32:47Z</time>
<speed>1.130000</speed>
<extensions>
<speed>1.1</speed>
<temp>0.00</temp>
<bpm>0</bpm>
<rpm>0.00</rpm>
</extensions>
</trkpt>
<trkpt lat="63.991081238" lon="-19.098716736">
<ele>628.953125</ele>
<time>2012-07-23T15:32:52Z</time>
<speed>1.380000</speed>
<extensions>
<speed>1.4</speed>
<temp>0.00</temp>
<bpm>0</bpm>
<rpm>0.00</rpm>
</extensions>
</trkpt>
<trkpt lat="63.991138458" lon="-19.098794937">
<ele>628.921875</ele>
<time>2012-07-23T15:32:57Z</time>
<speed>1.260000</speed>
<extensions>
<speed>1.3</speed>
<temp>0.00</temp>
<bpm>0</bpm>
<rpm>0.00</rpm>
</extensions>
</trkpt>
<trkpt lat="63.991184235" lon="-19.098878860">
<ele>629.109375</ele>
<time>2012-07-23T15:33:02Z</time>
<speed>1.390000</speed>
<extensions>
<speed>1.4</speed>
<temp>0.00</temp>
<bpm>0</bpm>
<rpm>0.00</rpm>
</extensions>
</trkpt>
<trkpt lat="63.991230011" lon="-19.098970413">
<ele>628.484375</ele>
<time>2012-07-23T15:33:07Z</time>
<speed>1.470000</speed>
<extensions>
<speed>1.5</speed>
<temp>0.00</temp>
<bpm>0</bpm>
<rpm>0.00</rpm>
</extensions>
</trkpt>
<trkpt lat="63.991275787" lon="-19.099040985">
<ele>628.343750</ele>
<time>2012-07-23T15:33:12Z</time>
<speed>1.430000</speed>
<extensions>
<speed>1.4</speed>
<temp>0.00</temp>
<bpm>0</bpm>
<rpm>0.00</rpm>
</extensions>
</trkpt>
<trkpt lat="63.991321564" lon="-19.099117279">
<ele>628.750000</ele>
<time>2012-07-23T15:33:17Z</time>
<speed>1.250000</speed>
<extensions>
<speed>1.3</speed>
<temp>0.00</temp>
<bpm>0</bpm>
<rpm>0.00</rpm>
</extensions>
</trkpt>
<trkpt lat="63.991374969" lon="-19.099201202">
<ele>628.859375</ele>
<time>2012-07-23T15:33:22Z</time>
<speed>1.380000</speed>
<extensions>
<speed>1.4</speed>
<temp>0.00</temp>
<bpm>0</bpm>
<rpm>0.00</rpm>
</extensions>
</trkpt>
<trkpt lat="63.991420746" lon="-19.099285126">
<ele>628.796875</ele>
<time>2012-07-23T15:33:27Z</time>
<speed>1.400000</speed>
<extensions>
<speed>1.4</speed>
<temp>0.00</temp>
<bpm>0</bpm>
<rpm>0.00</rpm>
</extensions>
</trkpt>
<trkpt lat="63.991477966" lon="-19.099384308">
<ele>628.781250</ele>
<time>2012-07-23T15:33:32Z</time>
<speed>1.270000</speed>
<extensions>
<speed>1.3</speed>
<temp>0.00</temp>
<bpm>0</bpm>
<rpm>0.00</rpm>
</extensions>
</trkpt>
<trkpt lat="63.991516113" lon="-19.099458694">
<ele>628.734375</ele>
<time>2012-07-23T15:33:37Z</time>
<speed>0.830000</speed>
<extensions>
<speed>0.8</speed>
<temp>0.00</temp>
<bpm>0</bpm>
<rpm>0.00</rpm>
</extensions>
</trkpt>
<trkpt lat="63.991565704" lon="-19.099525452">
<ele>628.890625</ele>
<time>2012-07-23T15:33:42Z</time>
<speed>1.230000</speed>
<extensions>
<speed>1.2</speed>
<temp>0.00</temp>
<bpm>0</bpm>
<rpm>0.00</rpm>
</extensions>
</trkpt>
<trkpt lat="63.991607666" lon="-19.099599838">
<ele>629.625000</ele>
<time>2012-07-23T15:33:47Z</time>
<speed>0.480000</speed>
<extensions>
<speed>0.5</speed>
<temp>0.00</temp>
<bpm>0</bpm>
<rpm>0.00</rpm>
</extensions>
</trkpt>
<trkpt lat="63.991638184" lon="-19.099658966">
<ele>630.468750</ele>
<time>2012-07-23T15:33:52Z</time>
<speed>0.700000</speed>
<extensions>
<speed>0.7</speed>
<temp>0.00</temp>
<bpm>0</bpm>
<rpm>0.00</rpm>
</extensions>
</trkpt>
<trkpt lat="63.991645813" lon="-19.099662781">
<ele>629.500000</ele>
<time>2012-07-23T15:33:57Z</time>
<speed>0.020000</speed>
<extensions>
<speed>0.0</speed>
<temp>0.00</temp>
<bpm>0</bpm>
<rpm>0.00</rpm>
</extensions>
</trkpt>
<trkpt lat="63.991645813" lon="-19.099662781">
<ele>629.437500</ele>
<time>2012-07-23T15:34:02Z</time>
<speed>0.580000</speed>
<extensions>
<speed>0.6</speed>
<temp>0.00</temp>
<bpm>0</bpm>
<rpm>0.00</rpm>
</extensions>
</trkpt>
<trkpt lat="63.991699219" lon="-19.099760056">
<ele>628.968750</ele>
<time>2012-07-23T15:34:07Z</time>
<speed>1.270000</speed>
<extensions>
<speed>1.3</speed>
<temp>0.00</temp>
<bpm>0</bpm>
<rpm>0.00</rpm>
</extensions>
</trkpt>
<trkpt lat="63.991744995" lon="-19.099853516">
<ele>628.468750</ele>
<time>2012-07-23T15:34:12Z</time>
<speed>1.270000</speed>
<extensions>
<speed>1.3</speed>
<temp>0.00</temp>
<bpm>0</bpm>
<rpm>0.00</rpm>
</extensions>
</trkpt>
<trkpt lat="63.991775513" lon="-19.099933624">
<ele>627.562500</ele>
<time>2012-07-23T15:34:17Z</time>
<speed>1.220000</speed>
<extensions>
<speed>1.2</speed>
<temp>0.00</temp>
<bpm>0</bpm>
<rpm>0.00</rpm>
</extensions>
</trkpt>
<trkpt lat="63.991790771" lon="-19.100030899">
<ele>627.375000</ele>
<time>2012-07-23T15:34:22Z</time>
<speed>1.090000</speed>
<extensions>
<speed>1.1</speed>
<temp>0.00</temp>
<bpm>0</bpm>
<rpm>0.00</rpm>
</extensions>
</trkpt>
<trkpt lat="63.991809845" lon="-19.100133896">
<ele>627.515625</ele>
<time>2012-07-23T15:34:27Z</time>
<speed>1.290000</speed>
<extensions>
<speed>1.3</speed>
<temp>0.00</temp>
<bpm>0</bpm>
<rpm>0.00</rpm>
</extensions>
</trkpt>
<trkpt lat="63.991847992" lon="-19.100194931">
<ele>628.031250</ele>
<time>2012-07-23T15:34:32Z</time>
<speed>1.270000</speed>
<extensions>
<speed>1.3</speed>
<temp>0.00</temp>
<bpm>0</bpm>
<rpm>0.00</rpm>
</extensions>
</trkpt>
<trkpt lat="63.991882324" lon="-19.100267410">
<ele>628.640625</ele>
<time>2012-07-23T15:34:37Z</time>
<speed>0.300000</speed>
<extensions>
<speed>0.3</speed>
<temp>0.00</temp>
<bpm>0</bpm>
<rpm>0.00</rpm>
</extensions>
</trkpt>
<trkpt lat="63.991905212" lon="-19.100358963">
<ele>627.109375</ele>
<time>2012-07-23T15:34:42Z</time>
<speed>1.130000</speed>
<extensions>
<speed>1.1</speed>
<temp>0.00</temp>
<bpm>0</bpm>
<rpm>0.00</rpm>
</extensions>
</trkpt>
<trkpt lat="63.991920471" lon="-19.100458145">
<ele>626.562500</ele>
<time>2012-07-23T15:34:47Z</time>
<speed>0.900000</speed>
<extensions>
<speed>0.9</speed>
<temp>0.00</temp>
<bpm>0</bpm>
<rpm>0.00</rpm>
</extensions>
</trkpt>
<trkpt lat="63.991931915" lon="-19.100570679">
<ele>625.812500</ele>
<time>2012-07-23T15:34:52Z</time>
<speed>1.300000</speed>
<extensions>
<speed>1.3</speed>
<temp>0.00</temp>
<bpm>0</bpm>
<rpm>0.00</rpm>
</extensions>
</trkpt>
<trkpt lat="63.991939545" lon="-19.100692749">
<ele>626.453125</ele>
<time>2012-07-23T15:34:57Z</time>
<speed>1.170000</speed>
<extensions>
<speed>1.2</speed>
<temp>0.00</temp>
<bpm>0</bpm>
<rpm>0.00</rpm>
</extensions>
</trkpt>
<trkpt lat="63.991950989" lon="-19.100809097">
<ele>627.078125</ele>
<time>2012-07-23T15:35:02Z</time>
<speed>1.090000</speed>
<extensions>
<speed>1.1</speed>
<temp>0.00</temp>
<bpm>0</bpm>
<rpm>0.00</rpm>
</extensions>
</trkpt>
<trkpt lat="63.991977692" lon="-19.100914001">
<ele>626.718750</ele>
<time>2012-07-23T15:35:07Z</time>
<speed>1.130000</speed>
<extensions>
<speed>1.1</speed>
<temp>0.00</temp>
<bpm>0</bpm>
<rpm>0.00</rpm>
</extensions>
</trkpt>
<trkpt lat="63.992000580" lon="-19.101011276">
<ele>626.500000</ele>
<time>2012-07-23T15:35:12Z</time>
<speed>1.220000</speed>
<extensions>
<speed>1.2</speed>
<temp>0.00</temp>
<bpm>0</bpm>
<rpm>0.00</rpm>
</extensions>
</trkpt>
<trkpt lat="63.992027283" lon="-19.101078033">
<ele>626.937500</ele>
<time>2012-07-23T15:35:17Z</time>
<speed>1.140000</speed>
<extensions>
<speed>1.1</speed>
<temp>0.00</temp>
<bpm>0</bpm>
<rpm>0.00</rpm>
</extensions>
</trkpt>
<trkpt lat="63.992046356" lon="-19.101171494">
<ele>627.312500</ele>
<time>2012-07-23T15:35:22Z</time>
<speed>1.110000</speed>
<extensions>
<speed>1.1</speed>
<temp>0.00</temp>
<bpm>0</bpm>
<rpm>0.00</rpm>
</extensions>
</trkpt>
<trkpt lat="63.992076874" lon="-19.101261139">
<ele>627.828125</ele>
<time>2012-07-23T15:35:27Z</time>
<speed>1.270000</speed>
<extensions>
<speed>1.3</speed>
<temp>0.00</temp>
<bpm>0</bpm>
<rpm>0.00</rpm>
</extensions>
</trkpt>
<trkpt lat="63.992099762" lon="-19.101366043">
<ele>627.578125</ele>
<time>2012-07-23T15:35:32Z</time>
<speed>1.200000</speed>
<extensions>
<speed>1.2</speed>
<temp>0.00</temp>
<bpm>0</bpm>
<rpm>0.00</rpm>
</extensions>
</trkpt>
<trkpt lat="63.992122650" lon="-19.101472855">
<ele>627.359375</ele>
<time>2012-07-23T15:35:37Z</time>
<speed>1.090000</speed>
<extensions>
<speed>1.1</speed>
<temp>0.00</temp>
<bpm>0</bpm>
<rpm>0.00</rpm>
</extensions>
</trkpt>
<trkpt lat="63.992145538" lon="-19.101583481">
<ele>626.937500</ele>
<time>2012-07-23T15:35:42Z</time>
<speed>1.150000</speed>
<extensions>
<speed>1.1</speed>
<temp>0.00</temp>
<bpm>0</bpm>
<rpm>0.00</rpm>
</extensions>
</trkpt>
<trkpt lat="63.992179871" lon="-19.101703644">
<ele>625.625000</ele>
<time>2012-07-23T15:35:47Z</time>
<speed>1.200000</speed>
<extensions>
<speed>1.2</speed>
<temp>0.00</temp>
<bpm>0</bpm>
<rpm>0.00</rpm>
</extensions>
</trkpt>
<trkpt lat="63.992195129" lon="-19.101825714">
<ele>624.734375</ele>
<time>2012-07-23T15:35:52Z</time>
<speed>1.120000</speed>
<extensions>
<speed>1.1</speed>
<temp>0.00</temp>
<bpm>0</bpm>
<rpm>0.00</rpm>
</extensions>
</trkpt>
<trkpt lat="63.992214203" lon="-19.101932526">
<ele>624.765625</ele>
<time>2012-07-23T15:35:57Z</time>
<speed>1.210000</speed>
<extensions>
<speed>1.2</speed>
<temp>0.00</temp>
<bpm>0</bpm>
<rpm>0.00</rpm>
</extensions>
</trkpt>
<trkpt lat="63.992240906" lon="-19.102027893">
<ele>624.765625</ele>
<time>2012-07-23T15:36:02Z</time>
<speed>1.000000</speed>
<extensions>
<speed>1.0</speed>
<temp>0.00</temp>
<bpm>0</bpm>
<rpm>0.00</rpm>
</extensions>
</trkpt>
<trkpt lat="63.992259979" lon="-19.102079391">
<ele>624.468750</ele>
<time>2012-07-23T15:36:07Z</time>
<speed>0.440000</speed>
<extensions>
<speed>0.4</speed>
<temp>0.00</temp>
<bpm>0</bpm>
<rpm>0.00</rpm>
</extensions>
</trkpt>
<trkpt lat="63.992279053" lon="-19.102184296">
<ele>624.343750</ele>
<time>2012-07-23T15:36:12Z</time>
<speed>1.100000</speed>
<extensions>
<speed>1.1</speed>
<temp>0.00</temp>
<bpm>0</bpm>
<rpm>0.00</rpm>
</extensions>
</trkpt>
<trkpt lat="63.992275238" lon="-19.102241516">
<ele>623.796875</ele>
<time>2012-07-23T15:36:17Z</time>
<speed>0.020000</speed>
<extensions>
<speed>0.0</speed>
<temp>0.00</temp>
<bpm>0</bpm>
<rpm>0.00</rpm>
</extensions>
</trkpt>
<trkpt lat="63.992275238" lon="-19.102243423">
<ele>623.859375</ele>
<time>2012-07-23T15:36:22Z</time>
<speed>0.010000</speed>
<extensions>
<speed>0.0</speed>
<temp>0.00</temp>
<bpm>0</bpm>
<rpm>0.00</rpm>
</extensions>
</trkpt>
<trkpt lat="63.992275238" lon="-19.102243423">
<ele>623.843750</ele>
<time>2012-07-23T15:36:27Z</time>
<extensions>
<speed>0.0</speed>
<temp>0.00</temp>
<bpm>0</bpm>
<rpm>0.00</rpm>
</extensions>
</trkpt>
<trkpt lat="63.992275238" lon="-19.102245331">
<ele>623.843750</ele>
<time>2012-07-23T15:36:32Z</time>
<speed>0.010000</speed>
<extensions>
<speed>0.0</speed>
<temp>0.00</temp>
<bpm>0</bpm>
<rpm>0.00</rpm>
</extensions>
</trkpt>
<trkpt lat="63.992275238" lon="-19.102245331">
<ele>623.843750</ele>
<time>2012-07-23T15:36:37Z</time>
<extensions>
<speed>0.0</speed>
<temp>0.00</temp>
<bpm>0</bpm>
<rpm>0.00</rpm>
</extensions>
</trkpt>
<trkpt lat="63.992275238" lon="-19.102245331">
<ele>623.859375</ele>
<time>2012-07-23T15:36:42Z</time>
<speed>0.060000</speed>
<extensions>
<speed>0.1</speed>
<temp>0.00</temp>
<bpm>0</bpm>
<rpm>0.00</rpm>
</extensions>
</trkpt>
<trkpt lat="63.992275238" lon="-19.102239609">
<ele>623.500000</ele>
<time>2012-07-23T15:36:47Z</time>
<speed>0.150000</speed>
<extensions>
<speed>0.2</speed>
<temp>0.00</temp>
<bpm>0</bpm>
<rpm>0.00</rpm>
</extensions>
</trkpt>
<trkpt lat="63.992282867" lon="-19.102230072">
<ele>623.453125</ele>
<time>2012-07-23T15:36:52Z</time>
<extensions>
<speed>0.0</speed>
<temp>0.00</temp>
<bpm>0</bpm>
<rpm>0.00</rpm>
</extensions>
</trkpt>
<trkpt lat="63.992282867" lon="-19.102230072">
<ele>623.437500</ele>
<time>2012-07-23T15:36:57Z</time>
<extensions>
<speed>0.0</speed>
<temp>0.00</temp>
<bpm>0</bpm>
<rpm>0.00</rpm>
</extensions>
</trkpt>
<trkpt lat="63.992282867" lon="-19.102230072">
<ele>623.421875</ele>
<time>2012-07-23T15:37:02Z</time>
<extensions>
<speed>0.0</speed>
<temp>0.00</temp>
<bpm>0</bpm>
<rpm>0.00</rpm>
</extensions>
</trkpt>
<trkpt lat="63.992282867" lon="-19.102230072">
<ele>623.421875</ele>
<time>2012-07-23T15:37:07Z</time>
<extensions>
<speed>0.0</speed>
<temp>0.00</temp>
<bpm>0</bpm>
<rpm>0.00</rpm>
</extensions>
</trkpt>
<trkpt lat="63.992282867" lon="-19.102230072">
<ele>623.421875</ele>
<time>2012-07-23T15:37:12Z</time>
<speed>0.010000</speed>
<extensions>
<speed>0.0</speed>
<temp>0.00</temp>
<bpm>0</bpm>
<rpm>0.00</rpm>
</extensions>
</trkpt>
<trkpt lat="63.992282867" lon="-19.102230072">
<ele>623.406250</ele>
<time>2012-07-23T15:37:17Z</time>
<speed>0.020000</speed>
<extensions>
<speed>0.0</speed>
<temp>0.00</temp>
<bpm>0</bpm>
<rpm>0.00</rpm>
</extensions>
</trkpt>
<trkpt lat="63.992282867" lon="-19.102230072">
<ele>623.406250</ele>
<time>2012-07-23T15:37:22Z</time>
<speed>0.050000</speed>
<extensions>
<speed>0.1</speed>
<temp>0.00</temp>
<bpm>0</bpm>
<rpm>0.00</rpm>
</extensions>
</trkpt>
<trkpt lat="63.992286682" lon="-19.102272034">
<ele>623.843750</ele>
<time>2012-07-23T15:37:27Z</time>
<speed>1.180000</speed>
<extensions>
<speed>1.2</speed>
<temp>0.00</temp>
<bpm>0</bpm>
<rpm>0.00</rpm>
</extensions>
</trkpt>
<trkpt lat="63.992305756" lon="-19.102392197">
<ele>623.531250</ele>
<time>2012-07-23T15:37:32Z</time>
<speed>1.120000</speed>
<extensions>
<speed>1.1</speed>
<temp>0.00</temp>
<bpm>0</bpm>
<rpm>0.00</rpm>
</extensions>
</trkpt>
<trkpt lat="63.992313385" lon="-19.102519989">
<ele>623.031250</ele>
<time>2012-07-23T15:37:37Z</time>
<speed>1.400000</speed>
<extensions>
<speed>1.4</speed>
<temp>0.00</temp>
<bpm>0</bpm>
<rpm>0.00</rpm>
</extensions>
</trkpt>
<trkpt lat="63.992340088" lon="-19.102622986">
<ele>622.921875</ele>
<time>2012-07-23T15:37:42Z</time>
<speed>0.930000</speed>
<extensions>
<speed>0.9</speed>
<temp>0.00</temp>
<bpm>0</bpm>
<rpm>0.00</rpm>
</extensions>
</trkpt>
<trkpt lat="63.992366791" lon="-19.102724075">
<ele>623.156250</ele>
<time>2012-07-23T15:37:47Z</time>
<speed>1.070000</speed>
<extensions>
<speed>1.1</speed>
<temp>0.00</temp>
<bpm>0</bpm>
<rpm>0.00</rpm>
</extensions>
</trkpt>
<trkpt lat="63.992385864" lon="-19.102823257">
<ele>623.546875</ele>
<time>2012-07-23T15:37:52Z</time>
<speed>1.230000</speed>
<extensions>
<speed>1.2</speed>
<temp>0.00</temp>
<bpm>0</bpm>
<rpm>0.00</rpm>
</extensions>
</trkpt>
<trkpt lat="63.992416382" lon="-19.102937698">
<ele>623.046875</ele>
<time>2012-07-23T15:37:57Z</time>
<speed>0.990000</speed>
<extensions>
<speed>1.0</speed>
<temp>0.00</temp>
<bpm>0</bpm>
<rpm>0.00</rpm>
</extensions>
</trkpt>
<trkpt lat="63.992439270" lon="-19.103021622">
<ele>623.343750</ele>
<time>2012-07-23T15:38:02Z</time>
<speed>0.770000</speed>
<extensions>
<speed>0.8</speed>
<temp>0.00</temp>
<bpm>0</bpm>
<rpm>0.00</rpm>
</extensions>
</trkpt>
<trkpt lat="63.992454529" lon="-19.103096008">
<ele>622.343750</ele>
<time>2012-07-23T15:38:07Z</time>
<speed>0.980000</speed>
<extensions>
<speed>1.0</speed>
<temp>0.00</temp>
<bpm>0</bpm>
<rpm>0.00</rpm>
</extensions>
</trkpt>
<trkpt lat="63.992469788" lon="-19.103157043">
<ele>622.906250</ele>
<time>2012-07-23T15:38:12Z</time>
<speed>0.990000</speed>
<extensions>
<speed>1.0</speed>
<temp>0.00</temp>
<bpm>0</bpm>
<rpm>0.00</rpm>
</extensions>
</trkpt>
<trkpt lat="63.992485046" lon="-19.103271484">
<ele>622.234375</ele>
<time>2012-07-23T15:38:17Z</time>
<speed>1.380000</speed>
<extensions>
<speed>1.4</speed>
<temp>0.00</temp>
<bpm>0</bpm>
<rpm>0.00</rpm>
</extensions>
</trkpt>
<trkpt lat="63.992519379" lon="-19.103366852">
<ele>622.437500</ele>
<time>2012-07-23T15:38:22Z</time>
<speed>1.150000</speed>
<extensions>
<speed>1.1</speed>
<temp>0.00</temp>
<bpm>0</bpm>
<rpm>0.00</rpm>
</extensions>
</trkpt>
<trkpt lat="63.992542267" lon="-19.103462219">
<ele>622.515625</ele>
<time>2012-07-23T15:38:27Z</time>
<speed>1.200000</speed>
<extensions>
<speed>1.2</speed>
<temp>0.00</temp>
<bpm>0</bpm>
<rpm>0.00</rpm>
</extensions>
</trkpt>
<trkpt lat="63.992561340" lon="-19.103569031">
<ele>622.593750</ele>
<time>2012-07-23T15:38:32Z</time>
<speed>1.150000</speed>
<extensions>
<speed>1.1</speed>
<temp>0.00</temp>
<bpm>0</bpm>
<rpm>0.00</rpm>
</extensions>
</trkpt>
<trkpt lat="63.992584229" lon="-19.103651047">
<ele>622.125000</ele>
<time>2012-07-23T15:38:37Z</time>
<speed>1.200000</speed>
<extensions>
<speed>1.2</speed>
<temp>0.00</temp>
<bpm>0</bpm>
<rpm>0.00</rpm>
</extensions>
</trkpt>
<trkpt lat="63.992626190" lon="-19.103752136">
<ele>622.937500</ele>
<time>2012-07-23T15:38:42Z</time>
<speed>1.240000</speed>
<extensions>
<speed>1.2</speed>
<temp>0.00</temp>
<bpm>0</bpm>
<rpm>0.00</rpm>
</extensions>
</trkpt>
<trkpt lat="63.992641449" lon="-19.103837967">
<ele>623.593750</ele>
<time>2012-07-23T15:38:47Z</time>
<speed>1.260000</speed>
<extensions>
<speed>1.3</speed>
<temp>0.00</temp>
<bpm>0</bpm>
<rpm>0.00</rpm>
</extensions>
</trkpt>
<trkpt lat="63.992656708" lon="-19.103954315">
<ele>622.734375</ele>
<time>2012-07-23T15:38:52Z</time>
<speed>0.950000</speed>
<extensions>
<speed>1.0</speed>
<temp>0.00</temp>
<bpm>0</bpm>
<rpm>0.00</rpm>
</extensions>
</trkpt>
<trkpt lat="63.992683411" lon="-19.104036331">
<ele>623.078125</ele>
<time>2012-07-23T15:38:57Z</time>
<speed>1.070000</speed>
<extensions>
<speed>1.1</speed>
<temp>0.00</temp>
<bpm>0</bpm>
<rpm>0.00</rpm>
</extensions>
</trkpt>
<trkpt lat="63.992710114" lon="-19.104137421">
<ele>623.234375</ele>
<time>2012-07-23T15:39:02Z</time>
<speed>1.170000</speed>
<extensions>
<speed>1.2</speed>
<temp>0.00</temp>
<bpm>0</bpm>
<rpm>0.00</rpm>
</extensions>
</trkpt>
<trkpt lat="63.992744446" lon="-19.104188919">
<ele>623.500000</ele>
<time>2012-07-23T15:39:07Z</time>
<speed>1.060000</speed>
<extensions>
<speed>1.1</speed>
<temp>0.00</temp>
<bpm>0</bpm>
<rpm>0.00</rpm>
</extensions>
</trkpt>
<trkpt lat="63.992782593" lon="-19.104278564">
<ele>623.500000</ele>
<time>2012-07-23T15:39:12Z</time>
<speed>1.240000</speed>
<extensions>
<speed>1.2</speed>
<temp>0.00</temp>
<bpm>0</bpm>
<rpm>0.00</rpm>
</extensions>
</trkpt>
<trkpt lat="63.992816925" lon="-19.104358673">
<ele>624.328125</ele>
<time>2012-07-23T15:39:17Z</time>
<speed>1.500000</speed>
<extensions>
<speed>1.5</speed>
<temp>0.00</temp>
<bpm>0</bpm>
<rpm>0.00</rpm>
</extensions>
</trkpt>
<trkpt lat="63.992855072" lon="-19.104454041">
<ele>624.578125</ele>
<time>2012-07-23T15:39:22Z</time>
<speed>1.320000</speed>
<extensions>
<speed>1.3</speed>
<temp>0.00</temp>
<bpm>0</bpm>
<rpm>0.00</rpm>
</extensions>
</trkpt>
<trkpt lat="63.992897034" lon="-19.104528427">
<ele>624.703125</ele>
<time>2012-07-23T15:39:27Z</time>
<speed>1.140000</speed>
<extensions>
<speed>1.1</speed>
<temp>0.00</temp>
<bpm>0</bpm>
<rpm>0.00</rpm>
</extensions>
</trkpt>
<trkpt lat="63.992931366" lon="-19.104614258">
<ele>624.390625</ele>
<time>2012-07-23T15:39:32Z</time>
<speed>1.200000</speed>
<extensions>
<speed>1.2</speed>
<temp>0.00</temp>
<bpm>0</bpm>
<rpm>0.00</rpm>
</extensions>
</trkpt>
<trkpt lat="63.992965698" lon="-19.104722977">
<ele>623.562500</ele>
<time>2012-07-23T15:39:37Z</time>
<speed>1.290000</speed>
<extensions>
<speed>1.3</speed>
<temp>0.00</temp>
<bpm>0</bpm>
<rpm>0.00</rpm>
</extensions>
</trkpt>
<trkpt lat="63.993000031" lon="-19.104824066">
<ele>623.937500</ele>
<time>2012-07-23T15:39:42Z</time>
<speed>1.220000</speed>
<extensions>
<speed>1.2</speed>
<temp>0.00</temp>
<bpm>0</bpm>
<rpm>0.00</rpm>
</extensions>
</trkpt>
<trkpt lat="63.993015289" lon="-19.104915619">
<ele>624.500000</ele>
<time>2012-07-23T15:39:47Z</time>
<speed>1.010000</speed>
<extensions>
<speed>1.0</speed>
<temp>0.00</temp>
<bpm>0</bpm>
<rpm>0.00</rpm>
</extensions>
</trkpt>
<trkpt lat="63.993015289" lon="-19.105024338">
<ele>625.375000</ele>
<time>2012-07-23T15:39:52Z</time>
<speed>1.090000</speed>
<extensions>
<speed>1.1</speed>
<temp>0.00</temp>
<bpm>0</bpm>
<rpm>0.00</rpm>
</extensions>
</trkpt>
<trkpt lat="63.993015289" lon="-19.105152130">
<ele>625.484375</ele>
<time>2012-07-23T15:39:57Z</time>
<speed>0.970000</speed>
<extensions>
<speed>1.0</speed>
<temp>0.00</temp>
<bpm>0</bpm>
<rpm>0.00</rpm>
</extensions>
</trkpt>
<trkpt lat="63.993015289" lon="-19.105291367">
<ele>626.078125</ele>
<time>2012-07-23T15:40:02Z</time>
<speed>0.580000</speed>
<extensions>
<speed>0.6</speed>
<temp>0.00</temp>
<bpm>0</bpm>
<rpm>0.00</rpm>
</extensions>
</trkpt>
<trkpt lat="63.993041992" lon="-19.105278015">
<ele>625.968750</ele>
<time>2012-07-23T15:40:07Z</time>
<speed>0.810000</speed>
<extensions>
<speed>0.8</speed>
<temp>0.00</temp>
<bpm>0</bpm>
<rpm>0.00</rpm>
</extensions>
</trkpt>
<trkpt lat="63.993045807" lon="-19.105245590">
<ele>626.046875</ele>
<time>2012-07-23T15:40:12Z</time>
<speed>0.240000</speed>
<extensions>
<speed>0.2</speed>
<temp>0.00</temp>
<bpm>0</bpm>
<rpm>0.00</rpm>
</extensions>
</trkpt>
<trkpt lat="63.993072510" lon="-19.105232239">
<ele>625.906250</ele>
<time>2012-07-23T15:40:17Z</time>
<speed>0.790000</speed>
<extensions>
<speed>0.8</speed>
<temp>0.00</temp>
<bpm>0</bpm>
<rpm>0.00</rpm>
</extensions>
</trkpt>
<trkpt lat="63.993076324" lon="-19.105260849">
<ele>626.609375</ele>
<time>2012-07-23T15:40:22Z</time>
<speed>0.590000</speed>
<extensions>
<speed>0.6</speed>
<temp>0.00</temp>
<bpm>0</bpm>
<rpm>0.00</rpm>
</extensions>
</trkpt>
<trkpt lat="63.993068695" lon="-19.105270386">
<ele>626.750000</ele>
<time>2012-07-23T15:40:27Z</time>
<speed>0.050000</speed>
<extensions>
<speed>0.1</speed>
<temp>0.00</temp>
<bpm>0</bpm>
<rpm>0.00</rpm>
</extensions>
</trkpt>
<trkpt lat="63.993061066" lon="-19.105274200">
<ele>627.031250</ele>
<time>2012-07-23T15:40:32Z</time>
<speed>0.340000</speed>
<extensions>
<speed>0.3</speed>
<temp>0.00</temp>
<bpm>0</bpm>
<rpm>0.00</rpm>
</extensions>
</trkpt>
<trkpt lat="63.993045807" lon="-19.105249405">
<ele>626.656250</ele>
<time>2012-07-23T15:40:37Z</time>
<speed>0.020000</speed>
<extensions>
<speed>0.0</speed>
<temp>0.00</temp>
<bpm>0</bpm>
<rpm>0.00</rpm>
</extensions>
</trkpt>
<trkpt lat="63.993038177" lon="-19.105278015">
<ele>626.437500</ele>
<time>2012-07-23T15:40:42Z</time>
<speed>1.230000</speed>
<extensions>
<speed>1.2</speed>
<temp>0.00</temp>
<bpm>0</bpm>
<rpm>0.00</rpm>
</extensions>
</trkpt>
<trkpt lat="63.993015289" lon="-19.105340958">
<ele>626.937500</ele>
<time>2012-07-23T15:40:47Z</time>
<speed>0.740000</speed>
<extensions>
<speed>0.7</speed>
<temp>0.00</temp>
<bpm>0</bpm>
<rpm>0.00</rpm>
</extensions>
</trkpt>
<trkpt lat="63.993057251" lon="-19.105264664">
<ele>627.796875</ele>
<time>2012-07-23T15:40:52Z</time>
<speed>2.160000</speed>
<extensions>
<speed>2.2</speed>
<temp>0.00</temp>
<bpm>0</bpm>
<rpm>0.00</rpm>
</extensions>
</trkpt>
<trkpt lat="63.993064880" lon="-19.105237961">
<ele>627.968750</ele>
<time>2012-07-23T15:40:57Z</time>
<speed>0.160000</speed>
<extensions>
<speed>0.2</speed>
<temp>0.00</temp>
<bpm>0</bpm>
<rpm>0.00</rpm>
</extensions>
</trkpt>
<trkpt lat="63.993068695" lon="-19.105216980">
<ele>628.296875</ele>
<time>2012-07-23T15:41:02Z</time>
<speed>0.010000</speed>
<extensions>
<speed>0.0</speed>
<temp>0.00</temp>
<bpm>0</bpm>
<rpm>0.00</rpm>
</extensions>
</trkpt>
<trkpt lat="63.993072510" lon="-19.105218887">
<ele>628.390625</ele>
<time>2012-07-23T15:41:07Z</time>
<speed>0.450000</speed>
<extensions>
<speed>0.5</speed>
<temp>0.00</temp>
<bpm>0</bpm>
<rpm>0.00</rpm>
</extensions>
</trkpt>
<trkpt lat="63.993064880" lon="-19.105278015">
<ele>628.468750</ele>
<time>2012-07-23T15:41:12Z</time>
<speed>1.130000</speed>
<extensions>
<speed>1.1</speed>
<temp>0.00</temp>
<bpm>0</bpm>
<rpm>0.00</rpm>
</extensions>
</trkpt>
<trkpt lat="63.993019104" lon="-19.105283737">
<ele>627.906250</ele>
<time>2012-07-23T15:41:17Z</time>
<speed>2.110000</speed>
<extensions>
<speed>2.1</speed>
<temp>0.00</temp>
<bpm>0</bpm>
<rpm>0.00</rpm>
</extensions>
</trkpt>
<trkpt lat="63.993038177" lon="-19.105144501">
<ele>627.765625</ele>
<time>2012-07-23T15:41:22Z</time>
<speed>1.540000</speed>
<extensions>
<speed>1.5</speed>
<temp>0.00</temp>
<bpm>0</bpm>
<rpm>0.00</rpm>
</extensions>
</trkpt>
<trkpt lat="63.993076324" lon="-19.105051041">
<ele>627.437500</ele>
<time>2012-07-23T15:41:27Z</time>
<speed>1.550000</speed>
<extensions>
<speed>1.5</speed>
<temp>0.00</temp>
<bpm>0</bpm>
<rpm>0.00</rpm>
</extensions>
</trkpt>
<trkpt lat="63.993129730" lon="-19.104991913">
<ele>627.640625</ele>
<time>2012-07-23T15:41:32Z</time>
<speed>1.280000</speed>
<extensions>
<speed>1.3</speed>
<temp>0.00</temp>
<bpm>0</bpm>
<rpm>0.00</rpm>
</extensions>
</trkpt>
<trkpt lat="63.993148804" lon="-19.104940414">
<ele>627.187500</ele>
<time>2012-07-23T15:41:37Z</time>
<speed>0.520000</speed>
<extensions>
<speed>0.5</speed>
<temp>0.00</temp>
<bpm>0</bpm>
<rpm>0.00</rpm>
</extensions>
</trkpt>
<trkpt lat="63.993133545" lon="-19.104944229">
<ele>626.703125</ele>
<time>2012-07-23T15:41:42Z</time>
<speed>0.160000</speed>
<extensions>
<speed>0.2</speed>
<temp>0.00</temp>
<bpm>0</bpm>
<rpm>0.00</rpm>
</extensions>
</trkpt>
<trkpt lat="63.993133545" lon="-19.104942322">
<ele>626.781250</ele>
<time>2012-07-23T15:41:47Z</time>
<speed>0.090000</speed>
<extensions>
<speed>0.1</speed>
<temp>0.00</temp>
<bpm>0</bpm>
<rpm>0.00</rpm>
</extensions>
</trkpt>
<trkpt lat="63.993133545" lon="-19.104946136">
<ele>626.734375</ele>
<time>2012-07-23T15:41:52Z</time>
<speed>0.010000</speed>
<extensions>
<speed>0.0</speed>
<temp>0.00</temp>
<bpm>0</bpm>
<rpm>0.00</rpm>
</extensions>
</trkpt>
<trkpt lat="63.993133545" lon="-19.104946136">
<ele>626.718750</ele>
<time>2012-07-23T15:41:57Z</time>
<speed>0.730000</speed>
<extensions>
<speed>0.7</speed>
<temp>0.00</temp>
<bpm>0</bpm>
<rpm>0.00</rpm>
</extensions>
</trkpt>
<trkpt lat="63.993198395" lon="-19.104684830">
<ele>625.515625</ele>
<time>2012-07-23T15:42:02Z</time>
<speed>3.000000</speed>
<extensions>
<speed>3.0</speed>
<temp>0.00</temp>
<bpm>0</bpm>
<rpm>0.00</rpm>
</extensions>
</trkpt>
<trkpt lat="63.993236542" lon="-19.104480743">
<ele>624.187500</ele>
<time>2012-07-23T15:42:07Z</time>
<speed>0.800000</speed>
<extensions>
<speed>0.8</speed>
<temp>0.00</temp>
<bpm>0</bpm>
<rpm>0.00</rpm>
</extensions>
</trkpt>
<trkpt lat="63.993236542" lon="-19.104461670">
<ele>623.718750</ele>
<time>2012-07-23T15:42:12Z</time>
<speed>0.270000</speed>
<extensions>
<speed>0.3</speed>
<temp>0.00</temp>
<bpm>0</bpm>
<rpm>0.00</rpm>
</extensions>
</trkpt>
<trkpt lat="63.993236542" lon="-19.104511261">
<ele>623.046875</ele>
<time>2012-07-23T15:42:17Z</time>
<speed>0.320000</speed>
<extensions>
<speed>0.3</speed>
<temp>0.00</temp>
<bpm>0</bpm>
<rpm>0.00</rpm>
</extensions>
</trkpt>
<trkpt lat="63.993247986" lon="-19.104499817">
<ele>622.640625</ele>
<time>2012-07-23T15:42:22Z</time>
<speed>0.270000</speed>
<extensions>
<speed>0.3</speed>
<temp>0.00</temp>
<bpm>0</bpm>
<rpm>0.00</rpm>
</extensions>
</trkpt>
<trkpt lat="63.993251801" lon="-19.104463577">
<ele>622.546875</ele>
<time>2012-07-23T15:42:27Z</time>
<speed>1.610000</speed>
<extensions>
<speed>1.6</speed>
<temp>0.00</temp>
<bpm>0</bpm>
<rpm>0.00</rpm>
</extensions>
</trkpt>
<trkpt lat="63.993347168" lon="-19.104417801">
<ele>621.875000</ele>
<time>2012-07-23T15:42:32Z</time>
<speed>1.660000</speed>
<extensions>
<speed>1.7</speed>
<temp>0.00</temp>
<bpm>0</bpm>
<rpm>0.00</rpm>
</extensions>
</trkpt>
<trkpt lat="63.993381500" lon="-19.104423523">
<ele>622.421875</ele>
<time>2012-07-23T15:42:37Z</time>
<speed>0.500000</speed>
<extensions>
<speed>0.5</speed>
<temp>0.00</temp>
<bpm>0</bpm>
<rpm>0.00</rpm>
</extensions>
</trkpt>
<trkpt lat="63.993381500" lon="-19.104381561">
<ele>622.171875</ele>
<time>2012-07-23T15:42:42Z</time>
<speed>0.720000</speed>
<extensions>
<speed>0.7</speed>
<temp>0.00</temp>
<bpm>0</bpm>
<rpm>0.00</rpm>
</extensions>
</trkpt>
<trkpt lat="63.993415833" lon="-19.104297638">
<ele>621.812500</ele>
<time>2012-07-23T15:42:47Z</time>
<speed>1.650000</speed>
<extensions>
<speed>1.7</speed>
<temp>0.00</temp>
<bpm>0</bpm>
<rpm>0.00</rpm>
</extensions>
</trkpt>
<trkpt lat="63.993434906" lon="-19.104242325">
<ele>621.406250</ele>
<time>2012-07-23T15:42:52Z</time>
<speed>0.180000</speed>
<extensions>
<speed>0.2</speed>
<temp>0.00</temp>
<bpm>0</bpm>
<rpm>0.00</rpm>
</extensions>
</trkpt>
<trkpt lat="63.993442535" lon="-19.104236603">
<ele>621.750000</ele>
<time>2012-07-23T15:42:57Z</time>
<speed>0.070000</speed>
<extensions>
<speed>0.1</speed>
<temp>0.00</temp>
<bpm>0</bpm>
<rpm>0.00</rpm>
</extensions>
</trkpt>
<trkpt lat="63.993442535" lon="-19.104152679">
<ele>621.828125</ele>
<time>2012-07-23T15:43:02Z</time>
<speed>1.590000</speed>
<extensions>
<speed>1.6</speed>
<temp>0.00</temp>
<bpm>0</bpm>
<rpm>0.00</rpm>
</extensions>
</trkpt>
<trkpt lat="63.993503571" lon="-19.104116440">
<ele>622.546875</ele>
<time>2012-07-23T15:43:07Z</time>
<speed>1.700000</speed>
<extensions>
<speed>1.7</speed>
<temp>0.00</temp>
<bpm>0</bpm>
<rpm>0.00</rpm>
</extensions>
</trkpt>
<trkpt lat="63.993537903" lon="-19.104028702">
<ele>622.234375</ele>
<time>2012-07-23T15:43:12Z</time>
<speed>1.220000</speed>
<extensions>
<speed>1.2</speed>
<temp>0.00</temp>
<bpm>0</bpm>
<rpm>0.00</rpm>
</extensions>
</trkpt>
<trkpt lat="63.993553162" lon="-19.103878021">
<ele>621.828125</ele>
<time>2012-07-23T15:43:17Z</time>
<speed>1.550000</speed>
<extensions>
<speed>1.5</speed>
<temp>0.00</temp>
<bpm>0</bpm>
<rpm>0.00</rpm>
</extensions>
</trkpt>
<trkpt lat="63.993591309" lon="-19.103748322">
<ele>620.484375</ele>
<time>2012-07-23T15:43:22Z</time>
<speed>1.120000</speed>
<extensions>
<speed>1.1</speed>
<temp>0.00</temp>
<bpm>0</bpm>
<rpm>0.00</rpm>
</extensions>
</trkpt>
<trkpt lat="63.993614197" lon="-19.103721619">
<ele>621.765625</ele>
<time>2012-07-23T15:43:27Z</time>
<speed>1.030000</speed>
<extensions>
<speed>1.0</speed>
<temp>0.00</temp>
<bpm>0</bpm>
<rpm>0.00</rpm>
</extensions>
</trkpt>
<trkpt lat="63.993625641" lon="-19.103727341">
<ele>621.296875</ele>
<time>2012-07-23T15:43:32Z</time>
<speed>0.110000</speed>
<extensions>
<speed>0.1</speed>
<temp>0.00</temp>
<bpm>0</bpm>
<rpm>0.00</rpm>
</extensions>
</trkpt>
<trkpt lat="63.993625641" lon="-19.103723526">
<ele>621.359375</ele>
<time>2012-07-23T15:43:37Z</time>
<speed>0.160000</speed>
<extensions>
<speed>0.2</speed>
<temp>0.00</temp>
<bpm>0</bpm>
<rpm>0.00</rpm>
</extensions>
</trkpt>
<trkpt lat="63.993602753" lon="-19.103694916">
<ele>621.515625</ele>
<time>2012-07-23T15:43:42Z</time>
<speed>0.650000</speed>
<extensions>
<speed>0.6</speed>
<temp>0.00</temp>
<bpm>0</bpm>
<rpm>0.00</rpm>
</extensions>
</trkpt>
<trkpt lat="63.993659973" lon="-19.103820801">
<ele>621.875000</ele>
<time>2012-07-23T15:43:47Z</time>
<speed>2.420000</speed>
<extensions>
<speed>2.4</speed>
<temp>0.00</temp>
<bpm>0</bpm>
<rpm>0.00</rpm>
</extensions>
</trkpt>
<trkpt lat="63.993717194" lon="-19.103923798">
<ele>622.718750</ele>
<time>2012-07-23T15:43:52Z</time>
<speed>1.130000</speed>
<extensions>
<speed>1.1</speed>
<temp>0.00</temp>
<bpm>0</bpm>
<rpm>0.00</rpm>
</extensions>
</trkpt>
<trkpt lat="63.993709564" lon="-19.103992462">
<ele>622.562500</ele>
<time>2012-07-23T15:43:57Z</time>
<speed>0.720000</speed>
<extensions>
<speed>0.7</speed>
<temp>0.00</temp>
<bpm>0</bpm>
<rpm>0.00</rpm>
</extensions>
</trkpt>
<trkpt lat="63.993663788" lon="-19.104072571">
<ele>623.125000</ele>
<time>2012-07-23T15:44:02Z</time>
<speed>1.210000</speed>
<extensions>
<speed>1.2</speed>
<temp>0.00</temp>
<bpm>0</bpm>
<rpm>0.00</rpm>
</extensions>
</trkpt>
<trkpt lat="63.993621826" lon="-19.104118347">
<ele>623.265625</ele>
<time>2012-07-23T15:44:07Z</time>
<speed>1.090000</speed>
<extensions>
<speed>1.1</speed>
<temp>0.00</temp>
<bpm>0</bpm>
<rpm>0.00</rpm>
</extensions>
</trkpt>
<trkpt lat="63.993618011" lon="-19.104085922">
<ele>623.250000</ele>
<time>2012-07-23T15:44:12Z</time>
<speed>0.440000</speed>
<extensions>
<speed>0.4</speed>
<temp>0.00</temp>
<bpm>0</bpm>
<rpm>0.00</rpm>
</extensions>
</trkpt>
<trkpt lat="63.993583679" lon="-19.104232788">
<ele>623.984375</ele>
<time>2012-07-23T15:44:17Z</time>
<speed>1.510000</speed>
<extensions>
<speed>1.5</speed>
<temp>0.00</temp>
<bpm>0</bpm>
<rpm>0.00</rpm>
</extensions>
</trkpt>
<trkpt lat="63.993556976" lon="-19.104354858">
<ele>624.578125</ele>
<time>2012-07-23T15:44:22Z</time>
<speed>0.910000</speed>
<extensions>
<speed>0.9</speed>
<temp>0.00</temp>
<bpm>0</bpm>
<rpm>0.00</rpm>
</extensions>
</trkpt>
<trkpt lat="63.993522644" lon="-19.104455948">
<ele>625.312500</ele>
<time>2012-07-23T15:44:27Z</time>
<speed>1.190000</speed>
<extensions>
<speed>1.2</speed>
<temp>0.00</temp>
<bpm>0</bpm>
<rpm>0.00</rpm>
</extensions>
</trkpt>
<trkpt lat="63.993473053" lon="-19.104537964">
<ele>626.078125</ele>
<time>2012-07-23T15:44:32Z</time>
<speed>1.500000</speed>
<extensions>
<speed>1.5</speed>
<temp>0.00</temp>
<bpm>0</bpm>
<rpm>0.00</rpm>
</extensions>
</trkpt>
<trkpt lat="63.993461609" lon="-19.104749680">
<ele>627.390625</ele>
<time>2012-07-23T15:44:37Z</time>
<speed>1.420000</speed>
<extensions>
<speed>1.4</speed>
<temp>0.00</temp>
<bpm>0</bpm>
<rpm>0.00</rpm>
</extensions>
</trkpt>
<trkpt lat="63.993438721" lon="-19.104894638">
<ele>626.750000</ele>
<time>2012-07-23T15:44:42Z</time>
<speed>1.440000</speed>
<extensions>
<speed>1.4</speed>
<temp>0.00</temp>
<bpm>0</bpm>
<rpm>0.00</rpm>
</extensions>
</trkpt>
<trkpt lat="63.993412018" lon="-19.105041504">
<ele>626.437500</ele>
<time>2012-07-23T15:44:47Z</time>
<speed>1.330000</speed>
<extensions>
<speed>1.3</speed>
<temp>0.00</temp>
<bpm>0</bpm>
<rpm>0.00</rpm>
</extensions>
</trkpt>
<trkpt lat="63.993392944" lon="-19.105171204">
<ele>626.734375</ele>
<time>2012-07-23T15:44:52Z</time>
<speed>1.040000</speed>
<extensions>
<speed>1.0</speed>
<temp>0.00</temp>
<bpm>0</bpm>
<rpm>0.00</rpm>
</extensions>
</trkpt>
<trkpt lat="63.993350983" lon="-19.105258942">
<ele>627.453125</ele>
<time>2012-07-23T15:44:57Z</time>
<speed>1.130000</speed>
<extensions>
<speed>1.1</speed>
<temp>0.00</temp>
<bpm>0</bpm>
<rpm>0.00</rpm>
</extensions>
</trkpt>
<trkpt lat="63.993343353" lon="-19.105363846">
<ele>626.406250</ele>
<time>2012-07-23T15:45:02Z</time>
<speed>0.670000</speed>
<extensions>
<speed>0.7</speed>
<temp>0.00</temp>
<bpm>0</bpm>
<rpm>0.00</rpm>
</extensions>
</trkpt>
<trkpt lat="63.993377686" lon="-19.105392456">
<ele>625.687500</ele>
<time>2012-07-23T15:45:07Z</time>
<speed>0.720000</speed>
<extensions>
<speed>0.7</speed>
<temp>0.00</temp>
<bpm>0</bpm>
<rpm>0.00</rpm>
</extensions>
</trkpt>
<trkpt lat="63.993373871" lon="-19.105390549">
<ele>625.515625</ele>
<time>2012-07-23T15:45:12Z</time>
<speed>0.100000</speed>
<extensions>
<speed>0.1</speed>
<temp>0.00</temp>
<bpm>0</bpm>
<rpm>0.00</rpm>
</extensions>
</trkpt>
<trkpt lat="63.993400574" lon="-19.105319977">
<ele>624.359375</ele>
<time>2012-07-23T15:45:17Z</time>
<speed>0.980000</speed>
<extensions>
<speed>1.0</speed>
<temp>0.00</temp>
<bpm>0</bpm>
<rpm>0.00</rpm>
</extensions>
</trkpt>
<trkpt lat="63.993419647" lon="-19.105241776">
<ele>625.015625</ele>
<time>2012-07-23T15:45:22Z</time>
<speed>0.800000</speed>
<extensions>
<speed>0.8</speed>
<temp>0.00</temp>
<bpm>0</bpm>
<rpm>0.00</rpm>
</extensions>
</trkpt>
<trkpt lat="63.993450165" lon="-19.105209351">
<ele>624.718750</ele>
<time>2012-07-23T15:45:27Z</time>
<speed>1.690000</speed>
<extensions>
<speed>1.7</speed>
<temp>0.00</temp>
<bpm>0</bpm>
<rpm>0.00</rpm>
</extensions>
</trkpt>
<trkpt lat="63.993473053" lon="-19.105155945">
<ele>624.515625</ele>
<time>2012-07-23T15:45:32Z</time>
<speed>1.870000</speed>
<extensions>
<speed>1.9</speed>
<temp>0.00</temp>
<bpm>0</bpm>
<rpm>0.00</rpm>
</extensions>
</trkpt>
<trkpt lat="63.993484497" lon="-19.105232239">
<ele>624.625000</ele>
<time>2012-07-23T15:45:37Z</time>
<speed>0.940000</speed>
<extensions>
<speed>0.9</speed>
<temp>0.00</temp>
<bpm>0</bpm>
<rpm>0.00</rpm>
</extensions>
</trkpt>
<trkpt lat="63.993484497" lon="-19.105300903">
<ele>624.828125</ele>
<time>2012-07-23T15:45:42Z</time>
<speed>0.730000</speed>
<extensions>
<speed>0.7</speed>
<temp>0.00</temp>
<bpm>0</bpm>
<rpm>0.00</rpm>
</extensions>
</trkpt>
<trkpt lat="63.993507385" lon="-19.105367661">
<ele>624.078125</ele>
<time>2012-07-23T15:45:47Z</time>
<speed>0.460000</speed>
<extensions>
<speed>0.5</speed>
<temp>0.00</temp>
<bpm>0</bpm>
<rpm>0.00</rpm>
</extensions>
</trkpt>
<trkpt lat="63.993511200" lon="-19.105365753">
<ele>623.750000</ele>
<time>2012-07-23T15:45:52Z</time>
<speed>0.040000</speed>
<extensions>
<speed>0.0</speed>
<temp>0.00</temp>
<bpm>0</bpm>
<rpm>0.00</rpm>
</extensions>
</trkpt>
<trkpt lat="63.993492126" lon="-19.105375290">
<ele>623.296875</ele>
<time>2012-07-23T15:45:57Z</time>
<speed>1.130000</speed>
<extensions>
<speed>1.1</speed>
<temp>0.00</temp>
<bpm>0</bpm>
<rpm>0.00</rpm>
</extensions>
</trkpt>
<trkpt lat="63.993450165" lon="-19.105453491">
<ele>623.109375</ele>
<time>2012-07-23T15:46:02Z</time>
<speed>0.910000</speed>
<extensions>
<speed>0.9</speed>
<temp>0.00</temp>
<bpm>0</bpm>
<rpm>0.00</rpm>
</extensions>
</trkpt>
<trkpt lat="63.993415833" lon="-19.105480194">
<ele>623.500000</ele>
<time>2012-07-23T15:46:07Z</time>
<speed>0.020000</speed>
<extensions>
<speed>0.0</speed>
<temp>0.00</temp>
<bpm>0</bpm>
<rpm>0.00</rpm>
</extensions>
</trkpt>
<trkpt lat="63.993408203" lon="-19.105453491">
<ele>624.109375</ele>
<time>2012-07-23T15:46:12Z</time>
<speed>0.040000</speed>
<extensions>
<speed>0.0</speed>
<temp>0.00</temp>
<bpm>0</bpm>
<rpm>0.00</rpm>
</extensions>
</trkpt>
<trkpt lat="63.993412018" lon="-19.105453491">
<ele>624.218750</ele>
<time>2012-07-23T15:46:17Z</time>
<speed>0.030000</speed>
<extensions>
<speed>0.0</speed>
<temp>0.00</temp>
<bpm>0</bpm>
<rpm>0.00</rpm>
</extensions>
</trkpt>
<trkpt lat="63.993412018" lon="-19.105453491">
<ele>624.250000</ele>
<time>2012-07-23T15:46:22Z</time>
<speed>0.010000</speed>
<extensions>
<speed>0.0</speed>
<temp>0.00</temp>
<bpm>0</bpm>
<rpm>0.00</rpm>
</extensions>
</trkpt>
<trkpt lat="63.993412018" lon="-19.105453491">
<ele>624.265625</ele>
<time>2012-07-23T15:46:27Z</time>
<speed>0.010000</speed>
<extensions>
<speed>0.0</speed>
<temp>0.00</temp>
<bpm>0</bpm>
<rpm>0.00</rpm>
</extensions>
</trkpt>
<trkpt lat="63.993412018" lon="-19.105453491">
<ele>624.296875</ele>
<time>2012-07-23T15:46:32Z</time>
<speed>0.100000</speed>
<extensions>
<speed>0.1</speed>
<temp>0.00</temp>
<bpm>0</bpm>
<rpm>0.00</rpm>
</extensions>
</trkpt>
<trkpt lat="63.993412018" lon="-19.105510712">
<ele>624.125000</ele>
<time>2012-07-23T15:46:37Z</time>
<speed>1.560000</speed>
<extensions>
<speed>1.6</speed>
<temp>0.00</temp>
<bpm>0</bpm>
<rpm>0.00</rpm>
</extensions>
</trkpt>
<trkpt lat="63.993404388" lon="-19.105642319">
<ele>625.015625</ele>
<time>2012-07-23T15:46:42Z</time>
<speed>1.230000</speed>
<extensions>
<speed>1.2</speed>
<temp>0.00</temp>
<bpm>0</bpm>
<rpm>0.00</rpm>
</extensions>
</trkpt>
<trkpt lat="63.993404388" lon="-19.105747223">
<ele>624.921875</ele>
<time>2012-07-23T15:46:47Z</time>
<speed>0.220000</speed>
<extensions>
<speed>0.2</speed>
<temp>0.00</temp>
<bpm>0</bpm>
<rpm>0.00</rpm>
</extensions>
</trkpt>
<trkpt lat="63.993408203" lon="-19.105743408">
<ele>625.078125</ele>
<time>2012-07-23T15:46:52Z</time>
<extensions>
<speed>0.0</speed>
<temp>0.00</temp>
<bpm>0</bpm>
<rpm>0.00</rpm>
</extensions>
</trkpt>
<trkpt lat="63.993412018" lon="-19.105741501">
<ele>625.078125</ele>
<time>2012-07-23T15:46:57Z</time>
<speed>0.010000</speed>
<extensions>
<speed>0.0</speed>
<temp>0.00</temp>
<bpm>0</bpm>
<rpm>0.00</rpm>
</extensions>
</trkpt>
<trkpt lat="63.993400574" lon="-19.105768204">
<ele>625.218750</ele>
<time>2012-07-23T15:47:02Z</time>
<speed>1.010000</speed>
<extensions>
<speed>1.0</speed>
<temp>0.00</temp>
<bpm>0</bpm>
<rpm>0.00</rpm>
</extensions>
</trkpt>
<trkpt lat="63.993385315" lon="-19.105869293">
<ele>625.281250</ele>
<time>2012-07-23T15:47:07Z</time>
<speed>1.080000</speed>
<extensions>
<speed>1.1</speed>
<temp>0.00</temp>
<bpm>0</bpm>
<rpm>0.00</rpm>
</extensions>
</trkpt>
<trkpt lat="63.993354797" lon="-19.105955124">
<ele>625.828125</ele>
<time>2012-07-23T15:47:12Z</time>
<speed>1.220000</speed>
<extensions>
<speed>1.2</speed>
<temp>0.00</temp>
<bpm>0</bpm>
<rpm>0.00</rpm>
</extensions>
</trkpt>
<trkpt lat="63.993366241" lon="-19.106065750">
<ele>625.859375</ele>
<time>2012-07-23T15:47:17Z</time>
<speed>1.210000</speed>
<extensions>
<speed>1.2</speed>
<temp>0.00</temp>
<bpm>0</bpm>
<rpm>0.00</rpm>
</extensions>
</trkpt>
<trkpt lat="63.993385315" lon="-19.106182098">
<ele>625.890625</ele>
<time>2012-07-23T15:47:22Z</time>
<speed>1.150000</speed>
<extensions>
<speed>1.1</speed>
<temp>0.00</temp>
<bpm>0</bpm>
<rpm>0.00</rpm>
</extensions>
</trkpt>
<trkpt lat="63.993381500" lon="-19.106290817">
<ele>625.968750</ele>
<time>2012-07-23T15:47:27Z</time>
<speed>1.410000</speed>
<extensions>
<speed>1.4</speed>
<temp>0.00</temp>
<bpm>0</bpm>
<rpm>0.00</rpm>
</extensions>
</trkpt>
<trkpt lat="63.993373871" lon="-19.106412888">
<ele>626.156250</ele>
<time>2012-07-23T15:47:32Z</time>
<speed>1.350000</speed>
<extensions>
<speed>1.4</speed>
<temp>0.00</temp>
<bpm>0</bpm>
<rpm>0.00</rpm>
</extensions>
</trkpt>
<trkpt lat="63.993385315" lon="-19.106494904">
<ele>628.796875</ele>
<time>2012-07-23T15:47:37Z</time>
<speed>0.660000</speed>
<extensions>
<speed>0.7</speed>
<temp>0.00</temp>
<bpm>0</bpm>
<rpm>0.00</rpm>
</extensions>
</trkpt>
<trkpt lat="63.993438721" lon="-19.106567383">
<ele>629.421875</ele>
<time>2012-07-23T15:47:42Z</time>
<speed>1.240000</speed>
<extensions>
<speed>1.2</speed>
<temp>0.00</temp>
<bpm>0</bpm>
<rpm>0.00</rpm>
</extensions>
</trkpt>
<trkpt lat="63.993495941" lon="-19.106594086">
<ele>629.250000</ele>
<time>2012-07-23T15:47:47Z</time>
<speed>0.750000</speed>
<extensions>
<speed>0.8</speed>
<temp>0.00</temp>
<bpm>0</bpm>
<rpm>0.00</rpm>
</extensions>
</trkpt>
<trkpt lat="63.993480682" lon="-19.106710434">
<ele>628.640625</ele>
<time>2012-07-23T15:47:52Z</time>
<speed>1.250000</speed>
<extensions>
<speed>1.3</speed>
<temp>0.00</temp>
<bpm>0</bpm>
<rpm>0.00</rpm>
</extensions>
</trkpt>
<trkpt lat="63.993461609" lon="-19.106798172">
<ele>628.890625</ele>
<time>2012-07-23T15:47:57Z</time>
<speed>0.960000</speed>
<extensions>
<speed>1.0</speed>
<temp>0.00</temp>
<bpm>0</bpm>
<rpm>0.00</rpm>
</extensions>
</trkpt>
<trkpt lat="63.993461609" lon="-19.106882095">
<ele>628.796875</ele>
<time>2012-07-23T15:48:02Z</time>
<speed>0.160000</speed>
<extensions>
<speed>0.2</speed>
<temp>0.00</temp>
<bpm>0</bpm>
<rpm>0.00</rpm>
</extensions>
</trkpt>
<trkpt lat="63.993450165" lon="-19.106994629">
<ele>629.046875</ele>
<time>2012-07-23T15:48:07Z</time>
<speed>1.270000</speed>
<extensions>
<speed>1.3</speed>
<temp>0.00</temp>
<bpm>0</bpm>
<rpm>0.00</rpm>
</extensions>
</trkpt>
<trkpt lat="63.993465424" lon="-19.107084274">
<ele>630.687500</ele>
<time>2012-07-23T15:48:12Z</time>
<speed>0.960000</speed>
<extensions>
<speed>1.0</speed>
<temp>0.00</temp>
<bpm>0</bpm>
<rpm>0.00</rpm>
</extensions>
</trkpt>
<trkpt lat="63.993507385" lon="-19.107183456">
<ele>628.843750</ele>
<time>2012-07-23T15:48:17Z</time>
<speed>1.290000</speed>
<extensions>
<speed>1.3</speed>
<temp>0.00</temp>
<bpm>0</bpm>
<rpm>0.00</rpm>
</extensions>
</trkpt>
<trkpt lat="63.993549347" lon="-19.107273102">
<ele>628.609375</ele>
<time>2012-07-23T15:48:22Z</time>
<speed>1.380000</speed>
<extensions>
<speed>1.4</speed>
<temp>0.00</temp>
<bpm>0</bpm>
<rpm>0.00</rpm>
</extensions>
</trkpt>
<trkpt lat="63.993606567" lon="-19.107332230">
<ele>628.593750</ele>
<time>2012-07-23T15:48:27Z</time>
<speed>0.520000</speed>
<extensions>
<speed>0.5</speed>
<temp>0.00</temp>
<bpm>0</bpm>
<rpm>0.00</rpm>
</extensions>
</trkpt>
<trkpt lat="63.993679047" lon="-19.107379913">
<ele>629.281250</ele>
<time>2012-07-23T15:48:32Z</time>
<speed>1.320000</speed>
<extensions>
<speed>1.3</speed>
<temp>0.00</temp>
<bpm>0</bpm>
<rpm>0.00</rpm>
</extensions>
</trkpt>
<trkpt lat="63.993740082" lon="-19.107442856">
<ele>630.031250</ele>
<time>2012-07-23T15:48:37Z</time>
<speed>1.530000</speed>
<extensions>
<speed>1.5</speed>
<temp>0.00</temp>
<bpm>0</bpm>
<rpm>0.00</rpm>
</extensions>
</trkpt>
<trkpt lat="63.993751526" lon="-19.107564926">
<ele>631.000000</ele>
<time>2012-07-23T15:48:42Z</time>
<speed>1.340000</speed>
<extensions>
<speed>1.3</speed>
<temp>0.00</temp>
<bpm>0</bpm>
<rpm>0.00</rpm>
</extensions>
</trkpt>
<trkpt lat="63.993762970" lon="-19.107601166">
<ele>629.718750</ele>
<time>2012-07-23T15:48:47Z</time>
<speed>0.070000</speed>
<extensions>
<speed>0.1</speed>
<temp>0.00</temp>
<bpm>0</bpm>
<rpm>0.00</rpm>
</extensions>
</trkpt>
<trkpt lat="63.993778229" lon="-19.107658386">
<ele>631.656250</ele>
<time>2012-07-23T15:48:52Z</time>
<speed>1.170000</speed>
<extensions>
<speed>1.2</speed>
<temp>0.00</temp>
<bpm>0</bpm>
<rpm>0.00</rpm>
</extensions>
</trkpt>
<trkpt lat="63.993812561" lon="-19.107765198">
<ele>630.171875</ele>
<time>2012-07-23T15:48:57Z</time>
<speed>1.180000</speed>
<extensions>
<speed>1.2</speed>
<temp>0.00</temp>
<bpm>0</bpm>
<rpm>0.00</rpm>
</extensions>
</trkpt>
<trkpt lat="63.993850708" lon="-19.107860565">
<ele>629.281250</ele>
<time>2012-07-23T15:49:02Z</time>
<speed>1.330000</speed>
<extensions>
<speed>1.3</speed>
<temp>0.00</temp>
<bpm>0</bpm>
<rpm>0.00</rpm>
</extensions>
</trkpt>
<trkpt lat="63.993892670" lon="-19.107954025">
<ele>628.906250</ele>
<time>2012-07-23T15:49:07Z</time>
<speed>1.040000</speed>
<extensions>
<speed>1.0</speed>
<temp>0.00</temp>
<bpm>0</bpm>
<rpm>0.00</rpm>
</extensions>
</trkpt>
<trkpt lat="63.993919373" lon="-19.108034134">
<ele>628.218750</ele>
<time>2012-07-23T15:49:12Z</time>
<speed>1.150000</speed>
<extensions>
<speed>1.1</speed>
<temp>0.00</temp>
<bpm>0</bpm>
<rpm>0.00</rpm>
</extensions>
</trkpt>
<trkpt lat="63.993965149" lon="-19.108095169">
<ele>627.281250</ele>
<time>2012-07-23T15:49:17Z</time>
<speed>1.100000</speed>
<extensions>
<speed>1.1</speed>
<temp>0.00</temp>
<bpm>0</bpm>
<rpm>0.00</rpm>
</extensions>
</trkpt>
<trkpt lat="63.994007111" lon="-19.108085632">
<ele>627.093750</ele>
<time>2012-07-23T15:49:22Z</time>
<speed>1.090000</speed>
<extensions>
<speed>1.1</speed>
<temp>0.00</temp>
<bpm>0</bpm>
<rpm>0.00</rpm>
</extensions>
</trkpt>
<trkpt lat="63.994033813" lon="-19.108060837">
<ele>626.671875</ele>
<time>2012-07-23T15:49:27Z</time>
<speed>0.120000</speed>
<extensions>
<speed>0.1</speed>
<temp>0.00</temp>
<bpm>0</bpm>
<rpm>0.00</rpm>
</extensions>
</trkpt>
<trkpt lat="63.994026184" lon="-19.108074188">
<ele>626.921875</ele>
<time>2012-07-23T15:49:32Z</time>
<speed>0.120000</speed>
<extensions>
<speed>0.1</speed>
<temp>0.00</temp>
<bpm>0</bpm>
<rpm>0.00</rpm>
</extensions>
</trkpt>
<trkpt lat="63.994026184" lon="-19.108093262">
<ele>627.109375</ele>
<time>2012-07-23T15:49:37Z</time>
<speed>0.060000</speed>
<extensions>
<speed>0.1</speed>
<temp>0.00</temp>
<bpm>0</bpm>
<rpm>0.00</rpm>
</extensions>
</trkpt>
<trkpt lat="63.994022369" lon="-19.108112335">
<ele>626.812500</ele>
<time>2012-07-23T15:49:42Z</time>
<speed>0.590000</speed>
<extensions>
<speed>0.6</speed>
<temp>0.00</temp>
<bpm>0</bpm>
<rpm>0.00</rpm>
</extensions>
</trkpt>
<trkpt lat="63.994052887" lon="-19.108175278">
<ele>627.781250</ele>
<time>2012-07-23T15:49:47Z</time>
<speed>0.710000</speed>
<extensions>
<speed>0.7</speed>
<temp>0.00</temp>
<bpm>0</bpm>
<rpm>0.00</rpm>
</extensions>
</trkpt>
<trkpt lat="63.994083405" lon="-19.108249664">
<ele>628.500000</ele>
<time>2012-07-23T15:49:52Z</time>
<speed>1.030000</speed>
<extensions>
<speed>1.0</speed>
<temp>0.00</temp>
<bpm>0</bpm>
<rpm>0.00</rpm>
</extensions>
</trkpt>
<trkpt lat="63.994098663" lon="-19.108333588">
<ele>631.265625</ele>
<time>2012-07-23T15:49:57Z</time>
<speed>0.830000</speed>
<extensions>
<speed>0.8</speed>
<temp>0.00</temp>
<bpm>0</bpm>
<rpm>0.00</rpm>
</extensions>
</trkpt>
<trkpt lat="63.994102478" lon="-19.108386993">
<ele>633.515625</ele>
<time>2012-07-23T15:50:02Z</time>
<speed>0.780000</speed>
<extensions>
<speed>0.8</speed>
<temp>0.00</temp>
<bpm>0</bpm>
<rpm>0.00</rpm>
</extensions>
</trkpt>
<trkpt lat="63.994110107" lon="-19.108457565">
<ele>635.609375</ele>
<time>2012-07-23T15:50:07Z</time>
<speed>1.150000</speed>
<extensions>
<speed>1.1</speed>
<temp>0.00</temp>
<bpm>0</bpm>
<rpm>0.00</rpm>
</extensions>
</trkpt>
<trkpt lat="63.994129181" lon="-19.108560562">
<ele>637.015625</ele>
<time>2012-07-23T15:50:12Z</time>
<speed>1.080000</speed>
<extensions>
<speed>1.1</speed>
<temp>0.00</temp>
<bpm>0</bpm>
<rpm>0.00</rpm>
</extensions>
</trkpt>
<trkpt lat="63.994155884" lon="-19.108659744">
<ele>640.078125</ele>
<time>2012-07-23T15:50:17Z</time>
<speed>1.130000</speed>
<extensions>
<speed>1.1</speed>
<temp>0.00</temp>
<bpm>0</bpm>
<rpm>0.00</rpm>
</extensions>
</trkpt>
<trkpt lat="63.994178772" lon="-19.108743668">
<ele>642.203125</ele>
<time>2012-07-23T15:50:22Z</time>
<speed>1.010000</speed>
<extensions>
<speed>1.0</speed>
<temp>0.00</temp>
<bpm>0</bpm>
<rpm>0.00</rpm>
</extensions>
</trkpt>
<trkpt lat="63.994194031" lon="-19.108848572">
<ele>643.031250</ele>
<time>2012-07-23T15:50:27Z</time>
<speed>1.020000</speed>
<extensions>
<speed>1.0</speed>
<temp>0.00</temp>
<bpm>0</bpm>
<rpm>0.00</rpm>
</extensions>
</trkpt>
<trkpt lat="63.994209290" lon="-19.108871460">
<ele>643.796875</ele>
<time>2012-07-23T15:50:32Z</time>
<speed>0.020000</speed>
<extensions>
<speed>0.0</speed>
<temp>0.00</temp>
<bpm>0</bpm>
<rpm>0.00</rpm>
</extensions>
</trkpt>
<trkpt lat="63.994209290" lon="-19.108873367">
<ele>643.890625</ele>
<time>2012-07-23T15:50:37Z</time>
<speed>0.030000</speed>
<extensions>
<speed>0.0</speed>
<temp>0.00</temp>
<bpm>0</bpm>
<rpm>0.00</rpm>
</extensions>
</trkpt>
<trkpt lat="63.994209290" lon="-19.108873367">
<ele>644.015625</ele>
<time>2012-07-23T15:50:42Z</time>
<speed>0.180000</speed>
<extensions>
<speed>0.2</speed>
<temp>0.00</temp>
<bpm>0</bpm>
<rpm>0.00</rpm>
</extensions>
</trkpt>
<trkpt lat="63.994213104" lon="-19.108945847">
<ele>644.531250</ele>
<time>2012-07-23T15:50:47Z</time>
<speed>0.850000</speed>
<extensions>
<speed>0.8</speed>
<temp>0.00</temp>
<bpm>0</bpm>
<rpm>0.00</rpm>
</extensions>
</trkpt>
<trkpt lat="63.994243622" lon="-19.109027863">
<ele>645.203125</ele>
<time>2012-07-23T15:50:52Z</time>
<speed>0.910000</speed>
<extensions>
<speed>0.9</speed>
<temp>0.00</temp>
<bpm>0</bpm>
<rpm>0.00</rpm>
</extensions>
</trkpt>
<trkpt lat="63.994258881" lon="-19.109098434">
<ele>646.625000</ele>
<time>2012-07-23T15:50:57Z</time>
<speed>0.750000</speed>
<extensions>
<speed>0.8</speed>
<temp>0.00</temp>
<bpm>0</bpm>
<rpm>0.00</rpm>
</extensions>
</trkpt>
<trkpt lat="63.994289398" lon="-19.109149933">
<ele>647.609375</ele>
<time>2012-07-23T15:51:02Z</time>
<speed>0.710000</speed>
<extensions>
<speed>0.7</speed>
<temp>0.00</temp>
<bpm>0</bpm>
<rpm>0.00</rpm>
</extensions>
</trkpt>
<trkpt lat="63.994312286" lon="-19.109214783">
<ele>648.734375</ele>
<time>2012-07-23T15:51:07Z</time>
<speed>0.840000</speed>
<extensions>
<speed>0.8</speed>
<temp>0.00</temp>
<bpm>0</bpm>
<rpm>0.00</rpm>
</extensions>
</trkpt>
<trkpt lat="63.994327545" lon="-19.109279633">
<ele>650.171875</ele>
<time>2012-07-23T15:51:12Z</time>
<speed>0.890000</speed>
<extensions>
<speed>0.9</speed>
<temp>0.00</temp>
<bpm>0</bpm>
<rpm>0.00</rpm>
</extensions>
</trkpt>
<trkpt lat="63.994346619" lon="-19.109336853">
<ele>650.984375</ele>
<time>2012-07-23T15:51:17Z</time>
<speed>0.320000</speed>
<extensions>
<speed>0.3</speed>
<temp>0.00</temp>
<bpm>0</bpm>
<rpm>0.00</rpm>
</extensions>
</trkpt>
<trkpt lat="63.994342804" lon="-19.109363556">
<ele>650.140625</ele>
<time>2012-07-23T15:51:22Z</time>
<speed>0.020000</speed>
<extensions>
<speed>0.0</speed>
<temp>0.00</temp>
<bpm>0</bpm>
<rpm>0.00</rpm>
</extensions>
</trkpt>
<trkpt lat="63.994338989" lon="-19.109363556">
<ele>650.281250</ele>
<time>2012-07-23T15:51:27Z</time>
<extensions>
<speed>0.0</speed>
<temp>0.00</temp>
<bpm>0</bpm>
<rpm>0.00</rpm>
</extensions>
</trkpt>
<trkpt lat="63.994338989" lon="-19.109361649">
<ele>650.328125</ele>
<time>2012-07-23T15:51:32Z</time>
<extensions>
<speed>0.0</speed>
<temp>0.00</temp>
<bpm>0</bpm>
<rpm>0.00</rpm>
</extensions>
</trkpt>
<trkpt lat="63.994338989" lon="-19.109361649">
<ele>650.328125</ele>
<time>2012-07-23T15:51:37Z</time>
<extensions>
<speed>0.0</speed>
<temp>0.00</temp>
<bpm>0</bpm>
<rpm>0.00</rpm>
</extensions>
</trkpt>
<trkpt lat="63.994338989" lon="-19.109361649">
<ele>650.343750</ele>
<time>2012-07-23T15:51:42Z</time>
<speed>0.480000</speed>
<extensions>
<speed>0.5</speed>
<temp>0.00</temp>
<bpm>0</bpm>
<rpm>0.00</rpm>
</extensions>
</trkpt>
<trkpt lat="63.994369507" lon="-19.109437943">
<ele>651.093750</ele>
<time>2012-07-23T15:51:47Z</time>
<speed>0.930000</speed>
<extensions>
<speed>0.9</speed>
<temp>0.00</temp>
<bpm>0</bpm>
<rpm>0.00</rpm>
</extensions>
</trkpt>
<trkpt lat="63.994392395" lon="-19.109498978">
<ele>652.250000</ele>
<time>2012-07-23T15:51:52Z</time>
<speed>0.750000</speed>
<extensions>
<speed>0.8</speed>
<temp>0.00</temp>
<bpm>0</bpm>
<rpm>0.00</rpm>
</extensions>
</trkpt>
<trkpt lat="63.994407654" lon="-19.109586716">
<ele>653.609375</ele>
<time>2012-07-23T15:51:57Z</time>
<speed>0.930000</speed>
<extensions>
<speed>0.9</speed>
<temp>0.00</temp>
<bpm>0</bpm>
<rpm>0.00</rpm>
</extensions>
</trkpt>
<trkpt lat="63.994422913" lon="-19.109649658">
<ele>655.046875</ele>
<time>2012-07-23T15:52:02Z</time>
<speed>0.840000</speed>
<extensions>
<speed>0.8</speed>
<temp>0.00</temp>
<bpm>0</bpm>
<rpm>0.00</rpm>
</extensions>
</trkpt>
<trkpt lat="63.994434357" lon="-19.109712601">
<ele>656.500000</ele>
<time>2012-07-23T15:52:07Z</time>
<speed>0.760000</speed>
<extensions>
<speed>0.8</speed>
<temp>0.00</temp>
<bpm>0</bpm>
<rpm>0.00</rpm>
</extensions>
</trkpt>
<trkpt lat="63.994457245" lon="-19.109771729">
<ele>658.265625</ele>
<time>2012-07-23T15:52:12Z</time>
<speed>0.730000</speed>
<extensions>
<speed>0.7</speed>
<temp>0.00</temp>
<bpm>0</bpm>
<rpm>0.00</rpm>
</extensions>
</trkpt>
<trkpt lat="63.994483948" lon="-19.109819412">
<ele>659.593750</ele>
<time>2012-07-23T15:52:17Z</time>
<speed>0.490000</speed>
<extensions>
<speed>0.5</speed>
<temp>0.00</temp>
<bpm>0</bpm>
<rpm>0.00</rpm>
</extensions>
</trkpt>
<trkpt lat="63.994510651" lon="-19.109851837">
<ele>660.312500</ele>
<time>2012-07-23T15:52:22Z</time>
<speed>0.610000</speed>
<extensions>
<speed>0.6</speed>
<temp>0.00</temp>
<bpm>0</bpm>
<rpm>0.00</rpm>
</extensions>
</trkpt>
<trkpt lat="63.994533539" lon="-19.109865189">
<ele>659.609375</ele>
<time>2012-07-23T15:52:27Z</time>
<speed>0.010000</speed>
<extensions>
<speed>0.0</speed>
<temp>0.00</temp>
<bpm>0</bpm>
<rpm>0.00</rpm>
</extensions>
</trkpt>
<trkpt lat="63.994533539" lon="-19.109863281">
<ele>659.656250</ele>
<time>2012-07-23T15:52:32Z</time>
<speed>0.010000</speed>
<extensions>
<speed>0.0</speed>
<temp>0.00</temp>
<bpm>0</bpm>
<rpm>0.00</rpm>
</extensions>
</trkpt>
<trkpt lat="63.994537354" lon="-19.109895706">
<ele>660.265625</ele>
<time>2012-07-23T15:52:37Z</time>
<speed>0.720000</speed>
<extensions>
<speed>0.7</speed>
<temp>0.00</temp>
<bpm>0</bpm>
<rpm>0.00</rpm>
</extensions>
</trkpt>
<trkpt lat="63.994564056" lon="-19.109943390">
<ele>662.109375</ele>
<time>2012-07-23T15:52:42Z</time>
<speed>0.810000</speed>
<extensions>
<speed>0.8</speed>
<temp>0.00</temp>
<bpm>0</bpm>
<rpm>0.00</rpm>
</extensions>
</trkpt>
<trkpt lat="63.994571686" lon="-19.110015869">
<ele>663.890625</ele>
<time>2012-07-23T15:52:47Z</time>
<speed>0.640000</speed>
<extensions>
<speed>0.6</speed>
<temp>0.00</temp>
<bpm>0</bpm>
<rpm>0.00</rpm>
</extensions>
</trkpt>
<trkpt lat="63.994586945" lon="-19.110086441">
<ele>665.468750</ele>
<time>2012-07-23T15:52:52Z</time>
<speed>0.700000</speed>
<extensions>
<speed>0.7</speed>
<temp>0.00</temp>
<bpm>0</bpm>
<rpm>0.00</rpm>
</extensions>
</trkpt>
<trkpt lat="63.994590759" lon="-19.110141754">
<ele>666.500000</ele>
<time>2012-07-23T15:52:57Z</time>
<speed>0.140000</speed>
<extensions>
<speed>0.1</speed>
<temp>0.00</temp>
<bpm>0</bpm>
<rpm>0.00</rpm>
</extensions>
</trkpt>
<trkpt lat="63.994590759" lon="-19.110157013">
<ele>666.156250</ele>
<time>2012-07-23T15:53:02Z</time>
<speed>0.020000</speed>
<extensions>
<speed>0.0</speed>
<temp>0.00</temp>
<bpm>0</bpm>
<rpm>0.00</rpm>
</extensions>
</trkpt>
<trkpt lat="63.994590759" lon="-19.110160828">
<ele>666.046875</ele>
<time>2012-07-23T15:53:07Z</time>
<speed>0.710000</speed>
<extensions>
<speed>0.7</speed>
<temp>0.00</temp>
<bpm>0</bpm>
<rpm>0.00</rpm>
</extensions>
</trkpt>
<trkpt lat="63.994590759" lon="-19.110261917">
<ele>667.078125</ele>
<time>2012-07-23T15:53:12Z</time>
<speed>0.860000</speed>
<extensions>
<speed>0.9</speed>
<temp>0.00</temp>
<bpm>0</bpm>
<rpm>0.00</rpm>
</extensions>
</trkpt>
<trkpt lat="63.994598389" lon="-19.110355377">
<ele>667.765625</ele>
<time>2012-07-23T15:53:17Z</time>
<speed>0.900000</speed>
<extensions>
<speed>0.9</speed>
<temp>0.00</temp>
<bpm>0</bpm>
<rpm>0.00</rpm>
</extensions>
</trkpt>
<trkpt lat="63.994602203" lon="-19.110395432">
<ele>668.421875</ele>
<time>2012-07-23T15:53:22Z</time>
<speed>0.110000</speed>
<extensions>
<speed>0.1</speed>
<temp>0.00</temp>
<bpm>0</bpm>
<rpm>0.00</rpm>
</extensions>
</trkpt>
<trkpt lat="63.994598389" lon="-19.110401154">
<ele>668.671875</ele>
<time>2012-07-23T15:53:27Z</time>
<speed>0.490000</speed>
<extensions>
<speed>0.5</speed>
<temp>0.00</temp>
<bpm>0</bpm>
<rpm>0.00</rpm>
</extensions>
</trkpt>
<trkpt lat="63.994598389" lon="-19.110496521">
<ele>668.734375</ele>
<time>2012-07-23T15:53:32Z</time>
<speed>0.890000</speed>
<extensions>
<speed>0.9</speed>
<temp>0.00</temp>
<bpm>0</bpm>
<rpm>0.00</rpm>
</extensions>
</trkpt>
<trkpt lat="63.994613647" lon="-19.110584259">
<ele>669.593750</ele>
<time>2012-07-23T15:53:37Z</time>
<speed>0.990000</speed>
<extensions>
<speed>1.0</speed>
<temp>0.00</temp>
<bpm>0</bpm>
<rpm>0.00</rpm>
</extensions>
</trkpt>
<trkpt lat="63.994625092" lon="-19.110675812">
<ele>669.796875</ele>
<time>2012-07-23T15:53:42Z</time>
<speed>0.800000</speed>
<extensions>
<speed>0.8</speed>
<temp>0.00</temp>
<bpm>0</bpm>
<rpm>0.00</rpm>
</extensions>
</trkpt>
<trkpt lat="63.994632721" lon="-19.110759735">
<ele>669.953125</ele>
<time>2012-07-23T15:53:47Z</time>
<speed>0.820000</speed>
<extensions>
<speed>0.8</speed>
<temp>0.00</temp>
<bpm>0</bpm>
<rpm>0.00</rpm>
</extensions>
</trkpt>
<trkpt lat="63.994651794" lon="-19.110816956">
<ele>669.703125</ele>
<time>2012-07-23T15:53:52Z</time>
<speed>0.820000</speed>
<extensions>
<speed>0.8</speed>
<temp>0.00</temp>
<bpm>0</bpm>
<rpm>0.00</rpm>
</extensions>
</trkpt>
<trkpt lat="63.994647980" lon="-19.110912323">
<ele>671.187500</ele>
<time>2012-07-23T15:53:57Z</time>
<speed>0.700000</speed>
<extensions>
<speed>0.7</speed>
<temp>0.00</temp>
<bpm>0</bpm>
<rpm>0.00</rpm>
</extensions>
</trkpt>
<trkpt lat="63.994667053" lon="-19.110980988">
<ele>672.203125</ele>
<time>2012-07-23T15:54:02Z</time>
<speed>0.780000</speed>
<extensions>
<speed>0.8</speed>
<temp>0.00</temp>
<bpm>0</bpm>
<rpm>0.00</rpm>
</extensions>
</trkpt>
<trkpt lat="63.994682312" lon="-19.111036301">
<ele>672.750000</ele>
<time>2012-07-23T15:54:07Z</time>
<speed>0.660000</speed>
<extensions>
<speed>0.7</speed>
<temp>0.00</temp>
<bpm>0</bpm>
<rpm>0.00</rpm>
</extensions>
</trkpt>
<trkpt lat="63.994697571" lon="-19.111066818">
<ele>673.093750</ele>
<time>2012-07-23T15:54:12Z</time>
<speed>0.530000</speed>
<extensions>
<speed>0.5</speed>
<temp>0.00</temp>
<bpm>0</bpm>
<rpm>0.00</rpm>
</extensions>
</trkpt>
<trkpt lat="63.994716644" lon="-19.111125946">
<ele>673.765625</ele>
<time>2012-07-23T15:54:17Z</time>
<speed>0.620000</speed>
<extensions>
<speed>0.6</speed>
<temp>0.00</temp>
<bpm>0</bpm>
<rpm>0.00</rpm>
</extensions>
</trkpt>
<trkpt lat="63.994724274" lon="-19.111175537">
<ele>674.890625</ele>
<time>2012-07-23T15:54:22Z</time>
<speed>0.600000</speed>
<extensions>
<speed>0.6</speed>
<temp>0.00</temp>
<bpm>0</bpm>
<rpm>0.00</rpm>
</extensions>
</trkpt>
<trkpt lat="63.994743347" lon="-19.111217499">
<ele>675.734375</ele>
<time>2012-07-23T15:54:27Z</time>
<speed>0.760000</speed>
<extensions>
<speed>0.8</speed>
<temp>0.00</temp>
<bpm>0</bpm>
<rpm>0.00</rpm>
</extensions>
</trkpt>
<trkpt lat="63.994747162" lon="-19.111305237">
<ele>677.125000</ele>
<time>2012-07-23T15:54:32Z</time>
<speed>0.780000</speed>
<extensions>
<speed>0.8</speed>
<temp>0.00</temp>
<bpm>0</bpm>
<rpm>0.00</rpm>
</extensions>
</trkpt>
<trkpt lat="63.994762421" lon="-19.111351013">
<ele>677.640625</ele>
<time>2012-07-23T15:54:37Z</time>
<speed>0.290000</speed>
<extensions>
<speed>0.3</speed>
<temp>0.00</temp>
<bpm>0</bpm>
<rpm>0.00</rpm>
</extensions>
</trkpt>
<trkpt lat="63.994770050" lon="-19.111408234">
<ele>678.328125</ele>
<time>2012-07-23T15:54:42Z</time>
<speed>0.640000</speed>
<extensions>
<speed>0.6</speed>
<temp>0.00</temp>
<bpm>0</bpm>
<rpm>0.00</rpm>
</extensions>
</trkpt>
<trkpt lat="63.994770050" lon="-19.111486435">
<ele>679.750000</ele>
<time>2012-07-23T15:54:47Z</time>
<speed>0.470000</speed>
<extensions>
<speed>0.5</speed>
<temp>0.00</temp>
<bpm>0</bpm>
<rpm>0.00</rpm>
</extensions>
</trkpt>
<trkpt lat="63.994773865" lon="-19.111543655">
<ele>680.968750</ele>
<time>2012-07-23T15:54:52Z</time>
<speed>0.470000</speed>
<extensions>
<speed>0.5</speed>
<temp>0.00</temp>
<bpm>0</bpm>
<rpm>0.00</rpm>
</extensions>
</trkpt>
<trkpt lat="63.994773865" lon="-19.111595154">
<ele>681.968750</ele>
<time>2012-07-23T15:54:57Z</time>
<speed>0.630000</speed>
<extensions>
<speed>0.6</speed>
<temp>0.00</temp>
<bpm>0</bpm>
<rpm>0.00</rpm>
</extensions>
</trkpt>
<trkpt lat="63.994781494" lon="-19.111648560">
<ele>683.062500</ele>
<time>2012-07-23T15:55:02Z</time>
<speed>0.720000</speed>
<extensions>
<speed>0.7</speed>
<temp>0.00</temp>
<bpm>0</bpm>
<rpm>0.00</rpm>
</extensions>
</trkpt>
<trkpt lat="63.994789124" lon="-19.111690521">
<ele>683.875000</ele>
<time>2012-07-23T15:55:07Z</time>
<speed>0.430000</speed>
<extensions>
<speed>0.4</speed>
<temp>0.00</temp>
<bpm>0</bpm>
<rpm>0.00</rpm>
</extensions>
</trkpt>
<trkpt lat="63.994808197" lon="-19.111715317">
<ele>684.328125</ele>
<time>2012-07-23T15:55:12Z</time>
<speed>0.540000</speed>
<extensions>
<speed>0.5</speed>
<temp>0.00</temp>
<bpm>0</bpm>
<rpm>0.00</rpm>
</extensions>
</trkpt>
<trkpt lat="63.994812012" lon="-19.111749649">
<ele>685.250000</ele>
<time>2012-07-23T15:55:17Z</time>
<speed>0.490000</speed>
<extensions>
<speed>0.5</speed>
<temp>0.00</temp>
<bpm>0</bpm>
<rpm>0.00</rpm>
</extensions>
</trkpt>
<trkpt lat="63.994808197" lon="-19.111787796">
<ele>686.687500</ele>
<time>2012-07-23T15:55:22Z</time>
<speed>0.470000</speed>
<extensions>
<speed>0.5</speed>
<temp>0.00</temp>
<bpm>0</bpm>
<rpm>0.00</rpm>
</extensions>
</trkpt>
<trkpt lat="63.994815826" lon="-19.111824036">
<ele>687.453125</ele>
<time>2012-07-23T15:55:27Z</time>
<speed>0.630000</speed>
<extensions>
<speed>0.6</speed>
<temp>0.00</temp>
<bpm>0</bpm>
<rpm>0.00</rpm>
</extensions>
</trkpt>
<trkpt lat="63.994831085" lon="-19.111890793">
<ele>688.375000</ele>
<time>2012-07-23T15:55:32Z</time>
<speed>0.530000</speed>
<extensions>
<speed>0.5</speed>
<temp>0.00</temp>
<bpm>0</bpm>
<rpm>0.00</rpm>
</extensions>
</trkpt>
<trkpt lat="63.994834900" lon="-19.111976624">
<ele>689.625000</ele>
<time>2012-07-23T15:55:37Z</time>
<speed>0.850000</speed>
<extensions>
<speed>0.8</speed>
<temp>0.00</temp>
<bpm>0</bpm>
<rpm>0.00</rpm>
</extensions>
</trkpt>
<trkpt lat="63.994853973" lon="-19.112039566">
<ele>690.921875</ele>
<time>2012-07-23T15:55:42Z</time>
<speed>0.690000</speed>
<extensions>
<speed>0.7</speed>
<temp>0.00</temp>
<bpm>0</bpm>
<rpm>0.00</rpm>
</extensions>
</trkpt>
<trkpt lat="63.994865417" lon="-19.112100601">
<ele>692.250000</ele>
<time>2012-07-23T15:55:47Z</time>
<speed>0.730000</speed>
<extensions>
<speed>0.7</speed>
<temp>0.00</temp>
<bpm>0</bpm>
<rpm>0.00</rpm>
</extensions>
</trkpt>
<trkpt lat="63.994876862" lon="-19.112186432">
<ele>693.984375</ele>
<time>2012-07-23T15:55:52Z</time>
<speed>0.900000</speed>
<extensions>
<speed>0.9</speed>
<temp>0.00</temp>
<bpm>0</bpm>
<rpm>0.00</rpm>
</extensions>
</trkpt>
<trkpt lat="63.994892120" lon="-19.112266541">
<ele>695.265625</ele>
<time>2012-07-23T15:55:57Z</time>
<speed>0.710000</speed>
<extensions>
<speed>0.7</speed>
<temp>0.00</temp>
<bpm>0</bpm>
<rpm>0.00</rpm>
</extensions>
</trkpt>
<trkpt lat="63.994911194" lon="-19.112321854">
<ele>696.875000</ele>
<time>2012-07-23T15:56:02Z</time>
<speed>0.630000</speed>
<extensions>
<speed>0.6</speed>
<temp>0.00</temp>
<bpm>0</bpm>
<rpm>0.00</rpm>
</extensions>
</trkpt>
<trkpt lat="63.994922638" lon="-19.112392426">
<ele>698.906250</ele>
<time>2012-07-23T15:56:07Z</time>
<speed>0.370000</speed>
<extensions>
<speed>0.4</speed>
<temp>0.00</temp>
<bpm>0</bpm>
<rpm>0.00</rpm>
</extensions>
</trkpt>
<trkpt lat="63.994926453" lon="-19.112403870">
<ele>699.328125</ele>
<time>2012-07-23T15:56:12Z</time>
<speed>0.150000</speed>
<extensions>
<speed>0.2</speed>
<temp>0.00</temp>
<bpm>0</bpm>
<rpm>0.00</rpm>
</extensions>
</trkpt>
<trkpt lat="63.994945526" lon="-19.112442017">
<ele>699.984375</ele>
<time>2012-07-23T15:56:17Z</time>
<speed>1.000000</speed>
<extensions>
<speed>1.0</speed>
<temp>0.00</temp>
<bpm>0</bpm>
<rpm>0.00</rpm>
</extensions>
</trkpt>
<trkpt lat="63.994976044" lon="-19.112524033">
<ele>701.218750</ele>
<time>2012-07-23T15:56:22Z</time>
<speed>1.000000</speed>
<extensions>
<speed>1.0</speed>
<temp>0.00</temp>
<bpm>0</bpm>
<rpm>0.00</rpm>
</extensions>
</trkpt>
<trkpt lat="63.995002747" lon="-19.112588882">
<ele>702.859375</ele>
<time>2012-07-23T15:56:27Z</time>
<speed>0.920000</speed>
<extensions>
<speed>0.9</speed>
<temp>0.00</temp>
<bpm>0</bpm>
<rpm>0.00</rpm>
</extensions>
</trkpt>
<trkpt lat="63.995025635" lon="-19.112642288">
<ele>704.140625</ele>
<time>2012-07-23T15:56:32Z</time>
<speed>0.750000</speed>
<extensions>
<speed>0.8</speed>
<temp>0.00</temp>
<bpm>0</bpm>
<rpm>0.00</rpm>
</extensions>
</trkpt>
<trkpt lat="63.995037079" lon="-19.112688065">
<ele>704.796875</ele>
<time>2012-07-23T15:56:37Z</time>
<speed>0.020000</speed>
<extensions>
<speed>0.0</speed>
<temp>0.00</temp>
<bpm>0</bpm>
<rpm>0.00</rpm>
</extensions>
</trkpt>
<trkpt lat="63.995033264" lon="-19.112686157">
<ele>704.968750</ele>
<time>2012-07-23T15:56:42Z</time>
<speed>0.150000</speed>
<extensions>
<speed>0.2</speed>
<temp>0.00</temp>
<bpm>0</bpm>
<rpm>0.00</rpm>
</extensions>
</trkpt>
<trkpt lat="63.995044708" lon="-19.112739563">
<ele>705.343750</ele>
<time>2012-07-23T15:56:47Z</time>
<speed>0.620000</speed>
<extensions>
<speed>0.6</speed>
<temp>0.00</temp>
<bpm>0</bpm>
<rpm>0.00</rpm>
</extensions>
</trkpt>
<trkpt lat="63.995063782" lon="-19.112791061">
<ele>706.562500</ele>
<time>2012-07-23T15:56:52Z</time>
<speed>0.680000</speed>
<extensions>
<speed>0.7</speed>
<temp>0.00</temp>
<bpm>0</bpm>
<rpm>0.00</rpm>
</extensions>
</trkpt>
<trkpt lat="63.995082855" lon="-19.112857819">
<ele>707.984375</ele>
<time>2012-07-23T15:56:57Z</time>
<speed>0.620000</speed>
<extensions>
<speed>0.6</speed>
<temp>0.00</temp>
<bpm>0</bpm>
<rpm>0.00</rpm>
</extensions>
</trkpt>
<trkpt lat="63.995098114" lon="-19.112913132">
<ele>709.234375</ele>
<time>2012-07-23T15:57:02Z</time>
<speed>0.930000</speed>
<extensions>
<speed>0.9</speed>
<temp>0.00</temp>
<bpm>0</bpm>
<rpm>0.00</rpm>
</extensions>
</trkpt>
<trkpt lat="63.995117188" lon="-19.113000870">
<ele>710.140625</ele>
<time>2012-07-23T15:57:07Z</time>
<speed>1.080000</speed>
<extensions>
<speed>1.1</speed>
<temp>0.00</temp>
<bpm>0</bpm>
<rpm>0.00</rpm>
</extensions>
</trkpt>
<trkpt lat="63.995143890" lon="-19.113092422">
<ele>711.125000</ele>
<time>2012-07-23T15:57:12Z</time>
<speed>0.880000</speed>
<extensions>
<speed>0.9</speed>
<temp>0.00</temp>
<bpm>0</bpm>
<rpm>0.00</rpm>
</extensions>
</trkpt>
<trkpt lat="63.995155334" lon="-19.113180161">
<ele>712.078125</ele>
<time>2012-07-23T15:57:17Z</time>
<speed>0.990000</speed>
<extensions>
<speed>1.0</speed>
<temp>0.00</temp>
<bpm>0</bpm>
<rpm>0.00</rpm>
</extensions>
</trkpt>
<trkpt lat="63.995182037" lon="-19.113252640">
<ele>712.921875</ele>
<time>2012-07-23T15:57:22Z</time>
<speed>0.680000</speed>
<extensions>
<speed>0.7</speed>
<temp>0.00</temp>
<bpm>0</bpm>
<rpm>0.00</rpm>
</extensions>
</trkpt>
<trkpt lat="63.995208740" lon="-19.113323212">
<ele>713.531250</ele>
<time>2012-07-23T15:57:27Z</time>
<speed>0.840000</speed>
<extensions>
<speed>0.8</speed>
<temp>0.00</temp>
<bpm>0</bpm>
<rpm>0.00</rpm>
</extensions>
</trkpt>
<trkpt lat="63.995223999" lon="-19.113378525">
<ele>714.609375</ele>
<time>2012-07-23T15:57:32Z</time>
<speed>0.900000</speed>
<extensions>
<speed>0.9</speed>
<temp>0.00</temp>
<bpm>0</bpm>
<rpm>0.00</rpm>
</extensions>
</trkpt>
<trkpt lat="63.995250702" lon="-19.113451004">
<ele>715.968750</ele>
<time>2012-07-23T15:57:37Z</time>
<speed>0.960000</speed>
<extensions>
<speed>1.0</speed>
<temp>0.00</temp>
<bpm>0</bpm>
<rpm>0.00</rpm>
</extensions>
</trkpt>
<trkpt lat="63.995273590" lon="-19.113531113">
<ele>717.359375</ele>
<time>2012-07-23T15:57:42Z</time>
<speed>0.920000</speed>
<extensions>
<speed>0.9</speed>
<temp>0.00</temp>
<bpm>0</bpm>
<rpm>0.00</rpm>
</extensions>
</trkpt>
<trkpt lat="63.995300293" lon="-19.113613129">
<ele>718.281250</ele>
<time>2012-07-23T15:57:47Z</time>
<speed>0.940000</speed>
<extensions>
<speed>0.9</speed>
<temp>0.00</temp>
<bpm>0</bpm>
<rpm>0.00</rpm>
</extensions>
</trkpt>
<trkpt lat="63.995323181" lon="-19.113672256">
<ele>719.515625</ele>
<time>2012-07-23T15:57:52Z</time>
<speed>0.910000</speed>
<extensions>
<speed>0.9</speed>
<temp>0.00</temp>
<bpm>0</bpm>
<rpm>0.00</rpm>
</extensions>
</trkpt>
<trkpt lat="63.995349884" lon="-19.113765717">
<ele>720.750000</ele>
<time>2012-07-23T15:57:57Z</time>
<speed>0.940000</speed>
<extensions>
<speed>0.9</speed>
<temp>0.00</temp>
<bpm>0</bpm>
<rpm>0.00</rpm>
</extensions>
</trkpt>
<trkpt lat="63.995376587" lon="-19.113836288">
<ele>721.859375</ele>
<time>2012-07-23T15:58:02Z</time>
<speed>0.760000</speed>
<extensions>
<speed>0.8</speed>
<temp>0.00</temp>
<bpm>0</bpm>
<rpm>0.00</rpm>
</extensions>
</trkpt>
<trkpt lat="63.995391846" lon="-19.113891602">
<ele>723.281250</ele>
<time>2012-07-23T15:58:07Z</time>
<speed>0.990000</speed>
<extensions>
<speed>1.0</speed>
<temp>0.00</temp>
<bpm>0</bpm>
<rpm>0.00</rpm>
</extensions>
</trkpt>
<trkpt lat="63.995437622" lon="-19.113958359">
<ele>724.484375</ele>
<time>2012-07-23T15:58:12Z</time>
<speed>1.200000</speed>
<extensions>
<speed>1.2</speed>
<temp>0.00</temp>
<bpm>0</bpm>
<rpm>0.00</rpm>
</extensions>
</trkpt>
<trkpt lat="63.995479584" lon="-19.114011765">
<ele>725.437500</ele>
<time>2012-07-23T15:58:17Z</time>
<speed>0.960000</speed>
<extensions>
<speed>1.0</speed>
<temp>0.00</temp>
<bpm>0</bpm>
<rpm>0.00</rpm>
</extensions>
</trkpt>
<trkpt lat="63.995517731" lon="-19.114059448">
<ele>726.046875</ele>
<time>2012-07-23T15:58:22Z</time>
<speed>1.120000</speed>
<extensions>
<speed>1.1</speed>
<temp>0.00</temp>
<bpm>0</bpm>
<rpm>0.00</rpm>
</extensions>
</trkpt>
<trkpt lat="63.995521545" lon="-19.114152908">
<ele>727.375000</ele>
<time>2012-07-23T15:58:27Z</time>
<speed>0.520000</speed>
<extensions>
<speed>0.5</speed>
<temp>0.00</temp>
<bpm>0</bpm>
<rpm>0.00</rpm>
</extensions>
</trkpt>
<trkpt lat="63.995525360" lon="-19.114177704">
<ele>727.656250</ele>
<time>2012-07-23T15:58:32Z</time>
<speed>0.060000</speed>
<extensions>
<speed>0.1</speed>
<temp>0.00</temp>
<bpm>0</bpm>
<rpm>0.00</rpm>
</extensions>
</trkpt>
<trkpt lat="63.995525360" lon="-19.114175797">
<ele>728.125000</ele>
<time>2012-07-23T15:58:37Z</time>
<speed>0.070000</speed>
<extensions>
<speed>0.1</speed>
<temp>0.00</temp>
<bpm>0</bpm>
<rpm>0.00</rpm>
</extensions>
</trkpt>
<trkpt lat="63.995536804" lon="-19.114238739">
<ele>728.437500</ele>
<time>2012-07-23T15:58:42Z</time>
<speed>1.410000</speed>
<extensions>
<speed>1.4</speed>
<temp>0.00</temp>
<bpm>0</bpm>
<rpm>0.00</rpm>
</extensions>
</trkpt>
<trkpt lat="63.995582581" lon="-19.114307404">
<ele>728.421875</ele>
<time>2012-07-23T15:58:47Z</time>
<speed>0.910000</speed>
<extensions>
<speed>0.9</speed>
<temp>0.00</temp>
<bpm>0</bpm>
<rpm>0.00</rpm>
</extensions>
</trkpt>
<trkpt lat="63.995616913" lon="-19.114360809">
<ele>728.468750</ele>
<time>2012-07-23T15:58:52Z</time>
<speed>1.060000</speed>
<extensions>
<speed>1.1</speed>
<temp>0.00</temp>
<bpm>0</bpm>
<rpm>0.00</rpm>
</extensions>
</trkpt>
<trkpt lat="63.995655060" lon="-19.114435196">
<ele>729.281250</ele>
<time>2012-07-23T15:58:57Z</time>
<speed>1.130000</speed>
<extensions>
<speed>1.1</speed>
<temp>0.00</temp>
<bpm>0</bpm>
<rpm>0.00</rpm>
</extensions>
</trkpt>
<trkpt lat="63.995677948" lon="-19.114524841">
<ele>729.156250</ele>
<time>2012-07-23T15:59:02Z</time>
<speed>1.270000</speed>
<extensions>
<speed>1.3</speed>
<temp>0.00</temp>
<bpm>0</bpm>
<rpm>0.00</rpm>
</extensions>
</trkpt>
<trkpt lat="63.995700836" lon="-19.114608765">
<ele>729.875000</ele>
<time>2012-07-23T15:59:07Z</time>
<speed>1.070000</speed>
<extensions>
<speed>1.1</speed>
<temp>0.00</temp>
<bpm>0</bpm>
<rpm>0.00</rpm>
</extensions>
</trkpt>
<trkpt lat="63.995735168" lon="-19.114665985">
<ele>730.265625</ele>
<time>2012-07-23T15:59:12Z</time>
<speed>0.900000</speed>
<extensions>
<speed>0.9</speed>
<temp>0.00</temp>
<bpm>0</bpm>
<rpm>0.00</rpm>
</extensions>
</trkpt>
<trkpt lat="63.995773315" lon="-19.114721298">
<ele>730.546875</ele>
<time>2012-07-23T15:59:17Z</time>
<speed>1.020000</speed>
<extensions>
<speed>1.0</speed>
<temp>0.00</temp>
<bpm>0</bpm>
<rpm>0.00</rpm>
</extensions>
</trkpt>
<trkpt lat="63.995815277" lon="-19.114778519">
<ele>731.015625</ele>
<time>2012-07-23T15:59:22Z</time>
<speed>0.790000</speed>
<extensions>
<speed>0.8</speed>
<temp>0.00</temp>
<bpm>0</bpm>
<rpm>0.00</rpm>
</extensions>
</trkpt>
<trkpt lat="63.995857239" lon="-19.114830017">
<ele>731.609375</ele>
<time>2012-07-23T15:59:27Z</time>
<speed>1.000000</speed>
<extensions>
<speed>1.0</speed>
<temp>0.00</temp>
<bpm>0</bpm>
<rpm>0.00</rpm>
</extensions>
</trkpt>
<trkpt lat="63.995861053" lon="-19.114852905">
<ele>733.406250</ele>
<time>2012-07-23T15:59:32Z</time>
<speed>0.080000</speed>
<extensions>
<speed>0.1</speed>
<temp>0.00</temp>
<bpm>0</bpm>
<rpm>0.00</rpm>
</extensions>
</trkpt>
<trkpt lat="63.995857239" lon="-19.114862442">
<ele>733.390625</ele>
<time>2012-07-23T15:59:37Z</time>
<speed>0.450000</speed>
<extensions>
<speed>0.5</speed>
<temp>0.00</temp>
<bpm>0</bpm>
<rpm>0.00</rpm>
</extensions>
</trkpt>
<trkpt lat="63.995910645" lon="-19.114929199">
<ele>734.578125</ele>
<time>2012-07-23T15:59:42Z</time>
<speed>1.190000</speed>
<extensions>
<speed>1.2</speed>
<temp>0.00</temp>
<bpm>0</bpm>
<rpm>0.00</rpm>
</extensions>
</trkpt>
<trkpt lat="63.995944977" lon="-19.114982605">
<ele>735.656250</ele>
<time>2012-07-23T15:59:47Z</time>
<speed>0.890000</speed>
<extensions>
<speed>0.9</speed>
<temp>0.00</temp>
<bpm>0</bpm>
<rpm>0.00</rpm>
</extensions>
</trkpt>
<trkpt lat="63.995998383" lon="-19.115056992">
<ele>736.828125</ele>
<time>2012-07-23T15:59:52Z</time>
<speed>1.110000</speed>
<extensions>
<speed>1.1</speed>
<temp>0.00</temp>
<bpm>0</bpm>
<rpm>0.00</rpm>
</extensions>
</trkpt>
<trkpt lat="63.996036530" lon="-19.115097046">
<ele>737.531250</ele>
<time>2012-07-23T15:59:57Z</time>
<speed>1.020000</speed>
<extensions>
<speed>1.0</speed>
<temp>0.00</temp>
<bpm>0</bpm>
<rpm>0.00</rpm>
</extensions>
</trkpt>
<trkpt lat="63.996074677" lon="-19.115152359">
<ele>738.093750</ele>
<time>2012-07-23T16:00:02Z</time>
<speed>1.130000</speed>
<extensions>
<speed>1.1</speed>
<temp>0.00</temp>
<bpm>0</bpm>
<rpm>0.00</rpm>
</extensions>
</trkpt>
<trkpt lat="63.996101379" lon="-19.115207672">
<ele>738.203125</ele>
<time>2012-07-23T16:00:07Z</time>
<speed>0.880000</speed>
<extensions>
<speed>0.9</speed>
<temp>0.00</temp>
<bpm>0</bpm>
<rpm>0.00</rpm>
</extensions>
</trkpt>
<trkpt lat="63.996135712" lon="-19.115295410">
<ele>738.359375</ele>
<time>2012-07-23T16:00:12Z</time>
<speed>1.130000</speed>
<extensions>
<speed>1.1</speed>
<temp>0.00</temp>
<bpm>0</bpm>
<rpm>0.00</rpm>
</extensions>
</trkpt>
<trkpt lat="63.996166229" lon="-19.115377426">
<ele>739.312500</ele>
<time>2012-07-23T16:00:17Z</time>
<speed>1.160000</speed>
<extensions>
<speed>1.2</speed>
<temp>0.00</temp>
<bpm>0</bpm>
<rpm>0.00</rpm>
</extensions>
</trkpt>
<trkpt lat="63.996196747" lon="-19.115449905">
<ele>740.265625</ele>
<time>2012-07-23T16:00:22Z</time>
<speed>0.930000</speed>
<extensions>
<speed>0.9</speed>
<temp>0.00</temp>
<bpm>0</bpm>
<rpm>0.00</rpm>
</extensions>
</trkpt>
<trkpt lat="63.996223450" lon="-19.115535736">
<ele>740.843750</ele>
<time>2012-07-23T16:00:27Z</time>
<speed>1.250000</speed>
<extensions>
<speed>1.3</speed>
<temp>0.00</temp>
<bpm>0</bpm>
<rpm>0.00</rpm>
</extensions>
</trkpt>
<trkpt lat="63.996257782" lon="-19.115619659">
<ele>741.828125</ele>
<time>2012-07-23T16:00:32Z</time>
<speed>0.970000</speed>
<extensions>
<speed>1.0</speed>
<temp>0.00</temp>
<bpm>0</bpm>
<rpm>0.00</rpm>
</extensions>
</trkpt>
<trkpt lat="63.996295929" lon="-19.115699768">
<ele>743.046875</ele>
<time>2012-07-23T16:00:37Z</time>
<speed>1.120000</speed>
<extensions>
<speed>1.1</speed>
<temp>0.00</temp>
<bpm>0</bpm>
<rpm>0.00</rpm>
</extensions>
</trkpt>
<trkpt lat="63.996318817" lon="-19.115797043">
<ele>744.312500</ele>
<time>2012-07-23T16:00:42Z</time>
<speed>1.150000</speed>
<extensions>
<speed>1.1</speed>
<temp>0.00</temp>
<bpm>0</bpm>
<rpm>0.00</rpm>
</extensions>
</trkpt>
<trkpt lat="63.996341705" lon="-19.115907669">
<ele>745.328125</ele>
<time>2012-07-23T16:00:47Z</time>
<speed>1.300000</speed>
<extensions>
<speed>1.3</speed>
<temp>0.00</temp>
<bpm>0</bpm>
<rpm>0.00</rpm>
</extensions>
</trkpt>
<trkpt lat="63.996368408" lon="-19.116010666">
<ele>745.656250</ele>
<time>2012-07-23T16:00:52Z</time>
<speed>1.090000</speed>
<extensions>
<speed>1.1</speed>
<temp>0.00</temp>
<bpm>0</bpm>
<rpm>0.00</rpm>
</extensions>
</trkpt>
<trkpt lat="63.996402740" lon="-19.116081238">
<ele>746.343750</ele>
<time>2012-07-23T16:00:57Z</time>
<speed>1.130000</speed>
<extensions>
<speed>1.1</speed>
<temp>0.00</temp>
<bpm>0</bpm>
<rpm>0.00</rpm>
</extensions>
</trkpt>
<trkpt lat="63.996437073" lon="-19.116146088">
<ele>746.781250</ele>
<time>2012-07-23T16:01:02Z</time>
<speed>0.990000</speed>
<extensions>
<speed>1.0</speed>
<temp>0.00</temp>
<bpm>0</bpm>
<rpm>0.00</rpm>
</extensions>
</trkpt>
<trkpt lat="63.996463776" lon="-19.116216660">
<ele>748.062500</ele>
<time>2012-07-23T16:01:07Z</time>
<speed>1.110000</speed>
<extensions>
<speed>1.1</speed>
<temp>0.00</temp>
<bpm>0</bpm>
<rpm>0.00</rpm>
</extensions>
</trkpt>
<trkpt lat="63.996498108" lon="-19.116302490">
<ele>749.500000</ele>
<time>2012-07-23T16:01:12Z</time>
<speed>1.120000</speed>
<extensions>
<speed>1.1</speed>
<temp>0.00</temp>
<bpm>0</bpm>
<rpm>0.00</rpm>
</extensions>
</trkpt>
<trkpt lat="63.996520996" lon="-19.116424561">
<ele>750.296875</ele>
<time>2012-07-23T16:01:17Z</time>
<speed>1.100000</speed>
<extensions>
<speed>1.1</speed>
<temp>0.00</temp>
<bpm>0</bpm>
<rpm>0.00</rpm>
</extensions>
</trkpt>
<trkpt lat="63.996547699" lon="-19.116506577">
<ele>751.437500</ele>
<time>2012-07-23T16:01:22Z</time>
<speed>0.110000</speed>
<extensions>
<speed>0.1</speed>
<temp>0.00</temp>
<bpm>0</bpm>
<rpm>0.00</rpm>
</extensions>
</trkpt>
<trkpt lat="63.996559143" lon="-19.116546631">
<ele>752.343750</ele>
<time>2012-07-23T16:01:27Z</time>
<speed>1.110000</speed>
<extensions>
<speed>1.1</speed>
<temp>0.00</temp>
<bpm>0</bpm>
<rpm>0.00</rpm>
</extensions>
</trkpt>
<trkpt lat="63.996601105" lon="-19.116607666">
<ele>753.578125</ele>
<time>2012-07-23T16:01:32Z</time>
<speed>0.910000</speed>
<extensions>
<speed>0.9</speed>
<temp>0.00</temp>
<bpm>0</bpm>
<rpm>0.00</rpm>
</extensions>
</trkpt>
<trkpt lat="63.996631622" lon="-19.116680145">
<ele>754.718750</ele>
<time>2012-07-23T16:01:37Z</time>
<speed>0.890000</speed>
<extensions>
<speed>0.9</speed>
<temp>0.00</temp>
<bpm>0</bpm>
<rpm>0.00</rpm>
</extensions>
</trkpt>
<trkpt lat="63.996665955" lon="-19.116727829">
<ele>756.203125</ele>
<time>2012-07-23T16:01:42Z</time>
<speed>0.800000</speed>
<extensions>
<speed>0.8</speed>
<temp>0.00</temp>
<bpm>0</bpm>
<rpm>0.00</rpm>
</extensions>
</trkpt>
<trkpt lat="63.996685028" lon="-19.116823196">
<ele>757.609375</ele>
<time>2012-07-23T16:01:47Z</time>
<speed>1.120000</speed>
<extensions>
<speed>1.1</speed>
<temp>0.00</temp>
<bpm>0</bpm>
<rpm>0.00</rpm>
</extensions>
</trkpt>
<trkpt lat="63.996711731" lon="-19.116893768">
<ele>758.343750</ele>
<time>2012-07-23T16:01:52Z</time>
<speed>1.020000</speed>
<extensions>
<speed>1.0</speed>
<temp>0.00</temp>
<bpm>0</bpm>
<rpm>0.00</rpm>
</extensions>
</trkpt>
<trkpt lat="63.996753693" lon="-19.116960526">
<ele>759.375000</ele>
<time>2012-07-23T16:01:57Z</time>
<speed>1.130000</speed>
<extensions>
<speed>1.1</speed>
<temp>0.00</temp>
<bpm>0</bpm>
<rpm>0.00</rpm>
</extensions>
</trkpt>
<trkpt lat="63.996807098" lon="-19.116983414">
<ele>760.312500</ele>
<time>2012-07-23T16:02:02Z</time>
<speed>1.270000</speed>
<extensions>
<speed>1.3</speed>
<temp>0.00</temp>
<bpm>0</bpm>
<rpm>0.00</rpm>
</extensions>
</trkpt>
<trkpt lat="63.996864319" lon="-19.117019653">
<ele>761.390625</ele>
<time>2012-07-23T16:02:07Z</time>
<speed>1.250000</speed>
<extensions>
<speed>1.3</speed>
<temp>0.00</temp>
<bpm>0</bpm>
<rpm>0.00</rpm>
</extensions>
</trkpt>
<trkpt lat="63.996925354" lon="-19.117073059">
<ele>762.171875</ele>
<time>2012-07-23T16:02:12Z</time>
<speed>1.370000</speed>
<extensions>
<speed>1.4</speed>
<temp>0.00</temp>
<bpm>0</bpm>
<rpm>0.00</rpm>
</extensions>
</trkpt>
<trkpt lat="63.996982574" lon="-19.117086411">
<ele>762.890625</ele>
<time>2012-07-23T16:02:17Z</time>
<speed>1.250000</speed>
<extensions>
<speed>1.3</speed>
<temp>0.00</temp>
<bpm>0</bpm>
<rpm>0.00</rpm>
</extensions>
</trkpt>
<trkpt lat="63.997020721" lon="-19.117080688">
<ele>762.687500</ele>
<time>2012-07-23T16:02:22Z</time>
<speed>1.260000</speed>
<extensions>
<speed>1.3</speed>
<temp>0.00</temp>
<bpm>0</bpm>
<rpm>0.00</rpm>
</extensions>
</trkpt>
<trkpt lat="63.997074127" lon="-19.117061615">
<ele>763.515625</ele>
<time>2012-07-23T16:02:27Z</time>
<speed>1.150000</speed>
<extensions>
<speed>1.1</speed>
<temp>0.00</temp>
<bpm>0</bpm>
<rpm>0.00</rpm>
</extensions>
</trkpt>
<trkpt lat="63.997112274" lon="-19.117033005">
<ele>764.500000</ele>
<time>2012-07-23T16:02:32Z</time>
<speed>1.070000</speed>
<extensions>
<speed>1.1</speed>
<temp>0.00</temp>
<bpm>0</bpm>
<rpm>0.00</rpm>
</extensions>
</trkpt>
<trkpt lat="63.997161865" lon="-19.117010117">
<ele>764.781250</ele>
<time>2012-07-23T16:02:37Z</time>
<speed>1.120000</speed>
<extensions>
<speed>1.1</speed>
<temp>0.00</temp>
<bpm>0</bpm>
<rpm>0.00</rpm>
</extensions>
</trkpt>
<trkpt lat="63.997222900" lon="-19.116983414">
<ele>765.140625</ele>
<time>2012-07-23T16:02:42Z</time>
<speed>1.200000</speed>
<extensions>
<speed>1.2</speed>
<temp>0.00</temp>
<bpm>0</bpm>
<rpm>0.00</rpm>
</extensions>
</trkpt>
<trkpt lat="63.997276306" lon="-19.116912842">
<ele>765.546875</ele>
<time>2012-07-23T16:02:47Z</time>
<speed>1.490000</speed>
<extensions>
<speed>1.5</speed>
<temp>0.00</temp>
<bpm>0</bpm>
<rpm>0.00</rpm>
</extensions>
</trkpt>
<trkpt lat="63.997329712" lon="-19.116844177">
<ele>765.359375</ele>
<time>2012-07-23T16:02:52Z</time>
<speed>1.410000</speed>
<extensions>
<speed>1.4</speed>
<temp>0.00</temp>
<bpm>0</bpm>
<rpm>0.00</rpm>
</extensions>
</trkpt>
<trkpt lat="63.997371674" lon="-19.116786957">
<ele>765.000000</ele>
<time>2012-07-23T16:02:57Z</time>
<speed>1.370000</speed>
<extensions>
<speed>1.4</speed>
<temp>0.00</temp>
<bpm>0</bpm>
<rpm>0.00</rpm>
</extensions>
</trkpt>
<trkpt lat="63.997413635" lon="-19.116725922">
<ele>764.296875</ele>
<time>2012-07-23T16:03:02Z</time>
<speed>1.300000</speed>
<extensions>
<speed>1.3</speed>
<temp>0.00</temp>
<bpm>0</bpm>
<rpm>0.00</rpm>
</extensions>
</trkpt>
<trkpt lat="63.997440338" lon="-19.116653442">
<ele>764.015625</ele>
<time>2012-07-23T16:03:07Z</time>
<speed>0.500000</speed>
<extensions>
<speed>0.5</speed>
<temp>0.00</temp>
<bpm>0</bpm>
<rpm>0.00</rpm>
</extensions>
</trkpt>
<trkpt lat="63.997486115" lon="-19.116598129">
<ele>764.218750</ele>
<time>2012-07-23T16:03:12Z</time>
<speed>1.240000</speed>
<extensions>
<speed>1.2</speed>
<temp>0.00</temp>
<bpm>0</bpm>
<rpm>0.00</rpm>
</extensions>
</trkpt>
<trkpt lat="63.997509003" lon="-19.116556168">
<ele>764.421875</ele>
<time>2012-07-23T16:03:17Z</time>
<speed>0.040000</speed>
<extensions>
<speed>0.0</speed>
<temp>0.00</temp>
<bpm>0</bpm>
<rpm>0.00</rpm>
</extensions>
</trkpt>
<trkpt lat="63.997512817" lon="-19.116569519">
<ele>764.390625</ele>
<time>2012-07-23T16:03:22Z</time>
<speed>0.080000</speed>
<extensions>
<speed>0.1</speed>
<temp>0.00</temp>
<bpm>0</bpm>
<rpm>0.00</rpm>
</extensions>
</trkpt>
<trkpt lat="63.997509003" lon="-19.116552353">
<ele>764.390625</ele>
<time>2012-07-23T16:03:27Z</time>
<speed>0.100000</speed>
<extensions>
<speed>0.1</speed>
<temp>0.00</temp>
<bpm>0</bpm>
<rpm>0.00</rpm>
</extensions>
</trkpt>
<trkpt lat="63.997509003" lon="-19.116550446">
<ele>764.468750</ele>
<time>2012-07-23T16:03:32Z</time>
<speed>0.020000</speed>
<extensions>
<speed>0.0</speed>
<temp>0.00</temp>
<bpm>0</bpm>
<rpm>0.00</rpm>
</extensions>
</trkpt>
<trkpt lat="63.997505188" lon="-19.116550446">
<ele>764.546875</ele>
<time>2012-07-23T16:03:37Z</time>
<speed>0.030000</speed>
<extensions>
<speed>0.0</speed>
<temp>0.00</temp>
<bpm>0</bpm>
<rpm>0.00</rpm>
</extensions>
</trkpt>
<trkpt lat="63.997505188" lon="-19.116548538">
<ele>764.578125</ele>
<time>2012-07-23T16:03:42Z</time>
<extensions>
<speed>0.0</speed>
<temp>0.00</temp>
<bpm>0</bpm>
<rpm>0.00</rpm>
</extensions>
</trkpt>
<trkpt lat="63.997505188" lon="-19.116548538">
<ele>764.578125</ele>
<time>2012-07-23T16:03:47Z</time>
<speed>0.010000</speed>
<extensions>
<speed>0.0</speed>
<temp>0.00</temp>
<bpm>0</bpm>
<rpm>0.00</rpm>
</extensions>
</trkpt>
<trkpt lat="63.997505188" lon="-19.116548538">
<ele>764.578125</ele>
<time>2012-07-23T16:03:52Z</time>
<extensions>
<speed>0.0</speed>
<temp>0.00</temp>
<bpm>0</bpm>
<rpm>0.00</rpm>
</extensions>
</trkpt>
<trkpt lat="63.997505188" lon="-19.116548538">
<ele>764.578125</ele>
<time>2012-07-23T16:03:57Z</time>
<extensions>
<speed>0.0</speed>
<temp>0.00</temp>
<bpm>0</bpm>
<rpm>0.00</rpm>
</extensions>
</trkpt>
<trkpt lat="63.997505188" lon="-19.116548538">
<ele>764.593750</ele>
<time>2012-07-23T16:04:02Z</time>
<extensions>
<speed>0.0</speed>
<temp>0.00</temp>
<bpm>0</bpm>
<rpm>0.00</rpm>
</extensions>
</trkpt>
<trkpt lat="63.997505188" lon="-19.116548538">
<ele>764.593750</ele>
<time>2012-07-23T16:04:07Z</time>
<extensions>
<speed>0.0</speed>
<temp>0.00</temp>
<bpm>0</bpm>
<rpm>0.00</rpm>
</extensions>
</trkpt>
<trkpt lat="63.997505188" lon="-19.116548538">
<ele>764.593750</ele>
<time>2012-07-23T16:04:12Z</time>
<speed>0.010000</speed>
<extensions>
<speed>0.0</speed>
<temp>0.00</temp>
<bpm>0</bpm>
<rpm>0.00</rpm>
</extensions>
</trkpt>
<trkpt lat="63.997505188" lon="-19.116548538">
<ele>764.593750</ele>
<time>2012-07-23T16:04:17Z</time>
<extensions>
<speed>0.0</speed>
<temp>0.00</temp>
<bpm>0</bpm>
<rpm>0.00</rpm>
</extensions>
</trkpt>
<trkpt lat="63.997505188" lon="-19.116548538">
<ele>764.609375</ele>
<time>2012-07-23T16:04:22Z</time>
<extensions>
<speed>0.0</speed>
<temp>0.00</temp>
<bpm>0</bpm>
<rpm>0.00</rpm>
</extensions>
</trkpt>
<trkpt lat="63.997505188" lon="-19.116548538">
<ele>764.609375</ele>
<time>2012-07-23T16:04:27Z</time>
<speed>0.020000</speed>
<extensions>
<speed>0.0</speed>
<temp>0.00</temp>
<bpm>0</bpm>
<rpm>0.00</rpm>
</extensions>
</trkpt>
<trkpt lat="63.997505188" lon="-19.116548538">
<ele>764.609375</ele>
<time>2012-07-23T16:04:32Z</time>
<speed>0.010000</speed>
<extensions>
<speed>0.0</speed>
<temp>0.00</temp>
<bpm>0</bpm>
<rpm>0.00</rpm>
</extensions>
</trkpt>
<trkpt lat="63.997505188" lon="-19.116548538">
<ele>764.609375</ele>
<time>2012-07-23T16:04:37Z</time>
<extensions>
<speed>0.0</speed>
<temp>0.00</temp>
<bpm>0</bpm>
<rpm>0.00</rpm>
</extensions>
</trkpt>
<trkpt lat="63.997505188" lon="-19.116548538">
<ele>764.625000</ele>
<time>2012-07-23T16:04:42Z</time>
<extensions>
<speed>0.0</speed>
<temp>0.00</temp>
<bpm>0</bpm>
<rpm>0.00</rpm>
</extensions>
</trkpt>
<trkpt lat="63.997505188" lon="-19.116548538">
<ele>764.625000</ele>
<time>2012-07-23T16:04:47Z</time>
<extensions>
<speed>0.0</speed>
<temp>0.00</temp>
<bpm>0</bpm>
<rpm>0.00</rpm>
</extensions>
</trkpt>
<trkpt lat="63.997505188" lon="-19.116548538">
<ele>764.640625</ele>
<time>2012-07-23T16:04:52Z</time>
<extensions>
<speed>0.0</speed>
<temp>0.00</temp>
<bpm>0</bpm>
<rpm>0.00</rpm>
</extensions>
</trkpt>
<trkpt lat="63.997505188" lon="-19.116548538">
<ele>764.640625</ele>
<time>2012-07-23T16:04:57Z</time>
<speed>0.010000</speed>
<extensions>
<speed>0.0</speed>
<temp>0.00</temp>
<bpm>0</bpm>
<rpm>0.00</rpm>
</extensions>
</trkpt>
<trkpt lat="63.997505188" lon="-19.116546631">
<ele>764.640625</ele>
<time>2012-07-23T16:05:02Z</time>
<extensions>
<speed>0.0</speed>
<temp>0.00</temp>
<bpm>0</bpm>
<rpm>0.00</rpm>
</extensions>
</trkpt>
<trkpt lat="63.997505188" lon="-19.116546631">
<ele>764.640625</ele>
<time>2012-07-23T16:05:07Z</time>
<extensions>
<speed>0.0</speed>
<temp>0.00</temp>
<bpm>0</bpm>
<rpm>0.00</rpm>
</extensions>
</trkpt>
<trkpt lat="63.997505188" lon="-19.116546631">
<ele>764.656250</ele>
<time>2012-07-23T16:05:12Z</time>
<speed>0.010000</speed>
<extensions>
<speed>0.0</speed>
<temp>0.00</temp>
<bpm>0</bpm>
<rpm>0.00</rpm>
</extensions>
</trkpt>
<trkpt lat="63.997505188" lon="-19.116546631">
<ele>764.656250</ele>
<time>2012-07-23T16:05:17Z</time>
<extensions>
<speed>0.0</speed>
<temp>0.00</temp>
<bpm>0</bpm>
<rpm>0.00</rpm>
</extensions>
</trkpt>
<trkpt lat="63.997505188" lon="-19.116546631">
<ele>764.656250</ele>
<time>2012-07-23T16:05:22Z</time>
<extensions>
<speed>0.0</speed>
<temp>0.00</temp>
<bpm>0</bpm>
<rpm>0.00</rpm>
</extensions>
</trkpt>
<trkpt lat="63.997505188" lon="-19.116546631">
<ele>764.656250</ele>
<time>2012-07-23T16:05:27Z</time>
<extensions>
<speed>0.0</speed>
<temp>0.00</temp>
<bpm>0</bpm>
<rpm>0.00</rpm>
</extensions>
</trkpt>
<trkpt lat="63.997505188" lon="-19.116546631">
<ele>764.656250</ele>
<time>2012-07-23T16:05:32Z</time>
<speed>0.010000</speed>
<extensions>
<speed>0.0</speed>
<temp>0.00</temp>
<bpm>0</bpm>
<rpm>0.00</rpm>
</extensions>
</trkpt>
<trkpt lat="63.997505188" lon="-19.116548538">
<ele>764.656250</ele>
<time>2012-07-23T16:05:37Z</time>
<extensions>
<speed>0.0</speed>
<temp>0.00</temp>
<bpm>0</bpm>
<rpm>0.00</rpm>
</extensions>
</trkpt>
<trkpt lat="63.997505188" lon="-19.116548538">
<ele>764.671875</ele>
<time>2012-07-23T16:05:42Z</time>
<extensions>
<speed>0.0</speed>
<temp>0.00</temp>
<bpm>0</bpm>
<rpm>0.00</rpm>
</extensions>
</trkpt>
<trkpt lat="63.997505188" lon="-19.116548538">
<ele>764.671875</ele>
<time>2012-07-23T16:05:47Z</time>
<extensions>
<speed>0.0</speed>
<temp>0.00</temp>
<bpm>0</bpm>
<rpm>0.00</rpm>
</extensions>
</trkpt>
<trkpt lat="63.997509003" lon="-19.116548538">
<ele>764.671875</ele>
<time>2012-07-23T16:05:52Z</time>
<speed>0.130000</speed>
<extensions>
<speed>0.1</speed>
<temp>0.00</temp>
<bpm>0</bpm>
<rpm>0.00</rpm>
</extensions>
</trkpt>
<trkpt lat="63.997505188" lon="-19.116546631">
<ele>764.671875</ele>
<time>2012-07-23T16:05:57Z</time>
<extensions>
<speed>0.0</speed>
<temp>0.00</temp>
<bpm>0</bpm>
<rpm>0.00</rpm>
</extensions>
</trkpt>
<trkpt lat="63.997505188" lon="-19.116546631">
<ele>764.687500</ele>
<time>2012-07-23T16:06:02Z</time>
<extensions>
<speed>0.0</speed>
<temp>0.00</temp>
<bpm>0</bpm>
<rpm>0.00</rpm>
</extensions>
</trkpt>
<trkpt lat="63.997505188" lon="-19.116546631">
<ele>764.687500</ele>
<time>2012-07-23T16:06:07Z</time>
<extensions>
<speed>0.0</speed>
<temp>0.00</temp>
<bpm>0</bpm>
<rpm>0.00</rpm>
</extensions>
</trkpt>
<trkpt lat="63.997505188" lon="-19.116546631">
<ele>764.687500</ele>
<time>2012-07-23T16:06:12Z</time>
<speed>0.010000</speed>
<extensions>
<speed>0.0</speed>
<temp>0.00</temp>
<bpm>0</bpm>
<rpm>0.00</rpm>
</extensions>
</trkpt>
<trkpt lat="63.997505188" lon="-19.116546631">
<ele>764.703125</ele>
<time>2012-07-23T16:06:17Z</time>
<extensions>
<speed>0.0</speed>
<temp>0.00</temp>
<bpm>0</bpm>
<rpm>0.00</rpm>
</extensions>
</trkpt>
<trkpt lat="63.997505188" lon="-19.116546631">
<ele>764.734375</ele>
<time>2012-07-23T16:06:22Z</time>
<extensions>
<speed>0.0</speed>
<temp>0.00</temp>
<bpm>0</bpm>
<rpm>0.00</rpm>
</extensions>
</trkpt>
<trkpt lat="63.997505188" lon="-19.116546631">
<ele>764.734375</ele>
<time>2012-07-23T16:06:27Z</time>
<speed>0.010000</speed>
<extensions>
<speed>0.0</speed>
<temp>0.00</temp>
<bpm>0</bpm>
<rpm>0.00</rpm>
</extensions>
</trkpt>
<trkpt lat="63.997505188" lon="-19.116546631">
<ele>764.750000</ele>
<time>2012-07-23T16:06:32Z</time>
<extensions>
<speed>0.0</speed>
<temp>0.00</temp>
<bpm>0</bpm>
<rpm>0.00</rpm>
</extensions>
</trkpt>
<trkpt lat="63.997505188" lon="-19.116546631">
<ele>764.750000</ele>
<time>2012-07-23T16:06:37Z</time>
<speed>0.010000</speed>
<extensions>
<speed>0.0</speed>
<temp>0.00</temp>
<bpm>0</bpm>
<rpm>0.00</rpm>
</extensions>
</trkpt>
<trkpt lat="63.997505188" lon="-19.116546631">
<ele>764.765625</ele>
<time>2012-07-23T16:06:42Z</time>
<extensions>
<speed>0.0</speed>
<temp>0.00</temp>
<bpm>0</bpm>
<rpm>0.00</rpm>
</extensions>
</trkpt>
<trkpt lat="63.997505188" lon="-19.116548538">
<ele>764.765625</ele>
<time>2012-07-23T16:06:47Z</time>
<speed>0.120000</speed>
<extensions>
<speed>0.1</speed>
<temp>0.00</temp>
<bpm>0</bpm>
<rpm>0.00</rpm>
</extensions>
</trkpt>
<trkpt lat="63.997505188" lon="-19.116548538">
<ele>764.765625</ele>
<time>2012-07-23T16:06:52Z</time>
<extensions>
<speed>0.0</speed>
<temp>0.00</temp>
<bpm>0</bpm>
<rpm>0.00</rpm>
</extensions>
</trkpt>
<trkpt lat="63.997505188" lon="-19.116548538">
<ele>764.750000</ele>
<time>2012-07-23T16:06:57Z</time>
<speed>0.640000</speed>
<extensions>
<speed>0.6</speed>
<temp>0.00</temp>
<bpm>0</bpm>
<rpm>0.00</rpm>
</extensions>
</trkpt>
<trkpt lat="63.997463226" lon="-19.116617203">
<ele>765.500000</ele>
<time>2012-07-23T16:07:02Z</time>
<speed>1.170000</speed>
<extensions>
<speed>1.2</speed>
<temp>0.00</temp>
<bpm>0</bpm>
<rpm>0.00</rpm>
</extensions>
</trkpt>
<trkpt lat="63.997421265" lon="-19.116703033">
<ele>765.875000</ele>
<time>2012-07-23T16:07:07Z</time>
<speed>1.590000</speed>
<extensions>
<speed>1.6</speed>
<temp>0.00</temp>
<bpm>0</bpm>
<rpm>0.00</rpm>
</extensions>
</trkpt>
<trkpt lat="63.997383118" lon="-19.116783142">
<ele>765.875000</ele>
<time>2012-07-23T16:07:12Z</time>
<speed>1.190000</speed>
<extensions>
<speed>1.2</speed>
<temp>0.00</temp>
<bpm>0</bpm>
<rpm>0.00</rpm>
</extensions>
</trkpt>
<trkpt lat="63.997344971" lon="-19.116846085">
<ele>766.312500</ele>
<time>2012-07-23T16:07:17Z</time>
<speed>1.080000</speed>
<extensions>
<speed>1.1</speed>
<temp>0.00</temp>
<bpm>0</bpm>
<rpm>0.00</rpm>
</extensions>
</trkpt>
<trkpt lat="63.997310638" lon="-19.116905212">
<ele>766.843750</ele>
<time>2012-07-23T16:07:22Z</time>
<speed>1.170000</speed>
<extensions>
<speed>1.2</speed>
<temp>0.00</temp>
<bpm>0</bpm>
<rpm>0.00</rpm>
</extensions>
</trkpt>
<trkpt lat="63.997268677" lon="-19.116966248">
<ele>767.500000</ele>
<time>2012-07-23T16:07:27Z</time>
<speed>1.290000</speed>
<extensions>
<speed>1.3</speed>
<temp>0.00</temp>
<bpm>0</bpm>
<rpm>0.00</rpm>
</extensions>
</trkpt>
<trkpt lat="63.997207642" lon="-19.117012024">
<ele>767.859375</ele>
<time>2012-07-23T16:07:32Z</time>
<speed>1.300000</speed>
<extensions>
<speed>1.3</speed>
<temp>0.00</temp>
<bpm>0</bpm>
<rpm>0.00</rpm>
</extensions>
</trkpt>
<trkpt lat="63.997161865" lon="-19.117046356">
<ele>767.078125</ele>
<time>2012-07-23T16:07:37Z</time>
<speed>1.060000</speed>
<extensions>
<speed>1.1</speed>
<temp>0.00</temp>
<bpm>0</bpm>
<rpm>0.00</rpm>
</extensions>
</trkpt>
<trkpt lat="63.997108459" lon="-19.117069244">
<ele>766.453125</ele>
<time>2012-07-23T16:07:42Z</time>
<speed>1.250000</speed>
<extensions>
<speed>1.3</speed>
<temp>0.00</temp>
<bpm>0</bpm>
<rpm>0.00</rpm>
</extensions>
</trkpt>
<trkpt lat="63.997058868" lon="-19.117082596">
<ele>765.937500</ele>
<time>2012-07-23T16:07:47Z</time>
<speed>1.030000</speed>
<extensions>
<speed>1.0</speed>
<temp>0.00</temp>
<bpm>0</bpm>
<rpm>0.00</rpm>
</extensions>
</trkpt>
<trkpt lat="63.997032166" lon="-19.117113113">
<ele>765.406250</ele>
<time>2012-07-23T16:07:52Z</time>
<speed>0.440000</speed>
<extensions>
<speed>0.4</speed>
<temp>0.00</temp>
<bpm>0</bpm>
<rpm>0.00</rpm>
</extensions>
</trkpt>
<trkpt lat="63.996990204" lon="-19.117118835">
<ele>764.921875</ele>
<time>2012-07-23T16:07:57Z</time>
<speed>0.840000</speed>
<extensions>
<speed>0.8</speed>
<temp>0.00</temp>
<bpm>0</bpm>
<rpm>0.00</rpm>
</extensions>
</trkpt>
<trkpt lat="63.996944427" lon="-19.117105484">
<ele>763.937500</ele>
<time>2012-07-23T16:08:02Z</time>
<speed>0.950000</speed>
<extensions>
<speed>1.0</speed>
<temp>0.00</temp>
<bpm>0</bpm>
<rpm>0.00</rpm>
</extensions>
</trkpt>
<trkpt lat="63.996891022" lon="-19.117074966">
<ele>763.156250</ele>
<time>2012-07-23T16:08:07Z</time>
<speed>1.110000</speed>
<extensions>
<speed>1.1</speed>
<temp>0.00</temp>
<bpm>0</bpm>
<rpm>0.00</rpm>
</extensions>
</trkpt>
<trkpt lat="63.996837616" lon="-19.117023468">
<ele>762.109375</ele>
<time>2012-07-23T16:08:12Z</time>
<speed>1.330000</speed>
<extensions>
<speed>1.3</speed>
<temp>0.00</temp>
<bpm>0</bpm>
<rpm>0.00</rpm>
</extensions>
</trkpt>
<trkpt lat="63.996784210" lon="-19.116998672">
<ele>760.656250</ele>
<time>2012-07-23T16:08:17Z</time>
<speed>1.370000</speed>
<extensions>
<speed>1.4</speed>
<temp>0.00</temp>
<bpm>0</bpm>
<rpm>0.00</rpm>
</extensions>
</trkpt>
<trkpt lat="63.996730804" lon="-19.116939545">
<ele>759.375000</ele>
<time>2012-07-23T16:08:22Z</time>
<speed>1.310000</speed>
<extensions>
<speed>1.3</speed>
<temp>0.00</temp>
<bpm>0</bpm>
<rpm>0.00</rpm>
</extensions>
</trkpt>
<trkpt lat="63.996692657" lon="-19.116857529">
<ele>758.421875</ele>
<time>2012-07-23T16:08:27Z</time>
<speed>1.150000</speed>
<extensions>
<speed>1.1</speed>
<temp>0.00</temp>
<bpm>0</bpm>
<rpm>0.00</rpm>
</extensions>
</trkpt>
<trkpt lat="63.996654510" lon="-19.116744995">
<ele>757.015625</ele>
<time>2012-07-23T16:08:32Z</time>
<speed>1.060000</speed>
<extensions>
<speed>1.1</speed>
<temp>0.00</temp>
<bpm>0</bpm>
<rpm>0.00</rpm>
</extensions>
</trkpt>
<trkpt lat="63.996623993" lon="-19.116691589">
<ele>755.812500</ele>
<time>2012-07-23T16:08:37Z</time>
<speed>0.650000</speed>
<extensions>
<speed>0.6</speed>
<temp>0.00</temp>
<bpm>0</bpm>
<rpm>0.00</rpm>
</extensions>
</trkpt>
<trkpt lat="63.996597290" lon="-19.116651535">
<ele>754.093750</ele>
<time>2012-07-23T16:08:42Z</time>
<speed>0.780000</speed>
<extensions>
<speed>0.8</speed>
<temp>0.00</temp>
<bpm>0</bpm>
<rpm>0.00</rpm>
</extensions>
</trkpt>
<trkpt lat="63.996574402" lon="-19.116609573">
<ele>752.765625</ele>
<time>2012-07-23T16:08:47Z</time>
<speed>0.760000</speed>
<extensions>
<speed>0.8</speed>
<temp>0.00</temp>
<bpm>0</bpm>
<rpm>0.00</rpm>
</extensions>
</trkpt>
<trkpt lat="63.996540070" lon="-19.116546631">
<ele>751.718750</ele>
<time>2012-07-23T16:08:52Z</time>
<speed>1.290000</speed>
<extensions>
<speed>1.3</speed>
<temp>0.00</temp>
<bpm>0</bpm>
<rpm>0.00</rpm>
</extensions>
</trkpt>
<trkpt lat="63.996513367" lon="-19.116468430">
<ele>751.328125</ele>
<time>2012-07-23T16:08:57Z</time>
<speed>1.190000</speed>
<extensions>
<speed>1.2</speed>
<temp>0.00</temp>
<bpm>0</bpm>
<rpm>0.00</rpm>
</extensions>
</trkpt>
<trkpt lat="63.996482849" lon="-19.116420746">
<ele>750.140625</ele>
<time>2012-07-23T16:09:02Z</time>
<speed>0.510000</speed>
<extensions>
<speed>0.5</speed>
<temp>0.00</temp>
<bpm>0</bpm>
<rpm>0.00</rpm>
</extensions>
</trkpt>
<trkpt lat="63.996482849" lon="-19.116399765">
<ele>749.328125</ele>
<time>2012-07-23T16:09:07Z</time>
<speed>0.310000</speed>
<extensions>
<speed>0.3</speed>
<temp>0.00</temp>
<bpm>0</bpm>
<rpm>0.00</rpm>
</extensions>
</trkpt>
<trkpt lat="63.996486664" lon="-19.116386414">
<ele>749.546875</ele>
<time>2012-07-23T16:09:12Z</time>
<speed>0.050000</speed>
<extensions>
<speed>0.1</speed>
<temp>0.00</temp>
<bpm>0</bpm>
<rpm>0.00</rpm>
</extensions>
</trkpt>
<trkpt lat="63.996486664" lon="-19.116388321">
<ele>749.687500</ele>
<time>2012-07-23T16:09:17Z</time>
<speed>0.120000</speed>
<extensions>
<speed>0.1</speed>
<temp>0.00</temp>
<bpm>0</bpm>
<rpm>0.00</rpm>
</extensions>
</trkpt>
<trkpt lat="63.996490479" lon="-19.116384506">
<ele>749.734375</ele>
<time>2012-07-23T16:09:22Z</time>
<speed>0.020000</speed>
<extensions>
<speed>0.0</speed>
<temp>0.00</temp>
<bpm>0</bpm>
<rpm>0.00</rpm>
</extensions>
</trkpt>
<trkpt lat="63.996490479" lon="-19.116384506">
<ele>749.750000</ele>
<time>2012-07-23T16:09:27Z</time>
<speed>0.020000</speed>
<extensions>
<speed>0.0</speed>
<temp>0.00</temp>
<bpm>0</bpm>
<rpm>0.00</rpm>
</extensions>
</trkpt>
<trkpt lat="63.996490479" lon="-19.116384506">
<ele>749.734375</ele>
<time>2012-07-23T16:09:32Z</time>
<extensions>
<speed>0.0</speed>
<temp>0.00</temp>
<bpm>0</bpm>
<rpm>0.00</rpm>
</extensions>
</trkpt>
<trkpt lat="63.996490479" lon="-19.116384506">
<ele>749.734375</ele>
<time>2012-07-23T16:09:37Z</time>
<speed>0.010000</speed>
<extensions>
<speed>0.0</speed>
<temp>0.00</temp>
<bpm>0</bpm>
<rpm>0.00</rpm>
</extensions>
</trkpt>
<trkpt lat="63.996490479" lon="-19.116384506">
<ele>749.734375</ele>
<time>2012-07-23T16:09:42Z</time>
<speed>0.010000</speed>
<extensions>
<speed>0.0</speed>
<temp>0.00</temp>
<bpm>0</bpm>
<rpm>0.00</rpm>
</extensions>
</trkpt>
<trkpt lat="63.996490479" lon="-19.116384506">
<ele>749.734375</ele>
<time>2012-07-23T16:09:47Z</time>
<speed>0.010000</speed>
<extensions>
<speed>0.0</speed>
<temp>0.00</temp>
<bpm>0</bpm>
<rpm>0.00</rpm>
</extensions>
</trkpt>
<trkpt lat="63.996490479" lon="-19.116384506">
<ele>749.734375</ele>
<time>2012-07-23T16:09:52Z</time>
<speed>0.010000</speed>
<extensions>
<speed>0.0</speed>
<temp>0.00</temp>
<bpm>0</bpm>
<rpm>0.00</rpm>
</extensions>
</trkpt>
<trkpt lat="63.996490479" lon="-19.116384506">
<ele>749.734375</ele>
<time>2012-07-23T16:09:57Z</time>
<speed>0.010000</speed>
<extensions>
<speed>0.0</speed>
<temp>0.00</temp>
<bpm>0</bpm>
<rpm>0.00</rpm>
</extensions>
</trkpt>
<trkpt lat="63.996490479" lon="-19.116384506">
<ele>749.734375</ele>
<time>2012-07-23T16:10:02Z</time>
<speed>0.010000</speed>
<extensions>
<speed>0.0</speed>
<temp>0.00</temp>
<bpm>0</bpm>
<rpm>0.00</rpm>
</extensions>
</trkpt>
<trkpt lat="63.996490479" lon="-19.116382599">
<ele>749.718750</ele>
<time>2012-07-23T16:10:07Z</time>
<speed>0.040000</speed>
<extensions>
<speed>0.0</speed>
<temp>0.00</temp>
<bpm>0</bpm>
<rpm>0.00</rpm>
</extensions>
</trkpt>
<trkpt lat="63.996490479" lon="-19.116382599">
<ele>749.734375</ele>
<time>2012-07-23T16:10:12Z</time>
<speed>0.020000</speed>
<extensions>
<speed>0.0</speed>
<temp>0.00</temp>
<bpm>0</bpm>
<rpm>0.00</rpm>
</extensions>
</trkpt>
<trkpt lat="63.996490479" lon="-19.116380692">
<ele>749.734375</ele>
<time>2012-07-23T16:10:17Z</time>
<speed>0.040000</speed>
<extensions>
<speed>0.0</speed>
<temp>0.00</temp>
<bpm>0</bpm>
<rpm>0.00</rpm>
</extensions>
</trkpt>
<trkpt lat="63.996490479" lon="-19.116380692">
<ele>749.734375</ele>
<time>2012-07-23T16:10:22Z</time>
<extensions>
<speed>0.0</speed>
<temp>0.00</temp>
<bpm>0</bpm>
<rpm>0.00</rpm>
</extensions>
</trkpt>
<trkpt lat="63.996490479" lon="-19.116380692">
<ele>749.734375</ele>
<time>2012-07-23T16:10:27Z</time>
<extensions>
<speed>0.0</speed>
<temp>0.00</temp>
<bpm>0</bpm>
<rpm>0.00</rpm>
</extensions>
</trkpt>
<trkpt lat="63.996490479" lon="-19.116380692">
<ele>749.750000</ele>
<time>2012-07-23T16:10:32Z</time>
<speed>0.010000</speed>
<extensions>
<speed>0.0</speed>
<temp>0.00</temp>
<bpm>0</bpm>
<rpm>0.00</rpm>
</extensions>
</trkpt>
<trkpt lat="63.996490479" lon="-19.116380692">
<ele>749.750000</ele>
<time>2012-07-23T16:10:37Z</time>
<speed>0.010000</speed>
<extensions>
<speed>0.0</speed>
<temp>0.00</temp>
<bpm>0</bpm>
<rpm>0.00</rpm>
</extensions>
</trkpt>
<trkpt lat="63.996490479" lon="-19.116378784">
<ele>749.750000</ele>
<time>2012-07-23T16:10:42Z</time>
<speed>0.010000</speed>
<extensions>
<speed>0.0</speed>
<temp>0.00</temp>
<bpm>0</bpm>
<rpm>0.00</rpm>
</extensions>
</trkpt>
<trkpt lat="63.996490479" lon="-19.116378784">
<ele>749.765625</ele>
<time>2012-07-23T16:10:47Z</time>
<speed>0.040000</speed>
<extensions>
<speed>0.0</speed>
<temp>0.00</temp>
<bpm>0</bpm>
<rpm>0.00</rpm>
</extensions>
</trkpt>
<trkpt lat="63.996490479" lon="-19.116378784">
<ele>749.781250</ele>
<time>2012-07-23T16:10:52Z</time>
<speed>0.010000</speed>
<extensions>
<speed>0.0</speed>
<temp>0.00</temp>
<bpm>0</bpm>
<rpm>0.00</rpm>
</extensions>
</trkpt>
<trkpt lat="63.996490479" lon="-19.116378784">
<ele>749.781250</ele>
<time>2012-07-23T16:10:57Z</time>
<speed>0.050000</speed>
<extensions>
<speed>0.1</speed>
<temp>0.00</temp>
<bpm>0</bpm>
<rpm>0.00</rpm>
</extensions>
</trkpt>
<trkpt lat="63.996490479" lon="-19.116378784">
<ele>749.765625</ele>
<time>2012-07-23T16:11:02Z</time>
<extensions>
<speed>0.0</speed>
<temp>0.00</temp>
<bpm>0</bpm>
<rpm>0.00</rpm>
</extensions>
</trkpt>
<trkpt lat="63.996490479" lon="-19.116378784">
<ele>749.781250</ele>
<time>2012-07-23T16:11:07Z</time>
<speed>0.030000</speed>
<extensions>
<speed>0.0</speed>
<temp>0.00</temp>
<bpm>0</bpm>
<rpm>0.00</rpm>
</extensions>
</trkpt>
<trkpt lat="63.996490479" lon="-19.116376877">
<ele>749.718750</ele>
<time>2012-07-23T16:11:12Z</time>
<speed>0.030000</speed>
<extensions>
<speed>0.0</speed>
<temp>0.00</temp>
<bpm>0</bpm>
<rpm>0.00</rpm>
</extensions>
</trkpt>
<trkpt lat="63.996490479" lon="-19.116376877">
<ele>749.703125</ele>
<time>2012-07-23T16:11:17Z</time>
<extensions>
<speed>0.0</speed>
<temp>0.00</temp>
<bpm>0</bpm>
<rpm>0.00</rpm>
</extensions>
</trkpt>
<trkpt lat="63.996490479" lon="-19.116376877">
<ele>749.718750</ele>
<time>2012-07-23T16:11:22Z</time>
<speed>0.010000</speed>
<extensions>
<speed>0.0</speed>
<temp>0.00</temp>
<bpm>0</bpm>
<rpm>0.00</rpm>
</extensions>
</trkpt>
<trkpt lat="63.996490479" lon="-19.116376877">
<ele>749.718750</ele>
<time>2012-07-23T16:11:27Z</time>
<extensions>
<speed>0.0</speed>
<temp>0.00</temp>
<bpm>0</bpm>
<rpm>0.00</rpm>
</extensions>
</trkpt>
<trkpt lat="63.996490479" lon="-19.116376877">
<ele>749.703125</ele>
<time>2012-07-23T16:11:32Z</time>
<speed>0.010000</speed>
<extensions>
<speed>0.0</speed>
<temp>0.00</temp>
<bpm>0</bpm>
<rpm>0.00</rpm>
</extensions>
</trkpt>
<trkpt lat="63.996490479" lon="-19.116376877">
<ele>749.718750</ele>
<time>2012-07-23T16:11:37Z</time>
<extensions>
<speed>0.0</speed>
<temp>0.00</temp>
<bpm>0</bpm>
<rpm>0.00</rpm>
</extensions>
</trkpt>
<trkpt lat="63.996490479" lon="-19.116376877">
<ele>749.703125</ele>
<time>2012-07-23T16:11:42Z</time>
<speed>0.070000</speed>
<extensions>
<speed>0.1</speed>
<temp>0.00</temp>
<bpm>0</bpm>
<rpm>0.00</rpm>
</extensions>
</trkpt>
<trkpt lat="63.996490479" lon="-19.116374969">
<ele>749.718750</ele>
<time>2012-07-23T16:11:47Z</time>
<speed>0.140000</speed>
<extensions>
<speed>0.1</speed>
<temp>0.00</temp>
<bpm>0</bpm>
<rpm>0.00</rpm>
</extensions>
</trkpt>
<trkpt lat="63.996490479" lon="-19.116374969">
<ele>749.734375</ele>
<time>2012-07-23T16:11:52Z</time>
<speed>0.020000</speed>
<extensions>
<speed>0.0</speed>
<temp>0.00</temp>
<bpm>0</bpm>
<rpm>0.00</rpm>
</extensions>
</trkpt>
<trkpt lat="63.996490479" lon="-19.116374969">
<ele>749.750000</ele>
<time>2012-07-23T16:11:57Z</time>
<extensions>
<speed>0.0</speed>
<temp>0.00</temp>
<bpm>0</bpm>
<rpm>0.00</rpm>
</extensions>
</trkpt>
<trkpt lat="63.996490479" lon="-19.116374969">
<ele>749.750000</ele>
<time>2012-07-23T16:12:02Z</time>
<speed>0.030000</speed>
<extensions>
<speed>0.0</speed>
<temp>0.00</temp>
<bpm>0</bpm>
<rpm>0.00</rpm>
</extensions>
</trkpt>
<trkpt lat="63.996490479" lon="-19.116374969">
<ele>749.734375</ele>
<time>2012-07-23T16:12:07Z</time>
<extensions>
<speed>0.0</speed>
<temp>0.00</temp>
<bpm>0</bpm>
<rpm>0.00</rpm>
</extensions>
</trkpt>
<trkpt lat="63.996490479" lon="-19.116373062">
<ele>749.734375</ele>
<time>2012-07-23T16:12:12Z</time>
<extensions>
<speed>0.0</speed>
<temp>0.00</temp>
<bpm>0</bpm>
<rpm>0.00</rpm>
</extensions>
</trkpt>
<trkpt lat="63.996490479" lon="-19.116373062">
<ele>749.750000</ele>
<time>2012-07-23T16:12:17Z</time>
<extensions>
<speed>0.0</speed>
<temp>0.00</temp>
<bpm>0</bpm>
<rpm>0.00</rpm>
</extensions>
</trkpt>
<trkpt lat="63.996490479" lon="-19.116373062">
<ele>749.750000</ele>
<time>2012-07-23T16:12:22Z</time>
<speed>0.090000</speed>
<extensions>
<speed>0.1</speed>
<temp>0.00</temp>
<bpm>0</bpm>
<rpm>0.00</rpm>
</extensions>
</trkpt>
<trkpt lat="63.996509552" lon="-19.116489410">
<ele>750.000000</ele>
<time>2012-07-23T16:12:27Z</time>
<speed>1.470000</speed>
<extensions>
<speed>1.5</speed>
<temp>0.00</temp>
<bpm>0</bpm>
<rpm>0.00</rpm>
</extensions>
</trkpt>
<trkpt lat="63.996555328" lon="-19.116598129">
<ele>751.296875</ele>
<time>2012-07-23T16:12:32Z</time>
<speed>1.370000</speed>
<extensions>
<speed>1.4</speed>
<temp>0.00</temp>
<bpm>0</bpm>
<rpm>0.00</rpm>
</extensions>
</trkpt>
<trkpt lat="63.996597290" lon="-19.116674423">
<ele>753.171875</ele>
<time>2012-07-23T16:12:37Z</time>
<speed>1.050000</speed>
<extensions>
<speed>1.0</speed>
<temp>0.00</temp>
<bpm>0</bpm>
<rpm>0.00</rpm>
</extensions>
</trkpt>
<trkpt lat="63.996643066" lon="-19.116729736">
<ele>755.093750</ele>
<time>2012-07-23T16:12:42Z</time>
<speed>0.990000</speed>
<extensions>
<speed>1.0</speed>
<temp>0.00</temp>
<bpm>0</bpm>
<rpm>0.00</rpm>
</extensions>
</trkpt>
<trkpt lat="63.996677399" lon="-19.116790771">
<ele>756.312500</ele>
<time>2012-07-23T16:12:47Z</time>
<speed>1.020000</speed>
<extensions>
<speed>1.0</speed>
<temp>0.00</temp>
<bpm>0</bpm>
<rpm>0.00</rpm>
</extensions>
</trkpt>
<trkpt lat="63.996723175" lon="-19.116880417">
<ele>757.062500</ele>
<time>2012-07-23T16:12:52Z</time>
<speed>1.370000</speed>
<extensions>
<speed>1.4</speed>
<temp>0.00</temp>
<bpm>0</bpm>
<rpm>0.00</rpm>
</extensions>
</trkpt>
<trkpt lat="63.996776581" lon="-19.116954803">
<ele>758.171875</ele>
<time>2012-07-23T16:12:57Z</time>
<speed>1.440000</speed>
<extensions>
<speed>1.4</speed>
<temp>0.00</temp>
<bpm>0</bpm>
<rpm>0.00</rpm>
</extensions>
</trkpt>
<trkpt lat="63.996837616" lon="-19.116994858">
<ele>759.062500</ele>
<time>2012-07-23T16:13:02Z</time>
<speed>1.340000</speed>
<extensions>
<speed>1.3</speed>
<temp>0.00</temp>
<bpm>0</bpm>
<rpm>0.00</rpm>
</extensions>
</trkpt>
<trkpt lat="63.996894836" lon="-19.117040634">
<ele>760.375000</ele>
<time>2012-07-23T16:13:07Z</time>
<speed>1.490000</speed>
<extensions>
<speed>1.5</speed>
<temp>0.00</temp>
<bpm>0</bpm>
<rpm>0.00</rpm>
</extensions>
</trkpt>
<trkpt lat="63.996967316" lon="-19.117076874">
<ele>761.609375</ele>
<time>2012-07-23T16:13:12Z</time>
<speed>1.360000</speed>
<extensions>
<speed>1.4</speed>
<temp>0.00</temp>
<bpm>0</bpm>
<rpm>0.00</rpm>
</extensions>
</trkpt>
<trkpt lat="63.997028351" lon="-19.117073059">
<ele>761.796875</ele>
<time>2012-07-23T16:13:17Z</time>
<speed>1.520000</speed>
<extensions>
<speed>1.5</speed>
<temp>0.00</temp>
<bpm>0</bpm>
<rpm>0.00</rpm>
</extensions>
</trkpt>
<trkpt lat="63.997093201" lon="-19.117059708">
<ele>762.015625</ele>
<time>2012-07-23T16:13:22Z</time>
<speed>1.490000</speed>
<extensions>
<speed>1.5</speed>
<temp>0.00</temp>
<bpm>0</bpm>
<rpm>0.00</rpm>
</extensions>
</trkpt>
<trkpt lat="63.997158051" lon="-19.117021561">
<ele>762.515625</ele>
<time>2012-07-23T16:13:27Z</time>
<speed>1.560000</speed>
<extensions>
<speed>1.6</speed>
<temp>0.00</temp>
<bpm>0</bpm>
<rpm>0.00</rpm>
</extensions>
</trkpt>
<trkpt lat="63.997222900" lon="-19.116968155">
<ele>762.890625</ele>
<time>2012-07-23T16:13:32Z</time>
<speed>1.510000</speed>
<extensions>
<speed>1.5</speed>
<temp>0.00</temp>
<bpm>0</bpm>
<rpm>0.00</rpm>
</extensions>
</trkpt>
<trkpt lat="63.997283936" lon="-19.116918564">
<ele>762.562500</ele>
<time>2012-07-23T16:13:37Z</time>
<speed>1.600000</speed>
<extensions>
<speed>1.6</speed>
<temp>0.00</temp>
<bpm>0</bpm>
<rpm>0.00</rpm>
</extensions>
</trkpt>
<trkpt lat="63.997356415" lon="-19.116844177">
<ele>762.406250</ele>
<time>2012-07-23T16:13:42Z</time>
<speed>1.620000</speed>
<extensions>
<speed>1.6</speed>
<temp>0.00</temp>
<bpm>0</bpm>
<rpm>0.00</rpm>
</extensions>
</trkpt>
<trkpt lat="63.997417450" lon="-19.116767883">
<ele>762.359375</ele>
<time>2012-07-23T16:13:47Z</time>
<speed>1.560000</speed>
<extensions>
<speed>1.6</speed>
<temp>0.00</temp>
<bpm>0</bpm>
<rpm>0.00</rpm>
</extensions>
</trkpt>
<trkpt lat="63.997470856" lon="-19.116680145">
<ele>762.421875</ele>
<time>2012-07-23T16:13:52Z</time>
<speed>1.570000</speed>
<extensions>
<speed>1.6</speed>
<temp>0.00</temp>
<bpm>0</bpm>
<rpm>0.00</rpm>
</extensions>
</trkpt>
<trkpt lat="63.997516632" lon="-19.116601944">
<ele>761.593750</ele>
<time>2012-07-23T16:13:57Z</time>
<speed>1.230000</speed>
<extensions>
<speed>1.2</speed>
<temp>0.00</temp>
<bpm>0</bpm>
<rpm>0.00</rpm>
</extensions>
</trkpt>
<trkpt lat="63.997543335" lon="-19.116563797">
<ele>761.046875</ele>
<time>2012-07-23T16:14:02Z</time>
<speed>0.030000</speed>
<extensions>
<speed>0.0</speed>
<temp>0.00</temp>
<bpm>0</bpm>
<rpm>0.00</rpm>
</extensions>
</trkpt>
<trkpt lat="63.997543335" lon="-19.116567612">
<ele>760.671875</ele>
<time>2012-07-23T16:14:07Z</time>
<extensions>
<speed>0.0</speed>
<temp>0.00</temp>
<bpm>0</bpm>
<rpm>0.00</rpm>
</extensions>
</trkpt>
<trkpt lat="63.997547150" lon="-19.116559982">
<ele>760.640625</ele>
<time>2012-07-23T16:14:12Z</time>
<speed>0.020000</speed>
<extensions>
<speed>0.0</speed>
<temp>0.00</temp>
<bpm>0</bpm>
<rpm>0.00</rpm>
</extensions>
</trkpt>
<trkpt lat="63.997547150" lon="-19.116559982">
<ele>760.656250</ele>
<time>2012-07-23T16:14:17Z</time>
<extensions>
<speed>0.0</speed>
<temp>0.00</temp>
<bpm>0</bpm>
<rpm>0.00</rpm>
</extensions>
</trkpt>
<trkpt lat="63.997547150" lon="-19.116559982">
<ele>760.671875</ele>
<time>2012-07-23T16:14:22Z</time>
<extensions>
<speed>0.0</speed>
<temp>0.00</temp>
<bpm>0</bpm>
<rpm>0.00</rpm>
</extensions>
</trkpt>
<trkpt lat="63.997547150" lon="-19.116559982">
<ele>760.656250</ele>
<time>2012-07-23T16:14:27Z</time>
<extensions>
<speed>0.0</speed>
<temp>0.00</temp>
<bpm>0</bpm>
<rpm>0.00</rpm>
</extensions>
</trkpt>
<trkpt lat="63.997547150" lon="-19.116559982">
<ele>760.640625</ele>
<time>2012-07-23T16:14:32Z</time>
<extensions>
<speed>0.0</speed>
<temp>0.00</temp>
<bpm>0</bpm>
<rpm>0.00</rpm>
</extensions>
</trkpt>
<trkpt lat="63.997547150" lon="-19.116556168">
<ele>760.625000</ele>
<time>2012-07-23T16:14:37Z</time>
<speed>0.180000</speed>
<extensions>
<speed>0.2</speed>
<temp>0.00</temp>
<bpm>0</bpm>
<rpm>0.00</rpm>
</extensions>
</trkpt>
<trkpt lat="63.997535706" lon="-19.116523743">
<ele>760.843750</ele>
<time>2012-07-23T16:14:42Z</time>
<speed>0.560000</speed>
<extensions>
<speed>0.6</speed>
<temp>0.00</temp>
<bpm>0</bpm>
<rpm>0.00</rpm>
</extensions>
</trkpt>
<trkpt lat="63.997509003" lon="-19.116476059">
<ele>761.171875</ele>
<time>2012-07-23T16:14:47Z</time>
<speed>0.400000</speed>
<extensions>
<speed>0.4</speed>
<temp>0.00</temp>
<bpm>0</bpm>
<rpm>0.00</rpm>
</extensions>
</trkpt>
<trkpt lat="63.997489929" lon="-19.116443634">
<ele>761.843750</ele>
<time>2012-07-23T16:14:52Z</time>
<speed>0.700000</speed>
<extensions>
<speed>0.7</speed>
<temp>0.00</temp>
<bpm>0</bpm>
<rpm>0.00</rpm>
</extensions>
</trkpt>
<trkpt lat="63.997447968" lon="-19.116399765">
<ele>762.500000</ele>
<time>2012-07-23T16:14:57Z</time>
<speed>1.020000</speed>
<extensions>
<speed>1.0</speed>
<temp>0.00</temp>
<bpm>0</bpm>
<rpm>0.00</rpm>
</extensions>
</trkpt>
<trkpt lat="63.997402191" lon="-19.116353989">
<ele>764.343750</ele>
<time>2012-07-23T16:15:02Z</time>
<speed>1.020000</speed>
<extensions>
<speed>1.0</speed>
<temp>0.00</temp>
<bpm>0</bpm>
<rpm>0.00</rpm>
</extensions>
</trkpt>
<trkpt lat="63.997352600" lon="-19.116350174">
<ele>764.546875</ele>
<time>2012-07-23T16:15:07Z</time>
<speed>1.230000</speed>
<extensions>
<speed>1.2</speed>
<temp>0.00</temp>
<bpm>0</bpm>
<rpm>0.00</rpm>
</extensions>
</trkpt>
<trkpt lat="63.997303009" lon="-19.116367340">
<ele>765.015625</ele>
<time>2012-07-23T16:15:12Z</time>
<speed>0.880000</speed>
<extensions>
<speed>0.9</speed>
<temp>0.00</temp>
<bpm>0</bpm>
<rpm>0.00</rpm>
</extensions>
</trkpt>
<trkpt lat="63.997299194" lon="-19.116359711">
<ele>766.609375</ele>
<time>2012-07-23T16:15:17Z</time>
<speed>0.030000</speed>
<extensions>
<speed>0.0</speed>
<temp>0.00</temp>
<bpm>0</bpm>
<rpm>0.00</rpm>
</extensions>
</trkpt>
<trkpt lat="63.997299194" lon="-19.116361618">
<ele>766.687500</ele>
<time>2012-07-23T16:15:22Z</time>
<speed>0.010000</speed>
<extensions>
<speed>0.0</speed>
<temp>0.00</temp>
<bpm>0</bpm>
<rpm>0.00</rpm>
</extensions>
</trkpt>
<trkpt lat="63.997287750" lon="-19.116348267">
<ele>766.890625</ele>
<time>2012-07-23T16:15:27Z</time>
<speed>0.340000</speed>
<extensions>
<speed>0.3</speed>
<temp>0.00</temp>
<bpm>0</bpm>
<rpm>0.00</rpm>
</extensions>
</trkpt>
<trkpt lat="63.997261047" lon="-19.116333008">
<ele>766.953125</ele>
<time>2012-07-23T16:15:32Z</time>
<speed>0.010000</speed>
<extensions>
<speed>0.0</speed>
<temp>0.00</temp>
<bpm>0</bpm>
<rpm>0.00</rpm>
</extensions>
</trkpt>
<trkpt lat="63.997234344" lon="-19.116329193">
<ele>766.734375</ele>
<time>2012-07-23T16:15:37Z</time>
<speed>0.800000</speed>
<extensions>
<speed>0.8</speed>
<temp>0.00</temp>
<bpm>0</bpm>
<rpm>0.00</rpm>
</extensions>
</trkpt>
<trkpt lat="63.997207642" lon="-19.116247177">
<ele>767.203125</ele>
<time>2012-07-23T16:15:42Z</time>
<speed>1.120000</speed>
<extensions>
<speed>1.1</speed>
<temp>0.00</temp>
<bpm>0</bpm>
<rpm>0.00</rpm>
</extensions>
</trkpt>
<trkpt lat="63.997211456" lon="-19.116163254">
<ele>769.187500</ele>
<time>2012-07-23T16:15:47Z</time>
<speed>0.530000</speed>
<extensions>
<speed>0.5</speed>
<temp>0.00</temp>
<bpm>0</bpm>
<rpm>0.00</rpm>
</extensions>
</trkpt>
<trkpt lat="63.997222900" lon="-19.116132736">
<ele>769.484375</ele>
<time>2012-07-23T16:15:52Z</time>
<speed>0.270000</speed>
<extensions>
<speed>0.3</speed>
<temp>0.00</temp>
<bpm>0</bpm>
<rpm>0.00</rpm>
</extensions>
</trkpt>
<trkpt lat="63.997230530" lon="-19.116127014">
<ele>769.562500</ele>
<time>2012-07-23T16:15:57Z</time>
<speed>0.260000</speed>
<extensions>
<speed>0.3</speed>
<temp>0.00</temp>
<bpm>0</bpm>
<rpm>0.00</rpm>
</extensions>
</trkpt>
<trkpt lat="63.997234344" lon="-19.116092682">
<ele>770.312500</ele>
<time>2012-07-23T16:16:02Z</time>
<speed>1.210000</speed>
<extensions>
<speed>1.2</speed>
<temp>0.00</temp>
<bpm>0</bpm>
<rpm>0.00</rpm>
</extensions>
</trkpt>
<trkpt lat="63.997230530" lon="-19.116012573">
<ele>770.531250</ele>
<time>2012-07-23T16:16:07Z</time>
<speed>0.220000</speed>
<extensions>
<speed>0.2</speed>
<temp>0.00</temp>
<bpm>0</bpm>
<rpm>0.00</rpm>
</extensions>
</trkpt>
<trkpt lat="63.997226715" lon="-19.115943909">
<ele>770.015625</ele>
<time>2012-07-23T16:16:12Z</time>
<speed>0.880000</speed>
<extensions>
<speed>0.9</speed>
<temp>0.00</temp>
<bpm>0</bpm>
<rpm>0.00</rpm>
</extensions>
</trkpt>
<trkpt lat="63.997234344" lon="-19.115812302">
<ele>770.656250</ele>
<time>2012-07-23T16:16:17Z</time>
<speed>1.030000</speed>
<extensions>
<speed>1.0</speed>
<temp>0.00</temp>
<bpm>0</bpm>
<rpm>0.00</rpm>
</extensions>
</trkpt>
<trkpt lat="63.997249603" lon="-19.115705490">
<ele>771.734375</ele>
<time>2012-07-23T16:16:22Z</time>
<speed>0.860000</speed>
<extensions>
<speed>0.9</speed>
<temp>0.00</temp>
<bpm>0</bpm>
<rpm>0.00</rpm>
</extensions>
</trkpt>
<trkpt lat="63.997253418" lon="-19.115631104">
<ele>772.296875</ele>
<time>2012-07-23T16:16:27Z</time>
<speed>0.990000</speed>
<extensions>
<speed>1.0</speed>
<temp>0.00</temp>
<bpm>0</bpm>
<rpm>0.00</rpm>
</extensions>
</trkpt>
<trkpt lat="63.997245789" lon="-19.115568161">
<ele>771.390625</ele>
<time>2012-07-23T16:16:32Z</time>
<speed>0.880000</speed>
<extensions>
<speed>0.9</speed>
<temp>0.00</temp>
<bpm>0</bpm>
<rpm>0.00</rpm>
</extensions>
</trkpt>
<trkpt lat="63.997249603" lon="-19.115535736">
<ele>771.125000</ele>
<time>2012-07-23T16:16:37Z</time>
<speed>0.020000</speed>
<extensions>
<speed>0.0</speed>
<temp>0.00</temp>
<bpm>0</bpm>
<rpm>0.00</rpm>
</extensions>
</trkpt>
<trkpt lat="63.997245789" lon="-19.115533829">
<ele>771.109375</ele>
<time>2012-07-23T16:16:42Z</time>
<speed>0.180000</speed>
<extensions>
<speed>0.2</speed>
<temp>0.00</temp>
<bpm>0</bpm>
<rpm>0.00</rpm>
</extensions>
</trkpt>
<trkpt lat="63.997261047" lon="-19.115459442">
<ele>770.812500</ele>
<time>2012-07-23T16:16:47Z</time>
<speed>1.010000</speed>
<extensions>
<speed>1.0</speed>
<temp>0.00</temp>
<bpm>0</bpm>
<rpm>0.00</rpm>
</extensions>
</trkpt>
<trkpt lat="63.997280121" lon="-19.115375519">
<ele>770.843750</ele>
<time>2012-07-23T16:16:52Z</time>
<speed>0.640000</speed>
<extensions>
<speed>0.6</speed>
<temp>0.00</temp>
<bpm>0</bpm>
<rpm>0.00</rpm>
</extensions>
</trkpt>
<trkpt lat="63.997287750" lon="-19.115310669">
<ele>770.718750</ele>
<time>2012-07-23T16:16:57Z</time>
<speed>0.870000</speed>
<extensions>
<speed>0.9</speed>
<temp>0.00</temp>
<bpm>0</bpm>
<rpm>0.00</rpm>
</extensions>
</trkpt>
<trkpt lat="63.997325897" lon="-19.115211487">
<ele>771.265625</ele>
<time>2012-07-23T16:17:02Z</time>
<speed>1.220000</speed>
<extensions>
<speed>1.2</speed>
<temp>0.00</temp>
<bpm>0</bpm>
<rpm>0.00</rpm>
</extensions>
</trkpt>
<trkpt lat="63.997344971" lon="-19.115093231">
<ele>770.812500</ele>
<time>2012-07-23T16:17:07Z</time>
<speed>1.040000</speed>
<extensions>
<speed>1.0</speed>
<temp>0.00</temp>
<bpm>0</bpm>
<rpm>0.00</rpm>
</extensions>
</trkpt>
<trkpt lat="63.997364044" lon="-19.114982605">
<ele>770.937500</ele>
<time>2012-07-23T16:17:12Z</time>
<speed>1.350000</speed>
<extensions>
<speed>1.4</speed>
<temp>0.00</temp>
<bpm>0</bpm>
<rpm>0.00</rpm>
</extensions>
</trkpt>
<trkpt lat="63.997394562" lon="-19.114887238">
<ele>770.734375</ele>
<time>2012-07-23T16:17:17Z</time>
<speed>1.310000</speed>
<extensions>
<speed>1.3</speed>
<temp>0.00</temp>
<bpm>0</bpm>
<rpm>0.00</rpm>
</extensions>
</trkpt>
<trkpt lat="63.997432709" lon="-19.114788055">
<ele>771.500000</ele>
<time>2012-07-23T16:17:22Z</time>
<speed>1.290000</speed>
<extensions>
<speed>1.3</speed>
<temp>0.00</temp>
<bpm>0</bpm>
<rpm>0.00</rpm>
</extensions>
</trkpt>
<trkpt lat="63.997467041" lon="-19.114707947">
<ele>771.890625</ele>
<time>2012-07-23T16:17:27Z</time>
<speed>0.580000</speed>
<extensions>
<speed>0.6</speed>
<temp>0.00</temp>
<bpm>0</bpm>
<rpm>0.00</rpm>
</extensions>
</trkpt>
<trkpt lat="63.997482300" lon="-19.114686966">
<ele>772.296875</ele>
<time>2012-07-23T16:17:32Z</time>
<speed>1.170000</speed>
<extensions>
<speed>1.2</speed>
<temp>0.00</temp>
<bpm>0</bpm>
<rpm>0.00</rpm>
</extensions>
</trkpt>
<trkpt lat="63.997505188" lon="-19.114568710">
<ele>771.625000</ele>
<time>2012-07-23T16:17:37Z</time>
<speed>1.350000</speed>
<extensions>
<speed>1.4</speed>
<temp>0.00</temp>
<bpm>0</bpm>
<rpm>0.00</rpm>
</extensions>
</trkpt>
<trkpt lat="63.997543335" lon="-19.114442825">
<ele>771.781250</ele>
<time>2012-07-23T16:17:42Z</time>
<speed>1.300000</speed>
<extensions>
<speed>1.3</speed>
<temp>0.00</temp>
<bpm>0</bpm>
<rpm>0.00</rpm>
</extensions>
</trkpt>
<trkpt lat="63.997577667" lon="-19.114318848">
<ele>772.000000</ele>
<time>2012-07-23T16:17:47Z</time>
<speed>1.350000</speed>
<extensions>
<speed>1.4</speed>
<temp>0.00</temp>
<bpm>0</bpm>
<rpm>0.00</rpm>
</extensions>
</trkpt>
<trkpt lat="63.997627258" lon="-19.114200592">
<ele>772.656250</ele>
<time>2012-07-23T16:17:52Z</time>
<speed>1.320000</speed>
<extensions>
<speed>1.3</speed>
<temp>0.00</temp>
<bpm>0</bpm>
<rpm>0.00</rpm>
</extensions>
</trkpt>
<trkpt lat="63.997676849" lon="-19.114086151">
<ele>773.515625</ele>
<time>2012-07-23T16:17:57Z</time>
<speed>1.310000</speed>
<extensions>
<speed>1.3</speed>
<temp>0.00</temp>
<bpm>0</bpm>
<rpm>0.00</rpm>
</extensions>
</trkpt>
<trkpt lat="63.997714996" lon="-19.113998413">
<ele>774.468750</ele>
<time>2012-07-23T16:18:02Z</time>
<speed>1.360000</speed>
<extensions>
<speed>1.4</speed>
<temp>0.00</temp>
<bpm>0</bpm>
<rpm>0.00</rpm>
</extensions>
</trkpt>
<trkpt lat="63.997722626" lon="-19.113973618">
<ele>774.468750</ele>
<time>2012-07-23T16:18:07Z</time>
<speed>0.010000</speed>
<extensions>
<speed>0.0</speed>
<temp>0.00</temp>
<bpm>0</bpm>
<rpm>0.00</rpm>
</extensions>
</trkpt>
<trkpt lat="63.997722626" lon="-19.113967896">
<ele>774.484375</ele>
<time>2012-07-23T16:18:12Z</time>
<speed>0.010000</speed>
<extensions>
<speed>0.0</speed>
<temp>0.00</temp>
<bpm>0</bpm>
<rpm>0.00</rpm>
</extensions>
</trkpt>
<trkpt lat="63.997722626" lon="-19.113969803">
<ele>774.468750</ele>
<time>2012-07-23T16:18:17Z</time>
<extensions>
<speed>0.0</speed>
<temp>0.00</temp>
<bpm>0</bpm>
<rpm>0.00</rpm>
</extensions>
</trkpt>
<trkpt lat="63.997722626" lon="-19.113969803">
<ele>774.437500</ele>
<time>2012-07-23T16:18:22Z</time>
<speed>0.070000</speed>
<extensions>
<speed>0.1</speed>
<temp>0.00</temp>
<bpm>0</bpm>
<rpm>0.00</rpm>
</extensions>
</trkpt>
<trkpt lat="63.997734070" lon="-19.113889694">
<ele>774.609375</ele>
<time>2012-07-23T16:18:27Z</time>
<speed>1.230000</speed>
<extensions>
<speed>1.2</speed>
<temp>0.00</temp>
<bpm>0</bpm>
<rpm>0.00</rpm>
</extensions>
</trkpt>
<trkpt lat="63.997764587" lon="-19.113784790">
<ele>775.375000</ele>
<time>2012-07-23T16:18:32Z</time>
<speed>1.090000</speed>
<extensions>
<speed>1.1</speed>
<temp>0.00</temp>
<bpm>0</bpm>
<rpm>0.00</rpm>
</extensions>
</trkpt>
<trkpt lat="63.997802734" lon="-19.113683701">
<ele>775.875000</ele>
<time>2012-07-23T16:18:37Z</time>
<speed>1.040000</speed>
<extensions>
<speed>1.0</speed>
<temp>0.00</temp>
<bpm>0</bpm>
<rpm>0.00</rpm>
</extensions>
</trkpt>
<trkpt lat="63.997821808" lon="-19.113588333">
<ele>775.562500</ele>
<time>2012-07-23T16:18:42Z</time>
<speed>1.210000</speed>
<extensions>
<speed>1.2</speed>
<temp>0.00</temp>
<bpm>0</bpm>
<rpm>0.00</rpm>
</extensions>
</trkpt>
<trkpt lat="63.997856140" lon="-19.113489151">
<ele>775.906250</ele>
<time>2012-07-23T16:18:47Z</time>
<speed>1.300000</speed>
<extensions>
<speed>1.3</speed>
<temp>0.00</temp>
<bpm>0</bpm>
<rpm>0.00</rpm>
</extensions>
</trkpt>
<trkpt lat="63.997894287" lon="-19.113388062">
<ele>777.281250</ele>
<time>2012-07-23T16:18:52Z</time>
<speed>1.150000</speed>
<extensions>
<speed>1.1</speed>
<temp>0.00</temp>
<bpm>0</bpm>
<rpm>0.00</rpm>
</extensions>
</trkpt>
<trkpt lat="63.997932434" lon="-19.113277435">
<ele>778.187500</ele>
<time>2012-07-23T16:18:57Z</time>
<speed>1.310000</speed>
<extensions>
<speed>1.3</speed>
<temp>0.00</temp>
<bpm>0</bpm>
<rpm>0.00</rpm>
</extensions>
</trkpt>
<trkpt lat="63.997955322" lon="-19.113174438">
<ele>778.421875</ele>
<time>2012-07-23T16:19:02Z</time>
<speed>1.310000</speed>
<extensions>
<speed>1.3</speed>
<temp>0.00</temp>
<bpm>0</bpm>
<rpm>0.00</rpm>
</extensions>
</trkpt>
<trkpt lat="63.997978210" lon="-19.113059998">
<ele>778.453125</ele>
<time>2012-07-23T16:19:07Z</time>
<speed>1.190000</speed>
<extensions>
<speed>1.2</speed>
<temp>0.00</temp>
<bpm>0</bpm>
<rpm>0.00</rpm>
</extensions>
</trkpt>
<trkpt lat="63.998020172" lon="-19.112964630">
<ele>778.906250</ele>
<time>2012-07-23T16:19:12Z</time>
<speed>1.190000</speed>
<extensions>
<speed>1.2</speed>
<temp>0.00</temp>
<bpm>0</bpm>
<rpm>0.00</rpm>
</extensions>
</trkpt>
<trkpt lat="63.998043060" lon="-19.112871170">
<ele>779.312500</ele>
<time>2012-07-23T16:19:17Z</time>
<speed>1.050000</speed>
<extensions>
<speed>1.0</speed>
<temp>0.00</temp>
<bpm>0</bpm>
<rpm>0.00</rpm>
</extensions>
</trkpt>
<trkpt lat="63.998085022" lon="-19.112794876">
<ele>779.015625</ele>
<time>2012-07-23T16:19:22Z</time>
<speed>1.180000</speed>
<extensions>
<speed>1.2</speed>
<temp>0.00</temp>
<bpm>0</bpm>
<rpm>0.00</rpm>
</extensions>
</trkpt>
<trkpt lat="63.998134613" lon="-19.112695694">
<ele>780.234375</ele>
<time>2012-07-23T16:19:27Z</time>
<speed>1.010000</speed>
<extensions>
<speed>1.0</speed>
<temp>0.00</temp>
<bpm>0</bpm>
<rpm>0.00</rpm>
</extensions>
</trkpt>
<trkpt lat="63.998153687" lon="-19.112628937">
<ele>780.578125</ele>
<time>2012-07-23T16:19:32Z</time>
<speed>1.160000</speed>
<extensions>
<speed>1.2</speed>
<temp>0.00</temp>
<bpm>0</bpm>
<rpm>0.00</rpm>
</extensions>
</trkpt>
<trkpt lat="63.998203278" lon="-19.112592697">
<ele>780.609375</ele>
<time>2012-07-23T16:19:37Z</time>
<speed>1.150000</speed>
<extensions>
<speed>1.1</speed>
<temp>0.00</temp>
<bpm>0</bpm>
<rpm>0.00</rpm>
</extensions>
</trkpt>
<trkpt lat="63.998249054" lon="-19.112556458">
<ele>781.234375</ele>
<time>2012-07-23T16:19:42Z</time>
<speed>0.950000</speed>
<extensions>
<speed>1.0</speed>
<temp>0.00</temp>
<bpm>0</bpm>
<rpm>0.00</rpm>
</extensions>
</trkpt>
<trkpt lat="63.998283386" lon="-19.112504959">
<ele>781.859375</ele>
<time>2012-07-23T16:19:47Z</time>
<speed>1.190000</speed>
<extensions>
<speed>1.2</speed>
<temp>0.00</temp>
<bpm>0</bpm>
<rpm>0.00</rpm>
</extensions>
</trkpt>
<trkpt lat="63.998329163" lon="-19.112434387">
<ele>781.671875</ele>
<time>2012-07-23T16:19:52Z</time>
<speed>1.190000</speed>
<extensions>
<speed>1.2</speed>
<temp>0.00</temp>
<bpm>0</bpm>
<rpm>0.00</rpm>
</extensions>
</trkpt>
<trkpt lat="63.998374939" lon="-19.112360001">
<ele>781.890625</ele>
<time>2012-07-23T16:19:57Z</time>
<speed>1.320000</speed>
<extensions>
<speed>1.3</speed>
<temp>0.00</temp>
<bpm>0</bpm>
<rpm>0.00</rpm>
</extensions>
</trkpt>
<trkpt lat="63.998435974" lon="-19.112316132">
<ele>783.890625</ele>
<time>2012-07-23T16:20:02Z</time>
<speed>1.180000</speed>
<extensions>
<speed>1.2</speed>
<temp>0.00</temp>
<bpm>0</bpm>
<rpm>0.00</rpm>
</extensions>
</trkpt>
<trkpt lat="63.998485565" lon="-19.112287521">
<ele>785.109375</ele>
<time>2012-07-23T16:20:07Z</time>
<speed>1.200000</speed>
<extensions>
<speed>1.2</speed>
<temp>0.00</temp>
<bpm>0</bpm>
<rpm>0.00</rpm>
</extensions>
</trkpt>
<trkpt lat="63.998538971" lon="-19.112224579">
<ele>785.937500</ele>
<time>2012-07-23T16:20:12Z</time>
<speed>1.110000</speed>
<extensions>
<speed>1.1</speed>
<temp>0.00</temp>
<bpm>0</bpm>
<rpm>0.00</rpm>
</extensions>
</trkpt>
<trkpt lat="63.998600006" lon="-19.112174988">
<ele>786.562500</ele>
<time>2012-07-23T16:20:17Z</time>
<speed>1.080000</speed>
<extensions>
<speed>1.1</speed>
<temp>0.00</temp>
<bpm>0</bpm>
<rpm>0.00</rpm>
</extensions>
</trkpt>
<trkpt lat="63.998649597" lon="-19.112121582">
<ele>788.187500</ele>
<time>2012-07-23T16:20:22Z</time>
<speed>1.320000</speed>
<extensions>
<speed>1.3</speed>
<temp>0.00</temp>
<bpm>0</bpm>
<rpm>0.00</rpm>
</extensions>
</trkpt>
<trkpt lat="63.998695374" lon="-19.112062454">
<ele>789.343750</ele>
<time>2012-07-23T16:20:27Z</time>
<speed>1.200000</speed>
<extensions>
<speed>1.2</speed>
<temp>0.00</temp>
<bpm>0</bpm>
<rpm>0.00</rpm>
</extensions>
</trkpt>
<trkpt lat="63.998737335" lon="-19.111989975">
<ele>789.781250</ele>
<time>2012-07-23T16:20:32Z</time>
<speed>1.190000</speed>
<extensions>
<speed>1.2</speed>
<temp>0.00</temp>
<bpm>0</bpm>
<rpm>0.00</rpm>
</extensions>
</trkpt>
<trkpt lat="63.998771667" lon="-19.111885071">
<ele>789.468750</ele>
<time>2012-07-23T16:20:37Z</time>
<speed>1.110000</speed>
<extensions>
<speed>1.1</speed>
<temp>0.00</temp>
<bpm>0</bpm>
<rpm>0.00</rpm>
</extensions>
</trkpt>
<trkpt lat="63.998817444" lon="-19.111803055">
<ele>790.093750</ele>
<time>2012-07-23T16:20:42Z</time>
<speed>0.790000</speed>
<extensions>
<speed>0.8</speed>
<temp>0.00</temp>
<bpm>0</bpm>
<rpm>0.00</rpm>
</extensions>
</trkpt>
<trkpt lat="63.998836517" lon="-19.111778259">
<ele>790.781250</ele>
<time>2012-07-23T16:20:47Z</time>
<speed>1.000000</speed>
<extensions>
<speed>1.0</speed>
<temp>0.00</temp>
<bpm>0</bpm>
<rpm>0.00</rpm>
</extensions>
</trkpt>
<trkpt lat="63.998874664" lon="-19.111705780">
<ele>791.281250</ele>
<time>2012-07-23T16:20:52Z</time>
<speed>1.070000</speed>
<extensions>
<speed>1.1</speed>
<temp>0.00</temp>
<bpm>0</bpm>
<rpm>0.00</rpm>
</extensions>
</trkpt>
<trkpt lat="63.998908997" lon="-19.111642838">
<ele>791.328125</ele>
<time>2012-07-23T16:20:57Z</time>
<speed>1.160000</speed>
<extensions>
<speed>1.2</speed>
<temp>0.00</temp>
<bpm>0</bpm>
<rpm>0.00</rpm>
</extensions>
</trkpt>
<trkpt lat="63.998935699" lon="-19.111608505">
<ele>791.906250</ele>
<time>2012-07-23T16:21:02Z</time>
<speed>0.340000</speed>
<extensions>
<speed>0.3</speed>
<temp>0.00</temp>
<bpm>0</bpm>
<rpm>0.00</rpm>
</extensions>
</trkpt>
<trkpt lat="63.998943329" lon="-19.111539841">
<ele>792.156250</ele>
<time>2012-07-23T16:21:07Z</time>
<speed>0.560000</speed>
<extensions>
<speed>0.6</speed>
<temp>0.00</temp>
<bpm>0</bpm>
<rpm>0.00</rpm>
</extensions>
</trkpt>
<trkpt lat="63.998981476" lon="-19.111551285">
<ele>791.968750</ele>
<time>2012-07-23T16:21:12Z</time>
<speed>1.020000</speed>
<extensions>
<speed>1.0</speed>
<temp>0.00</temp>
<bpm>0</bpm>
<rpm>0.00</rpm>
</extensions>
</trkpt>
<trkpt lat="63.999023438" lon="-19.111555099">
<ele>792.265625</ele>
<time>2012-07-23T16:21:17Z</time>
<speed>1.000000</speed>
<extensions>
<speed>1.0</speed>
<temp>0.00</temp>
<bpm>0</bpm>
<rpm>0.00</rpm>
</extensions>
</trkpt>
<trkpt lat="63.999061584" lon="-19.111536026">
<ele>791.984375</ele>
<time>2012-07-23T16:21:22Z</time>
<speed>0.600000</speed>
<extensions>
<speed>0.6</speed>
<temp>0.00</temp>
<bpm>0</bpm>
<rpm>0.00</rpm>
</extensions>
</trkpt>
<trkpt lat="63.999084473" lon="-19.111513138">
<ele>791.687500</ele>
<time>2012-07-23T16:21:27Z</time>
<speed>0.170000</speed>
<extensions>
<speed>0.2</speed>
<temp>0.00</temp>
<bpm>0</bpm>
<rpm>0.00</rpm>
</extensions>
</trkpt>
<trkpt lat="63.999122620" lon="-19.111530304">
<ele>791.125000</ele>
<time>2012-07-23T16:21:32Z</time>
<speed>1.030000</speed>
<extensions>
<speed>1.0</speed>
<temp>0.00</temp>
<bpm>0</bpm>
<rpm>0.00</rpm>
</extensions>
</trkpt>
<trkpt lat="63.999164581" lon="-19.111528397">
<ele>791.828125</ele>
<time>2012-07-23T16:21:37Z</time>
<speed>1.010000</speed>
<extensions>
<speed>1.0</speed>
<temp>0.00</temp>
<bpm>0</bpm>
<rpm>0.00</rpm>
</extensions>
</trkpt>
<trkpt lat="63.999198914" lon="-19.111537933">
<ele>791.937500</ele>
<time>2012-07-23T16:21:42Z</time>
<speed>0.750000</speed>
<extensions>
<speed>0.8</speed>
<temp>0.00</temp>
<bpm>0</bpm>
<rpm>0.00</rpm>
</extensions>
</trkpt>
<trkpt lat="63.999225616" lon="-19.111536026">
<ele>792.421875</ele>
<time>2012-07-23T16:21:47Z</time>
<speed>0.580000</speed>
<extensions>
<speed>0.6</speed>
<temp>0.00</temp>
<bpm>0</bpm>
<rpm>0.00</rpm>
</extensions>
</trkpt>
<trkpt lat="63.999237061" lon="-19.111574173">
<ele>792.656250</ele>
<time>2012-07-23T16:21:52Z</time>
<speed>0.050000</speed>
<extensions>
<speed>0.1</speed>
<temp>0.00</temp>
<bpm>0</bpm>
<rpm>0.00</rpm>
</extensions>
</trkpt>
<trkpt lat="63.999248505" lon="-19.111577988">
<ele>792.437500</ele>
<time>2012-07-23T16:21:57Z</time>
<speed>0.550000</speed>
<extensions>
<speed>0.6</speed>
<temp>0.00</temp>
<bpm>0</bpm>
<rpm>0.00</rpm>
</extensions>
</trkpt>
<trkpt lat="63.999271393" lon="-19.111583710">
<ele>792.937500</ele>
<time>2012-07-23T16:22:02Z</time>
<speed>0.610000</speed>
<extensions>
<speed>0.6</speed>
<temp>0.00</temp>
<bpm>0</bpm>
<rpm>0.00</rpm>
</extensions>
</trkpt>
<trkpt lat="63.999305725" lon="-19.111577988">
<ele>793.546875</ele>
<time>2012-07-23T16:22:07Z</time>
<speed>0.630000</speed>
<extensions>
<speed>0.6</speed>
<temp>0.00</temp>
<bpm>0</bpm>
<rpm>0.00</rpm>
</extensions>
</trkpt>
<trkpt lat="63.999328613" lon="-19.111574173">
<ele>794.234375</ele>
<time>2012-07-23T16:22:12Z</time>
<speed>0.620000</speed>
<extensions>
<speed>0.6</speed>
<temp>0.00</temp>
<bpm>0</bpm>
<rpm>0.00</rpm>
</extensions>
</trkpt>
<trkpt lat="63.999362946" lon="-19.111608505">
<ele>794.937500</ele>
<time>2012-07-23T16:22:17Z</time>
<speed>0.840000</speed>
<extensions>
<speed>0.8</speed>
<temp>0.00</temp>
<bpm>0</bpm>
<rpm>0.00</rpm>
</extensions>
</trkpt>
<trkpt lat="63.999385834" lon="-19.111564636">
<ele>795.500000</ele>
<time>2012-07-23T16:22:22Z</time>
<speed>0.650000</speed>
<extensions>
<speed>0.6</speed>
<temp>0.00</temp>
<bpm>0</bpm>
<rpm>0.00</rpm>
</extensions>
</trkpt>
<trkpt lat="63.999401093" lon="-19.111604691">
<ele>796.234375</ele>
<time>2012-07-23T16:22:27Z</time>
<speed>0.420000</speed>
<extensions>
<speed>0.4</speed>
<temp>0.00</temp>
<bpm>0</bpm>
<rpm>0.00</rpm>
</extensions>
</trkpt>
<trkpt lat="63.999423981" lon="-19.111589432">
<ele>797.140625</ele>
<time>2012-07-23T16:22:32Z</time>
<speed>0.720000</speed>
<extensions>
<speed>0.7</speed>
<temp>0.00</temp>
<bpm>0</bpm>
<rpm>0.00</rpm>
</extensions>
</trkpt>
<trkpt lat="63.999443054" lon="-19.111665726">
<ele>798.093750</ele>
<time>2012-07-23T16:22:37Z</time>
<speed>0.800000</speed>
<extensions>
<speed>0.8</speed>
<temp>0.00</temp>
<bpm>0</bpm>
<rpm>0.00</rpm>
</extensions>
</trkpt>
<trkpt lat="63.999458313" lon="-19.111694336">
<ele>798.906250</ele>
<time>2012-07-23T16:22:42Z</time>
<speed>0.360000</speed>
<extensions>
<speed>0.4</speed>
<temp>0.00</temp>
<bpm>0</bpm>
<rpm>0.00</rpm>
</extensions>
</trkpt>
<trkpt lat="63.999488831" lon="-19.111705780">
<ele>800.062500</ele>
<time>2012-07-23T16:22:47Z</time>
<speed>0.750000</speed>
<extensions>
<speed>0.8</speed>
<temp>0.00</temp>
<bpm>0</bpm>
<rpm>0.00</rpm>
</extensions>
</trkpt>
<trkpt lat="63.999515533" lon="-19.111713409">
<ele>801.203125</ele>
<time>2012-07-23T16:22:52Z</time>
<speed>0.330000</speed>
<extensions>
<speed>0.3</speed>
<temp>0.00</temp>
<bpm>0</bpm>
<rpm>0.00</rpm>
</extensions>
</trkpt>
<trkpt lat="63.999534607" lon="-19.111742020">
<ele>801.781250</ele>
<time>2012-07-23T16:22:57Z</time>
<speed>0.540000</speed>
<extensions>
<speed>0.5</speed>
<temp>0.00</temp>
<bpm>0</bpm>
<rpm>0.00</rpm>
</extensions>
</trkpt>
<trkpt lat="63.999557495" lon="-19.111772537">
<ele>802.656250</ele>
<time>2012-07-23T16:23:02Z</time>
<speed>0.600000</speed>
<extensions>
<speed>0.6</speed>
<temp>0.00</temp>
<bpm>0</bpm>
<rpm>0.00</rpm>
</extensions>
</trkpt>
<trkpt lat="63.999572754" lon="-19.111732483">
<ele>803.578125</ele>
<time>2012-07-23T16:23:07Z</time>
<speed>0.440000</speed>
<extensions>
<speed>0.4</speed>
<temp>0.00</temp>
<bpm>0</bpm>
<rpm>0.00</rpm>
</extensions>
</trkpt>
<trkpt lat="63.999572754" lon="-19.111682892">
<ele>803.765625</ele>
<time>2012-07-23T16:23:12Z</time>
<speed>0.070000</speed>
<extensions>
<speed>0.1</speed>
<temp>0.00</temp>
<bpm>0</bpm>
<rpm>0.00</rpm>
</extensions>
</trkpt>
<trkpt lat="63.999584198" lon="-19.111679077">
<ele>803.937500</ele>
<time>2012-07-23T16:23:17Z</time>
<speed>0.860000</speed>
<extensions>
<speed>0.9</speed>
<temp>0.00</temp>
<bpm>0</bpm>
<rpm>0.00</rpm>
</extensions>
</trkpt>
<trkpt lat="63.999626160" lon="-19.111654282">
<ele>804.796875</ele>
<time>2012-07-23T16:23:22Z</time>
<speed>0.980000</speed>
<extensions>
<speed>1.0</speed>
<temp>0.00</temp>
<bpm>0</bpm>
<rpm>0.00</rpm>
</extensions>
</trkpt>
<trkpt lat="63.999641418" lon="-19.111587524">
<ele>805.531250</ele>
<time>2012-07-23T16:23:27Z</time>
<speed>0.470000</speed>
<extensions>
<speed>0.5</speed>
<temp>0.00</temp>
<bpm>0</bpm>
<rpm>0.00</rpm>
</extensions>
</trkpt>
<trkpt lat="63.999652863" lon="-19.111587524">
<ele>805.828125</ele>
<time>2012-07-23T16:23:32Z</time>
<speed>0.220000</speed>
<extensions>
<speed>0.2</speed>
<temp>0.00</temp>
<bpm>0</bpm>
<rpm>0.00</rpm>
</extensions>
</trkpt>
<trkpt lat="63.999664307" lon="-19.111646652">
<ele>807.406250</ele>
<time>2012-07-23T16:23:37Z</time>
<speed>0.580000</speed>
<extensions>
<speed>0.6</speed>
<temp>0.00</temp>
<bpm>0</bpm>
<rpm>0.00</rpm>
</extensions>
</trkpt>
<trkpt lat="63.999675751" lon="-19.111673355">
<ele>808.640625</ele>
<time>2012-07-23T16:23:42Z</time>
<speed>0.690000</speed>
<extensions>
<speed>0.7</speed>
<temp>0.00</temp>
<bpm>0</bpm>
<rpm>0.00</rpm>
</extensions>
</trkpt>
<trkpt lat="63.999687195" lon="-19.111606598">
<ele>808.531250</ele>
<time>2012-07-23T16:23:47Z</time>
<speed>0.540000</speed>
<extensions>
<speed>0.5</speed>
<temp>0.00</temp>
<bpm>0</bpm>
<rpm>0.00</rpm>
</extensions>
</trkpt>
<trkpt lat="63.999702454" lon="-19.111652374">
<ele>809.250000</ele>
<time>2012-07-23T16:23:52Z</time>
<speed>0.630000</speed>
<extensions>
<speed>0.6</speed>
<temp>0.00</temp>
<bpm>0</bpm>
<rpm>0.00</rpm>
</extensions>
</trkpt>
<trkpt lat="63.999732971" lon="-19.111587524">
<ele>810.421875</ele>
<time>2012-07-23T16:23:57Z</time>
<speed>0.650000</speed>
<extensions>
<speed>0.6</speed>
<temp>0.00</temp>
<bpm>0</bpm>
<rpm>0.00</rpm>
</extensions>
</trkpt>
<trkpt lat="63.999759674" lon="-19.111545563">
<ele>812.031250</ele>
<time>2012-07-23T16:24:02Z</time>
<speed>0.770000</speed>
<extensions>
<speed>0.8</speed>
<temp>0.00</temp>
<bpm>0</bpm>
<rpm>0.00</rpm>
</extensions>
</trkpt>
<trkpt lat="63.999759674" lon="-19.111591339">
<ele>812.640625</ele>
<time>2012-07-23T16:24:07Z</time>
<speed>0.110000</speed>
<extensions>
<speed>0.1</speed>
<temp>0.00</temp>
<bpm>0</bpm>
<rpm>0.00</rpm>
</extensions>
</trkpt>
<trkpt lat="63.999767303" lon="-19.111589432">
<ele>812.750000</ele>
<time>2012-07-23T16:24:12Z</time>
<speed>0.040000</speed>
<extensions>
<speed>0.0</speed>
<temp>0.00</temp>
<bpm>0</bpm>
<rpm>0.00</rpm>
</extensions>
</trkpt>
<trkpt lat="63.999767303" lon="-19.111587524">
<ele>812.937500</ele>
<time>2012-07-23T16:24:17Z</time>
<speed>0.070000</speed>
<extensions>
<speed>0.1</speed>
<temp>0.00</temp>
<bpm>0</bpm>
<rpm>0.00</rpm>
</extensions>
</trkpt>
<trkpt lat="63.999767303" lon="-19.111585617">
<ele>813.000000</ele>
<time>2012-07-23T16:24:22Z</time>
<extensions>
<speed>0.0</speed>
<temp>0.00</temp>
<bpm>0</bpm>
<rpm>0.00</rpm>
</extensions>
</trkpt>
<trkpt lat="63.999767303" lon="-19.111585617">
<ele>813.015625</ele>
<time>2012-07-23T16:24:27Z</time>
<extensions>
<speed>0.0</speed>
<temp>0.00</temp>
<bpm>0</bpm>
<rpm>0.00</rpm>
</extensions>
</trkpt>
<trkpt lat="63.999767303" lon="-19.111583710">
<ele>813.031250</ele>
<time>2012-07-23T16:24:32Z</time>
<extensions>
<speed>0.0</speed>
<temp>0.00</temp>
<bpm>0</bpm>
<rpm>0.00</rpm>
</extensions>
</trkpt>
<trkpt lat="63.999767303" lon="-19.111583710">
<ele>813.046875</ele>
<time>2012-07-23T16:24:37Z</time>
<speed>0.010000</speed>
<extensions>
<speed>0.0</speed>
<temp>0.00</temp>
<bpm>0</bpm>
<rpm>0.00</rpm>
</extensions>
</trkpt>
<trkpt lat="63.999767303" lon="-19.111583710">
<ele>813.062500</ele>
<time>2012-07-23T16:24:42Z</time>
<speed>0.010000</speed>
<extensions>
<speed>0.0</speed>
<temp>0.00</temp>
<bpm>0</bpm>
<rpm>0.00</rpm>
</extensions>
</trkpt>
<trkpt lat="63.999767303" lon="-19.111583710">
<ele>813.062500</ele>
<time>2012-07-23T16:24:47Z</time>
<speed>0.010000</speed>
<extensions>
<speed>0.0</speed>
<temp>0.00</temp>
<bpm>0</bpm>
<rpm>0.00</rpm>
</extensions>
</trkpt>
<trkpt lat="63.999767303" lon="-19.111583710">
<ele>813.078125</ele>
<time>2012-07-23T16:24:52Z</time>
<speed>0.010000</speed>
<extensions>
<speed>0.0</speed>
<temp>0.00</temp>
<bpm>0</bpm>
<rpm>0.00</rpm>
</extensions>
</trkpt>
<trkpt lat="63.999767303" lon="-19.111583710">
<ele>813.093750</ele>
<time>2012-07-23T16:24:57Z</time>
<speed>0.010000</speed>
<extensions>
<speed>0.0</speed>
<temp>0.00</temp>
<bpm>0</bpm>
<rpm>0.00</rpm>
</extensions>
</trkpt>
<trkpt lat="63.999767303" lon="-19.111583710">
<ele>813.093750</ele>
<time>2012-07-23T16:25:02Z</time>
<extensions>
<speed>0.0</speed>
<temp>0.00</temp>
<bpm>0</bpm>
<rpm>0.00</rpm>
</extensions>
</trkpt>
<trkpt lat="63.999767303" lon="-19.111583710">
<ele>813.093750</ele>
<time>2012-07-23T16:25:07Z</time>
<extensions>
<speed>0.0</speed>
<temp>0.00</temp>
<bpm>0</bpm>
<rpm>0.00</rpm>
</extensions>
</trkpt>
<trkpt lat="63.999767303" lon="-19.111583710">
<ele>813.093750</ele>
<time>2012-07-23T16:25:12Z</time>
<speed>0.080000</speed>
<extensions>
<speed>0.1</speed>
<temp>0.00</temp>
<bpm>0</bpm>
<rpm>0.00</rpm>
</extensions>
</trkpt>
<trkpt lat="63.999774933" lon="-19.111608505">
<ele>813.015625</ele>
<time>2012-07-23T16:25:17Z</time>
<speed>0.730000</speed>
<extensions>
<speed>0.7</speed>
<temp>0.00</temp>
<bpm>0</bpm>
<rpm>0.00</rpm>
</extensions>
</trkpt>
<trkpt lat="63.999801636" lon="-19.111656189">
<ele>814.593750</ele>
<time>2012-07-23T16:25:22Z</time>
<speed>0.640000</speed>
<extensions>
<speed>0.6</speed>
<temp>0.00</temp>
<bpm>0</bpm>
<rpm>0.00</rpm>
</extensions>
</trkpt>
<trkpt lat="63.999828339" lon="-19.111658096">
<ele>815.656250</ele>
<time>2012-07-23T16:25:27Z</time>
<speed>0.640000</speed>
<extensions>
<speed>0.6</speed>
<temp>0.00</temp>
<bpm>0</bpm>
<rpm>0.00</rpm>
</extensions>
</trkpt>
<trkpt lat="63.999843597" lon="-19.111625671">
<ele>816.437500</ele>
<time>2012-07-23T16:25:32Z</time>
<speed>0.340000</speed>
<extensions>
<speed>0.3</speed>
<temp>0.00</temp>
<bpm>0</bpm>
<rpm>0.00</rpm>
</extensions>
</trkpt>
<trkpt lat="63.999843597" lon="-19.111652374">
<ele>817.296875</ele>
<time>2012-07-23T16:25:37Z</time>
<speed>0.700000</speed>
<extensions>
<speed>0.7</speed>
<temp>0.00</temp>
<bpm>0</bpm>
<rpm>0.00</rpm>
</extensions>
</trkpt>
<trkpt lat="63.999866486" lon="-19.111650467">
<ele>818.343750</ele>
<time>2012-07-23T16:25:42Z</time>
<speed>0.490000</speed>
<extensions>
<speed>0.5</speed>
<temp>0.00</temp>
<bpm>0</bpm>
<rpm>0.00</rpm>
</extensions>
</trkpt>
<trkpt lat="63.999881744" lon="-19.111644745">
<ele>819.953125</ele>
<time>2012-07-23T16:25:47Z</time>
<speed>0.520000</speed>
<extensions>
<speed>0.5</speed>
<temp>0.00</temp>
<bpm>0</bpm>
<rpm>0.00</rpm>
</extensions>
</trkpt>
<trkpt lat="63.999908447" lon="-19.111692429">
<ele>821.078125</ele>
<time>2012-07-23T16:25:52Z</time>
<speed>0.470000</speed>
<extensions>
<speed>0.5</speed>
<temp>0.00</temp>
<bpm>0</bpm>
<rpm>0.00</rpm>
</extensions>
</trkpt>
<trkpt lat="63.999935150" lon="-19.111719131">
<ele>822.140625</ele>
<time>2012-07-23T16:25:57Z</time>
<speed>0.730000</speed>
<extensions>
<speed>0.7</speed>
<temp>0.00</temp>
<bpm>0</bpm>
<rpm>0.00</rpm>
</extensions>
</trkpt>
<trkpt lat="63.999961853" lon="-19.111742020">
<ele>823.062500</ele>
<time>2012-07-23T16:26:02Z</time>
<speed>0.710000</speed>
<extensions>
<speed>0.7</speed>
<temp>0.00</temp>
<bpm>0</bpm>
<rpm>0.00</rpm>
</extensions>
</trkpt>
<trkpt lat="63.999996185" lon="-19.111759186">
<ele>824.140625</ele>
<time>2012-07-23T16:26:07Z</time>
<speed>0.710000</speed>
<extensions>
<speed>0.7</speed>
<temp>0.00</temp>
<bpm>0</bpm>
<rpm>0.00</rpm>
</extensions>
</trkpt>
<trkpt lat="64.000015259" lon="-19.111751556">
<ele>825.109375</ele>
<time>2012-07-23T16:26:12Z</time>
<speed>0.380000</speed>
<extensions>
<speed>0.4</speed>
<temp>0.00</temp>
<bpm>0</bpm>
<rpm>0.00</rpm>
</extensions>
</trkpt>
<trkpt lat="64.000030518" lon="-19.111734390">
<ele>825.750000</ele>
<time>2012-07-23T16:26:17Z</time>
<speed>0.680000</speed>
<extensions>
<speed>0.7</speed>
<temp>0.00</temp>
<bpm>0</bpm>
<rpm>0.00</rpm>
</extensions>
</trkpt>
<trkpt lat="64.000053406" lon="-19.111686707">
<ele>826.875000</ele>
<time>2012-07-23T16:26:22Z</time>
<speed>0.740000</speed>
<extensions>
<speed>0.7</speed>
<temp>0.00</temp>
<bpm>0</bpm>
<rpm>0.00</rpm>
</extensions>
</trkpt>
<trkpt lat="64.000076294" lon="-19.111619949">
<ele>827.703125</ele>
<time>2012-07-23T16:26:27Z</time>
<speed>0.860000</speed>
<extensions>
<speed>0.9</speed>
<temp>0.00</temp>
<bpm>0</bpm>
<rpm>0.00</rpm>
</extensions>
</trkpt>
<trkpt lat="64.000076294" lon="-19.111585617">
<ele>827.421875</ele>
<time>2012-07-23T16:26:32Z</time>
<speed>0.020000</speed>
<extensions>
<speed>0.0</speed>
<temp>0.00</temp>
<bpm>0</bpm>
<rpm>0.00</rpm>
</extensions>
</trkpt>
<trkpt lat="64.000076294" lon="-19.111555099">
<ele>827.515625</ele>
<time>2012-07-23T16:26:37Z</time>
<speed>0.630000</speed>
<extensions>
<speed>0.6</speed>
<temp>0.00</temp>
<bpm>0</bpm>
<rpm>0.00</rpm>
</extensions>
</trkpt>
<trkpt lat="64.000106812" lon="-19.111501694">
<ele>828.546875</ele>
<time>2012-07-23T16:26:42Z</time>
<speed>0.830000</speed>
<extensions>
<speed>0.8</speed>
<temp>0.00</temp>
<bpm>0</bpm>
<rpm>0.00</rpm>
</extensions>
</trkpt>
<trkpt lat="64.000137329" lon="-19.111524582">
<ele>829.593750</ele>
<time>2012-07-23T16:26:47Z</time>
<speed>0.850000</speed>
<extensions>
<speed>0.8</speed>
<temp>0.00</temp>
<bpm>0</bpm>
<rpm>0.00</rpm>
</extensions>
</trkpt>
<trkpt lat="64.000152588" lon="-19.111516953">
<ele>830.156250</ele>
<time>2012-07-23T16:26:52Z</time>
<speed>0.670000</speed>
<extensions>
<speed>0.7</speed>
<temp>0.00</temp>
<bpm>0</bpm>
<rpm>0.00</rpm>
</extensions>
</trkpt>
<trkpt lat="64.000167847" lon="-19.111434937">
<ele>831.109375</ele>
<time>2012-07-23T16:26:57Z</time>
<speed>0.760000</speed>
<extensions>
<speed>0.8</speed>
<temp>0.00</temp>
<bpm>0</bpm>
<rpm>0.00</rpm>
</extensions>
</trkpt>
<trkpt lat="64.000213623" lon="-19.111431122">
<ele>833.218750</ele>
<time>2012-07-23T16:27:02Z</time>
<speed>0.570000</speed>
<extensions>
<speed>0.6</speed>
<temp>0.00</temp>
<bpm>0</bpm>
<rpm>0.00</rpm>
</extensions>
</trkpt>
<trkpt lat="64.000221252" lon="-19.111408234">
<ele>834.218750</ele>
<time>2012-07-23T16:27:07Z</time>
<speed>0.740000</speed>
<extensions>
<speed>0.7</speed>
<temp>0.00</temp>
<bpm>0</bpm>
<rpm>0.00</rpm>
</extensions>
</trkpt>
<trkpt lat="64.000251770" lon="-19.111446381">
<ele>835.140625</ele>
<time>2012-07-23T16:27:12Z</time>
<speed>0.830000</speed>
<extensions>
<speed>0.8</speed>
<temp>0.00</temp>
<bpm>0</bpm>
<rpm>0.00</rpm>
</extensions>
</trkpt>
<trkpt lat="64.000274658" lon="-19.111438751">
<ele>835.859375</ele>
<time>2012-07-23T16:27:17Z</time>
<speed>0.620000</speed>
<extensions>
<speed>0.6</speed>
<temp>0.00</temp>
<bpm>0</bpm>
<rpm>0.00</rpm>
</extensions>
</trkpt>
<trkpt lat="64.000320435" lon="-19.111438751">
<ele>837.140625</ele>
<time>2012-07-23T16:27:22Z</time>
<speed>0.940000</speed>
<extensions>
<speed>0.9</speed>
<temp>0.00</temp>
<bpm>0</bpm>
<rpm>0.00</rpm>
</extensions>
</trkpt>
<trkpt lat="64.000343323" lon="-19.111423492">
<ele>837.781250</ele>
<time>2012-07-23T16:27:27Z</time>
<speed>0.690000</speed>
<extensions>
<speed>0.7</speed>
<temp>0.00</temp>
<bpm>0</bpm>
<rpm>0.00</rpm>
</extensions>
</trkpt>
<trkpt lat="64.000389099" lon="-19.111431122">
<ele>838.890625</ele>
<time>2012-07-23T16:27:32Z</time>
<speed>1.110000</speed>
<extensions>
<speed>1.1</speed>
<temp>0.00</temp>
<bpm>0</bpm>
<rpm>0.00</rpm>
</extensions>
</trkpt>
<trkpt lat="64.000404358" lon="-19.111448288">
<ele>838.968750</ele>
<time>2012-07-23T16:27:37Z</time>
<speed>0.150000</speed>
<extensions>
<speed>0.2</speed>
<temp>0.00</temp>
<bpm>0</bpm>
<rpm>0.00</rpm>
</extensions>
</trkpt>
<trkpt lat="64.000404358" lon="-19.111465454">
<ele>839.250000</ele>
<time>2012-07-23T16:27:42Z</time>
<speed>0.090000</speed>
<extensions>
<speed>0.1</speed>
<temp>0.00</temp>
<bpm>0</bpm>
<rpm>0.00</rpm>
</extensions>
</trkpt>
<trkpt lat="64.000427246" lon="-19.111442566">
<ele>839.656250</ele>
<time>2012-07-23T16:27:47Z</time>
<speed>0.950000</speed>
<extensions>
<speed>1.0</speed>
<temp>0.00</temp>
<bpm>0</bpm>
<rpm>0.00</rpm>
</extensions>
</trkpt>
<trkpt lat="64.000465393" lon="-19.111434937">
<ele>840.875000</ele>
<time>2012-07-23T16:27:52Z</time>
<speed>0.940000</speed>
<extensions>
<speed>0.9</speed>
<temp>0.00</temp>
<bpm>0</bpm>
<rpm>0.00</rpm>
</extensions>
</trkpt>
<trkpt lat="64.000503540" lon="-19.111408234">
<ele>841.312500</ele>
<time>2012-07-23T16:27:57Z</time>
<speed>0.800000</speed>
<extensions>
<speed>0.8</speed>
<temp>0.00</temp>
<bpm>0</bpm>
<rpm>0.00</rpm>
</extensions>
</trkpt>
<trkpt lat="64.000556946" lon="-19.111417770">
<ele>842.859375</ele>
<time>2012-07-23T16:28:02Z</time>
<speed>0.950000</speed>
<extensions>
<speed>1.0</speed>
<temp>0.00</temp>
<bpm>0</bpm>
<rpm>0.00</rpm>
</extensions>
</trkpt>
<trkpt lat="64.000595093" lon="-19.111379623">
<ele>843.906250</ele>
<time>2012-07-23T16:28:07Z</time>
<speed>0.900000</speed>
<extensions>
<speed>0.9</speed>
<temp>0.00</temp>
<bpm>0</bpm>
<rpm>0.00</rpm>
</extensions>
</trkpt>
<trkpt lat="64.000633240" lon="-19.111368179">
<ele>845.328125</ele>
<time>2012-07-23T16:28:12Z</time>
<speed>0.830000</speed>
<extensions>
<speed>0.8</speed>
<temp>0.00</temp>
<bpm>0</bpm>
<rpm>0.00</rpm>
</extensions>
</trkpt>
<trkpt lat="64.000671387" lon="-19.111362457">
<ele>846.218750</ele>
<time>2012-07-23T16:28:17Z</time>
<speed>0.750000</speed>
<extensions>
<speed>0.8</speed>
<temp>0.00</temp>
<bpm>0</bpm>
<rpm>0.00</rpm>
</extensions>
</trkpt>
<trkpt lat="64.000694275" lon="-19.111337662">
<ele>847.046875</ele>
<time>2012-07-23T16:28:22Z</time>
<speed>0.760000</speed>
<extensions>
<speed>0.8</speed>
<temp>0.00</temp>
<bpm>0</bpm>
<rpm>0.00</rpm>
</extensions>
</trkpt>
<trkpt lat="64.000717163" lon="-19.111299515">
<ele>848.125000</ele>
<time>2012-07-23T16:28:27Z</time>
<speed>0.880000</speed>
<extensions>
<speed>0.9</speed>
<temp>0.00</temp>
<bpm>0</bpm>
<rpm>0.00</rpm>
</extensions>
</trkpt>
<trkpt lat="64.000762939" lon="-19.111310959">
<ele>848.703125</ele>
<time>2012-07-23T16:28:32Z</time>
<speed>0.850000</speed>
<extensions>
<speed>0.8</speed>
<temp>0.00</temp>
<bpm>0</bpm>
<rpm>0.00</rpm>
</extensions>
</trkpt>
<trkpt lat="64.000785828" lon="-19.111324310">
<ele>848.812500</ele>
<time>2012-07-23T16:28:37Z</time>
<speed>0.120000</speed>
<extensions>
<speed>0.1</speed>
<temp>0.00</temp>
<bpm>0</bpm>
<rpm>0.00</rpm>
</extensions>
</trkpt>
<trkpt lat="64.000785828" lon="-19.111331940">
<ele>849.328125</ele>
<time>2012-07-23T16:28:42Z</time>
<speed>0.010000</speed>
<extensions>
<speed>0.0</speed>
<temp>0.00</temp>
<bpm>0</bpm>
<rpm>0.00</rpm>
</extensions>
</trkpt>
<trkpt lat="64.000808716" lon="-19.111324310">
<ele>849.875000</ele>
<time>2012-07-23T16:28:47Z</time>
<speed>1.240000</speed>
<extensions>
<speed>1.2</speed>
<temp>0.00</temp>
<bpm>0</bpm>
<rpm>0.00</rpm>
</extensions>
</trkpt>
<trkpt lat="64.000869751" lon="-19.111326218">
<ele>850.812500</ele>
<time>2012-07-23T16:28:52Z</time>
<speed>1.050000</speed>
<extensions>
<speed>1.0</speed>
<temp>0.00</temp>
<bpm>0</bpm>
<rpm>0.00</rpm>
</extensions>
</trkpt>
<trkpt lat="64.000907898" lon="-19.111312866">
<ele>851.671875</ele>
<time>2012-07-23T16:28:57Z</time>
<speed>1.040000</speed>
<extensions>
<speed>1.0</speed>
<temp>0.00</temp>
<bpm>0</bpm>
<rpm>0.00</rpm>
</extensions>
</trkpt>
<trkpt lat="64.000961304" lon="-19.111284256">
<ele>852.265625</ele>
<time>2012-07-23T16:29:02Z</time>
<speed>1.280000</speed>
<extensions>
<speed>1.3</speed>
<temp>0.00</temp>
<bpm>0</bpm>
<rpm>0.00</rpm>
</extensions>
</trkpt>
<trkpt lat="64.001007080" lon="-19.111257553">
<ele>852.281250</ele>
<time>2012-07-23T16:29:07Z</time>
<speed>1.280000</speed>
<extensions>
<speed>1.3</speed>
<temp>0.00</temp>
<bpm>0</bpm>
<rpm>0.00</rpm>
</extensions>
</trkpt>
<trkpt lat="64.001052856" lon="-19.111223221">
<ele>851.968750</ele>
<time>2012-07-23T16:29:12Z</time>
<speed>1.140000</speed>
<extensions>
<speed>1.1</speed>
<temp>0.00</temp>
<bpm>0</bpm>
<rpm>0.00</rpm>
</extensions>
</trkpt>
<trkpt lat="64.001091003" lon="-19.111259460">
<ele>853.218750</ele>
<time>2012-07-23T16:29:17Z</time>
<speed>1.070000</speed>
<extensions>
<speed>1.1</speed>
<temp>0.00</temp>
<bpm>0</bpm>
<rpm>0.00</rpm>
</extensions>
</trkpt>
<trkpt lat="64.001129150" lon="-19.111351013">
<ele>852.953125</ele>
<time>2012-07-23T16:29:22Z</time>
<speed>1.290000</speed>
<extensions>
<speed>1.3</speed>
<temp>0.00</temp>
<bpm>0</bpm>
<rpm>0.00</rpm>
</extensions>
</trkpt>
<trkpt lat="64.001159668" lon="-19.111408234">
<ele>853.000000</ele>
<time>2012-07-23T16:29:27Z</time>
<speed>0.110000</speed>
<extensions>
<speed>0.1</speed>
<temp>0.00</temp>
<bpm>0</bpm>
<rpm>0.00</rpm>
</extensions>
</trkpt>
<trkpt lat="64.001167297" lon="-19.111391068">
<ele>853.234375</ele>
<time>2012-07-23T16:29:32Z</time>
<speed>0.550000</speed>
<extensions>
<speed>0.6</speed>
<temp>0.00</temp>
<bpm>0</bpm>
<rpm>0.00</rpm>
</extensions>
</trkpt>
<trkpt lat="64.001167297" lon="-19.111303329">
<ele>853.968750</ele>
<time>2012-07-23T16:29:37Z</time>
<speed>0.890000</speed>
<extensions>
<speed>0.9</speed>
<temp>0.00</temp>
<bpm>0</bpm>
<rpm>0.00</rpm>
</extensions>
</trkpt>
<trkpt lat="64.001152039" lon="-19.111230850">
<ele>853.453125</ele>
<time>2012-07-23T16:29:42Z</time>
<speed>0.280000</speed>
<extensions>
<speed>0.3</speed>
<temp>0.00</temp>
<bpm>0</bpm>
<rpm>0.00</rpm>
</extensions>
</trkpt>
<trkpt lat="64.001152039" lon="-19.111206055">
<ele>853.562500</ele>
<time>2012-07-23T16:29:47Z</time>
<speed>0.670000</speed>
<extensions>
<speed>0.7</speed>
<temp>0.00</temp>
<bpm>0</bpm>
<rpm>0.00</rpm>
</extensions>
</trkpt>
<trkpt lat="64.001144409" lon="-19.111148834">
<ele>853.812500</ele>
<time>2012-07-23T16:29:52Z</time>
<speed>0.020000</speed>
<extensions>
<speed>0.0</speed>
<temp>0.00</temp>
<bpm>0</bpm>
<rpm>0.00</rpm>
</extensions>
</trkpt>
<trkpt lat="64.001144409" lon="-19.111150742">
<ele>853.734375</ele>
<time>2012-07-23T16:29:57Z</time>
<extensions>
<speed>0.0</speed>
<temp>0.00</temp>
<bpm>0</bpm>
<rpm>0.00</rpm>
</extensions>
</trkpt>
<trkpt lat="64.001144409" lon="-19.111150742">
<ele>853.671875</ele>
<time>2012-07-23T16:30:02Z</time>
<extensions>
<speed>0.0</speed>
<temp>0.00</temp>
<bpm>0</bpm>
<rpm>0.00</rpm>
</extensions>
</trkpt>
<trkpt lat="64.001144409" lon="-19.111150742">
<ele>853.671875</ele>
<time>2012-07-23T16:30:07Z</time>
<speed>0.010000</speed>
<extensions>
<speed>0.0</speed>
<temp>0.00</temp>
<bpm>0</bpm>
<rpm>0.00</rpm>
</extensions>
</trkpt>
<trkpt lat="64.001144409" lon="-19.111150742">
<ele>853.671875</ele>
<time>2012-07-23T16:30:12Z</time>
<speed>0.010000</speed>
<extensions>
<speed>0.0</speed>
<temp>0.00</temp>
<bpm>0</bpm>
<rpm>0.00</rpm>
</extensions>
</trkpt>
<trkpt lat="64.001144409" lon="-19.111150742">
<ele>853.671875</ele>
<time>2012-07-23T16:30:17Z</time>
<extensions>
<speed>0.0</speed>
<temp>0.00</temp>
<bpm>0</bpm>
<rpm>0.00</rpm>
</extensions>
</trkpt>
<trkpt lat="64.001144409" lon="-19.111152649">
<ele>853.671875</ele>
<time>2012-07-23T16:30:22Z</time>
<extensions>
<speed>0.0</speed>
<temp>0.00</temp>
<bpm>0</bpm>
<rpm>0.00</rpm>
</extensions>
</trkpt>
<trkpt lat="64.001144409" lon="-19.111150742">
<ele>853.671875</ele>
<time>2012-07-23T16:30:27Z</time>
<extensions>
<speed>0.0</speed>
<temp>0.00</temp>
<bpm>0</bpm>
<rpm>0.00</rpm>
</extensions>
</trkpt>
<trkpt lat="64.001144409" lon="-19.111150742">
<ele>853.687500</ele>
<time>2012-07-23T16:30:32Z</time>
<speed>0.010000</speed>
<extensions>
<speed>0.0</speed>
<temp>0.00</temp>
<bpm>0</bpm>
<rpm>0.00</rpm>
</extensions>
</trkpt>
<trkpt lat="64.001144409" lon="-19.111150742">
<ele>853.625000</ele>
<time>2012-07-23T16:30:37Z</time>
<speed>0.020000</speed>
<extensions>
<speed>0.0</speed>
<temp>0.00</temp>
<bpm>0</bpm>
<rpm>0.00</rpm>
</extensions>
</trkpt>
<trkpt lat="64.001144409" lon="-19.111150742">
<ele>853.609375</ele>
<time>2012-07-23T16:30:42Z</time>
<extensions>
<speed>0.0</speed>
<temp>0.00</temp>
<bpm>0</bpm>
<rpm>0.00</rpm>
</extensions>
</trkpt>
<trkpt lat="64.001144409" lon="-19.111150742">
<ele>853.625000</ele>
<time>2012-07-23T16:30:47Z</time>
<speed>0.070000</speed>
<extensions>
<speed>0.1</speed>
<temp>0.00</temp>
<bpm>0</bpm>
<rpm>0.00</rpm>
</extensions>
</trkpt>
<trkpt lat="64.001144409" lon="-19.111150742">
<ele>853.625000</ele>
<time>2012-07-23T16:30:52Z</time>
<speed>0.140000</speed>
<extensions>
<speed>0.1</speed>
<temp>0.00</temp>
<bpm>0</bpm>
<rpm>0.00</rpm>
</extensions>
</trkpt>
<trkpt lat="64.001144409" lon="-19.111152649">
<ele>853.625000</ele>
<time>2012-07-23T16:30:57Z</time>
<speed>0.090000</speed>
<extensions>
<speed>0.1</speed>
<temp>0.00</temp>
<bpm>0</bpm>
<rpm>0.00</rpm>
</extensions>
</trkpt>
<trkpt lat="64.001144409" lon="-19.111177444">
<ele>853.984375</ele>
<time>2012-07-23T16:31:02Z</time>
<speed>0.110000</speed>
<extensions>
<speed>0.1</speed>
<temp>0.00</temp>
<bpm>0</bpm>
<rpm>0.00</rpm>
</extensions>
</trkpt>
<trkpt lat="64.001136780" lon="-19.111183167">
<ele>853.984375</ele>
<time>2012-07-23T16:31:07Z</time>
<speed>0.010000</speed>
<extensions>
<speed>0.0</speed>
<temp>0.00</temp>
<bpm>0</bpm>
<rpm>0.00</rpm>
</extensions>
</trkpt>
<trkpt lat="64.001136780" lon="-19.111183167">
<ele>853.953125</ele>
<time>2012-07-23T16:31:12Z</time>
<speed>0.050000</speed>
<extensions>
<speed>0.1</speed>
<temp>0.00</temp>
<bpm>0</bpm>
<rpm>0.00</rpm>
</extensions>
</trkpt>
<trkpt lat="64.001144409" lon="-19.111188889">
<ele>854.343750</ele>
<time>2012-07-23T16:31:17Z</time>
<speed>0.600000</speed>
<extensions>
<speed>0.6</speed>
<temp>0.00</temp>
<bpm>0</bpm>
<rpm>0.00</rpm>
</extensions>
</trkpt>
<trkpt lat="64.001144409" lon="-19.111194611">
<ele>854.859375</ele>
<time>2012-07-23T16:31:22Z</time>
<speed>0.060000</speed>
<extensions>
<speed>0.1</speed>
<temp>0.00</temp>
<bpm>0</bpm>
<rpm>0.00</rpm>
</extensions>
</trkpt>
<trkpt lat="64.001144409" lon="-19.111196518">
<ele>855.125000</ele>
<time>2012-07-23T16:31:27Z</time>
<speed>0.060000</speed>
<extensions>
<speed>0.1</speed>
<temp>0.00</temp>
<bpm>0</bpm>
<rpm>0.00</rpm>
</extensions>
</trkpt>
<trkpt lat="64.001159668" lon="-19.111194611">
<ele>854.921875</ele>
<time>2012-07-23T16:31:32Z</time>
<speed>1.040000</speed>
<extensions>
<speed>1.0</speed>
<temp>0.00</temp>
<bpm>0</bpm>
<rpm>0.00</rpm>
</extensions>
</trkpt>
<trkpt lat="64.001213074" lon="-19.111164093">
<ele>854.984375</ele>
<time>2012-07-23T16:31:37Z</time>
<speed>1.310000</speed>
<extensions>
<speed>1.3</speed>
<temp>0.00</temp>
<bpm>0</bpm>
<rpm>0.00</rpm>
</extensions>
</trkpt>
<trkpt lat="64.001274109" lon="-19.111114502">
<ele>855.453125</ele>
<time>2012-07-23T16:31:42Z</time>
<speed>1.410000</speed>
<extensions>
<speed>1.4</speed>
<temp>0.00</temp>
<bpm>0</bpm>
<rpm>0.00</rpm>
</extensions>
</trkpt>
<trkpt lat="64.001304626" lon="-19.111011505">
<ele>855.265625</ele>
<time>2012-07-23T16:31:47Z</time>
<speed>1.330000</speed>
<extensions>
<speed>1.3</speed>
<temp>0.00</temp>
<bpm>0</bpm>
<rpm>0.00</rpm>
</extensions>
</trkpt>
<trkpt lat="64.001342773" lon="-19.110881805">
<ele>855.578125</ele>
<time>2012-07-23T16:31:52Z</time>
<speed>1.330000</speed>
<extensions>
<speed>1.3</speed>
<temp>0.00</temp>
<bpm>0</bpm>
<rpm>0.00</rpm>
</extensions>
</trkpt>
<trkpt lat="64.001373291" lon="-19.110736847">
<ele>855.968750</ele>
<time>2012-07-23T16:31:57Z</time>
<speed>1.400000</speed>
<extensions>
<speed>1.4</speed>
<temp>0.00</temp>
<bpm>0</bpm>
<rpm>0.00</rpm>
</extensions>
</trkpt>
<trkpt lat="64.001403809" lon="-19.110633850">
<ele>856.703125</ele>
<time>2012-07-23T16:32:02Z</time>
<speed>1.150000</speed>
<extensions>
<speed>1.1</speed>
<temp>0.00</temp>
<bpm>0</bpm>
<rpm>0.00</rpm>
</extensions>
</trkpt>
<trkpt lat="64.001434326" lon="-19.110517502">
<ele>856.750000</ele>
<time>2012-07-23T16:32:07Z</time>
<speed>1.380000</speed>
<extensions>
<speed>1.4</speed>
<temp>0.00</temp>
<bpm>0</bpm>
<rpm>0.00</rpm>
</extensions>
</trkpt>
<trkpt lat="64.001457214" lon="-19.110380173">
<ele>856.578125</ele>
<time>2012-07-23T16:32:12Z</time>
<speed>1.330000</speed>
<extensions>
<speed>1.3</speed>
<temp>0.00</temp>
<bpm>0</bpm>
<rpm>0.00</rpm>
</extensions>
</trkpt>
<trkpt lat="64.001464844" lon="-19.110260010">
<ele>856.406250</ele>
<time>2012-07-23T16:32:17Z</time>
<speed>1.290000</speed>
<extensions>
<speed>1.3</speed>
<temp>0.00</temp>
<bpm>0</bpm>
<rpm>0.00</rpm>
</extensions>
</trkpt>
<trkpt lat="64.001472473" lon="-19.110168457">
<ele>856.406250</ele>
<time>2012-07-23T16:32:22Z</time>
<speed>0.920000</speed>
<extensions>
<speed>0.9</speed>
<temp>0.00</temp>
<bpm>0</bpm>
<rpm>0.00</rpm>
</extensions>
</trkpt>
<trkpt lat="64.001487732" lon="-19.110113144">
<ele>856.984375</ele>
<time>2012-07-23T16:32:27Z</time>
<speed>0.410000</speed>
<extensions>
<speed>0.4</speed>
<temp>0.00</temp>
<bpm>0</bpm>
<rpm>0.00</rpm>
</extensions>
</trkpt>
<trkpt lat="64.001495361" lon="-19.110109329">
<ele>856.906250</ele>
<time>2012-07-23T16:32:32Z</time>
<speed>0.340000</speed>
<extensions>
<speed>0.3</speed>
<temp>0.00</temp>
<bpm>0</bpm>
<rpm>0.00</rpm>
</extensions>
</trkpt>
<trkpt lat="64.001502991" lon="-19.110111237">
<ele>857.046875</ele>
<time>2012-07-23T16:32:37Z</time>
<speed>0.070000</speed>
<extensions>
<speed>0.1</speed>
<temp>0.00</temp>
<bpm>0</bpm>
<rpm>0.00</rpm>
</extensions>
</trkpt>
<trkpt lat="64.001502991" lon="-19.110092163">
<ele>857.734375</ele>
<time>2012-07-23T16:32:42Z</time>
<speed>0.430000</speed>
<extensions>
<speed>0.4</speed>
<temp>0.00</temp>
<bpm>0</bpm>
<rpm>0.00</rpm>
</extensions>
</trkpt>
<trkpt lat="64.001518250" lon="-19.110023499">
<ele>858.296875</ele>
<time>2012-07-23T16:32:47Z</time>
<speed>0.930000</speed>
<extensions>
<speed>0.9</speed>
<temp>0.00</temp>
<bpm>0</bpm>
<rpm>0.00</rpm>
</extensions>
</trkpt>
<trkpt lat="64.001548767" lon="-19.109954834">
<ele>859.093750</ele>
<time>2012-07-23T16:32:52Z</time>
<speed>0.860000</speed>
<extensions>
<speed>0.9</speed>
<temp>0.00</temp>
<bpm>0</bpm>
<rpm>0.00</rpm>
</extensions>
</trkpt>
<trkpt lat="64.001579285" lon="-19.109869003">
<ele>860.000000</ele>
<time>2012-07-23T16:32:57Z</time>
<speed>1.140000</speed>
<extensions>
<speed>1.1</speed>
<temp>0.00</temp>
<bpm>0</bpm>
<rpm>0.00</rpm>
</extensions>
</trkpt>
<trkpt lat="64.001609802" lon="-19.109800339">
<ele>861.671875</ele>
<time>2012-07-23T16:33:02Z</time>
<speed>0.790000</speed>
<extensions>
<speed>0.8</speed>
<temp>0.00</temp>
<bpm>0</bpm>
<rpm>0.00</rpm>
</extensions>
</trkpt>
<trkpt lat="64.001632690" lon="-19.109758377">
<ele>862.781250</ele>
<time>2012-07-23T16:33:07Z</time>
<speed>0.560000</speed>
<extensions>
<speed>0.6</speed>
<temp>0.00</temp>
<bpm>0</bpm>
<rpm>0.00</rpm>
</extensions>
</trkpt>
<trkpt lat="64.001647949" lon="-19.109643936">
<ele>862.250000</ele>
<time>2012-07-23T16:33:12Z</time>
<speed>1.170000</speed>
<extensions>
<speed>1.2</speed>
<temp>0.00</temp>
<bpm>0</bpm>
<rpm>0.00</rpm>
</extensions>
</trkpt>
<trkpt lat="64.001632690" lon="-19.109548569">
<ele>861.921875</ele>
<time>2012-07-23T16:33:17Z</time>
<speed>0.830000</speed>
<extensions>
<speed>0.8</speed>
<temp>0.00</temp>
<bpm>0</bpm>
<rpm>0.00</rpm>
</extensions>
</trkpt>
<trkpt lat="64.001647949" lon="-19.109451294">
<ele>861.484375</ele>
<time>2012-07-23T16:33:22Z</time>
<speed>1.050000</speed>
<extensions>
<speed>1.0</speed>
<temp>0.00</temp>
<bpm>0</bpm>
<rpm>0.00</rpm>
</extensions>
</trkpt>
<trkpt lat="64.001663208" lon="-19.109363556">
<ele>862.078125</ele>
<time>2012-07-23T16:33:27Z</time>
<speed>0.960000</speed>
<extensions>
<speed>1.0</speed>
<temp>0.00</temp>
<bpm>0</bpm>
<rpm>0.00</rpm>
</extensions>
</trkpt>
<trkpt lat="64.001678467" lon="-19.109291077">
<ele>863.921875</ele>
<time>2012-07-23T16:33:32Z</time>
<speed>0.450000</speed>
<extensions>
<speed>0.5</speed>
<temp>0.00</temp>
<bpm>0</bpm>
<rpm>0.00</rpm>
</extensions>
</trkpt>
<trkpt lat="64.001708984" lon="-19.109214783">
<ele>865.031250</ele>
<time>2012-07-23T16:33:37Z</time>
<speed>1.060000</speed>
<extensions>
<speed>1.1</speed>
<temp>0.00</temp>
<bpm>0</bpm>
<rpm>0.00</rpm>
</extensions>
</trkpt>
<trkpt lat="64.001724243" lon="-19.109157562">
<ele>865.546875</ele>
<time>2012-07-23T16:33:42Z</time>
<speed>0.440000</speed>
<extensions>
<speed>0.4</speed>
<temp>0.00</temp>
<bpm>0</bpm>
<rpm>0.00</rpm>
</extensions>
</trkpt>
<trkpt lat="64.001754761" lon="-19.109041214">
<ele>865.796875</ele>
<time>2012-07-23T16:33:47Z</time>
<speed>1.210000</speed>
<extensions>
<speed>1.2</speed>
<temp>0.00</temp>
<bpm>0</bpm>
<rpm>0.00</rpm>
</extensions>
</trkpt>
<trkpt lat="64.001770020" lon="-19.108915329">
<ele>866.875000</ele>
<time>2012-07-23T16:33:52Z</time>
<speed>0.990000</speed>
<extensions>
<speed>1.0</speed>
<temp>0.00</temp>
<bpm>0</bpm>
<rpm>0.00</rpm>
</extensions>
</trkpt>
<trkpt lat="64.001777649" lon="-19.108789444">
<ele>867.671875</ele>
<time>2012-07-23T16:33:57Z</time>
<speed>1.120000</speed>
<extensions>
<speed>1.1</speed>
<temp>0.00</temp>
<bpm>0</bpm>
<rpm>0.00</rpm>
</extensions>
</trkpt>
<trkpt lat="64.001777649" lon="-19.108684540">
<ele>868.187500</ele>
<time>2012-07-23T16:34:02Z</time>
<speed>1.150000</speed>
<extensions>
<speed>1.1</speed>
<temp>0.00</temp>
<bpm>0</bpm>
<rpm>0.00</rpm>
</extensions>
</trkpt>
<trkpt lat="64.001792908" lon="-19.108581543">
<ele>867.359375</ele>
<time>2012-07-23T16:34:07Z</time>
<speed>1.280000</speed>
<extensions>
<speed>1.3</speed>
<temp>0.00</temp>
<bpm>0</bpm>
<rpm>0.00</rpm>
</extensions>
</trkpt>
<trkpt lat="64.001808167" lon="-19.108465195">
<ele>867.875000</ele>
<time>2012-07-23T16:34:12Z</time>
<speed>1.220000</speed>
<extensions>
<speed>1.2</speed>
<temp>0.00</temp>
<bpm>0</bpm>
<rpm>0.00</rpm>
</extensions>
</trkpt>
<trkpt lat="64.001815796" lon="-19.108369827">
<ele>867.359375</ele>
<time>2012-07-23T16:34:17Z</time>
<speed>0.920000</speed>
<extensions>
<speed>0.9</speed>
<temp>0.00</temp>
<bpm>0</bpm>
<rpm>0.00</rpm>
</extensions>
</trkpt>
<trkpt lat="64.001838684" lon="-19.108379364">
<ele>867.843750</ele>
<time>2012-07-23T16:34:22Z</time>
<speed>0.030000</speed>
<extensions>
<speed>0.0</speed>
<temp>0.00</temp>
<bpm>0</bpm>
<rpm>0.00</rpm>
</extensions>
</trkpt>
<trkpt lat="64.001853943" lon="-19.108331680">
<ele>868.703125</ele>
<time>2012-07-23T16:34:27Z</time>
<speed>1.180000</speed>
<extensions>
<speed>1.2</speed>
<temp>0.00</temp>
<bpm>0</bpm>
<rpm>0.00</rpm>
</extensions>
</trkpt>
<trkpt lat="64.001853943" lon="-19.108213425">
<ele>868.812500</ele>
<time>2012-07-23T16:34:32Z</time>
<speed>1.180000</speed>
<extensions>
<speed>1.2</speed>
<temp>0.00</temp>
<bpm>0</bpm>
<rpm>0.00</rpm>
</extensions>
</trkpt>
<trkpt lat="64.001869202" lon="-19.108079910">
<ele>870.375000</ele>
<time>2012-07-23T16:34:37Z</time>
<speed>1.130000</speed>
<extensions>
<speed>1.1</speed>
<temp>0.00</temp>
<bpm>0</bpm>
<rpm>0.00</rpm>
</extensions>
</trkpt>
<trkpt lat="64.001884460" lon="-19.107976913">
<ele>871.609375</ele>
<time>2012-07-23T16:34:42Z</time>
<speed>1.140000</speed>
<extensions>
<speed>1.1</speed>
<temp>0.00</temp>
<bpm>0</bpm>
<rpm>0.00</rpm>
</extensions>
</trkpt>
<trkpt lat="64.001899719" lon="-19.107872009">
<ele>871.906250</ele>
<time>2012-07-23T16:34:47Z</time>
<speed>0.910000</speed>
<extensions>
<speed>0.9</speed>
<temp>0.00</temp>
<bpm>0</bpm>
<rpm>0.00</rpm>
</extensions>
</trkpt>
<trkpt lat="64.001907349" lon="-19.107784271">
<ele>872.281250</ele>
<time>2012-07-23T16:34:52Z</time>
<speed>0.740000</speed>
<extensions>
<speed>0.7</speed>
<temp>0.00</temp>
<bpm>0</bpm>
<rpm>0.00</rpm>
</extensions>
</trkpt>
<trkpt lat="64.001899719" lon="-19.107683182">
<ele>872.546875</ele>
<time>2012-07-23T16:34:57Z</time>
<speed>1.080000</speed>
<extensions>
<speed>1.1</speed>
<temp>0.00</temp>
<bpm>0</bpm>
<rpm>0.00</rpm>
</extensions>
</trkpt>
<trkpt lat="64.001892090" lon="-19.107582092">
<ele>874.187500</ele>
<time>2012-07-23T16:35:02Z</time>
<speed>1.090000</speed>
<extensions>
<speed>1.1</speed>
<temp>0.00</temp>
<bpm>0</bpm>
<rpm>0.00</rpm>
</extensions>
</trkpt>
<trkpt lat="64.001892090" lon="-19.107463837">
<ele>875.281250</ele>
<time>2012-07-23T16:35:07Z</time>
<speed>1.010000</speed>
<extensions>
<speed>1.0</speed>
<temp>0.00</temp>
<bpm>0</bpm>
<rpm>0.00</rpm>
</extensions>
</trkpt>
<trkpt lat="64.001884460" lon="-19.107343674">
<ele>877.015625</ele>
<time>2012-07-23T16:35:12Z</time>
<speed>1.020000</speed>
<extensions>
<speed>1.0</speed>
<temp>0.00</temp>
<bpm>0</bpm>
<rpm>0.00</rpm>
</extensions>
</trkpt>
<trkpt lat="64.001876831" lon="-19.107244492">
<ele>878.531250</ele>
<time>2012-07-23T16:35:17Z</time>
<speed>0.860000</speed>
<extensions>
<speed>0.9</speed>
<temp>0.00</temp>
<bpm>0</bpm>
<rpm>0.00</rpm>
</extensions>
</trkpt>
<trkpt lat="64.001853943" lon="-19.107147217">
<ele>878.640625</ele>
<time>2012-07-23T16:35:22Z</time>
<speed>1.090000</speed>
<extensions>
<speed>1.1</speed>
<temp>0.00</temp>
<bpm>0</bpm>
<rpm>0.00</rpm>
</extensions>
</trkpt>
<trkpt lat="64.001853943" lon="-19.107028961">
<ele>879.031250</ele>
<time>2012-07-23T16:35:27Z</time>
<speed>1.050000</speed>
<extensions>
<speed>1.0</speed>
<temp>0.00</temp>
<bpm>0</bpm>
<rpm>0.00</rpm>
</extensions>
</trkpt>
<trkpt lat="64.001831055" lon="-19.106958389">
<ele>879.421875</ele>
<time>2012-07-23T16:35:32Z</time>
<speed>0.930000</speed>
<extensions>
<speed>0.9</speed>
<temp>0.00</temp>
<bpm>0</bpm>
<rpm>0.00</rpm>
</extensions>
</trkpt>
<trkpt lat="64.001815796" lon="-19.106922150">
<ele>878.625000</ele>
<time>2012-07-23T16:35:37Z</time>
<speed>0.220000</speed>
<extensions>
<speed>0.2</speed>
<temp>0.00</temp>
<bpm>0</bpm>
<rpm>0.00</rpm>
</extensions>
</trkpt>
<trkpt lat="64.001815796" lon="-19.106838226">
<ele>879.640625</ele>
<time>2012-07-23T16:35:42Z</time>
<speed>1.330000</speed>
<extensions>
<speed>1.3</speed>
<temp>0.00</temp>
<bpm>0</bpm>
<rpm>0.00</rpm>
</extensions>
</trkpt>
<trkpt lat="64.001815796" lon="-19.106697083">
<ele>881.437500</ele>
<time>2012-07-23T16:35:47Z</time>
<speed>1.350000</speed>
<extensions>
<speed>1.4</speed>
<temp>0.00</temp>
<bpm>0</bpm>
<rpm>0.00</rpm>
</extensions>
</trkpt>
<trkpt lat="64.001800537" lon="-19.106609344">
<ele>882.218750</ele>
<time>2012-07-23T16:35:52Z</time>
<speed>0.990000</speed>
<extensions>
<speed>1.0</speed>
<temp>0.00</temp>
<bpm>0</bpm>
<rpm>0.00</rpm>
</extensions>
</trkpt>
<trkpt lat="64.001777649" lon="-19.106498718">
<ele>883.109375</ele>
<time>2012-07-23T16:35:57Z</time>
<speed>0.990000</speed>
<extensions>
<speed>1.0</speed>
<temp>0.00</temp>
<bpm>0</bpm>
<rpm>0.00</rpm>
</extensions>
</trkpt>
<trkpt lat="64.001754761" lon="-19.106409073">
<ele>883.140625</ele>
<time>2012-07-23T16:36:02Z</time>
<speed>1.250000</speed>
<extensions>
<speed>1.3</speed>
<temp>0.00</temp>
<bpm>0</bpm>
<rpm>0.00</rpm>
</extensions>
</trkpt>
<trkpt lat="64.001747131" lon="-19.106294632">
<ele>884.125000</ele>
<time>2012-07-23T16:36:07Z</time>
<speed>1.160000</speed>
<extensions>
<speed>1.2</speed>
<temp>0.00</temp>
<bpm>0</bpm>
<rpm>0.00</rpm>
</extensions>
</trkpt>
<trkpt lat="64.001739502" lon="-19.106145859">
<ele>884.593750</ele>
<time>2012-07-23T16:36:12Z</time>
<speed>1.050000</speed>
<extensions>
<speed>1.0</speed>
<temp>0.00</temp>
<bpm>0</bpm>
<rpm>0.00</rpm>
</extensions>
</trkpt>
<trkpt lat="64.001731873" lon="-19.106071472">
<ele>885.140625</ele>
<time>2012-07-23T16:36:17Z</time>
<speed>0.880000</speed>
<extensions>
<speed>0.9</speed>
<temp>0.00</temp>
<bpm>0</bpm>
<rpm>0.00</rpm>
</extensions>
</trkpt>
<trkpt lat="64.001724243" lon="-19.106012344">
<ele>886.125000</ele>
<time>2012-07-23T16:36:22Z</time>
<speed>0.530000</speed>
<extensions>
<speed>0.5</speed>
<temp>0.00</temp>
<bpm>0</bpm>
<rpm>0.00</rpm>
</extensions>
</trkpt>
<trkpt lat="64.001701355" lon="-19.105985641">
<ele>887.968750</ele>
<time>2012-07-23T16:36:27Z</time>
<speed>0.660000</speed>
<extensions>
<speed>0.7</speed>
<temp>0.00</temp>
<bpm>0</bpm>
<rpm>0.00</rpm>
</extensions>
</trkpt>
<trkpt lat="64.001693726" lon="-19.105932236">
<ele>889.750000</ele>
<time>2012-07-23T16:36:32Z</time>
<speed>0.590000</speed>
<extensions>
<speed>0.6</speed>
<temp>0.00</temp>
<bpm>0</bpm>
<rpm>0.00</rpm>
</extensions>
</trkpt>
<trkpt lat="64.001686096" lon="-19.105873108">
<ele>890.703125</ele>
<time>2012-07-23T16:36:37Z</time>
<speed>0.850000</speed>
<extensions>
<speed>0.8</speed>
<temp>0.00</temp>
<bpm>0</bpm>
<rpm>0.00</rpm>
</extensions>
</trkpt>
<trkpt lat="64.001686096" lon="-19.105800629">
<ele>892.000000</ele>
<time>2012-07-23T16:36:42Z</time>
<speed>0.880000</speed>
<extensions>
<speed>0.9</speed>
<temp>0.00</temp>
<bpm>0</bpm>
<rpm>0.00</rpm>
</extensions>
</trkpt>
<trkpt lat="64.001670837" lon="-19.105728149">
<ele>893.140625</ele>
<time>2012-07-23T16:36:47Z</time>
<speed>1.030000</speed>
<extensions>
<speed>1.0</speed>
<temp>0.00</temp>
<bpm>0</bpm>
<rpm>0.00</rpm>
</extensions>
</trkpt>
<trkpt lat="64.001670837" lon="-19.105659485">
<ele>894.734375</ele>
<time>2012-07-23T16:36:52Z</time>
<speed>0.710000</speed>
<extensions>
<speed>0.7</speed>
<temp>0.00</temp>
<bpm>0</bpm>
<rpm>0.00</rpm>
</extensions>
</trkpt>
<trkpt lat="64.001670837" lon="-19.105548859">
<ele>897.046875</ele>
<time>2012-07-23T16:36:57Z</time>
<speed>0.940000</speed>
<extensions>
<speed>0.9</speed>
<temp>0.00</temp>
<bpm>0</bpm>
<rpm>0.00</rpm>
</extensions>
</trkpt>
<trkpt lat="64.001655579" lon="-19.105478287">
<ele>897.406250</ele>
<time>2012-07-23T16:37:02Z</time>
<speed>0.980000</speed>
<extensions>
<speed>1.0</speed>
<temp>0.00</temp>
<bpm>0</bpm>
<rpm>0.00</rpm>
</extensions>
</trkpt>
<trkpt lat="64.001655579" lon="-19.105386734">
<ele>897.734375</ele>
<time>2012-07-23T16:37:07Z</time>
<speed>1.130000</speed>
<extensions>
<speed>1.1</speed>
<temp>0.00</temp>
<bpm>0</bpm>
<rpm>0.00</rpm>
</extensions>
</trkpt>
<trkpt lat="64.001632690" lon="-19.105304718">
<ele>897.609375</ele>
<time>2012-07-23T16:37:12Z</time>
<speed>0.930000</speed>
<extensions>
<speed>0.9</speed>
<temp>0.00</temp>
<bpm>0</bpm>
<rpm>0.00</rpm>
</extensions>
</trkpt>
<trkpt lat="64.001609802" lon="-19.105197906">
<ele>898.718750</ele>
<time>2012-07-23T16:37:17Z</time>
<speed>1.100000</speed>
<extensions>
<speed>1.1</speed>
<temp>0.00</temp>
<bpm>0</bpm>
<rpm>0.00</rpm>
</extensions>
</trkpt>
<trkpt lat="64.001579285" lon="-19.105085373">
<ele>900.046875</ele>
<time>2012-07-23T16:37:22Z</time>
<speed>1.310000</speed>
<extensions>
<speed>1.3</speed>
<temp>0.00</temp>
<bpm>0</bpm>
<rpm>0.00</rpm>
</extensions>
</trkpt>
<trkpt lat="64.001556396" lon="-19.104984283">
<ele>901.078125</ele>
<time>2012-07-23T16:37:27Z</time>
<speed>0.900000</speed>
<extensions>
<speed>0.9</speed>
<temp>0.00</temp>
<bpm>0</bpm>
<rpm>0.00</rpm>
</extensions>
</trkpt>
<trkpt lat="64.001541138" lon="-19.104913712">
<ele>901.515625</ele>
<time>2012-07-23T16:37:32Z</time>
<speed>1.180000</speed>
<extensions>
<speed>1.2</speed>
<temp>0.00</temp>
<bpm>0</bpm>
<rpm>0.00</rpm>
</extensions>
</trkpt>
<trkpt lat="64.001518250" lon="-19.104825974">
<ele>900.312500</ele>
<time>2012-07-23T16:37:37Z</time>
<speed>0.620000</speed>
<extensions>
<speed>0.6</speed>
<temp>0.00</temp>
<bpm>0</bpm>
<rpm>0.00</rpm>
</extensions>
</trkpt>
<trkpt lat="64.001564026" lon="-19.104757309">
<ele>902.703125</ele>
<time>2012-07-23T16:37:42Z</time>
<speed>0.700000</speed>
<extensions>
<speed>0.7</speed>
<temp>0.00</temp>
<bpm>0</bpm>
<rpm>0.00</rpm>
</extensions>
</trkpt>
<trkpt lat="64.001571655" lon="-19.104686737">
<ele>905.171875</ele>
<time>2012-07-23T16:37:47Z</time>
<speed>0.880000</speed>
<extensions>
<speed>0.9</speed>
<temp>0.00</temp>
<bpm>0</bpm>
<rpm>0.00</rpm>
</extensions>
</trkpt>
<trkpt lat="64.001556396" lon="-19.104591370">
<ele>907.296875</ele>
<time>2012-07-23T16:37:52Z</time>
<speed>0.910000</speed>
<extensions>
<speed>0.9</speed>
<temp>0.00</temp>
<bpm>0</bpm>
<rpm>0.00</rpm>
</extensions>
</trkpt>
<trkpt lat="64.001541138" lon="-19.104507446">
<ele>906.640625</ele>
<time>2012-07-23T16:37:57Z</time>
<speed>1.090000</speed>
<extensions>
<speed>1.1</speed>
<temp>0.00</temp>
<bpm>0</bpm>
<rpm>0.00</rpm>
</extensions>
</trkpt>
<trkpt lat="64.001525879" lon="-19.104434967">
<ele>906.906250</ele>
<time>2012-07-23T16:38:02Z</time>
<speed>0.700000</speed>
<extensions>
<speed>0.7</speed>
<temp>0.00</temp>
<bpm>0</bpm>
<rpm>0.00</rpm>
</extensions>
</trkpt>
<trkpt lat="64.001518250" lon="-19.104404449">
<ele>906.671875</ele>
<time>2012-07-23T16:38:07Z</time>
<speed>0.020000</speed>
<extensions>
<speed>0.0</speed>
<temp>0.00</temp>
<bpm>0</bpm>
<rpm>0.00</rpm>
</extensions>
</trkpt>
<trkpt lat="64.001518250" lon="-19.104404449">
<ele>906.406250</ele>
<time>2012-07-23T16:38:12Z</time>
<speed>0.040000</speed>
<extensions>
<speed>0.0</speed>
<temp>0.00</temp>
<bpm>0</bpm>
<rpm>0.00</rpm>
</extensions>
</trkpt>
<trkpt lat="64.001518250" lon="-19.104402542">
<ele>906.421875</ele>
<time>2012-07-23T16:38:17Z</time>
<speed>0.160000</speed>
<extensions>
<speed>0.2</speed>
<temp>0.00</temp>
<bpm>0</bpm>
<rpm>0.00</rpm>
</extensions>
</trkpt>
<trkpt lat="64.001525879" lon="-19.104404449">
<ele>906.453125</ele>
<time>2012-07-23T16:38:22Z</time>
<speed>0.030000</speed>
<extensions>
<speed>0.0</speed>
<temp>0.00</temp>
<bpm>0</bpm>
<rpm>0.00</rpm>
</extensions>
</trkpt>
<trkpt lat="64.001518250" lon="-19.104398727">
<ele>906.531250</ele>
<time>2012-07-23T16:38:27Z</time>
<speed>0.790000</speed>
<extensions>
<speed>0.8</speed>
<temp>0.00</temp>
<bpm>0</bpm>
<rpm>0.00</rpm>
</extensions>
</trkpt>
<trkpt lat="64.001518250" lon="-19.104291916">
<ele>905.500000</ele>
<time>2012-07-23T16:38:32Z</time>
<speed>1.270000</speed>
<extensions>
<speed>1.3</speed>
<temp>0.00</temp>
<bpm>0</bpm>
<rpm>0.00</rpm>
</extensions>
</trkpt>
<trkpt lat="64.001533508" lon="-19.104158401">
<ele>906.468750</ele>
<time>2012-07-23T16:38:37Z</time>
<speed>1.120000</speed>
<extensions>
<speed>1.1</speed>
<temp>0.00</temp>
<bpm>0</bpm>
<rpm>0.00</rpm>
</extensions>
</trkpt>
<trkpt lat="64.001533508" lon="-19.104017258">
<ele>906.109375</ele>
<time>2012-07-23T16:38:42Z</time>
<speed>1.370000</speed>
<extensions>
<speed>1.4</speed>
<temp>0.00</temp>
<bpm>0</bpm>
<rpm>0.00</rpm>
</extensions>
</trkpt>
<trkpt lat="64.001541138" lon="-19.103860855">
<ele>904.515625</ele>
<time>2012-07-23T16:38:47Z</time>
<speed>1.420000</speed>
<extensions>
<speed>1.4</speed>
<temp>0.00</temp>
<bpm>0</bpm>
<rpm>0.00</rpm>
</extensions>
</trkpt>
<trkpt lat="64.001556396" lon="-19.103708267">
<ele>903.687500</ele>
<time>2012-07-23T16:38:52Z</time>
<speed>1.240000</speed>
<extensions>
<speed>1.2</speed>
<temp>0.00</temp>
<bpm>0</bpm>
<rpm>0.00</rpm>
</extensions>
</trkpt>
<trkpt lat="64.001579285" lon="-19.103591919">
<ele>903.265625</ele>
<time>2012-07-23T16:38:57Z</time>
<speed>1.300000</speed>
<extensions>
<speed>1.3</speed>
<temp>0.00</temp>
<bpm>0</bpm>
<rpm>0.00</rpm>
</extensions>
</trkpt>
<trkpt lat="64.001617432" lon="-19.103488922">
<ele>903.859375</ele>
<time>2012-07-23T16:39:02Z</time>
<speed>1.250000</speed>
<extensions>
<speed>1.3</speed>
<temp>0.00</temp>
<bpm>0</bpm>
<rpm>0.00</rpm>
</extensions>
</trkpt>
<trkpt lat="64.001655579" lon="-19.103359222">
<ele>904.500000</ele>
<time>2012-07-23T16:39:07Z</time>
<speed>1.340000</speed>
<extensions>
<speed>1.3</speed>
<temp>0.00</temp>
<bpm>0</bpm>
<rpm>0.00</rpm>
</extensions>
</trkpt>
<trkpt lat="64.001670837" lon="-19.103263855">
<ele>905.750000</ele>
<time>2012-07-23T16:39:12Z</time>
<speed>1.190000</speed>
<extensions>
<speed>1.2</speed>
<temp>0.00</temp>
<bpm>0</bpm>
<rpm>0.00</rpm>
</extensions>
</trkpt>
<trkpt lat="64.001686096" lon="-19.103183746">
<ele>906.250000</ele>
<time>2012-07-23T16:39:17Z</time>
<speed>1.290000</speed>
<extensions>
<speed>1.3</speed>
<temp>0.00</temp>
<bpm>0</bpm>
<rpm>0.00</rpm>
</extensions>
</trkpt>
<trkpt lat="64.001701355" lon="-19.103088379">
<ele>906.390625</ele>
<time>2012-07-23T16:39:22Z</time>
<speed>1.200000</speed>
<extensions>
<speed>1.2</speed>
<temp>0.00</temp>
<bpm>0</bpm>
<rpm>0.00</rpm>
</extensions>
</trkpt>
<trkpt lat="64.001708984" lon="-19.102972031">
<ele>906.703125</ele>
<time>2012-07-23T16:39:27Z</time>
<speed>0.880000</speed>
<extensions>
<speed>0.9</speed>
<temp>0.00</temp>
<bpm>0</bpm>
<rpm>0.00</rpm>
</extensions>
</trkpt>
<trkpt lat="64.001716614" lon="-19.102876663">
<ele>907.781250</ele>
<time>2012-07-23T16:39:32Z</time>
<speed>1.120000</speed>
<extensions>
<speed>1.1</speed>
<temp>0.00</temp>
<bpm>0</bpm>
<rpm>0.00</rpm>
</extensions>
</trkpt>
<trkpt lat="64.001747131" lon="-19.102758408">
<ele>909.203125</ele>
<time>2012-07-23T16:39:37Z</time>
<speed>0.670000</speed>
<extensions>
<speed>0.7</speed>
<temp>0.00</temp>
<bpm>0</bpm>
<rpm>0.00</rpm>
</extensions>
</trkpt>
<trkpt lat="64.001777649" lon="-19.102653503">
<ele>910.796875</ele>
<time>2012-07-23T16:39:42Z</time>
<speed>1.150000</speed>
<extensions>
<speed>1.1</speed>
<temp>0.00</temp>
<bpm>0</bpm>
<rpm>0.00</rpm>
</extensions>
</trkpt>
<trkpt lat="64.001777649" lon="-19.102592468">
<ele>911.015625</ele>
<time>2012-07-23T16:39:47Z</time>
<speed>1.100000</speed>
<extensions>
<speed>1.1</speed>
<temp>0.00</temp>
<bpm>0</bpm>
<rpm>0.00</rpm>
</extensions>
</trkpt>
<trkpt lat="64.001792908" lon="-19.102464676">
<ele>911.640625</ele>
<time>2012-07-23T16:39:52Z</time>
<speed>1.120000</speed>
<extensions>
<speed>1.1</speed>
<temp>0.00</temp>
<bpm>0</bpm>
<rpm>0.00</rpm>
</extensions>
</trkpt>
<trkpt lat="64.001800537" lon="-19.102361679">
<ele>912.156250</ele>
<time>2012-07-23T16:39:57Z</time>
<speed>0.990000</speed>
<extensions>
<speed>1.0</speed>
<temp>0.00</temp>
<bpm>0</bpm>
<rpm>0.00</rpm>
</extensions>
</trkpt>
<trkpt lat="64.001800537" lon="-19.102352142">
<ele>913.765625</ele>
<time>2012-07-23T16:40:02Z</time>
<speed>0.360000</speed>
<extensions>
<speed>0.4</speed>
<temp>0.00</temp>
<bpm>0</bpm>
<rpm>0.00</rpm>
</extensions>
</trkpt>
<trkpt lat="64.001792908" lon="-19.102275848">
<ele>913.531250</ele>
<time>2012-07-23T16:40:07Z</time>
<speed>0.090000</speed>
<extensions>
<speed>0.1</speed>
<temp>0.00</temp>
<bpm>0</bpm>
<rpm>0.00</rpm>
</extensions>
</trkpt>
<trkpt lat="64.001785278" lon="-19.102188110">
<ele>913.609375</ele>
<time>2012-07-23T16:40:12Z</time>
<speed>1.030000</speed>
<extensions>
<speed>1.0</speed>
<temp>0.00</temp>
<bpm>0</bpm>
<rpm>0.00</rpm>
</extensions>
</trkpt>
<trkpt lat="64.001770020" lon="-19.102098465">
<ele>915.156250</ele>
<time>2012-07-23T16:40:17Z</time>
<speed>0.880000</speed>
<extensions>
<speed>0.9</speed>
<temp>0.00</temp>
<bpm>0</bpm>
<rpm>0.00</rpm>
</extensions>
</trkpt>
<trkpt lat="64.001747131" lon="-19.102012634">
<ele>915.921875</ele>
<time>2012-07-23T16:40:22Z</time>
<speed>0.710000</speed>
<extensions>
<speed>0.7</speed>
<temp>0.00</temp>
<bpm>0</bpm>
<rpm>0.00</rpm>
</extensions>
</trkpt>
<trkpt lat="64.001724243" lon="-19.101915359">
<ele>916.000000</ele>
<time>2012-07-23T16:40:27Z</time>
<speed>1.110000</speed>
<extensions>
<speed>1.1</speed>
<temp>0.00</temp>
<bpm>0</bpm>
<rpm>0.00</rpm>
</extensions>
</trkpt>
<trkpt lat="64.001693726" lon="-19.101814270">
<ele>916.390625</ele>
<time>2012-07-23T16:40:32Z</time>
<speed>0.920000</speed>
<extensions>
<speed>0.9</speed>
<temp>0.00</temp>
<bpm>0</bpm>
<rpm>0.00</rpm>
</extensions>
</trkpt>
<trkpt lat="64.001670837" lon="-19.101749420">
<ele>915.968750</ele>
<time>2012-07-23T16:40:37Z</time>
<speed>0.170000</speed>
<extensions>
<speed>0.2</speed>
<temp>0.00</temp>
<bpm>0</bpm>
<rpm>0.00</rpm>
</extensions>
</trkpt>
<trkpt lat="64.001670837" lon="-19.101768494">
<ele>915.171875</ele>
<time>2012-07-23T16:40:42Z</time>
<speed>0.450000</speed>
<extensions>
<speed>0.5</speed>
<temp>0.00</temp>
<bpm>0</bpm>
<rpm>0.00</rpm>
</extensions>
</trkpt>
<trkpt lat="64.001663208" lon="-19.101669312">
<ele>916.546875</ele>
<time>2012-07-23T16:40:47Z</time>
<speed>0.540000</speed>
<extensions>
<speed>0.5</speed>
<temp>0.00</temp>
<bpm>0</bpm>
<rpm>0.00</rpm>
</extensions>
</trkpt>
<trkpt lat="64.001655579" lon="-19.101593018">
<ele>916.453125</ele>
<time>2012-07-23T16:40:52Z</time>
<speed>0.750000</speed>
<extensions>
<speed>0.8</speed>
<temp>0.00</temp>
<bpm>0</bpm>
<rpm>0.00</rpm>
</extensions>
</trkpt>
<trkpt lat="64.001655579" lon="-19.101511002">
<ele>915.234375</ele>
<time>2012-07-23T16:40:57Z</time>
<speed>0.840000</speed>
<extensions>
<speed>0.8</speed>
<temp>0.00</temp>
<bpm>0</bpm>
<rpm>0.00</rpm>
</extensions>
</trkpt>
<trkpt lat="64.001647949" lon="-19.101434708">
<ele>914.593750</ele>
<time>2012-07-23T16:41:02Z</time>
<speed>0.800000</speed>
<extensions>
<speed>0.8</speed>
<temp>0.00</temp>
<bpm>0</bpm>
<rpm>0.00</rpm>
</extensions>
</trkpt>
<trkpt lat="64.001655579" lon="-19.101367950">
<ele>913.296875</ele>
<time>2012-07-23T16:41:07Z</time>
<speed>0.830000</speed>
<extensions>
<speed>0.8</speed>
<temp>0.00</temp>
<bpm>0</bpm>
<rpm>0.00</rpm>
</extensions>
</trkpt>
<trkpt lat="64.001663208" lon="-19.101305008">
<ele>911.203125</ele>
<time>2012-07-23T16:41:12Z</time>
<speed>0.810000</speed>
<extensions>
<speed>0.8</speed>
<temp>0.00</temp>
<bpm>0</bpm>
<rpm>0.00</rpm>
</extensions>
</trkpt>
<trkpt lat="64.001663208" lon="-19.101263046">
<ele>910.359375</ele>
<time>2012-07-23T16:41:17Z</time>
<speed>0.810000</speed>
<extensions>
<speed>0.8</speed>
<temp>0.00</temp>
<bpm>0</bpm>
<rpm>0.00</rpm>
</extensions>
</trkpt>
<trkpt lat="64.001663208" lon="-19.101234436">
<ele>909.890625</ele>
<time>2012-07-23T16:41:22Z</time>
<speed>0.020000</speed>
<extensions>
<speed>0.0</speed>
<temp>0.00</temp>
<bpm>0</bpm>
<rpm>0.00</rpm>
</extensions>
</trkpt>
<trkpt lat="64.001663208" lon="-19.101236343">
<ele>909.578125</ele>
<time>2012-07-23T16:41:27Z</time>
<speed>0.270000</speed>
<extensions>
<speed>0.3</speed>
<temp>0.00</temp>
<bpm>0</bpm>
<rpm>0.00</rpm>
</extensions>
</trkpt>
<trkpt lat="64.001647949" lon="-19.101194382">
<ele>908.484375</ele>
<time>2012-07-23T16:41:32Z</time>
<speed>0.490000</speed>
<extensions>
<speed>0.5</speed>
<temp>0.00</temp>
<bpm>0</bpm>
<rpm>0.00</rpm>
</extensions>
</trkpt>
<trkpt lat="64.001655579" lon="-19.101144791">
<ele>907.390625</ele>
<time>2012-07-23T16:41:37Z</time>
<speed>0.350000</speed>
<extensions>
<speed>0.3</speed>
<temp>0.00</temp>
<bpm>0</bpm>
<rpm>0.00</rpm>
</extensions>
</trkpt>
<trkpt lat="64.001655579" lon="-19.101085663">
<ele>906.812500</ele>
<time>2012-07-23T16:41:42Z</time>
<speed>0.410000</speed>
<extensions>
<speed>0.4</speed>
<temp>0.00</temp>
<bpm>0</bpm>
<rpm>0.00</rpm>
</extensions>
</trkpt>
<trkpt lat="64.001663208" lon="-19.101034164">
<ele>905.031250</ele>
<time>2012-07-23T16:41:47Z</time>
<speed>0.420000</speed>
<extensions>
<speed>0.4</speed>
<temp>0.00</temp>
<bpm>0</bpm>
<rpm>0.00</rpm>
</extensions>
</trkpt>
<trkpt lat="64.001670837" lon="-19.101016998">
<ele>904.765625</ele>
<time>2012-07-23T16:41:52Z</time>
<extensions>
<speed>0.0</speed>
<temp>0.00</temp>
<bpm>0</bpm>
<rpm>0.00</rpm>
</extensions>
</trkpt>
<trkpt lat="64.001670837" lon="-19.100999832">
<ele>904.687500</ele>
<time>2012-07-23T16:41:57Z</time>
<speed>0.650000</speed>
<extensions>
<speed>0.6</speed>
<temp>0.00</temp>
<bpm>0</bpm>
<rpm>0.00</rpm>
</extensions>
</trkpt>
<trkpt lat="64.001647949" lon="-19.100931168">
<ele>904.593750</ele>
<time>2012-07-23T16:42:02Z</time>
<speed>0.820000</speed>
<extensions>
<speed>0.8</speed>
<temp>0.00</temp>
<bpm>0</bpm>
<rpm>0.00</rpm>
</extensions>
</trkpt>
<trkpt lat="64.001625061" lon="-19.100900650">
<ele>903.484375</ele>
<time>2012-07-23T16:42:07Z</time>
<speed>0.240000</speed>
<extensions>
<speed>0.2</speed>
<temp>0.00</temp>
<bpm>0</bpm>
<rpm>0.00</rpm>
</extensions>
</trkpt>
<trkpt lat="64.001632690" lon="-19.100833893">
<ele>902.093750</ele>
<time>2012-07-23T16:42:12Z</time>
<speed>0.960000</speed>
<extensions>
<speed>1.0</speed>
<temp>0.00</temp>
<bpm>0</bpm>
<rpm>0.00</rpm>
</extensions>
</trkpt>
<trkpt lat="64.001632690" lon="-19.100780487">
<ele>899.937500</ele>
<time>2012-07-23T16:42:17Z</time>
<speed>0.090000</speed>
<extensions>
<speed>0.1</speed>
<temp>0.00</temp>
<bpm>0</bpm>
<rpm>0.00</rpm>
</extensions>
</trkpt>
<trkpt lat="64.001640320" lon="-19.100776672">
<ele>899.578125</ele>
<time>2012-07-23T16:42:22Z</time>
<speed>0.370000</speed>
<extensions>
<speed>0.4</speed>
<temp>0.00</temp>
<bpm>0</bpm>
<rpm>0.00</rpm>
</extensions>
</trkpt>
<trkpt lat="64.001647949" lon="-19.100765228">
<ele>899.671875</ele>
<time>2012-07-23T16:42:27Z</time>
<speed>0.280000</speed>
<extensions>
<speed>0.3</speed>
<temp>0.00</temp>
<bpm>0</bpm>
<rpm>0.00</rpm>
</extensions>
</trkpt>
<trkpt lat="64.001640320" lon="-19.100763321">
<ele>899.796875</ele>
<time>2012-07-23T16:42:32Z</time>
<speed>0.400000</speed>
<extensions>
<speed>0.4</speed>
<temp>0.00</temp>
<bpm>0</bpm>
<rpm>0.00</rpm>
</extensions>
</trkpt>
<trkpt lat="64.001632690" lon="-19.100734711">
<ele>899.343750</ele>
<time>2012-07-23T16:42:37Z</time>
<speed>0.550000</speed>
<extensions>
<speed>0.6</speed>
<temp>0.00</temp>
<bpm>0</bpm>
<rpm>0.00</rpm>
</extensions>
</trkpt>
<trkpt lat="64.001640320" lon="-19.100654602">
<ele>897.828125</ele>
<time>2012-07-23T16:42:42Z</time>
<speed>0.950000</speed>
<extensions>
<speed>1.0</speed>
<temp>0.00</temp>
<bpm>0</bpm>
<rpm>0.00</rpm>
</extensions>
</trkpt>
<trkpt lat="64.001640320" lon="-19.100584030">
<ele>896.796875</ele>
<time>2012-07-23T16:42:47Z</time>
<speed>0.690000</speed>
<extensions>
<speed>0.7</speed>
<temp>0.00</temp>
<bpm>0</bpm>
<rpm>0.00</rpm>
</extensions>
</trkpt>
<trkpt lat="64.001640320" lon="-19.100513458">
<ele>894.515625</ele>
<time>2012-07-23T16:42:52Z</time>
<speed>0.730000</speed>
<extensions>
<speed>0.7</speed>
<temp>0.00</temp>
<bpm>0</bpm>
<rpm>0.00</rpm>
</extensions>
</trkpt>
<trkpt lat="64.001655579" lon="-19.100452423">
<ele>893.703125</ele>
<time>2012-07-23T16:42:57Z</time>
<speed>0.770000</speed>
<extensions>
<speed>0.8</speed>
<temp>0.00</temp>
<bpm>0</bpm>
<rpm>0.00</rpm>
</extensions>
</trkpt>
<trkpt lat="64.001670837" lon="-19.100378036">
<ele>892.031250</ele>
<time>2012-07-23T16:43:02Z</time>
<speed>0.950000</speed>
<extensions>
<speed>1.0</speed>
<temp>0.00</temp>
<bpm>0</bpm>
<rpm>0.00</rpm>
</extensions>
</trkpt>
<trkpt lat="64.001693726" lon="-19.100303650">
<ele>890.921875</ele>
<time>2012-07-23T16:43:07Z</time>
<speed>0.940000</speed>
<extensions>
<speed>0.9</speed>
<temp>0.00</temp>
<bpm>0</bpm>
<rpm>0.00</rpm>
</extensions>
</trkpt>
<trkpt lat="64.001724243" lon="-19.100219727">
<ele>891.953125</ele>
<time>2012-07-23T16:43:12Z</time>
<speed>1.060000</speed>
<extensions>
<speed>1.1</speed>
<temp>0.00</temp>
<bpm>0</bpm>
<rpm>0.00</rpm>
</extensions>
</trkpt>
<trkpt lat="64.001747131" lon="-19.100164413">
<ele>892.250000</ele>
<time>2012-07-23T16:43:17Z</time>
<speed>0.050000</speed>
<extensions>
<speed>0.1</speed>
<temp>0.00</temp>
<bpm>0</bpm>
<rpm>0.00</rpm>
</extensions>
</trkpt>
<trkpt lat="64.001762390" lon="-19.100109100">
<ele>892.125000</ele>
<time>2012-07-23T16:43:22Z</time>
<speed>0.830000</speed>
<extensions>
<speed>0.8</speed>
<temp>0.00</temp>
<bpm>0</bpm>
<rpm>0.00</rpm>
</extensions>
</trkpt>
<trkpt lat="64.001770020" lon="-19.100015640">
<ele>890.609375</ele>
<time>2012-07-23T16:43:27Z</time>
<speed>0.870000</speed>
<extensions>
<speed>0.9</speed>
<temp>0.00</temp>
<bpm>0</bpm>
<rpm>0.00</rpm>
</extensions>
</trkpt>
<trkpt lat="64.001770020" lon="-19.099931717">
<ele>889.468750</ele>
<time>2012-07-23T16:43:32Z</time>
<speed>0.980000</speed>
<extensions>
<speed>1.0</speed>
<temp>0.00</temp>
<bpm>0</bpm>
<rpm>0.00</rpm>
</extensions>
</trkpt>
<trkpt lat="64.001800537" lon="-19.099863052">
<ele>888.375000</ele>
<time>2012-07-23T16:43:37Z</time>
<speed>1.080000</speed>
<extensions>
<speed>1.1</speed>
<temp>0.00</temp>
<bpm>0</bpm>
<rpm>0.00</rpm>
</extensions>
</trkpt>
<trkpt lat="64.001823425" lon="-19.099765778">
<ele>887.078125</ele>
<time>2012-07-23T16:43:42Z</time>
<speed>0.830000</speed>
<extensions>
<speed>0.8</speed>
<temp>0.00</temp>
<bpm>0</bpm>
<rpm>0.00</rpm>
</extensions>
</trkpt>
<trkpt lat="64.001838684" lon="-19.099687576">
<ele>885.843750</ele>
<time>2012-07-23T16:43:47Z</time>
<speed>0.870000</speed>
<extensions>
<speed>0.9</speed>
<temp>0.00</temp>
<bpm>0</bpm>
<rpm>0.00</rpm>
</extensions>
</trkpt>
<trkpt lat="64.001853943" lon="-19.099620819">
<ele>885.015625</ele>
<time>2012-07-23T16:43:52Z</time>
<speed>0.760000</speed>
<extensions>
<speed>0.8</speed>
<temp>0.00</temp>
<bpm>0</bpm>
<rpm>0.00</rpm>
</extensions>
</trkpt>
<trkpt lat="64.001869202" lon="-19.099550247">
<ele>883.421875</ele>
<time>2012-07-23T16:43:57Z</time>
<speed>0.860000</speed>
<extensions>
<speed>0.9</speed>
<temp>0.00</temp>
<bpm>0</bpm>
<rpm>0.00</rpm>
</extensions>
</trkpt>
<trkpt lat="64.001884460" lon="-19.099483490">
<ele>882.156250</ele>
<time>2012-07-23T16:44:02Z</time>
<speed>0.730000</speed>
<extensions>
<speed>0.7</speed>
<temp>0.00</temp>
<bpm>0</bpm>
<rpm>0.00</rpm>
</extensions>
</trkpt>
<trkpt lat="64.001892090" lon="-19.099409103">
<ele>880.703125</ele>
<time>2012-07-23T16:44:07Z</time>
<speed>0.850000</speed>
<extensions>
<speed>0.8</speed>
<temp>0.00</temp>
<bpm>0</bpm>
<rpm>0.00</rpm>
</extensions>
</trkpt>
<trkpt lat="64.001914978" lon="-19.099338531">
<ele>879.625000</ele>
<time>2012-07-23T16:44:12Z</time>
<speed>0.720000</speed>
<extensions>
<speed>0.7</speed>
<temp>0.00</temp>
<bpm>0</bpm>
<rpm>0.00</rpm>
</extensions>
</trkpt>
<trkpt lat="64.001930237" lon="-19.099271774">
<ele>878.937500</ele>
<time>2012-07-23T16:44:17Z</time>
<speed>0.650000</speed>
<extensions>
<speed>0.6</speed>
<temp>0.00</temp>
<bpm>0</bpm>
<rpm>0.00</rpm>
</extensions>
</trkpt>
<trkpt lat="64.001930237" lon="-19.099222183">
<ele>878.515625</ele>
<time>2012-07-23T16:44:22Z</time>
<speed>0.570000</speed>
<extensions>
<speed>0.6</speed>
<temp>0.00</temp>
<bpm>0</bpm>
<rpm>0.00</rpm>
</extensions>
</trkpt>
<trkpt lat="64.001937866" lon="-19.099153519">
<ele>876.859375</ele>
<time>2012-07-23T16:44:27Z</time>
<speed>0.790000</speed>
<extensions>
<speed>0.8</speed>
<temp>0.00</temp>
<bpm>0</bpm>
<rpm>0.00</rpm>
</extensions>
</trkpt>
<trkpt lat="64.001945496" lon="-19.099079132">
<ele>877.250000</ele>
<time>2012-07-23T16:44:32Z</time>
<speed>0.900000</speed>
<extensions>
<speed>0.9</speed>
<temp>0.00</temp>
<bpm>0</bpm>
<rpm>0.00</rpm>
</extensions>
</trkpt>
<trkpt lat="64.001953125" lon="-19.098987579">
<ele>876.468750</ele>
<time>2012-07-23T16:44:37Z</time>
<speed>0.540000</speed>
<extensions>
<speed>0.5</speed>
<temp>0.00</temp>
<bpm>0</bpm>
<rpm>0.00</rpm>
</extensions>
</trkpt>
<trkpt lat="64.001953125" lon="-19.098901749">
<ele>876.343750</ele>
<time>2012-07-23T16:44:42Z</time>
<speed>0.750000</speed>
<extensions>
<speed>0.8</speed>
<temp>0.00</temp>
<bpm>0</bpm>
<rpm>0.00</rpm>
</extensions>
</trkpt>
<trkpt lat="64.001953125" lon="-19.098823547">
<ele>875.796875</ele>
<time>2012-07-23T16:44:47Z</time>
<speed>0.730000</speed>
<extensions>
<speed>0.7</speed>
<temp>0.00</temp>
<bpm>0</bpm>
<rpm>0.00</rpm>
</extensions>
</trkpt>
<trkpt lat="64.001930237" lon="-19.098735809">
<ele>875.375000</ele>
<time>2012-07-23T16:44:52Z</time>
<speed>0.880000</speed>
<extensions>
<speed>0.9</speed>
<temp>0.00</temp>
<bpm>0</bpm>
<rpm>0.00</rpm>
</extensions>
</trkpt>
<trkpt lat="64.001945496" lon="-19.098674774">
<ele>873.875000</ele>
<time>2012-07-23T16:44:57Z</time>
<speed>0.690000</speed>
<extensions>
<speed>0.7</speed>
<temp>0.00</temp>
<bpm>0</bpm>
<rpm>0.00</rpm>
</extensions>
</trkpt>
<trkpt lat="64.001968384" lon="-19.098623276">
<ele>872.203125</ele>
<time>2012-07-23T16:45:02Z</time>
<speed>0.970000</speed>
<extensions>
<speed>1.0</speed>
<temp>0.00</temp>
<bpm>0</bpm>
<rpm>0.00</rpm>
</extensions>
</trkpt>
<trkpt lat="64.001991272" lon="-19.098545074">
<ele>873.093750</ele>
<time>2012-07-23T16:45:07Z</time>
<speed>0.850000</speed>
<extensions>
<speed>0.8</speed>
<temp>0.00</temp>
<bpm>0</bpm>
<rpm>0.00</rpm>
</extensions>
</trkpt>
<trkpt lat="64.001998901" lon="-19.098464966">
<ele>871.968750</ele>
<time>2012-07-23T16:45:12Z</time>
<speed>0.800000</speed>
<extensions>
<speed>0.8</speed>
<temp>0.00</temp>
<bpm>0</bpm>
<rpm>0.00</rpm>
</extensions>
</trkpt>
<trkpt lat="64.001998901" lon="-19.098367691">
<ele>871.578125</ele>
<time>2012-07-23T16:45:17Z</time>
<speed>0.760000</speed>
<extensions>
<speed>0.8</speed>
<temp>0.00</temp>
<bpm>0</bpm>
<rpm>0.00</rpm>
</extensions>
</trkpt>
<trkpt lat="64.001991272" lon="-19.098295212">
<ele>870.437500</ele>
<time>2012-07-23T16:45:22Z</time>
<speed>0.820000</speed>
<extensions>
<speed>0.8</speed>
<temp>0.00</temp>
<bpm>0</bpm>
<rpm>0.00</rpm>
</extensions>
</trkpt>
<trkpt lat="64.002006531" lon="-19.098224640">
<ele>869.656250</ele>
<time>2012-07-23T16:45:27Z</time>
<speed>0.990000</speed>
<extensions>
<speed>1.0</speed>
<temp>0.00</temp>
<bpm>0</bpm>
<rpm>0.00</rpm>
</extensions>
</trkpt>
<trkpt lat="64.001991272" lon="-19.098150253">
<ele>869.593750</ele>
<time>2012-07-23T16:45:32Z</time>
<speed>0.760000</speed>
<extensions>
<speed>0.8</speed>
<temp>0.00</temp>
<bpm>0</bpm>
<rpm>0.00</rpm>
</extensions>
</trkpt>
<trkpt lat="64.001976013" lon="-19.098091125">
<ele>869.703125</ele>
<time>2012-07-23T16:45:37Z</time>
<speed>0.460000</speed>
<extensions>
<speed>0.5</speed>
<temp>0.00</temp>
<bpm>0</bpm>
<rpm>0.00</rpm>
</extensions>
</trkpt>
<trkpt lat="64.002006531" lon="-19.098033905">
<ele>869.031250</ele>
<time>2012-07-23T16:45:42Z</time>
<speed>1.010000</speed>
<extensions>
<speed>1.0</speed>
<temp>0.00</temp>
<bpm>0</bpm>
<rpm>0.00</rpm>
</extensions>
</trkpt>
<trkpt lat="64.002014160" lon="-19.097929001">
<ele>869.203125</ele>
<time>2012-07-23T16:45:47Z</time>
<speed>1.010000</speed>
<extensions>
<speed>1.0</speed>
<temp>0.00</temp>
<bpm>0</bpm>
<rpm>0.00</rpm>
</extensions>
</trkpt>
<trkpt lat="64.002021790" lon="-19.097787857">
<ele>868.734375</ele>
<time>2012-07-23T16:45:52Z</time>
<speed>1.230000</speed>
<extensions>
<speed>1.2</speed>
<temp>0.00</temp>
<bpm>0</bpm>
<rpm>0.00</rpm>
</extensions>
</trkpt>
<trkpt lat="64.002021790" lon="-19.097715378">
<ele>869.578125</ele>
<time>2012-07-23T16:45:57Z</time>
<speed>0.160000</speed>
<extensions>
<speed>0.2</speed>
<temp>0.00</temp>
<bpm>0</bpm>
<rpm>0.00</rpm>
</extensions>
</trkpt>
<trkpt lat="64.002021790" lon="-19.097640991">
<ele>869.281250</ele>
<time>2012-07-23T16:46:02Z</time>
<speed>0.950000</speed>
<extensions>
<speed>1.0</speed>
<temp>0.00</temp>
<bpm>0</bpm>
<rpm>0.00</rpm>
</extensions>
</trkpt>
<trkpt lat="64.002021790" lon="-19.097555161">
<ele>869.156250</ele>
<time>2012-07-23T16:46:07Z</time>
<speed>1.000000</speed>
<extensions>
<speed>1.0</speed>
<temp>0.00</temp>
<bpm>0</bpm>
<rpm>0.00</rpm>
</extensions>
</trkpt>
<trkpt lat="64.002037048" lon="-19.097427368">
<ele>869.375000</ele>
<time>2012-07-23T16:46:12Z</time>
<speed>1.430000</speed>
<extensions>
<speed>1.4</speed>
<temp>0.00</temp>
<bpm>0</bpm>
<rpm>0.00</rpm>
</extensions>
</trkpt>
<trkpt lat="64.002029419" lon="-19.097265244">
<ele>868.781250</ele>
<time>2012-07-23T16:46:17Z</time>
<speed>1.470000</speed>
<extensions>
<speed>1.5</speed>
<temp>0.00</temp>
<bpm>0</bpm>
<rpm>0.00</rpm>
</extensions>
</trkpt>
<trkpt lat="64.002021790" lon="-19.097097397">
<ele>869.250000</ele>
<time>2012-07-23T16:46:22Z</time>
<speed>1.500000</speed>
<extensions>
<speed>1.5</speed>
<temp>0.00</temp>
<bpm>0</bpm>
<rpm>0.00</rpm>
</extensions>
</trkpt>
<trkpt lat="64.002006531" lon="-19.096952438">
<ele>869.328125</ele>
<time>2012-07-23T16:46:27Z</time>
<speed>1.570000</speed>
<extensions>
<speed>1.6</speed>
<temp>0.00</temp>
<bpm>0</bpm>
<rpm>0.00</rpm>
</extensions>
</trkpt>
<trkpt lat="64.001991272" lon="-19.096792221">
<ele>868.343750</ele>
<time>2012-07-23T16:46:32Z</time>
<speed>1.480000</speed>
<extensions>
<speed>1.5</speed>
<temp>0.00</temp>
<bpm>0</bpm>
<rpm>0.00</rpm>
</extensions>
</trkpt>
<trkpt lat="64.001991272" lon="-19.096645355">
<ele>869.781250</ele>
<time>2012-07-23T16:46:37Z</time>
<speed>1.210000</speed>
<extensions>
<speed>1.2</speed>
<temp>0.00</temp>
<bpm>0</bpm>
<rpm>0.00</rpm>
</extensions>
</trkpt>
<trkpt lat="64.001983643" lon="-19.096496582">
<ele>870.984375</ele>
<time>2012-07-23T16:46:42Z</time>
<speed>1.340000</speed>
<extensions>
<speed>1.3</speed>
<temp>0.00</temp>
<bpm>0</bpm>
<rpm>0.00</rpm>
</extensions>
</trkpt>
<trkpt lat="64.001983643" lon="-19.096340179">
<ele>872.062500</ele>
<time>2012-07-23T16:46:47Z</time>
<speed>1.440000</speed>
<extensions>
<speed>1.4</speed>
<temp>0.00</temp>
<bpm>0</bpm>
<rpm>0.00</rpm>
</extensions>
</trkpt>
<trkpt lat="64.001968384" lon="-19.096220016">
<ele>872.593750</ele>
<time>2012-07-23T16:46:52Z</time>
<speed>1.240000</speed>
<extensions>
<speed>1.2</speed>
<temp>0.00</temp>
<bpm>0</bpm>
<rpm>0.00</rpm>
</extensions>
</trkpt>
<trkpt lat="64.001953125" lon="-19.096113205">
<ele>874.343750</ele>
<time>2012-07-23T16:46:57Z</time>
<speed>0.690000</speed>
<extensions>
<speed>0.7</speed>
<temp>0.00</temp>
<bpm>0</bpm>
<rpm>0.00</rpm>
</extensions>
</trkpt>
<trkpt lat="64.001922607" lon="-19.095996857">
<ele>874.796875</ele>
<time>2012-07-23T16:47:02Z</time>
<speed>1.090000</speed>
<extensions>
<speed>1.1</speed>
<temp>0.00</temp>
<bpm>0</bpm>
<rpm>0.00</rpm>
</extensions>
</trkpt>
<trkpt lat="64.001876831" lon="-19.095882416">
<ele>874.109375</ele>
<time>2012-07-23T16:47:07Z</time>
<speed>1.210000</speed>
<extensions>
<speed>1.2</speed>
<temp>0.00</temp>
<bpm>0</bpm>
<rpm>0.00</rpm>
</extensions>
</trkpt>
<trkpt lat="64.001838684" lon="-19.095796585">
<ele>874.156250</ele>
<time>2012-07-23T16:47:12Z</time>
<speed>1.310000</speed>
<extensions>
<speed>1.3</speed>
<temp>0.00</temp>
<bpm>0</bpm>
<rpm>0.00</rpm>
</extensions>
</trkpt>
<trkpt lat="64.001808167" lon="-19.095666885">
<ele>875.687500</ele>
<time>2012-07-23T16:47:17Z</time>
<speed>1.290000</speed>
<extensions>
<speed>1.3</speed>
<temp>0.00</temp>
<bpm>0</bpm>
<rpm>0.00</rpm>
</extensions>
</trkpt>
<trkpt lat="64.001777649" lon="-19.095535278">
<ele>876.484375</ele>
<time>2012-07-23T16:47:22Z</time>
<speed>1.200000</speed>
<extensions>
<speed>1.2</speed>
<temp>0.00</temp>
<bpm>0</bpm>
<rpm>0.00</rpm>
</extensions>
</trkpt>
<trkpt lat="64.001747131" lon="-19.095445633">
<ele>877.328125</ele>
<time>2012-07-23T16:47:27Z</time>
<speed>1.210000</speed>
<extensions>
<speed>1.2</speed>
<temp>0.00</temp>
<bpm>0</bpm>
<rpm>0.00</rpm>
</extensions>
</trkpt>
<trkpt lat="64.001701355" lon="-19.095357895">
<ele>876.625000</ele>
<time>2012-07-23T16:47:32Z</time>
<speed>1.230000</speed>
<extensions>
<speed>1.2</speed>
<temp>0.00</temp>
<bpm>0</bpm>
<rpm>0.00</rpm>
</extensions>
</trkpt>
<trkpt lat="64.001640320" lon="-19.095300674">
<ele>874.734375</ele>
<time>2012-07-23T16:47:37Z</time>
<speed>1.250000</speed>
<extensions>
<speed>1.3</speed>
<temp>0.00</temp>
<bpm>0</bpm>
<rpm>0.00</rpm>
</extensions>
</trkpt>
<trkpt lat="64.001586914" lon="-19.095226288">
<ele>874.703125</ele>
<time>2012-07-23T16:47:42Z</time>
<speed>1.270000</speed>
<extensions>
<speed>1.3</speed>
<temp>0.00</temp>
<bpm>0</bpm>
<rpm>0.00</rpm>
</extensions>
</trkpt>
<trkpt lat="64.001541138" lon="-19.095144272">
<ele>875.812500</ele>
<time>2012-07-23T16:47:47Z</time>
<speed>1.200000</speed>
<extensions>
<speed>1.2</speed>
<temp>0.00</temp>
<bpm>0</bpm>
<rpm>0.00</rpm>
</extensions>
</trkpt>
<trkpt lat="64.001495361" lon="-19.095045090">
<ele>876.453125</ele>
<time>2012-07-23T16:47:52Z</time>
<speed>1.270000</speed>
<extensions>
<speed>1.3</speed>
<temp>0.00</temp>
<bpm>0</bpm>
<rpm>0.00</rpm>
</extensions>
</trkpt>
<trkpt lat="64.001426697" lon="-19.094934464">
<ele>875.578125</ele>
<time>2012-07-23T16:47:57Z</time>
<speed>1.390000</speed>
<extensions>
<speed>1.4</speed>
<temp>0.00</temp>
<bpm>0</bpm>
<rpm>0.00</rpm>
</extensions>
</trkpt>
<trkpt lat="64.001373291" lon="-19.094863892">
<ele>875.656250</ele>
<time>2012-07-23T16:48:02Z</time>
<speed>1.380000</speed>
<extensions>
<speed>1.4</speed>
<temp>0.00</temp>
<bpm>0</bpm>
<rpm>0.00</rpm>
</extensions>
</trkpt>
<trkpt lat="64.001312256" lon="-19.094774246">
<ele>875.328125</ele>
<time>2012-07-23T16:48:07Z</time>
<speed>1.310000</speed>
<extensions>
<speed>1.3</speed>
<temp>0.00</temp>
<bpm>0</bpm>
<rpm>0.00</rpm>
</extensions>
</trkpt>
<trkpt lat="64.001251221" lon="-19.094705582">
<ele>874.312500</ele>
<time>2012-07-23T16:48:12Z</time>
<speed>1.440000</speed>
<extensions>
<speed>1.4</speed>
<temp>0.00</temp>
<bpm>0</bpm>
<rpm>0.00</rpm>
</extensions>
</trkpt>
<trkpt lat="64.001190186" lon="-19.094627380">
<ele>873.562500</ele>
<time>2012-07-23T16:48:17Z</time>
<speed>1.410000</speed>
<extensions>
<speed>1.4</speed>
<temp>0.00</temp>
<bpm>0</bpm>
<rpm>0.00</rpm>
</extensions>
</trkpt>
<trkpt lat="64.001136780" lon="-19.094562531">
<ele>873.156250</ele>
<time>2012-07-23T16:48:22Z</time>
<speed>1.430000</speed>
<extensions>
<speed>1.4</speed>
<temp>0.00</temp>
<bpm>0</bpm>
<rpm>0.00</rpm>
</extensions>
</trkpt>
<trkpt lat="64.001098633" lon="-19.094493866">
<ele>872.812500</ele>
<time>2012-07-23T16:48:27Z</time>
<speed>1.230000</speed>
<extensions>
<speed>1.2</speed>
<temp>0.00</temp>
<bpm>0</bpm>
<rpm>0.00</rpm>
</extensions>
</trkpt>
<trkpt lat="64.001037598" lon="-19.094440460">
<ele>872.437500</ele>
<time>2012-07-23T16:48:32Z</time>
<speed>1.440000</speed>
<extensions>
<speed>1.4</speed>
<temp>0.00</temp>
<bpm>0</bpm>
<rpm>0.00</rpm>
</extensions>
</trkpt>
<trkpt lat="64.000976563" lon="-19.094408035">
<ele>872.281250</ele>
<time>2012-07-23T16:48:37Z</time>
<speed>1.340000</speed>
<extensions>
<speed>1.3</speed>
<temp>0.00</temp>
<bpm>0</bpm>
<rpm>0.00</rpm>
</extensions>
</trkpt>
<trkpt lat="64.000923157" lon="-19.094341278">
<ele>870.875000</ele>
<time>2012-07-23T16:48:42Z</time>
<speed>0.130000</speed>
<extensions>
<speed>0.1</speed>
<temp>0.00</temp>
<bpm>0</bpm>
<rpm>0.00</rpm>
</extensions>
</trkpt>
<trkpt lat="64.000923157" lon="-19.094348907">
<ele>871.593750</ele>
<time>2012-07-23T16:48:47Z</time>
<speed>0.090000</speed>
<extensions>
<speed>0.1</speed>
<temp>0.00</temp>
<bpm>0</bpm>
<rpm>0.00</rpm>
</extensions>
</trkpt>
<trkpt lat="64.000892639" lon="-19.094316483">
<ele>871.546875</ele>
<time>2012-07-23T16:48:52Z</time>
<speed>1.200000</speed>
<extensions>
<speed>1.2</speed>
<temp>0.00</temp>
<bpm>0</bpm>
<rpm>0.00</rpm>
</extensions>
</trkpt>
<trkpt lat="64.000816345" lon="-19.094230652">
<ele>870.343750</ele>
<time>2012-07-23T16:48:57Z</time>
<speed>1.300000</speed>
<extensions>
<speed>1.3</speed>
<temp>0.00</temp>
<bpm>0</bpm>
<rpm>0.00</rpm>
</extensions>
</trkpt>
<trkpt lat="64.000762939" lon="-19.094207764">
<ele>869.640625</ele>
<time>2012-07-23T16:49:02Z</time>
<speed>1.320000</speed>
<extensions>
<speed>1.3</speed>
<temp>0.00</temp>
<bpm>0</bpm>
<rpm>0.00</rpm>
</extensions>
</trkpt>
<trkpt lat="64.000724792" lon="-19.094131470">
<ele>868.468750</ele>
<time>2012-07-23T16:49:07Z</time>
<speed>1.090000</speed>
<extensions>
<speed>1.1</speed>
<temp>0.00</temp>
<bpm>0</bpm>
<rpm>0.00</rpm>
</extensions>
</trkpt>
<trkpt lat="64.000686646" lon="-19.094053268">
<ele>867.453125</ele>
<time>2012-07-23T16:49:12Z</time>
<speed>1.300000</speed>
<extensions>
<speed>1.3</speed>
<temp>0.00</temp>
<bpm>0</bpm>
<rpm>0.00</rpm>
</extensions>
</trkpt>
<trkpt lat="64.000648499" lon="-19.093963623">
<ele>866.140625</ele>
<time>2012-07-23T16:49:17Z</time>
<speed>1.180000</speed>
<extensions>
<speed>1.2</speed>
<temp>0.00</temp>
<bpm>0</bpm>
<rpm>0.00</rpm>
</extensions>
</trkpt>
<trkpt lat="64.000610352" lon="-19.093873978">
<ele>864.546875</ele>
<time>2012-07-23T16:49:22Z</time>
<speed>1.290000</speed>
<extensions>
<speed>1.3</speed>
<temp>0.00</temp>
<bpm>0</bpm>
<rpm>0.00</rpm>
</extensions>
</trkpt>
<trkpt lat="64.000572205" lon="-19.093793869">
<ele>863.187500</ele>
<time>2012-07-23T16:49:27Z</time>
<speed>1.260000</speed>
<extensions>
<speed>1.3</speed>
<temp>0.00</temp>
<bpm>0</bpm>
<rpm>0.00</rpm>
</extensions>
</trkpt>
<trkpt lat="64.000534058" lon="-19.093727112">
<ele>862.093750</ele>
<time>2012-07-23T16:49:32Z</time>
<speed>1.310000</speed>
<extensions>
<speed>1.3</speed>
<temp>0.00</temp>
<bpm>0</bpm>
<rpm>0.00</rpm>
</extensions>
</trkpt>
<trkpt lat="64.000488281" lon="-19.093614578">
<ele>859.890625</ele>
<time>2012-07-23T16:49:37Z</time>
<speed>1.270000</speed>
<extensions>
<speed>1.3</speed>
<temp>0.00</temp>
<bpm>0</bpm>
<rpm>0.00</rpm>
</extensions>
</trkpt>
<trkpt lat="64.000473022" lon="-19.093585968">
<ele>859.562500</ele>
<time>2012-07-23T16:49:42Z</time>
<speed>0.880000</speed>
<extensions>
<speed>0.9</speed>
<temp>0.00</temp>
<bpm>0</bpm>
<rpm>0.00</rpm>
</extensions>
</trkpt>
<trkpt lat="64.000442505" lon="-19.093530655">
<ele>859.031250</ele>
<time>2012-07-23T16:49:47Z</time>
<speed>1.400000</speed>
<extensions>
<speed>1.4</speed>
<temp>0.00</temp>
<bpm>0</bpm>
<rpm>0.00</rpm>
</extensions>
</trkpt>
<trkpt lat="64.000419617" lon="-19.093364716">
<ele>858.968750</ele>
<time>2012-07-23T16:49:52Z</time>
<speed>1.230000</speed>
<extensions>
<speed>1.2</speed>
<temp>0.00</temp>
<bpm>0</bpm>
<rpm>0.00</rpm>
</extensions>
</trkpt>
<trkpt lat="64.000389099" lon="-19.093235016">
<ele>859.562500</ele>
<time>2012-07-23T16:49:57Z</time>
<speed>1.160000</speed>
<extensions>
<speed>1.2</speed>
<temp>0.00</temp>
<bpm>0</bpm>
<rpm>0.00</rpm>
</extensions>
</trkpt>
<trkpt lat="64.000373840" lon="-19.093111038">
<ele>859.578125</ele>
<time>2012-07-23T16:50:02Z</time>
<speed>1.350000</speed>
<extensions>
<speed>1.4</speed>
<temp>0.00</temp>
<bpm>0</bpm>
<rpm>0.00</rpm>
</extensions>
</trkpt>
<trkpt lat="64.000381470" lon="-19.092947006">
<ele>860.531250</ele>
<time>2012-07-23T16:50:07Z</time>
<speed>1.500000</speed>
<extensions>
<speed>1.5</speed>
<temp>0.00</temp>
<bpm>0</bpm>
<rpm>0.00</rpm>
</extensions>
</trkpt>
<trkpt lat="64.000373840" lon="-19.092819214">
<ele>862.609375</ele>
<time>2012-07-23T16:50:12Z</time>
<speed>1.170000</speed>
<extensions>
<speed>1.2</speed>
<temp>0.00</temp>
<bpm>0</bpm>
<rpm>0.00</rpm>
</extensions>
</trkpt>
<trkpt lat="64.000350952" lon="-19.092681885">
<ele>862.375000</ele>
<time>2012-07-23T16:50:17Z</time>
<speed>1.320000</speed>
<extensions>
<speed>1.3</speed>
<temp>0.00</temp>
<bpm>0</bpm>
<rpm>0.00</rpm>
</extensions>
</trkpt>
<trkpt lat="64.000328064" lon="-19.092527390">
<ele>862.765625</ele>
<time>2012-07-23T16:50:22Z</time>
<speed>1.370000</speed>
<extensions>
<speed>1.4</speed>
<temp>0.00</temp>
<bpm>0</bpm>
<rpm>0.00</rpm>
</extensions>
</trkpt>
<trkpt lat="64.000312805" lon="-19.092399597">
<ele>863.312500</ele>
<time>2012-07-23T16:50:27Z</time>
<speed>1.340000</speed>
<extensions>
<speed>1.3</speed>
<temp>0.00</temp>
<bpm>0</bpm>
<rpm>0.00</rpm>
</extensions>
</trkpt>
<trkpt lat="64.000312805" lon="-19.092256546">
<ele>863.578125</ele>
<time>2012-07-23T16:50:32Z</time>
<speed>1.470000</speed>
<extensions>
<speed>1.5</speed>
<temp>0.00</temp>
<bpm>0</bpm>
<rpm>0.00</rpm>
</extensions>
</trkpt>
<trkpt lat="64.000312805" lon="-19.092123032">
<ele>865.062500</ele>
<time>2012-07-23T16:50:37Z</time>
<speed>1.630000</speed>
<extensions>
<speed>1.6</speed>
<temp>0.00</temp>
<bpm>0</bpm>
<rpm>0.00</rpm>
</extensions>
</trkpt>
<trkpt lat="64.000312805" lon="-19.091962814">
<ele>866.375000</ele>
<time>2012-07-23T16:50:42Z</time>
<speed>1.290000</speed>
<extensions>
<speed>1.3</speed>
<temp>0.00</temp>
<bpm>0</bpm>
<rpm>0.00</rpm>
</extensions>
</trkpt>
<trkpt lat="64.000328064" lon="-19.091783524">
<ele>868.578125</ele>
<time>2012-07-23T16:50:47Z</time>
<speed>1.630000</speed>
<extensions>
<speed>1.6</speed>
<temp>0.00</temp>
<bpm>0</bpm>
<rpm>0.00</rpm>
</extensions>
</trkpt>
<trkpt lat="64.000335693" lon="-19.091627121">
<ele>869.109375</ele>
<time>2012-07-23T16:50:52Z</time>
<speed>1.510000</speed>
<extensions>
<speed>1.5</speed>
<temp>0.00</temp>
<bpm>0</bpm>
<rpm>0.00</rpm>
</extensions>
</trkpt>
<trkpt lat="64.000335693" lon="-19.091470718">
<ele>869.578125</ele>
<time>2012-07-23T16:50:57Z</time>
<speed>1.410000</speed>
<extensions>
<speed>1.4</speed>
<temp>0.00</temp>
<bpm>0</bpm>
<rpm>0.00</rpm>
</extensions>
</trkpt>
<trkpt lat="64.000343323" lon="-19.091337204">
<ele>869.296875</ele>
<time>2012-07-23T16:51:02Z</time>
<speed>1.440000</speed>
<extensions>
<speed>1.4</speed>
<temp>0.00</temp>
<bpm>0</bpm>
<rpm>0.00</rpm>
</extensions>
</trkpt>
<trkpt lat="64.000335693" lon="-19.091207504">
<ele>865.765625</ele>
<time>2012-07-23T16:51:07Z</time>
<speed>1.490000</speed>
<extensions>
<speed>1.5</speed>
<temp>0.00</temp>
<bpm>0</bpm>
<rpm>0.00</rpm>
</extensions>
</trkpt>
<trkpt lat="64.000350952" lon="-19.091062546">
<ele>867.968750</ele>
<time>2012-07-23T16:51:12Z</time>
<speed>1.420000</speed>
<extensions>
<speed>1.4</speed>
<temp>0.00</temp>
<bpm>0</bpm>
<rpm>0.00</rpm>
</extensions>
</trkpt>
<trkpt lat="64.000343323" lon="-19.090934753">
<ele>869.390625</ele>
<time>2012-07-23T16:51:17Z</time>
<speed>1.440000</speed>
<extensions>
<speed>1.4</speed>
<temp>0.00</temp>
<bpm>0</bpm>
<rpm>0.00</rpm>
</extensions>
</trkpt>
<trkpt lat="64.000328064" lon="-19.090826035">
<ele>869.156250</ele>
<time>2012-07-23T16:51:22Z</time>
<speed>0.940000</speed>
<extensions>
<speed>0.9</speed>
<temp>0.00</temp>
<bpm>0</bpm>
<rpm>0.00</rpm>
</extensions>
</trkpt>
<trkpt lat="64.000312805" lon="-19.090770721">
<ele>867.687500</ele>
<time>2012-07-23T16:51:27Z</time>
<speed>0.280000</speed>
<extensions>
<speed>0.3</speed>
<temp>0.00</temp>
<bpm>0</bpm>
<rpm>0.00</rpm>
</extensions>
</trkpt>
<trkpt lat="64.000312805" lon="-19.090715408">
<ele>864.906250</ele>
<time>2012-07-23T16:51:32Z</time>
<speed>1.070000</speed>
<extensions>
<speed>1.1</speed>
<temp>0.00</temp>
<bpm>0</bpm>
<rpm>0.00</rpm>
</extensions>
</trkpt>
<trkpt lat="64.000328064" lon="-19.090602875">
<ele>866.890625</ele>
<time>2012-07-23T16:51:37Z</time>
<speed>0.860000</speed>
<extensions>
<speed>0.9</speed>
<temp>0.00</temp>
<bpm>0</bpm>
<rpm>0.00</rpm>
</extensions>
</trkpt>
<trkpt lat="64.000328064" lon="-19.090486526">
<ele>868.156250</ele>
<time>2012-07-23T16:51:42Z</time>
<speed>1.130000</speed>
<extensions>
<speed>1.1</speed>
<temp>0.00</temp>
<bpm>0</bpm>
<rpm>0.00</rpm>
</extensions>
</trkpt>
<trkpt lat="64.000328064" lon="-19.090385437">
<ele>865.828125</ele>
<time>2012-07-23T16:51:47Z</time>
<speed>1.450000</speed>
<extensions>
<speed>1.4</speed>
<temp>0.00</temp>
<bpm>0</bpm>
<rpm>0.00</rpm>
</extensions>
</trkpt>
<trkpt lat="64.000335693" lon="-19.090265274">
<ele>866.453125</ele>
<time>2012-07-23T16:51:52Z</time>
<speed>0.950000</speed>
<extensions>
<speed>1.0</speed>
<temp>0.00</temp>
<bpm>0</bpm>
<rpm>0.00</rpm>
</extensions>
</trkpt>
<trkpt lat="64.000335693" lon="-19.090171814">
<ele>867.000000</ele>
<time>2012-07-23T16:51:57Z</time>
<speed>1.010000</speed>
<extensions>
<speed>1.0</speed>
<temp>0.00</temp>
<bpm>0</bpm>
<rpm>0.00</rpm>
</extensions>
</trkpt>
<trkpt lat="64.000328064" lon="-19.090114594">
<ele>868.421875</ele>
<time>2012-07-23T16:52:02Z</time>
<speed>0.050000</speed>
<extensions>
<speed>0.1</speed>
<temp>0.00</temp>
<bpm>0</bpm>
<rpm>0.00</rpm>
</extensions>
</trkpt>
<trkpt lat="64.000328064" lon="-19.090099335">
<ele>868.312500</ele>
<time>2012-07-23T16:52:07Z</time>
<speed>0.010000</speed>
<extensions>
<speed>0.0</speed>
<temp>0.00</temp>
<bpm>0</bpm>
<rpm>0.00</rpm>
</extensions>
</trkpt>
<trkpt lat="64.000320435" lon="-19.090028763">
<ele>868.625000</ele>
<time>2012-07-23T16:52:12Z</time>
<speed>0.960000</speed>
<extensions>
<speed>1.0</speed>
<temp>0.00</temp>
<bpm>0</bpm>
<rpm>0.00</rpm>
</extensions>
</trkpt>
<trkpt lat="64.000289917" lon="-19.089931488">
<ele>868.046875</ele>
<time>2012-07-23T16:52:17Z</time>
<speed>0.530000</speed>
<extensions>
<speed>0.5</speed>
<temp>0.00</temp>
<bpm>0</bpm>
<rpm>0.00</rpm>
</extensions>
</trkpt>
<trkpt lat="64.000274658" lon="-19.089887619">
<ele>867.906250</ele>
<time>2012-07-23T16:52:22Z</time>
<speed>0.930000</speed>
<extensions>
<speed>0.9</speed>
<temp>0.00</temp>
<bpm>0</bpm>
<rpm>0.00</rpm>
</extensions>
</trkpt>
<trkpt lat="64.000259399" lon="-19.089807510">
<ele>868.093750</ele>
<time>2012-07-23T16:52:27Z</time>
<speed>0.930000</speed>
<extensions>
<speed>0.9</speed>
<temp>0.00</temp>
<bpm>0</bpm>
<rpm>0.00</rpm>
</extensions>
</trkpt>
<trkpt lat="64.000251770" lon="-19.089756012">
<ele>869.359375</ele>
<time>2012-07-23T16:52:32Z</time>
<speed>0.790000</speed>
<extensions>
<speed>0.8</speed>
<temp>0.00</temp>
<bpm>0</bpm>
<rpm>0.00</rpm>
</extensions>
</trkpt>
<trkpt lat="64.000259399" lon="-19.089710236">
<ele>868.125000</ele>
<time>2012-07-23T16:52:37Z</time>
<speed>1.040000</speed>
<extensions>
<speed>1.0</speed>
<temp>0.00</temp>
<bpm>0</bpm>
<rpm>0.00</rpm>
</extensions>
</trkpt>
<trkpt lat="64.000259399" lon="-19.089637756">
<ele>867.234375</ele>
<time>2012-07-23T16:52:42Z</time>
<speed>0.880000</speed>
<extensions>
<speed>0.9</speed>
<temp>0.00</temp>
<bpm>0</bpm>
<rpm>0.00</rpm>
</extensions>
</trkpt>
<trkpt lat="64.000259399" lon="-19.089569092">
<ele>867.921875</ele>
<time>2012-07-23T16:52:47Z</time>
<speed>1.000000</speed>
<extensions>
<speed>1.0</speed>
<temp>0.00</temp>
<bpm>0</bpm>
<rpm>0.00</rpm>
</extensions>
</trkpt>
<trkpt lat="64.000259399" lon="-19.089450836">
<ele>870.140625</ele>
<time>2012-07-23T16:52:52Z</time>
<speed>1.030000</speed>
<extensions>
<speed>1.0</speed>
<temp>0.00</temp>
<bpm>0</bpm>
<rpm>0.00</rpm>
</extensions>
</trkpt>
<trkpt lat="64.000259399" lon="-19.089378357">
<ele>870.062500</ele>
<time>2012-07-23T16:52:57Z</time>
<speed>0.970000</speed>
<extensions>
<speed>1.0</speed>
<temp>0.00</temp>
<bpm>0</bpm>
<rpm>0.00</rpm>
</extensions>
</trkpt>
<trkpt lat="64.000267029" lon="-19.089313507">
<ele>871.250000</ele>
<time>2012-07-23T16:53:02Z</time>
<speed>0.900000</speed>
<extensions>
<speed>0.9</speed>
<temp>0.00</temp>
<bpm>0</bpm>
<rpm>0.00</rpm>
</extensions>
</trkpt>
<trkpt lat="64.000274658" lon="-19.089191437">
<ele>872.734375</ele>
<time>2012-07-23T16:53:07Z</time>
<speed>1.130000</speed>
<extensions>
<speed>1.1</speed>
<temp>0.00</temp>
<bpm>0</bpm>
<rpm>0.00</rpm>
</extensions>
</trkpt>
<trkpt lat="64.000289917" lon="-19.089046478">
<ele>874.796875</ele>
<time>2012-07-23T16:53:12Z</time>
<speed>1.110000</speed>
<extensions>
<speed>1.1</speed>
<temp>0.00</temp>
<bpm>0</bpm>
<rpm>0.00</rpm>
</extensions>
</trkpt>
<trkpt lat="64.000289917" lon="-19.088930130">
<ele>876.171875</ele>
<time>2012-07-23T16:53:17Z</time>
<speed>1.010000</speed>
<extensions>
<speed>1.0</speed>
<temp>0.00</temp>
<bpm>0</bpm>
<rpm>0.00</rpm>
</extensions>
</trkpt>
<trkpt lat="64.000259399" lon="-19.088846207">
<ele>875.906250</ele>
<time>2012-07-23T16:53:22Z</time>
<speed>1.100000</speed>
<extensions>
<speed>1.1</speed>
<temp>0.00</temp>
<bpm>0</bpm>
<rpm>0.00</rpm>
</extensions>
</trkpt>
<trkpt lat="64.000244141" lon="-19.088708878">
<ele>875.843750</ele>
<time>2012-07-23T16:53:27Z</time>
<speed>1.200000</speed>
<extensions>
<speed>1.2</speed>
<temp>0.00</temp>
<bpm>0</bpm>
<rpm>0.00</rpm>
</extensions>
</trkpt>
<trkpt lat="64.000228882" lon="-19.088577271">
<ele>874.953125</ele>
<time>2012-07-23T16:53:32Z</time>
<speed>1.370000</speed>
<extensions>
<speed>1.4</speed>
<temp>0.00</temp>
<bpm>0</bpm>
<rpm>0.00</rpm>
</extensions>
</trkpt>
<trkpt lat="64.000244141" lon="-19.088491440">
<ele>879.062500</ele>
<time>2012-07-23T16:53:37Z</time>
<speed>0.520000</speed>
<extensions>
<speed>0.5</speed>
<temp>0.00</temp>
<bpm>0</bpm>
<rpm>0.00</rpm>
</extensions>
</trkpt>
<trkpt lat="64.000228882" lon="-19.088464737">
<ele>879.046875</ele>
<time>2012-07-23T16:53:42Z</time>
<speed>1.300000</speed>
<extensions>
<speed>1.3</speed>
<temp>0.00</temp>
<bpm>0</bpm>
<rpm>0.00</rpm>
</extensions>
</trkpt>
<trkpt lat="64.000213623" lon="-19.088323593">
<ele>879.953125</ele>
<time>2012-07-23T16:53:47Z</time>
<speed>1.340000</speed>
<extensions>
<speed>1.3</speed>
<temp>0.00</temp>
<bpm>0</bpm>
<rpm>0.00</rpm>
</extensions>
</trkpt>
<trkpt lat="64.000213623" lon="-19.088178635">
<ele>881.781250</ele>
<time>2012-07-23T16:53:52Z</time>
<speed>1.330000</speed>
<extensions>
<speed>1.3</speed>
<temp>0.00</temp>
<bpm>0</bpm>
<rpm>0.00</rpm>
</extensions>
</trkpt>
<trkpt lat="64.000205994" lon="-19.088047028">
<ele>882.156250</ele>
<time>2012-07-23T16:53:57Z</time>
<speed>1.290000</speed>
<extensions>
<speed>1.3</speed>
<temp>0.00</temp>
<bpm>0</bpm>
<rpm>0.00</rpm>
</extensions>
</trkpt>
<trkpt lat="64.000198364" lon="-19.087892532">
<ele>881.750000</ele>
<time>2012-07-23T16:54:02Z</time>
<speed>1.230000</speed>
<extensions>
<speed>1.2</speed>
<temp>0.00</temp>
<bpm>0</bpm>
<rpm>0.00</rpm>
</extensions>
</trkpt>
<trkpt lat="64.000205994" lon="-19.087774277">
<ele>882.687500</ele>
<time>2012-07-23T16:54:07Z</time>
<speed>1.380000</speed>
<extensions>
<speed>1.4</speed>
<temp>0.00</temp>
<bpm>0</bpm>
<rpm>0.00</rpm>
</extensions>
</trkpt>
<trkpt lat="64.000205994" lon="-19.087652206">
<ele>881.765625</ele>
<time>2012-07-23T16:54:12Z</time>
<speed>1.360000</speed>
<extensions>
<speed>1.4</speed>
<temp>0.00</temp>
<bpm>0</bpm>
<rpm>0.00</rpm>
</extensions>
</trkpt>
<trkpt lat="64.000213623" lon="-19.087516785">
<ele>881.312500</ele>
<time>2012-07-23T16:54:17Z</time>
<speed>1.310000</speed>
<extensions>
<speed>1.3</speed>
<temp>0.00</temp>
<bpm>0</bpm>
<rpm>0.00</rpm>
</extensions>
</trkpt>
<trkpt lat="64.000228882" lon="-19.087371826">
<ele>882.218750</ele>
<time>2012-07-23T16:54:22Z</time>
<speed>1.360000</speed>
<extensions>
<speed>1.4</speed>
<temp>0.00</temp>
<bpm>0</bpm>
<rpm>0.00</rpm>
</extensions>
</trkpt>
<trkpt lat="64.000236511" lon="-19.087224960">
<ele>881.359375</ele>
<time>2012-07-23T16:54:27Z</time>
<speed>1.440000</speed>
<extensions>
<speed>1.4</speed>
<temp>0.00</temp>
<bpm>0</bpm>
<rpm>0.00</rpm>
</extensions>
</trkpt>
<trkpt lat="64.000251770" lon="-19.087087631">
<ele>882.234375</ele>
<time>2012-07-23T16:54:32Z</time>
<speed>1.110000</speed>
<extensions>
<speed>1.1</speed>
<temp>0.00</temp>
<bpm>0</bpm>
<rpm>0.00</rpm>
</extensions>
</trkpt>
<trkpt lat="64.000251770" lon="-19.086952209">
<ele>883.515625</ele>
<time>2012-07-23T16:54:37Z</time>
<speed>1.140000</speed>
<extensions>
<speed>1.1</speed>
<temp>0.00</temp>
<bpm>0</bpm>
<rpm>0.00</rpm>
</extensions>
</trkpt>
<trkpt lat="64.000244141" lon="-19.086828232">
<ele>884.312500</ele>
<time>2012-07-23T16:54:42Z</time>
<speed>0.980000</speed>
<extensions>
<speed>1.0</speed>
<temp>0.00</temp>
<bpm>0</bpm>
<rpm>0.00</rpm>
</extensions>
</trkpt>
<trkpt lat="64.000190735" lon="-19.086780548">
<ele>881.906250</ele>
<time>2012-07-23T16:54:47Z</time>
<speed>0.430000</speed>
<extensions>
<speed>0.4</speed>
<temp>0.00</temp>
<bpm>0</bpm>
<rpm>0.00</rpm>
</extensions>
</trkpt>
<trkpt lat="64.000183105" lon="-19.086782455">
<ele>881.171875</ele>
<time>2012-07-23T16:54:52Z</time>
<extensions>
<speed>0.0</speed>
<temp>0.00</temp>
<bpm>0</bpm>
<rpm>0.00</rpm>
</extensions>
</trkpt>
<trkpt lat="64.000160217" lon="-19.086763382">
<ele>880.453125</ele>
<time>2012-07-23T16:54:57Z</time>
<speed>0.290000</speed>
<extensions>
<speed>0.3</speed>
<temp>0.00</temp>
<bpm>0</bpm>
<rpm>0.00</rpm>
</extensions>
</trkpt>
<trkpt lat="64.000152588" lon="-19.086748123">
<ele>879.671875</ele>
<time>2012-07-23T16:55:02Z</time>
<speed>0.050000</speed>
<extensions>
<speed>0.1</speed>
<temp>0.00</temp>
<bpm>0</bpm>
<rpm>0.00</rpm>
</extensions>
</trkpt>
<trkpt lat="64.000152588" lon="-19.086748123">
<ele>879.609375</ele>
<time>2012-07-23T16:55:07Z</time>
<speed>0.010000</speed>
<extensions>
<speed>0.0</speed>
<temp>0.00</temp>
<bpm>0</bpm>
<rpm>0.00</rpm>
</extensions>
</trkpt>
<trkpt lat="64.000152588" lon="-19.086748123">
<ele>879.578125</ele>
<time>2012-07-23T16:55:12Z</time>
<speed>0.640000</speed>
<extensions>
<speed>0.6</speed>
<temp>0.00</temp>
<bpm>0</bpm>
<rpm>0.00</rpm>
</extensions>
</trkpt>
<trkpt lat="64.000198364" lon="-19.086666107">
<ele>878.687500</ele>
<time>2012-07-23T16:55:17Z</time>
<speed>1.390000</speed>
<extensions>
<speed>1.4</speed>
<temp>0.00</temp>
<bpm>0</bpm>
<rpm>0.00</rpm>
</extensions>
</trkpt>
<trkpt lat="64.000221252" lon="-19.086534500">
<ele>878.468750</ele>
<time>2012-07-23T16:55:22Z</time>
<speed>1.490000</speed>
<extensions>
<speed>1.5</speed>
<temp>0.00</temp>
<bpm>0</bpm>
<rpm>0.00</rpm>
</extensions>
</trkpt>
<trkpt lat="64.000236511" lon="-19.086364746">
<ele>879.796875</ele>
<time>2012-07-23T16:55:27Z</time>
<speed>1.300000</speed>
<extensions>
<speed>1.3</speed>
<temp>0.00</temp>
<bpm>0</bpm>
<rpm>0.00</rpm>
</extensions>
</trkpt>
<trkpt lat="64.000251770" lon="-19.086238861">
<ele>881.687500</ele>
<time>2012-07-23T16:55:32Z</time>
<speed>1.500000</speed>
<extensions>
<speed>1.5</speed>
<temp>0.00</temp>
<bpm>0</bpm>
<rpm>0.00</rpm>
</extensions>
</trkpt>
<trkpt lat="64.000251770" lon="-19.086088181">
<ele>883.968750</ele>
<time>2012-07-23T16:55:37Z</time>
<speed>1.020000</speed>
<extensions>
<speed>1.0</speed>
<temp>0.00</temp>
<bpm>0</bpm>
<rpm>0.00</rpm>
</extensions>
</trkpt>
<trkpt lat="64.000259399" lon="-19.085985184">
<ele>885.156250</ele>
<time>2012-07-23T16:55:42Z</time>
<speed>1.450000</speed>
<extensions>
<speed>1.4</speed>
<temp>0.00</temp>
<bpm>0</bpm>
<rpm>0.00</rpm>
</extensions>
</trkpt>
<trkpt lat="64.000274658" lon="-19.085840225">
<ele>887.078125</ele>
<time>2012-07-23T16:55:47Z</time>
<speed>1.600000</speed>
<extensions>
<speed>1.6</speed>
<temp>0.00</temp>
<bpm>0</bpm>
<rpm>0.00</rpm>
</extensions>
</trkpt>
<trkpt lat="64.000289917" lon="-19.085676193">
<ele>888.609375</ele>
<time>2012-07-23T16:55:52Z</time>
<speed>1.520000</speed>
<extensions>
<speed>1.5</speed>
<temp>0.00</temp>
<bpm>0</bpm>
<rpm>0.00</rpm>
</extensions>
</trkpt>
<trkpt lat="64.000297546" lon="-19.085563660">
<ele>889.796875</ele>
<time>2012-07-23T16:55:57Z</time>
<speed>1.010000</speed>
<extensions>
<speed>1.0</speed>
<temp>0.00</temp>
<bpm>0</bpm>
<rpm>0.00</rpm>
</extensions>
</trkpt>
<trkpt lat="64.000282288" lon="-19.085472107">
<ele>887.718750</ele>
<time>2012-07-23T16:56:02Z</time>
<speed>0.880000</speed>
<extensions>
<speed>0.9</speed>
<temp>0.00</temp>
<bpm>0</bpm>
<rpm>0.00</rpm>
</extensions>
</trkpt>
<trkpt lat="64.000274658" lon="-19.085395813">
<ele>888.078125</ele>
<time>2012-07-23T16:56:07Z</time>
<speed>0.820000</speed>
<extensions>
<speed>0.8</speed>
<temp>0.00</temp>
<bpm>0</bpm>
<rpm>0.00</rpm>
</extensions>
</trkpt>
<trkpt lat="64.000267029" lon="-19.085367203">
<ele>888.984375</ele>
<time>2012-07-23T16:56:12Z</time>
<speed>0.330000</speed>
<extensions>
<speed>0.3</speed>
<temp>0.00</temp>
<bpm>0</bpm>
<rpm>0.00</rpm>
</extensions>
</trkpt>
<trkpt lat="64.000244141" lon="-19.085325241">
<ele>890.093750</ele>
<time>2012-07-23T16:56:17Z</time>
<speed>0.680000</speed>
<extensions>
<speed>0.7</speed>
<temp>0.00</temp>
<bpm>0</bpm>
<rpm>0.00</rpm>
</extensions>
</trkpt>
<trkpt lat="64.000251770" lon="-19.085258484">
<ele>891.171875</ele>
<time>2012-07-23T16:56:22Z</time>
<speed>0.620000</speed>
<extensions>
<speed>0.6</speed>
<temp>0.00</temp>
<bpm>0</bpm>
<rpm>0.00</rpm>
</extensions>
</trkpt>
<trkpt lat="64.000251770" lon="-19.085168839">
<ele>892.531250</ele>
<time>2012-07-23T16:56:27Z</time>
<speed>0.590000</speed>
<extensions>
<speed>0.6</speed>
<temp>0.00</temp>
<bpm>0</bpm>
<rpm>0.00</rpm>
</extensions>
</trkpt>
<trkpt lat="64.000244141" lon="-19.085102081">
<ele>893.453125</ele>
<time>2012-07-23T16:56:32Z</time>
<speed>0.630000</speed>
<extensions>
<speed>0.6</speed>
<temp>0.00</temp>
<bpm>0</bpm>
<rpm>0.00</rpm>
</extensions>
</trkpt>
<trkpt lat="64.000221252" lon="-19.085023880">
<ele>895.781250</ele>
<time>2012-07-23T16:56:37Z</time>
<speed>0.970000</speed>
<extensions>
<speed>1.0</speed>
<temp>0.00</temp>
<bpm>0</bpm>
<rpm>0.00</rpm>
</extensions>
</trkpt>
<trkpt lat="64.000190735" lon="-19.084960938">
<ele>897.656250</ele>
<time>2012-07-23T16:56:42Z</time>
<speed>0.560000</speed>
<extensions>
<speed>0.6</speed>
<temp>0.00</temp>
<bpm>0</bpm>
<rpm>0.00</rpm>
</extensions>
</trkpt>
<trkpt lat="64.000175476" lon="-19.084918976">
<ele>898.562500</ele>
<time>2012-07-23T16:56:47Z</time>
<speed>0.380000</speed>
<extensions>
<speed>0.4</speed>
<temp>0.00</temp>
<bpm>0</bpm>
<rpm>0.00</rpm>
</extensions>
</trkpt>
<trkpt lat="64.000167847" lon="-19.084905624">
<ele>898.125000</ele>
<time>2012-07-23T16:56:52Z</time>
<speed>0.160000</speed>
<extensions>
<speed>0.2</speed>
<temp>0.00</temp>
<bpm>0</bpm>
<rpm>0.00</rpm>
</extensions>
</trkpt>
<trkpt lat="64.000160217" lon="-19.084905624">
<ele>898.484375</ele>
<time>2012-07-23T16:56:57Z</time>
<extensions>
<speed>0.0</speed>
<temp>0.00</temp>
<bpm>0</bpm>
<rpm>0.00</rpm>
</extensions>
</trkpt>
<trkpt lat="64.000160217" lon="-19.084905624">
<ele>898.453125</ele>
<time>2012-07-23T16:57:02Z</time>
<speed>0.010000</speed>
<extensions>
<speed>0.0</speed>
<temp>0.00</temp>
<bpm>0</bpm>
<rpm>0.00</rpm>
</extensions>
</trkpt>
<trkpt lat="64.000160217" lon="-19.084903717">
<ele>898.437500</ele>
<time>2012-07-23T16:57:07Z</time>
<speed>0.020000</speed>
<extensions>
<speed>0.0</speed>
<temp>0.00</temp>
<bpm>0</bpm>
<rpm>0.00</rpm>
</extensions>
</trkpt>
<trkpt lat="64.000160217" lon="-19.084903717">
<ele>898.375000</ele>
<time>2012-07-23T16:57:12Z</time>
<speed>0.010000</speed>
<extensions>
<speed>0.0</speed>
<temp>0.00</temp>
<bpm>0</bpm>
<rpm>0.00</rpm>
</extensions>
</trkpt>
<trkpt lat="64.000160217" lon="-19.084899902">
<ele>897.984375</ele>
<time>2012-07-23T16:57:17Z</time>
<speed>0.040000</speed>
<extensions>
<speed>0.0</speed>
<temp>0.00</temp>
<bpm>0</bpm>
<rpm>0.00</rpm>
</extensions>
</trkpt>
<trkpt lat="64.000160217" lon="-19.084896088">
<ele>897.140625</ele>
<time>2012-07-23T16:57:22Z</time>
<speed>0.670000</speed>
<extensions>
<speed>0.7</speed>
<temp>0.00</temp>
<bpm>0</bpm>
<rpm>0.00</rpm>
</extensions>
</trkpt>
<trkpt lat="64.000152588" lon="-19.084774017">
<ele>898.015625</ele>
<time>2012-07-23T16:57:27Z</time>
<speed>1.110000</speed>
<extensions>
<speed>1.1</speed>
<temp>0.00</temp>
<bpm>0</bpm>
<rpm>0.00</rpm>
</extensions>
</trkpt>
<trkpt lat="64.000129700" lon="-19.084697723">
<ele>898.500000</ele>
<time>2012-07-23T16:57:32Z</time>
<speed>0.740000</speed>
<extensions>
<speed>0.7</speed>
<temp>0.00</temp>
<bpm>0</bpm>
<rpm>0.00</rpm>
</extensions>
</trkpt>
<trkpt lat="64.000129700" lon="-19.084583282">
<ele>899.437500</ele>
<time>2012-07-23T16:57:37Z</time>
<speed>0.740000</speed>
<extensions>
<speed>0.7</speed>
<temp>0.00</temp>
<bpm>0</bpm>
<rpm>0.00</rpm>
</extensions>
</trkpt>
<trkpt lat="64.000114441" lon="-19.084535599">
<ele>899.765625</ele>
<time>2012-07-23T16:57:42Z</time>
<speed>0.500000</speed>
<extensions>
<speed>0.5</speed>
<temp>0.00</temp>
<bpm>0</bpm>
<rpm>0.00</rpm>
</extensions>
</trkpt>
<trkpt lat="64.000129700" lon="-19.084461212">
<ele>900.234375</ele>
<time>2012-07-23T16:57:47Z</time>
<speed>1.170000</speed>
<extensions>
<speed>1.2</speed>
<temp>0.00</temp>
<bpm>0</bpm>
<rpm>0.00</rpm>
</extensions>
</trkpt>
<trkpt lat="64.000114441" lon="-19.084379196">
<ele>899.500000</ele>
<time>2012-07-23T16:57:52Z</time>
<speed>0.840000</speed>
<extensions>
<speed>0.8</speed>
<temp>0.00</temp>
<bpm>0</bpm>
<rpm>0.00</rpm>
</extensions>
</trkpt>
<trkpt lat="64.000091553" lon="-19.084276199">
<ele>898.906250</ele>
<time>2012-07-23T16:57:57Z</time>
<speed>1.870000</speed>
<extensions>
<speed>1.9</speed>
<temp>0.00</temp>
<bpm>0</bpm>
<rpm>0.00</rpm>
</extensions>
</trkpt>
<trkpt lat="64.000068665" lon="-19.084154129">
<ele>898.609375</ele>
<time>2012-07-23T16:58:02Z</time>
<speed>0.310000</speed>
<extensions>
<speed>0.3</speed>
<temp>0.00</temp>
<bpm>0</bpm>
<rpm>0.00</rpm>
</extensions>
</trkpt>
<trkpt lat="64.000045776" lon="-19.084146500">
<ele>898.375000</ele>
<time>2012-07-23T16:58:07Z</time>
<speed>0.470000</speed>
<extensions>
<speed>0.5</speed>
<temp>0.00</temp>
<bpm>0</bpm>
<rpm>0.00</rpm>
</extensions>
</trkpt>
<trkpt lat="64.000045776" lon="-19.084041595">
<ele>898.625000</ele>
<time>2012-07-23T16:58:12Z</time>
<speed>1.450000</speed>
<extensions>
<speed>1.4</speed>
<temp>0.00</temp>
<bpm>0</bpm>
<rpm>0.00</rpm>
</extensions>
</trkpt>
<trkpt lat="64.000038147" lon="-19.083934784">
<ele>898.250000</ele>
<time>2012-07-23T16:58:17Z</time>
<speed>0.760000</speed>
<extensions>
<speed>0.8</speed>
<temp>0.00</temp>
<bpm>0</bpm>
<rpm>0.00</rpm>
</extensions>
</trkpt>
<trkpt lat="64.000022888" lon="-19.083862305">
<ele>897.562500</ele>
<time>2012-07-23T16:58:22Z</time>
<speed>0.920000</speed>
<extensions>
<speed>0.9</speed>
<temp>0.00</temp>
<bpm>0</bpm>
<rpm>0.00</rpm>
</extensions>
</trkpt>
<trkpt lat="64.000015259" lon="-19.083749771">
<ele>897.421875</ele>
<time>2012-07-23T16:58:27Z</time>
<speed>1.190000</speed>
<extensions>
<speed>1.2</speed>
<temp>0.00</temp>
<bpm>0</bpm>
<rpm>0.00</rpm>
</extensions>
</trkpt>
<trkpt lat="64.000030518" lon="-19.083623886">
<ele>897.781250</ele>
<time>2012-07-23T16:58:32Z</time>
<speed>1.400000</speed>
<extensions>
<speed>1.4</speed>
<temp>0.00</temp>
<bpm>0</bpm>
<rpm>0.00</rpm>
</extensions>
</trkpt>
<trkpt lat="64.000045776" lon="-19.083469391">
<ele>898.078125</ele>
<time>2012-07-23T16:58:37Z</time>
<speed>1.590000</speed>
<extensions>
<speed>1.6</speed>
<temp>0.00</temp>
<bpm>0</bpm>
<rpm>0.00</rpm>
</extensions>
</trkpt>
<trkpt lat="64.000007629" lon="-19.083303452">
<ele>897.625000</ele>
<time>2012-07-23T16:58:42Z</time>
<speed>1.360000</speed>
<extensions>
<speed>1.4</speed>
<temp>0.00</temp>
<bpm>0</bpm>
<rpm>0.00</rpm>
</extensions>
</trkpt>
<trkpt lat="63.999977112" lon="-19.083198547">
<ele>896.171875</ele>
<time>2012-07-23T16:58:47Z</time>
<speed>1.430000</speed>
<extensions>
<speed>1.4</speed>
<temp>0.00</temp>
<bpm>0</bpm>
<rpm>0.00</rpm>
</extensions>
</trkpt>
<trkpt lat="63.999938965" lon="-19.083065033">
<ele>895.921875</ele>
<time>2012-07-23T16:58:52Z</time>
<speed>1.490000</speed>
<extensions>
<speed>1.5</speed>
<temp>0.00</temp>
<bpm>0</bpm>
<rpm>0.00</rpm>
</extensions>
</trkpt>
<trkpt lat="63.999908447" lon="-19.082901001">
<ele>895.609375</ele>
<time>2012-07-23T16:58:57Z</time>
<speed>1.470000</speed>
<extensions>
<speed>1.5</speed>
<temp>0.00</temp>
<bpm>0</bpm>
<rpm>0.00</rpm>
</extensions>
</trkpt>
<trkpt lat="63.999874115" lon="-19.082782745">
<ele>894.484375</ele>
<time>2012-07-23T16:59:02Z</time>
<speed>1.170000</speed>
<extensions>
<speed>1.2</speed>
<temp>0.00</temp>
<bpm>0</bpm>
<rpm>0.00</rpm>
</extensions>
</trkpt>
<trkpt lat="63.999847412" lon="-19.082757950">
<ele>894.984375</ele>
<time>2012-07-23T16:59:07Z</time>
<speed>0.330000</speed>
<extensions>
<speed>0.3</speed>
<temp>0.00</temp>
<bpm>0</bpm>
<rpm>0.00</rpm>
</extensions>
</trkpt>
<trkpt lat="63.999851227" lon="-19.082740784">
<ele>895.953125</ele>
<time>2012-07-23T16:59:12Z</time>
<speed>0.580000</speed>
<extensions>
<speed>0.6</speed>
<temp>0.00</temp>
<bpm>0</bpm>
<rpm>0.00</rpm>
</extensions>
</trkpt>
<trkpt lat="63.999877930" lon="-19.082616806">
<ele>895.562500</ele>
<time>2012-07-23T16:59:17Z</time>
<speed>1.340000</speed>
<extensions>
<speed>1.3</speed>
<temp>0.00</temp>
<bpm>0</bpm>
<rpm>0.00</rpm>
</extensions>
</trkpt>
<trkpt lat="63.999889374" lon="-19.082483292">
<ele>896.796875</ele>
<time>2012-07-23T16:59:22Z</time>
<speed>1.300000</speed>
<extensions>
<speed>1.3</speed>
<temp>0.00</temp>
<bpm>0</bpm>
<rpm>0.00</rpm>
</extensions>
</trkpt>
<trkpt lat="63.999877930" lon="-19.082370758">
<ele>898.265625</ele>
<time>2012-07-23T16:59:27Z</time>
<speed>1.090000</speed>
<extensions>
<speed>1.1</speed>
<temp>0.00</temp>
<bpm>0</bpm>
<rpm>0.00</rpm>
</extensions>
</trkpt>
<trkpt lat="63.999889374" lon="-19.082269669">
<ele>899.031250</ele>
<time>2012-07-23T16:59:32Z</time>
<speed>0.880000</speed>
<extensions>
<speed>0.9</speed>
<temp>0.00</temp>
<bpm>0</bpm>
<rpm>0.00</rpm>
</extensions>
</trkpt>
<trkpt lat="63.999877930" lon="-19.082176208">
<ele>898.015625</ele>
<time>2012-07-23T16:59:37Z</time>
<speed>0.900000</speed>
<extensions>
<speed>0.9</speed>
<temp>0.00</temp>
<bpm>0</bpm>
<rpm>0.00</rpm>
</extensions>
</trkpt>
<trkpt lat="63.999877930" lon="-19.082042694">
<ele>897.015625</ele>
<time>2012-07-23T16:59:42Z</time>
<speed>0.930000</speed>
<extensions>
<speed>0.9</speed>
<temp>0.00</temp>
<bpm>0</bpm>
<rpm>0.00</rpm>
</extensions>
</trkpt>
<trkpt lat="63.999843597" lon="-19.081977844">
<ele>894.984375</ele>
<time>2012-07-23T16:59:47Z</time>
<speed>1.100000</speed>
<extensions>
<speed>1.1</speed>
<temp>0.00</temp>
<bpm>0</bpm>
<rpm>0.00</rpm>
</extensions>
</trkpt>
<trkpt lat="63.999832153" lon="-19.081840515">
<ele>893.843750</ele>
<time>2012-07-23T16:59:52Z</time>
<speed>1.450000</speed>
<extensions>
<speed>1.4</speed>
<temp>0.00</temp>
<bpm>0</bpm>
<rpm>0.00</rpm>
</extensions>
</trkpt>
<trkpt lat="63.999847412" lon="-19.081668854">
<ele>895.750000</ele>
<time>2012-07-23T16:59:57Z</time>
<speed>1.390000</speed>
<extensions>
<speed>1.4</speed>
<temp>0.00</temp>
<bpm>0</bpm>
<rpm>0.00</rpm>
</extensions>
</trkpt>
<trkpt lat="63.999851227" lon="-19.081537247">
<ele>896.031250</ele>
<time>2012-07-23T17:00:02Z</time>
<speed>1.170000</speed>
<extensions>
<speed>1.2</speed>
<temp>0.00</temp>
<bpm>0</bpm>
<rpm>0.00</rpm>
</extensions>
</trkpt>
<trkpt lat="63.999851227" lon="-19.081453323">
<ele>897.046875</ele>
<time>2012-07-23T17:00:07Z</time>
<speed>0.820000</speed>
<extensions>
<speed>0.8</speed>
<temp>0.00</temp>
<bpm>0</bpm>
<rpm>0.00</rpm>
</extensions>
</trkpt>
<trkpt lat="63.999839783" lon="-19.081350327">
<ele>895.843750</ele>
<time>2012-07-23T17:00:12Z</time>
<speed>0.740000</speed>
<extensions>
<speed>0.7</speed>
<temp>0.00</temp>
<bpm>0</bpm>
<rpm>0.00</rpm>
</extensions>
</trkpt>
<trkpt lat="63.999824524" lon="-19.081302643">
<ele>896.750000</ele>
<time>2012-07-23T17:00:17Z</time>
<speed>0.270000</speed>
<extensions>
<speed>0.3</speed>
<temp>0.00</temp>
<bpm>0</bpm>
<rpm>0.00</rpm>
</extensions>
</trkpt>
<trkpt lat="63.999820709" lon="-19.081254959">
<ele>895.593750</ele>
<time>2012-07-23T17:00:22Z</time>
<speed>0.280000</speed>
<extensions>
<speed>0.3</speed>
<temp>0.00</temp>
<bpm>0</bpm>
<rpm>0.00</rpm>
</extensions>
</trkpt>
<trkpt lat="63.999794006" lon="-19.081186295">
<ele>895.031250</ele>
<time>2012-07-23T17:00:27Z</time>
<speed>0.740000</speed>
<extensions>
<speed>0.7</speed>
<temp>0.00</temp>
<bpm>0</bpm>
<rpm>0.00</rpm>
</extensions>
</trkpt>
<trkpt lat="63.999790192" lon="-19.081151962">
<ele>894.515625</ele>
<time>2012-07-23T17:00:32Z</time>
<speed>0.830000</speed>
<extensions>
<speed>0.8</speed>
<temp>0.00</temp>
<bpm>0</bpm>
<rpm>0.00</rpm>
</extensions>
</trkpt>
<trkpt lat="63.999801636" lon="-19.081098557">
<ele>893.093750</ele>
<time>2012-07-23T17:00:37Z</time>
<speed>0.650000</speed>
<extensions>
<speed>0.6</speed>
<temp>0.00</temp>
<bpm>0</bpm>
<rpm>0.00</rpm>
</extensions>
</trkpt>
<trkpt lat="63.999744415" lon="-19.081045151">
<ele>887.671875</ele>
<time>2012-07-23T17:00:42Z</time>
<speed>1.360000</speed>
<extensions>
<speed>1.4</speed>
<temp>0.00</temp>
<bpm>0</bpm>
<rpm>0.00</rpm>
</extensions>
</trkpt>
<trkpt lat="63.999725342" lon="-19.080961227">
<ele>885.125000</ele>
<time>2012-07-23T17:00:47Z</time>
<speed>0.850000</speed>
<extensions>
<speed>0.8</speed>
<temp>0.00</temp>
<bpm>0</bpm>
<rpm>0.00</rpm>
</extensions>
</trkpt>
<trkpt lat="63.999668121" lon="-19.080930710">
<ele>882.375000</ele>
<time>2012-07-23T17:00:52Z</time>
<speed>0.990000</speed>
<extensions>
<speed>1.0</speed>
<temp>0.00</temp>
<bpm>0</bpm>
<rpm>0.00</rpm>
</extensions>
</trkpt>
<trkpt lat="63.999614716" lon="-19.080884933">
<ele>877.968750</ele>
<time>2012-07-23T17:00:57Z</time>
<speed>1.030000</speed>
<extensions>
<speed>1.0</speed>
<temp>0.00</temp>
<bpm>0</bpm>
<rpm>0.00</rpm>
</extensions>
</trkpt>
<trkpt lat="63.999565125" lon="-19.080825806">
<ele>874.093750</ele>
<time>2012-07-23T17:01:02Z</time>
<speed>1.180000</speed>
<extensions>
<speed>1.2</speed>
<temp>0.00</temp>
<bpm>0</bpm>
<rpm>0.00</rpm>
</extensions>
</trkpt>
<trkpt lat="63.999500275" lon="-19.080745697">
<ele>872.828125</ele>
<time>2012-07-23T17:01:07Z</time>
<speed>1.620000</speed>
<extensions>
<speed>1.6</speed>
<temp>0.00</temp>
<bpm>0</bpm>
<rpm>0.00</rpm>
</extensions>
</trkpt>
<trkpt lat="63.999435425" lon="-19.080692291">
<ele>871.906250</ele>
<time>2012-07-23T17:01:12Z</time>
<speed>1.380000</speed>
<extensions>
<speed>1.4</speed>
<temp>0.00</temp>
<bpm>0</bpm>
<rpm>0.00</rpm>
</extensions>
</trkpt>
<trkpt lat="63.999374390" lon="-19.080625534">
<ele>870.828125</ele>
<time>2012-07-23T17:01:17Z</time>
<speed>1.660000</speed>
<extensions>
<speed>1.7</speed>
<temp>0.00</temp>
<bpm>0</bpm>
<rpm>0.00</rpm>
</extensions>
</trkpt>
<trkpt lat="63.999317169" lon="-19.080629349">
<ele>871.906250</ele>
<time>2012-07-23T17:01:22Z</time>
<speed>0.970000</speed>
<extensions>
<speed>1.0</speed>
<temp>0.00</temp>
<bpm>0</bpm>
<rpm>0.00</rpm>
</extensions>
</trkpt>
<trkpt lat="63.999317169" lon="-19.080556870">
<ele>872.906250</ele>
<time>2012-07-23T17:01:27Z</time>
<speed>0.840000</speed>
<extensions>
<speed>0.8</speed>
<temp>0.00</temp>
<bpm>0</bpm>
<rpm>0.00</rpm>
</extensions>
</trkpt>
<trkpt lat="63.999328613" lon="-19.080482483">
<ele>874.359375</ele>
<time>2012-07-23T17:01:32Z</time>
<speed>0.770000</speed>
<extensions>
<speed>0.8</speed>
<temp>0.00</temp>
<bpm>0</bpm>
<rpm>0.00</rpm>
</extensions>
</trkpt>
<trkpt lat="63.999305725" lon="-19.080371857">
<ele>873.640625</ele>
<time>2012-07-23T17:01:37Z</time>
<speed>1.310000</speed>
<extensions>
<speed>1.3</speed>
<temp>0.00</temp>
<bpm>0</bpm>
<rpm>0.00</rpm>
</extensions>
</trkpt>
<trkpt lat="63.999282837" lon="-19.080305099">
<ele>871.984375</ele>
<time>2012-07-23T17:01:42Z</time>
<speed>1.250000</speed>
<extensions>
<speed>1.3</speed>
<temp>0.00</temp>
<bpm>0</bpm>
<rpm>0.00</rpm>
</extensions>
</trkpt>
<trkpt lat="63.999290466" lon="-19.080183029">
<ele>870.390625</ele>
<time>2012-07-23T17:01:47Z</time>
<speed>1.410000</speed>
<extensions>
<speed>1.4</speed>
<temp>0.00</temp>
<bpm>0</bpm>
<rpm>0.00</rpm>
</extensions>
</trkpt>
<trkpt lat="63.999328613" lon="-19.080026627">
<ele>872.890625</ele>
<time>2012-07-23T17:01:52Z</time>
<speed>1.860000</speed>
<extensions>
<speed>1.9</speed>
<temp>0.00</temp>
<bpm>0</bpm>
<rpm>0.00</rpm>
</extensions>
</trkpt>
<trkpt lat="63.999351501" lon="-19.079877853">
<ele>874.265625</ele>
<time>2012-07-23T17:01:57Z</time>
<speed>1.380000</speed>
<extensions>
<speed>1.4</speed>
<temp>0.00</temp>
<bpm>0</bpm>
<rpm>0.00</rpm>
</extensions>
</trkpt>
<trkpt lat="63.999347687" lon="-19.079788208">
<ele>873.421875</ele>
<time>2012-07-23T17:02:02Z</time>
<speed>0.010000</speed>
<extensions>
<speed>0.0</speed>
<temp>0.00</temp>
<bpm>0</bpm>
<rpm>0.00</rpm>
</extensions>
</trkpt>
<trkpt lat="63.999324799" lon="-19.079784393">
<ele>871.375000</ele>
<time>2012-07-23T17:02:07Z</time>
<speed>0.010000</speed>
<extensions>
<speed>0.0</speed>
<temp>0.00</temp>
<bpm>0</bpm>
<rpm>0.00</rpm>
</extensions>
</trkpt>
<trkpt lat="63.999317169" lon="-19.079730988">
<ele>870.140625</ele>
<time>2012-07-23T17:02:12Z</time>
<speed>1.190000</speed>
<extensions>
<speed>1.2</speed>
<temp>0.00</temp>
<bpm>0</bpm>
<rpm>0.00</rpm>
</extensions>
</trkpt>
<trkpt lat="63.999336243" lon="-19.079624176">
<ele>871.437500</ele>
<time>2012-07-23T17:02:17Z</time>
<speed>1.240000</speed>
<extensions>
<speed>1.2</speed>
<temp>0.00</temp>
<bpm>0</bpm>
<rpm>0.00</rpm>
</extensions>
</trkpt>
<trkpt lat="63.999351501" lon="-19.079469681">
<ele>873.078125</ele>
<time>2012-07-23T17:02:22Z</time>
<speed>1.510000</speed>
<extensions>
<speed>1.5</speed>
<temp>0.00</temp>
<bpm>0</bpm>
<rpm>0.00</rpm>
</extensions>
</trkpt>
<trkpt lat="63.999332428" lon="-19.079368591">
<ele>872.046875</ele>
<time>2012-07-23T17:02:27Z</time>
<speed>1.170000</speed>
<extensions>
<speed>1.2</speed>
<temp>0.00</temp>
<bpm>0</bpm>
<rpm>0.00</rpm>
</extensions>
</trkpt>
<trkpt lat="63.999317169" lon="-19.079221725">
<ele>872.109375</ele>
<time>2012-07-23T17:02:32Z</time>
<speed>1.500000</speed>
<extensions>
<speed>1.5</speed>
<temp>0.00</temp>
<bpm>0</bpm>
<rpm>0.00</rpm>
</extensions>
</trkpt>
<trkpt lat="63.999313354" lon="-19.079059601">
<ele>874.734375</ele>
<time>2012-07-23T17:02:37Z</time>
<speed>1.180000</speed>
<extensions>
<speed>1.2</speed>
<temp>0.00</temp>
<bpm>0</bpm>
<rpm>0.00</rpm>
</extensions>
</trkpt>
<trkpt lat="63.999313354" lon="-19.078889847">
<ele>875.890625</ele>
<time>2012-07-23T17:02:42Z</time>
<speed>1.230000</speed>
<extensions>
<speed>1.2</speed>
<temp>0.00</temp>
<bpm>0</bpm>
<rpm>0.00</rpm>
</extensions>
</trkpt>
<trkpt lat="63.999305725" lon="-19.078737259">
<ele>876.312500</ele>
<time>2012-07-23T17:02:47Z</time>
<speed>1.330000</speed>
<extensions>
<speed>1.3</speed>
<temp>0.00</temp>
<bpm>0</bpm>
<rpm>0.00</rpm>
</extensions>
</trkpt>
<trkpt lat="63.999305725" lon="-19.078578949">
<ele>875.906250</ele>
<time>2012-07-23T17:02:52Z</time>
<speed>1.420000</speed>
<extensions>
<speed>1.4</speed>
<temp>0.00</temp>
<bpm>0</bpm>
<rpm>0.00</rpm>
</extensions>
</trkpt>
<trkpt lat="63.999294281" lon="-19.078458786">
<ele>874.703125</ele>
<time>2012-07-23T17:02:57Z</time>
<speed>1.490000</speed>
<extensions>
<speed>1.5</speed>
<temp>0.00</temp>
<bpm>0</bpm>
<rpm>0.00</rpm>
</extensions>
</trkpt>
<trkpt lat="63.999248505" lon="-19.078346252">
<ele>871.671875</ele>
<time>2012-07-23T17:03:02Z</time>
<speed>1.580000</speed>
<extensions>
<speed>1.6</speed>
<temp>0.00</temp>
<bpm>0</bpm>
<rpm>0.00</rpm>
</extensions>
</trkpt>
<trkpt lat="63.999191284" lon="-19.078224182">
<ele>868.359375</ele>
<time>2012-07-23T17:03:07Z</time>
<speed>1.300000</speed>
<extensions>
<speed>1.3</speed>
<temp>0.00</temp>
<bpm>0</bpm>
<rpm>0.00</rpm>
</extensions>
</trkpt>
<trkpt lat="63.999145508" lon="-19.078123093">
<ele>865.328125</ele>
<time>2012-07-23T17:03:12Z</time>
<speed>1.460000</speed>
<extensions>
<speed>1.5</speed>
<temp>0.00</temp>
<bpm>0</bpm>
<rpm>0.00</rpm>
</extensions>
</trkpt>
<trkpt lat="63.999095917" lon="-19.077999115">
<ele>862.937500</ele>
<time>2012-07-23T17:03:17Z</time>
<speed>1.480000</speed>
<extensions>
<speed>1.5</speed>
<temp>0.00</temp>
<bpm>0</bpm>
<rpm>0.00</rpm>
</extensions>
</trkpt>
<trkpt lat="63.999073029" lon="-19.077856064">
<ele>862.718750</ele>
<time>2012-07-23T17:03:22Z</time>
<speed>1.490000</speed>
<extensions>
<speed>1.5</speed>
<temp>0.00</temp>
<bpm>0</bpm>
<rpm>0.00</rpm>
</extensions>
</trkpt>
<trkpt lat="63.999073029" lon="-19.077724457">
<ele>863.703125</ele>
<time>2012-07-23T17:03:27Z</time>
<speed>1.210000</speed>
<extensions>
<speed>1.2</speed>
<temp>0.00</temp>
<bpm>0</bpm>
<rpm>0.00</rpm>
</extensions>
</trkpt>
<trkpt lat="63.999065399" lon="-19.077608109">
<ele>863.609375</ele>
<time>2012-07-23T17:03:32Z</time>
<speed>0.900000</speed>
<extensions>
<speed>0.9</speed>
<temp>0.00</temp>
<bpm>0</bpm>
<rpm>0.00</rpm>
</extensions>
</trkpt>
<trkpt lat="63.999034882" lon="-19.077547073">
<ele>861.359375</ele>
<time>2012-07-23T17:03:37Z</time>
<speed>1.150000</speed>
<extensions>
<speed>1.1</speed>
<temp>0.00</temp>
<bpm>0</bpm>
<rpm>0.00</rpm>
</extensions>
</trkpt>
<trkpt lat="63.999023438" lon="-19.077428818">
<ele>860.890625</ele>
<time>2012-07-23T17:03:42Z</time>
<speed>0.990000</speed>
<extensions>
<speed>1.0</speed>
<temp>0.00</temp>
<bpm>0</bpm>
<rpm>0.00</rpm>
</extensions>
</trkpt>
<trkpt lat="63.999034882" lon="-19.077318192">
<ele>861.234375</ele>
<time>2012-07-23T17:03:47Z</time>
<speed>0.900000</speed>
<extensions>
<speed>0.9</speed>
<temp>0.00</temp>
<bpm>0</bpm>
<rpm>0.00</rpm>
</extensions>
</trkpt>
<trkpt lat="63.999042511" lon="-19.077207565">
<ele>861.781250</ele>
<time>2012-07-23T17:03:52Z</time>
<speed>1.070000</speed>
<extensions>
<speed>1.1</speed>
<temp>0.00</temp>
<bpm>0</bpm>
<rpm>0.00</rpm>
</extensions>
</trkpt>
<trkpt lat="63.999061584" lon="-19.077089310">
<ele>864.937500</ele>
<time>2012-07-23T17:03:57Z</time>
<speed>1.050000</speed>
<extensions>
<speed>1.0</speed>
<temp>0.00</temp>
<bpm>0</bpm>
<rpm>0.00</rpm>
</extensions>
</trkpt>
<trkpt lat="63.999057770" lon="-19.077011108">
<ele>865.656250</ele>
<time>2012-07-23T17:04:02Z</time>
<speed>1.110000</speed>
<extensions>
<speed>1.1</speed>
<temp>0.00</temp>
<bpm>0</bpm>
<rpm>0.00</rpm>
</extensions>
</trkpt>
<trkpt lat="63.999008179" lon="-19.076885223">
<ele>863.921875</ele>
<time>2012-07-23T17:04:07Z</time>
<speed>0.790000</speed>
<extensions>
<speed>0.8</speed>
<temp>0.00</temp>
<bpm>0</bpm>
<rpm>0.00</rpm>
</extensions>
</trkpt>
<trkpt lat="63.998947144" lon="-19.076793671">
<ele>859.578125</ele>
<time>2012-07-23T17:04:12Z</time>
<speed>1.940000</speed>
<extensions>
<speed>1.9</speed>
<temp>0.00</temp>
<bpm>0</bpm>
<rpm>0.00</rpm>
</extensions>
</trkpt>
<trkpt lat="63.998924255" lon="-19.076684952">
<ele>858.375000</ele>
<time>2012-07-23T17:04:17Z</time>
<speed>1.110000</speed>
<extensions>
<speed>1.1</speed>
<temp>0.00</temp>
<bpm>0</bpm>
<rpm>0.00</rpm>
</extensions>
</trkpt>
<trkpt lat="63.998931885" lon="-19.076541901">
<ele>857.562500</ele>
<time>2012-07-23T17:04:22Z</time>
<speed>1.490000</speed>
<extensions>
<speed>1.5</speed>
<temp>0.00</temp>
<bpm>0</bpm>
<rpm>0.00</rpm>
</extensions>
</trkpt>
<trkpt lat="63.998928070" lon="-19.076391220">
<ele>857.046875</ele>
<time>2012-07-23T17:04:27Z</time>
<speed>1.220000</speed>
<extensions>
<speed>1.2</speed>
<temp>0.00</temp>
<bpm>0</bpm>
<rpm>0.00</rpm>
</extensions>
</trkpt>
<trkpt lat="63.998928070" lon="-19.076248169">
<ele>859.421875</ele>
<time>2012-07-23T17:04:32Z</time>
<speed>1.080000</speed>
<extensions>
<speed>1.1</speed>
<temp>0.00</temp>
<bpm>0</bpm>
<rpm>0.00</rpm>
</extensions>
</trkpt>
<trkpt lat="63.998928070" lon="-19.076099396">
<ele>861.156250</ele>
<time>2012-07-23T17:04:37Z</time>
<speed>1.530000</speed>
<extensions>
<speed>1.5</speed>
<temp>0.00</temp>
<bpm>0</bpm>
<rpm>0.00</rpm>
</extensions>
</trkpt>
<trkpt lat="63.998920441" lon="-19.075946808">
<ele>861.750000</ele>
<time>2012-07-23T17:04:42Z</time>
<speed>1.480000</speed>
<extensions>
<speed>1.5</speed>
<temp>0.00</temp>
<bpm>0</bpm>
<rpm>0.00</rpm>
</extensions>
</trkpt>
<trkpt lat="63.998920441" lon="-19.075786591">
<ele>862.312500</ele>
<time>2012-07-23T17:04:47Z</time>
<speed>1.580000</speed>
<extensions>
<speed>1.6</speed>
<temp>0.00</temp>
<bpm>0</bpm>
<rpm>0.00</rpm>
</extensions>
</trkpt>
<trkpt lat="63.998920441" lon="-19.075622559">
<ele>862.890625</ele>
<time>2012-07-23T17:04:52Z</time>
<speed>1.430000</speed>
<extensions>
<speed>1.4</speed>
<temp>0.00</temp>
<bpm>0</bpm>
<rpm>0.00</rpm>
</extensions>
</trkpt>
<trkpt lat="63.998920441" lon="-19.075469971">
<ele>864.000000</ele>
<time>2012-07-23T17:04:57Z</time>
<speed>1.580000</speed>
<extensions>
<speed>1.6</speed>
<temp>0.00</temp>
<bpm>0</bpm>
<rpm>0.00</rpm>
</extensions>
</trkpt>
<trkpt lat="63.998905182" lon="-19.075351715">
<ele>863.546875</ele>
<time>2012-07-23T17:05:02Z</time>
<speed>1.160000</speed>
<extensions>
<speed>1.2</speed>
<temp>0.00</temp>
<bpm>0</bpm>
<rpm>0.00</rpm>
</extensions>
</trkpt>
<trkpt lat="63.998893738" lon="-19.075201035">
<ele>864.640625</ele>
<time>2012-07-23T17:05:07Z</time>
<speed>1.480000</speed>
<extensions>
<speed>1.5</speed>
<temp>0.00</temp>
<bpm>0</bpm>
<rpm>0.00</rpm>
</extensions>
</trkpt>
<trkpt lat="63.998874664" lon="-19.075103760">
<ele>862.750000</ele>
<time>2012-07-23T17:05:12Z</time>
<speed>0.710000</speed>
<extensions>
<speed>0.7</speed>
<temp>0.00</temp>
<bpm>0</bpm>
<rpm>0.00</rpm>
</extensions>
</trkpt>
<trkpt lat="63.998844147" lon="-19.074989319">
<ele>861.187500</ele>
<time>2012-07-23T17:05:17Z</time>
<speed>0.930000</speed>
<extensions>
<speed>0.9</speed>
<temp>0.00</temp>
<bpm>0</bpm>
<rpm>0.00</rpm>
</extensions>
</trkpt>
<trkpt lat="63.998847961" lon="-19.074918747">
<ele>860.062500</ele>
<time>2012-07-23T17:05:22Z</time>
<speed>1.130000</speed>
<extensions>
<speed>1.1</speed>
<temp>0.00</temp>
<bpm>0</bpm>
<rpm>0.00</rpm>
</extensions>
</trkpt>
<trkpt lat="63.998836517" lon="-19.074777603">
<ele>859.640625</ele>
<time>2012-07-23T17:05:27Z</time>
<speed>0.790000</speed>
<extensions>
<speed>0.8</speed>
<temp>0.00</temp>
<bpm>0</bpm>
<rpm>0.00</rpm>
</extensions>
</trkpt>
<trkpt lat="63.998836517" lon="-19.074689865">
<ele>859.281250</ele>
<time>2012-07-23T17:05:32Z</time>
<speed>0.060000</speed>
<extensions>
<speed>0.1</speed>
<temp>0.00</temp>
<bpm>0</bpm>
<rpm>0.00</rpm>
</extensions>
</trkpt>
<trkpt lat="63.998847961" lon="-19.074625015">
<ele>860.796875</ele>
<time>2012-07-23T17:05:37Z</time>
<speed>0.650000</speed>
<extensions>
<speed>0.6</speed>
<temp>0.00</temp>
<bpm>0</bpm>
<rpm>0.00</rpm>
</extensions>
</trkpt>
<trkpt lat="63.998859406" lon="-19.074596405">
<ele>860.828125</ele>
<time>2012-07-23T17:05:42Z</time>
<speed>0.320000</speed>
<extensions>
<speed>0.3</speed>
<temp>0.00</temp>
<bpm>0</bpm>
<rpm>0.00</rpm>
</extensions>
</trkpt>
<trkpt lat="63.998832703" lon="-19.074575424">
<ele>858.453125</ele>
<time>2012-07-23T17:05:47Z</time>
<speed>0.390000</speed>
<extensions>
<speed>0.4</speed>
<temp>0.00</temp>
<bpm>0</bpm>
<rpm>0.00</rpm>
</extensions>
</trkpt>
<trkpt lat="63.998821259" lon="-19.074552536">
<ele>857.453125</ele>
<time>2012-07-23T17:05:52Z</time>
<speed>0.180000</speed>
<extensions>
<speed>0.2</speed>
<temp>0.00</temp>
<bpm>0</bpm>
<rpm>0.00</rpm>
</extensions>
</trkpt>
<trkpt lat="63.998813629" lon="-19.074544907">
<ele>857.250000</ele>
<time>2012-07-23T17:05:57Z</time>
<speed>0.130000</speed>
<extensions>
<speed>0.1</speed>
<temp>0.00</temp>
<bpm>0</bpm>
<rpm>0.00</rpm>
</extensions>
</trkpt>
<trkpt lat="63.998809814" lon="-19.074531555">
<ele>856.890625</ele>
<time>2012-07-23T17:06:02Z</time>
<speed>0.460000</speed>
<extensions>
<speed>0.5</speed>
<temp>0.00</temp>
<bpm>0</bpm>
<rpm>0.00</rpm>
</extensions>
</trkpt>
<trkpt lat="63.998825073" lon="-19.074430466">
<ele>855.765625</ele>
<time>2012-07-23T17:06:07Z</time>
<speed>0.890000</speed>
<extensions>
<speed>0.9</speed>
<temp>0.00</temp>
<bpm>0</bpm>
<rpm>0.00</rpm>
</extensions>
</trkpt>
<trkpt lat="63.998844147" lon="-19.074352264">
<ele>856.015625</ele>
<time>2012-07-23T17:06:12Z</time>
<speed>0.560000</speed>
<extensions>
<speed>0.6</speed>
<temp>0.00</temp>
<bpm>0</bpm>
<rpm>0.00</rpm>
</extensions>
</trkpt>
<trkpt lat="63.998859406" lon="-19.074287415">
<ele>855.468750</ele>
<time>2012-07-23T17:06:17Z</time>
<speed>0.700000</speed>
<extensions>
<speed>0.7</speed>
<temp>0.00</temp>
<bpm>0</bpm>
<rpm>0.00</rpm>
</extensions>
</trkpt>
<trkpt lat="63.998840332" lon="-19.074283600">
<ele>852.968750</ele>
<time>2012-07-23T17:06:22Z</time>
<speed>0.230000</speed>
<extensions>
<speed>0.2</speed>
<temp>0.00</temp>
<bpm>0</bpm>
<rpm>0.00</rpm>
</extensions>
</trkpt>
<trkpt lat="63.998840332" lon="-19.074260712">
<ele>852.640625</ele>
<time>2012-07-23T17:06:27Z</time>
<speed>0.060000</speed>
<extensions>
<speed>0.1</speed>
<temp>0.00</temp>
<bpm>0</bpm>
<rpm>0.00</rpm>
</extensions>
</trkpt>
<trkpt lat="63.998847961" lon="-19.074224472">
<ele>852.359375</ele>
<time>2012-07-23T17:06:32Z</time>
<speed>0.550000</speed>
<extensions>
<speed>0.6</speed>
<temp>0.00</temp>
<bpm>0</bpm>
<rpm>0.00</rpm>
</extensions>
</trkpt>
<trkpt lat="63.998817444" lon="-19.074195862">
<ele>850.093750</ele>
<time>2012-07-23T17:06:37Z</time>
<speed>0.730000</speed>
<extensions>
<speed>0.7</speed>
<temp>0.00</temp>
<bpm>0</bpm>
<rpm>0.00</rpm>
</extensions>
</trkpt>
<trkpt lat="63.998786926" lon="-19.074220657">
<ele>848.890625</ele>
<time>2012-07-23T17:06:42Z</time>
<speed>0.370000</speed>
<extensions>
<speed>0.4</speed>
<temp>0.00</temp>
<bpm>0</bpm>
<rpm>0.00</rpm>
</extensions>
</trkpt>
<trkpt lat="63.998756409" lon="-19.074226379">
<ele>847.468750</ele>
<time>2012-07-23T17:06:47Z</time>
<speed>1.180000</speed>
<extensions>
<speed>1.2</speed>
<temp>0.00</temp>
<bpm>0</bpm>
<rpm>0.00</rpm>
</extensions>
</trkpt>
<trkpt lat="63.998748779" lon="-19.074157715">
<ele>846.593750</ele>
<time>2012-07-23T17:06:52Z</time>
<speed>0.860000</speed>
<extensions>
<speed>0.9</speed>
<temp>0.00</temp>
<bpm>0</bpm>
<rpm>0.00</rpm>
</extensions>
</trkpt>
<trkpt lat="63.998722076" lon="-19.074153900">
<ele>846.046875</ele>
<time>2012-07-23T17:06:57Z</time>
<speed>0.960000</speed>
<extensions>
<speed>1.0</speed>
<temp>0.00</temp>
<bpm>0</bpm>
<rpm>0.00</rpm>
</extensions>
</trkpt>
<trkpt lat="63.998683929" lon="-19.074148178">
<ele>844.765625</ele>
<time>2012-07-23T17:07:02Z</time>
<speed>0.550000</speed>
<extensions>
<speed>0.6</speed>
<temp>0.00</temp>
<bpm>0</bpm>
<rpm>0.00</rpm>
</extensions>
</trkpt>
<trkpt lat="63.998680115" lon="-19.074174881">
<ele>842.875000</ele>
<time>2012-07-23T17:07:07Z</time>
<speed>0.350000</speed>
<extensions>
<speed>0.3</speed>
<temp>0.00</temp>
<bpm>0</bpm>
<rpm>0.00</rpm>
</extensions>
</trkpt>
<trkpt lat="63.998680115" lon="-19.074083328">
<ele>841.218750</ele>
<time>2012-07-23T17:07:12Z</time>
<speed>0.520000</speed>
<extensions>
<speed>0.5</speed>
<temp>0.00</temp>
<bpm>0</bpm>
<rpm>0.00</rpm>
</extensions>
</trkpt>
<trkpt lat="63.998657227" lon="-19.074064255">
<ele>839.343750</ele>
<time>2012-07-23T17:07:17Z</time>
<speed>0.460000</speed>
<extensions>
<speed>0.5</speed>
<temp>0.00</temp>
<bpm>0</bpm>
<rpm>0.00</rpm>
</extensions>
</trkpt>
<trkpt lat="63.998664856" lon="-19.073987961">
<ele>838.765625</ele>
<time>2012-07-23T17:07:22Z</time>
<speed>0.760000</speed>
<extensions>
<speed>0.8</speed>
<temp>0.00</temp>
<bpm>0</bpm>
<rpm>0.00</rpm>
</extensions>
</trkpt>
<trkpt lat="63.998668671" lon="-19.073917389">
<ele>837.828125</ele>
<time>2012-07-23T17:07:27Z</time>
<speed>0.510000</speed>
<extensions>
<speed>0.5</speed>
<temp>0.00</temp>
<bpm>0</bpm>
<rpm>0.00</rpm>
</extensions>
</trkpt>
<trkpt lat="63.998664856" lon="-19.073852539">
<ele>837.046875</ele>
<time>2012-07-23T17:07:32Z</time>
<speed>0.650000</speed>
<extensions>
<speed>0.6</speed>
<temp>0.00</temp>
<bpm>0</bpm>
<rpm>0.00</rpm>
</extensions>
</trkpt>
<trkpt lat="63.998668671" lon="-19.073802948">
<ele>835.984375</ele>
<time>2012-07-23T17:07:37Z</time>
<speed>0.660000</speed>
<extensions>
<speed>0.7</speed>
<temp>0.00</temp>
<bpm>0</bpm>
<rpm>0.00</rpm>
</extensions>
</trkpt>
<trkpt lat="63.998683929" lon="-19.073728561">
<ele>834.750000</ele>
<time>2012-07-23T17:07:42Z</time>
<speed>0.880000</speed>
<extensions>
<speed>0.9</speed>
<temp>0.00</temp>
<bpm>0</bpm>
<rpm>0.00</rpm>
</extensions>
</trkpt>
<trkpt lat="63.998680115" lon="-19.073753357">
<ele>833.421875</ele>
<time>2012-07-23T17:07:47Z</time>
<speed>0.010000</speed>
<extensions>
<speed>0.0</speed>
<temp>0.00</temp>
<bpm>0</bpm>
<rpm>0.00</rpm>
</extensions>
</trkpt>
<trkpt lat="63.998683929" lon="-19.073751450">
<ele>833.406250</ele>
<time>2012-07-23T17:07:52Z</time>
<speed>0.600000</speed>
<extensions>
<speed>0.6</speed>
<temp>0.00</temp>
<bpm>0</bpm>
<rpm>0.00</rpm>
</extensions>
</trkpt>
<trkpt lat="63.998706818" lon="-19.073677063">
<ele>832.953125</ele>
<time>2012-07-23T17:07:57Z</time>
<speed>0.570000</speed>
<extensions>
<speed>0.6</speed>
<temp>0.00</temp>
<bpm>0</bpm>
<rpm>0.00</rpm>
</extensions>
</trkpt>
<trkpt lat="63.998725891" lon="-19.073600769">
<ele>832.593750</ele>
<time>2012-07-23T17:08:02Z</time>
<speed>0.840000</speed>
<extensions>
<speed>0.8</speed>
<temp>0.00</temp>
<bpm>0</bpm>
<rpm>0.00</rpm>
</extensions>
</trkpt>
<trkpt lat="63.998729706" lon="-19.073534012">
<ele>831.234375</ele>
<time>2012-07-23T17:08:07Z</time>
<speed>0.700000</speed>
<extensions>
<speed>0.7</speed>
<temp>0.00</temp>
<bpm>0</bpm>
<rpm>0.00</rpm>
</extensions>
</trkpt>
<trkpt lat="63.998725891" lon="-19.073467255">
<ele>829.546875</ele>
<time>2012-07-23T17:08:12Z</time>
<speed>0.860000</speed>
<extensions>
<speed>0.9</speed>
<temp>0.00</temp>
<bpm>0</bpm>
<rpm>0.00</rpm>
</extensions>
</trkpt>
<trkpt lat="63.998714447" lon="-19.073431015">
<ele>827.593750</ele>
<time>2012-07-23T17:08:17Z</time>
<speed>0.550000</speed>
<extensions>
<speed>0.6</speed>
<temp>0.00</temp>
<bpm>0</bpm>
<rpm>0.00</rpm>
</extensions>
</trkpt>
<trkpt lat="63.998733521" lon="-19.073331833">
<ele>827.500000</ele>
<time>2012-07-23T17:08:22Z</time>
<speed>0.950000</speed>
<extensions>
<speed>1.0</speed>
<temp>0.00</temp>
<bpm>0</bpm>
<rpm>0.00</rpm>
</extensions>
</trkpt>
<trkpt lat="63.998737335" lon="-19.073255539">
<ele>825.828125</ele>
<time>2012-07-23T17:08:27Z</time>
<speed>0.780000</speed>
<extensions>
<speed>0.8</speed>
<temp>0.00</temp>
<bpm>0</bpm>
<rpm>0.00</rpm>
</extensions>
</trkpt>
<trkpt lat="63.998752594" lon="-19.073162079">
<ele>824.906250</ele>
<time>2012-07-23T17:08:32Z</time>
<speed>0.950000</speed>
<extensions>
<speed>1.0</speed>
<temp>0.00</temp>
<bpm>0</bpm>
<rpm>0.00</rpm>
</extensions>
</trkpt>
<trkpt lat="63.998767853" lon="-19.073074341">
<ele>823.546875</ele>
<time>2012-07-23T17:08:37Z</time>
<speed>0.900000</speed>
<extensions>
<speed>0.9</speed>
<temp>0.00</temp>
<bpm>0</bpm>
<rpm>0.00</rpm>
</extensions>
</trkpt>
<trkpt lat="63.998752594" lon="-19.073001862">
<ele>820.578125</ele>
<time>2012-07-23T17:08:42Z</time>
<speed>0.960000</speed>
<extensions>
<speed>1.0</speed>
<temp>0.00</temp>
<bpm>0</bpm>
<rpm>0.00</rpm>
</extensions>
</trkpt>
<trkpt lat="63.998722076" lon="-19.072925568">
<ele>817.843750</ele>
<time>2012-07-23T17:08:47Z</time>
<speed>0.710000</speed>
<extensions>
<speed>0.7</speed>
<temp>0.00</temp>
<bpm>0</bpm>
<rpm>0.00</rpm>
</extensions>
</trkpt>
<trkpt lat="63.998725891" lon="-19.072832108">
<ele>816.000000</ele>
<time>2012-07-23T17:08:52Z</time>
<speed>1.080000</speed>
<extensions>
<speed>1.1</speed>
<temp>0.00</temp>
<bpm>0</bpm>
<rpm>0.00</rpm>
</extensions>
</trkpt>
<trkpt lat="63.998760223" lon="-19.072744370">
<ele>814.125000</ele>
<time>2012-07-23T17:08:57Z</time>
<speed>1.220000</speed>
<extensions>
<speed>1.2</speed>
<temp>0.00</temp>
<bpm>0</bpm>
<rpm>0.00</rpm>
</extensions>
</trkpt>
<trkpt lat="63.998790741" lon="-19.072681427">
<ele>814.531250</ele>
<time>2012-07-23T17:09:02Z</time>
<speed>0.230000</speed>
<extensions>
<speed>0.2</speed>
<temp>0.00</temp>
<bpm>0</bpm>
<rpm>0.00</rpm>
</extensions>
</trkpt>
<trkpt lat="63.998798370" lon="-19.072706223">
<ele>814.515625</ele>
<time>2012-07-23T17:09:07Z</time>
<speed>0.130000</speed>
<extensions>
<speed>0.1</speed>
<temp>0.00</temp>
<bpm>0</bpm>
<rpm>0.00</rpm>
</extensions>
</trkpt>
<trkpt lat="63.998809814" lon="-19.072658539">
<ele>815.296875</ele>
<time>2012-07-23T17:09:12Z</time>
<speed>0.880000</speed>
<extensions>
<speed>0.9</speed>
<temp>0.00</temp>
<bpm>0</bpm>
<rpm>0.00</rpm>
</extensions>
</trkpt>
<trkpt lat="63.998836517" lon="-19.072591782">
<ele>814.703125</ele>
<time>2012-07-23T17:09:17Z</time>
<speed>0.850000</speed>
<extensions>
<speed>0.8</speed>
<temp>0.00</temp>
<bpm>0</bpm>
<rpm>0.00</rpm>
</extensions>
</trkpt>
<trkpt lat="63.998863220" lon="-19.072509766">
<ele>812.515625</ele>
<time>2012-07-23T17:09:22Z</time>
<speed>0.910000</speed>
<extensions>
<speed>0.9</speed>
<temp>0.00</temp>
<bpm>0</bpm>
<rpm>0.00</rpm>
</extensions>
</trkpt>
<trkpt lat="63.998882294" lon="-19.072456360">
<ele>811.734375</ele>
<time>2012-07-23T17:09:27Z</time>
<speed>0.840000</speed>
<extensions>
<speed>0.8</speed>
<temp>0.00</temp>
<bpm>0</bpm>
<rpm>0.00</rpm>
</extensions>
</trkpt>
<trkpt lat="63.998908997" lon="-19.072395325">
<ele>810.640625</ele>
<time>2012-07-23T17:09:32Z</time>
<speed>0.820000</speed>
<extensions>
<speed>0.8</speed>
<temp>0.00</temp>
<bpm>0</bpm>
<rpm>0.00</rpm>
</extensions>
</trkpt>
<trkpt lat="63.998928070" lon="-19.072319031">
<ele>809.343750</ele>
<time>2012-07-23T17:09:37Z</time>
<speed>0.890000</speed>
<extensions>
<speed>0.9</speed>
<temp>0.00</temp>
<bpm>0</bpm>
<rpm>0.00</rpm>
</extensions>
</trkpt>
<trkpt lat="63.998954773" lon="-19.072261810">
<ele>808.000000</ele>
<time>2012-07-23T17:09:42Z</time>
<speed>1.050000</speed>
<extensions>
<speed>1.0</speed>
<temp>0.00</temp>
<bpm>0</bpm>
<rpm>0.00</rpm>
</extensions>
</trkpt>
<trkpt lat="63.998981476" lon="-19.072187424">
<ele>806.937500</ele>
<time>2012-07-23T17:09:47Z</time>
<speed>0.840000</speed>
<extensions>
<speed>0.8</speed>
<temp>0.00</temp>
<bpm>0</bpm>
<rpm>0.00</rpm>
</extensions>
</trkpt>
<trkpt lat="63.999000549" lon="-19.072107315">
<ele>805.843750</ele>
<time>2012-07-23T17:09:52Z</time>
<speed>1.010000</speed>
<extensions>
<speed>1.0</speed>
<temp>0.00</temp>
<bpm>0</bpm>
<rpm>0.00</rpm>
</extensions>
</trkpt>
<trkpt lat="63.999031067" lon="-19.072036743">
<ele>804.875000</ele>
<time>2012-07-23T17:09:57Z</time>
<speed>0.860000</speed>
<extensions>
<speed>0.9</speed>
<temp>0.00</temp>
<bpm>0</bpm>
<rpm>0.00</rpm>
</extensions>
</trkpt>
<trkpt lat="63.999046326" lon="-19.071935654">
<ele>804.406250</ele>
<time>2012-07-23T17:10:02Z</time>
<speed>0.840000</speed>
<extensions>
<speed>0.8</speed>
<temp>0.00</temp>
<bpm>0</bpm>
<rpm>0.00</rpm>
</extensions>
</trkpt>
<trkpt lat="63.999053955" lon="-19.071825027">
<ele>803.890625</ele>
<time>2012-07-23T17:10:07Z</time>
<speed>0.990000</speed>
<extensions>
<speed>1.0</speed>
<temp>0.00</temp>
<bpm>0</bpm>
<rpm>0.00</rpm>
</extensions>
</trkpt>
<trkpt lat="63.999046326" lon="-19.071727753">
<ele>803.703125</ele>
<time>2012-07-23T17:10:12Z</time>
<speed>0.950000</speed>
<extensions>
<speed>1.0</speed>
<temp>0.00</temp>
<bpm>0</bpm>
<rpm>0.00</rpm>
</extensions>
</trkpt>
<trkpt lat="63.999023438" lon="-19.071617126">
<ele>803.640625</ele>
<time>2012-07-23T17:10:17Z</time>
<speed>0.940000</speed>
<extensions>
<speed>0.9</speed>
<temp>0.00</temp>
<bpm>0</bpm>
<rpm>0.00</rpm>
</extensions>
</trkpt>
<trkpt lat="63.998970032" lon="-19.071529388">
<ele>801.953125</ele>
<time>2012-07-23T17:10:22Z</time>
<speed>0.970000</speed>
<extensions>
<speed>1.0</speed>
<temp>0.00</temp>
<bpm>0</bpm>
<rpm>0.00</rpm>
</extensions>
</trkpt>
<trkpt lat="63.998962402" lon="-19.071435928">
<ele>800.640625</ele>
<time>2012-07-23T17:10:27Z</time>
<speed>0.940000</speed>
<extensions>
<speed>0.9</speed>
<temp>0.00</temp>
<bpm>0</bpm>
<rpm>0.00</rpm>
</extensions>
</trkpt>
<trkpt lat="63.998977661" lon="-19.071342468">
<ele>801.296875</ele>
<time>2012-07-23T17:10:32Z</time>
<speed>0.460000</speed>
<extensions>
<speed>0.5</speed>
<temp>0.00</temp>
<bpm>0</bpm>
<rpm>0.00</rpm>
</extensions>
</trkpt>
<trkpt lat="63.998985291" lon="-19.071269989">
<ele>801.812500</ele>
<time>2012-07-23T17:10:37Z</time>
<speed>0.550000</speed>
<extensions>
<speed>0.6</speed>
<temp>0.00</temp>
<bpm>0</bpm>
<rpm>0.00</rpm>
</extensions>
</trkpt>
<trkpt lat="63.999011993" lon="-19.071199417">
<ele>803.468750</ele>
<time>2012-07-23T17:10:42Z</time>
<speed>0.830000</speed>
<extensions>
<speed>0.8</speed>
<temp>0.00</temp>
<bpm>0</bpm>
<rpm>0.00</rpm>
</extensions>
</trkpt>
<trkpt lat="63.999015808" lon="-19.071138382">
<ele>803.031250</ele>
<time>2012-07-23T17:10:47Z</time>
<speed>0.860000</speed>
<extensions>
<speed>0.9</speed>
<temp>0.00</temp>
<bpm>0</bpm>
<rpm>0.00</rpm>
</extensions>
</trkpt>
<trkpt lat="63.999023438" lon="-19.071058273">
<ele>802.812500</ele>
<time>2012-07-23T17:10:52Z</time>
<speed>0.860000</speed>
<extensions>
<speed>0.9</speed>
<temp>0.00</temp>
<bpm>0</bpm>
<rpm>0.00</rpm>
</extensions>
</trkpt>
<trkpt lat="63.999038696" lon="-19.070983887">
<ele>802.218750</ele>
<time>2012-07-23T17:10:57Z</time>
<speed>0.830000</speed>
<extensions>
<speed>0.8</speed>
<temp>0.00</temp>
<bpm>0</bpm>
<rpm>0.00</rpm>
</extensions>
</trkpt>
<trkpt lat="63.999053955" lon="-19.070905685">
<ele>801.265625</ele>
<time>2012-07-23T17:11:02Z</time>
<speed>0.780000</speed>
<extensions>
<speed>0.8</speed>
<temp>0.00</temp>
<bpm>0</bpm>
<rpm>0.00</rpm>
</extensions>
</trkpt>
<trkpt lat="63.999073029" lon="-19.070835114">
<ele>800.390625</ele>
<time>2012-07-23T17:11:07Z</time>
<speed>0.810000</speed>
<extensions>
<speed>0.8</speed>
<temp>0.00</temp>
<bpm>0</bpm>
<rpm>0.00</rpm>
</extensions>
</trkpt>
<trkpt lat="63.999092102" lon="-19.070775986">
<ele>799.562500</ele>
<time>2012-07-23T17:11:12Z</time>
<speed>0.800000</speed>
<extensions>
<speed>0.8</speed>
<temp>0.00</temp>
<bpm>0</bpm>
<rpm>0.00</rpm>
</extensions>
</trkpt>
<trkpt lat="63.999095917" lon="-19.070716858">
<ele>798.203125</ele>
<time>2012-07-23T17:11:17Z</time>
<speed>0.520000</speed>
<extensions>
<speed>0.5</speed>
<temp>0.00</temp>
<bpm>0</bpm>
<rpm>0.00</rpm>
</extensions>
</trkpt>
<trkpt lat="63.999073029" lon="-19.070718765">
<ele>795.703125</ele>
<time>2012-07-23T17:11:22Z</time>
<speed>0.070000</speed>
<extensions>
<speed>0.1</speed>
<temp>0.00</temp>
<bpm>0</bpm>
<rpm>0.00</rpm>
</extensions>
</trkpt>
<trkpt lat="63.999061584" lon="-19.070711136">
<ele>795.031250</ele>
<time>2012-07-23T17:11:27Z</time>
<speed>0.520000</speed>
<extensions>
<speed>0.5</speed>
<temp>0.00</temp>
<bpm>0</bpm>
<rpm>0.00</rpm>
</extensions>
</trkpt>
<trkpt lat="63.999027252" lon="-19.070709229">
<ele>792.078125</ele>
<time>2012-07-23T17:11:32Z</time>
<speed>0.410000</speed>
<extensions>
<speed>0.4</speed>
<temp>0.00</temp>
<bpm>0</bpm>
<rpm>0.00</rpm>
</extensions>
</trkpt>
<trkpt lat="63.999023438" lon="-19.070644379">
<ele>791.546875</ele>
<time>2012-07-23T17:11:37Z</time>
<speed>0.740000</speed>
<extensions>
<speed>0.7</speed>
<temp>0.00</temp>
<bpm>0</bpm>
<rpm>0.00</rpm>
</extensions>
</trkpt>
<trkpt lat="63.999023438" lon="-19.070564270">
<ele>789.531250</ele>
<time>2012-07-23T17:11:42Z</time>
<speed>0.800000</speed>
<extensions>
<speed>0.8</speed>
<temp>0.00</temp>
<bpm>0</bpm>
<rpm>0.00</rpm>
</extensions>
</trkpt>
<trkpt lat="63.999000549" lon="-19.070522308">
<ele>786.125000</ele>
<time>2012-07-23T17:11:47Z</time>
<speed>0.730000</speed>
<extensions>
<speed>0.7</speed>
<temp>0.00</temp>
<bpm>0</bpm>
<rpm>0.00</rpm>
</extensions>
</trkpt>
<trkpt lat="63.998966217" lon="-19.070518494">
<ele>784.656250</ele>
<time>2012-07-23T17:11:52Z</time>
<speed>0.580000</speed>
<extensions>
<speed>0.6</speed>
<temp>0.00</temp>
<bpm>0</bpm>
<rpm>0.00</rpm>
</extensions>
</trkpt>
<trkpt lat="63.998970032" lon="-19.070417404">
<ele>782.000000</ele>
<time>2012-07-23T17:11:57Z</time>
<speed>0.830000</speed>
<extensions>
<speed>0.8</speed>
<temp>0.00</temp>
<bpm>0</bpm>
<rpm>0.00</rpm>
</extensions>
</trkpt>
<trkpt lat="63.998950958" lon="-19.070344925">
<ele>778.734375</ele>
<time>2012-07-23T17:12:02Z</time>
<speed>0.750000</speed>
<extensions>
<speed>0.8</speed>
<temp>0.00</temp>
<bpm>0</bpm>
<rpm>0.00</rpm>
</extensions>
</trkpt>
<trkpt lat="63.998954773" lon="-19.070272446">
<ele>776.328125</ele>
<time>2012-07-23T17:12:07Z</time>
<speed>0.810000</speed>
<extensions>
<speed>0.8</speed>
<temp>0.00</temp>
<bpm>0</bpm>
<rpm>0.00</rpm>
</extensions>
</trkpt>
<trkpt lat="63.998950958" lon="-19.070213318">
<ele>774.859375</ele>
<time>2012-07-23T17:12:12Z</time>
<speed>0.220000</speed>
<extensions>
<speed>0.2</speed>
<temp>0.00</temp>
<bpm>0</bpm>
<rpm>0.00</rpm>
</extensions>
</trkpt>
<trkpt lat="63.998947144" lon="-19.070205688">
<ele>773.906250</ele>
<time>2012-07-23T17:12:17Z</time>
<speed>0.370000</speed>
<extensions>
<speed>0.4</speed>
<temp>0.00</temp>
<bpm>0</bpm>
<rpm>0.00</rpm>
</extensions>
</trkpt>
<trkpt lat="63.998928070" lon="-19.070150375">
<ele>772.312500</ele>
<time>2012-07-23T17:12:22Z</time>
<speed>0.540000</speed>
<extensions>
<speed>0.5</speed>
<temp>0.00</temp>
<bpm>0</bpm>
<rpm>0.00</rpm>
</extensions>
</trkpt>
<trkpt lat="63.998962402" lon="-19.070051193">
<ele>771.921875</ele>
<time>2012-07-23T17:12:27Z</time>
<speed>0.730000</speed>
<extensions>
<speed>0.7</speed>
<temp>0.00</temp>
<bpm>0</bpm>
<rpm>0.00</rpm>
</extensions>
</trkpt>
<trkpt lat="63.998928070" lon="-19.070045471">
<ele>771.546875</ele>
<time>2012-07-23T17:12:32Z</time>
<speed>0.740000</speed>
<extensions>
<speed>0.7</speed>
<temp>0.00</temp>
<bpm>0</bpm>
<rpm>0.00</rpm>
</extensions>
</trkpt>
<trkpt lat="63.998912811" lon="-19.070013046">
<ele>770.859375</ele>
<time>2012-07-23T17:12:37Z</time>
<speed>0.550000</speed>
<extensions>
<speed>0.6</speed>
<temp>0.00</temp>
<bpm>0</bpm>
<rpm>0.00</rpm>
</extensions>
</trkpt>
<trkpt lat="63.998889923" lon="-19.069936752">
<ele>770.640625</ele>
<time>2012-07-23T17:12:42Z</time>
<speed>1.050000</speed>
<extensions>
<speed>1.0</speed>
<temp>0.00</temp>
<bpm>0</bpm>
<rpm>0.00</rpm>
</extensions>
</trkpt>
<trkpt lat="63.998851776" lon="-19.069904327">
<ele>770.390625</ele>
<time>2012-07-23T17:12:47Z</time>
<speed>0.570000</speed>
<extensions>
<speed>0.6</speed>
<temp>0.00</temp>
<bpm>0</bpm>
<rpm>0.00</rpm>
</extensions>
</trkpt>
<trkpt lat="63.998832703" lon="-19.069879532">
<ele>769.671875</ele>
<time>2012-07-23T17:12:52Z</time>
<speed>0.520000</speed>
<extensions>
<speed>0.5</speed>
<temp>0.00</temp>
<bpm>0</bpm>
<rpm>0.00</rpm>
</extensions>
</trkpt>
<trkpt lat="63.998802185" lon="-19.069847107">
<ele>768.437500</ele>
<time>2012-07-23T17:12:57Z</time>
<speed>0.650000</speed>
<extensions>
<speed>0.6</speed>
<temp>0.00</temp>
<bpm>0</bpm>
<rpm>0.00</rpm>
</extensions>
</trkpt>
<trkpt lat="63.998771667" lon="-19.069807053">
<ele>766.953125</ele>
<time>2012-07-23T17:13:02Z</time>
<speed>0.760000</speed>
<extensions>
<speed>0.8</speed>
<temp>0.00</temp>
<bpm>0</bpm>
<rpm>0.00</rpm>
</extensions>
</trkpt>
<trkpt lat="63.998752594" lon="-19.069761276">
<ele>766.140625</ele>
<time>2012-07-23T17:13:07Z</time>
<speed>0.680000</speed>
<extensions>
<speed>0.7</speed>
<temp>0.00</temp>
<bpm>0</bpm>
<rpm>0.00</rpm>
</extensions>
</trkpt>
<trkpt lat="63.998706818" lon="-19.069702148">
<ele>765.609375</ele>
<time>2012-07-23T17:13:12Z</time>
<speed>0.740000</speed>
<extensions>
<speed>0.7</speed>
<temp>0.00</temp>
<bpm>0</bpm>
<rpm>0.00</rpm>
</extensions>
</trkpt>
<trkpt lat="63.998622894" lon="-19.069635391">
<ele>766.218750</ele>
<time>2012-07-23T17:13:17Z</time>
<speed>0.850000</speed>
<extensions>
<speed>0.8</speed>
<temp>0.00</temp>
<bpm>0</bpm>
<rpm>0.00</rpm>
</extensions>
</trkpt>
<trkpt lat="63.998584747" lon="-19.069593430">
<ele>765.937500</ele>
<time>2012-07-23T17:13:22Z</time>
<speed>0.440000</speed>
<extensions>
<speed>0.4</speed>
<temp>0.00</temp>
<bpm>0</bpm>
<rpm>0.00</rpm>
</extensions>
</trkpt>
<trkpt lat="63.998550415" lon="-19.069641113">
<ele>765.000000</ele>
<time>2012-07-23T17:13:27Z</time>
<speed>0.330000</speed>
<extensions>
<speed>0.3</speed>
<temp>0.00</temp>
<bpm>0</bpm>
<rpm>0.00</rpm>
</extensions>
</trkpt>
<trkpt lat="63.998615265" lon="-19.069610596">
<ele>764.171875</ele>
<time>2012-07-23T17:13:32Z</time>
<speed>0.670000</speed>
<extensions>
<speed>0.7</speed>
<temp>0.00</temp>
<bpm>0</bpm>
<rpm>0.00</rpm>
</extensions>
</trkpt>
<trkpt lat="63.998596191" lon="-19.069547653">
<ele>763.718750</ele>
<time>2012-07-23T17:13:37Z</time>
<speed>0.630000</speed>
<extensions>
<speed>0.6</speed>
<temp>0.00</temp>
<bpm>0</bpm>
<rpm>0.00</rpm>
</extensions>
</trkpt>
<trkpt lat="63.998577118" lon="-19.069478989">
<ele>763.515625</ele>
<time>2012-07-23T17:13:42Z</time>
<speed>0.770000</speed>
<extensions>
<speed>0.8</speed>
<temp>0.00</temp>
<bpm>0</bpm>
<rpm>0.00</rpm>
</extensions>
</trkpt>
<trkpt lat="63.998542786" lon="-19.069458008">
<ele>762.421875</ele>
<time>2012-07-23T17:13:47Z</time>
<speed>0.540000</speed>
<extensions>
<speed>0.5</speed>
<temp>0.00</temp>
<bpm>0</bpm>
<rpm>0.00</rpm>
</extensions>
</trkpt>
<trkpt lat="63.998523712" lon="-19.069393158">
<ele>762.062500</ele>
<time>2012-07-23T17:13:52Z</time>
<speed>0.610000</speed>
<extensions>
<speed>0.6</speed>
<temp>0.00</temp>
<bpm>0</bpm>
<rpm>0.00</rpm>
</extensions>
</trkpt>
<trkpt lat="63.998519897" lon="-19.069366455">
<ele>760.343750</ele>
<time>2012-07-23T17:13:57Z</time>
<speed>0.340000</speed>
<extensions>
<speed>0.3</speed>
<temp>0.00</temp>
<bpm>0</bpm>
<rpm>0.00</rpm>
</extensions>
</trkpt>
<trkpt lat="63.998516083" lon="-19.069362640">
<ele>760.031250</ele>
<time>2012-07-23T17:14:02Z</time>
<speed>0.610000</speed>
<extensions>
<speed>0.6</speed>
<temp>0.00</temp>
<bpm>0</bpm>
<rpm>0.00</rpm>
</extensions>
</trkpt>
<trkpt lat="63.998485565" lon="-19.069345474">
<ele>759.515625</ele>
<time>2012-07-23T17:14:07Z</time>
<speed>0.950000</speed>
<extensions>
<speed>1.0</speed>
<temp>0.00</temp>
<bpm>0</bpm>
<rpm>0.00</rpm>
</extensions>
</trkpt>
<trkpt lat="63.998500824" lon="-19.069353104">
<ele>757.937500</ele>
<time>2012-07-23T17:14:12Z</time>
<speed>0.350000</speed>
<extensions>
<speed>0.3</speed>
<temp>0.00</temp>
<bpm>0</bpm>
<rpm>0.00</rpm>
</extensions>
</trkpt>
<trkpt lat="63.998508453" lon="-19.069343567">
<ele>756.828125</ele>
<time>2012-07-23T17:14:17Z</time>
<speed>0.190000</speed>
<extensions>
<speed>0.2</speed>
<temp>0.00</temp>
<bpm>0</bpm>
<rpm>0.00</rpm>
</extensions>
</trkpt>
<trkpt lat="63.998512268" lon="-19.069334030">
<ele>756.015625</ele>
<time>2012-07-23T17:14:22Z</time>
<speed>0.230000</speed>
<extensions>
<speed>0.2</speed>
<temp>0.00</temp>
<bpm>0</bpm>
<rpm>0.00</rpm>
</extensions>
</trkpt>
<trkpt lat="63.998516083" lon="-19.069307327">
<ele>755.234375</ele>
<time>2012-07-23T17:14:27Z</time>
<speed>0.260000</speed>
<extensions>
<speed>0.3</speed>
<temp>0.00</temp>
<bpm>0</bpm>
<rpm>0.00</rpm>
</extensions>
</trkpt>
<trkpt lat="63.998497009" lon="-19.069272995">
<ele>754.328125</ele>
<time>2012-07-23T17:14:32Z</time>
<speed>0.470000</speed>
<extensions>
<speed>0.5</speed>
<temp>0.00</temp>
<bpm>0</bpm>
<rpm>0.00</rpm>
</extensions>
</trkpt>
<trkpt lat="63.998455048" lon="-19.069210052">
<ele>753.359375</ele>
<time>2012-07-23T17:14:37Z</time>
<speed>0.450000</speed>
<extensions>
<speed>0.5</speed>
<temp>0.00</temp>
<bpm>0</bpm>
<rpm>0.00</rpm>
</extensions>
</trkpt>
<trkpt lat="63.998428345" lon="-19.069185257">
<ele>752.140625</ele>
<time>2012-07-23T17:14:42Z</time>
<speed>0.700000</speed>
<extensions>
<speed>0.7</speed>
<temp>0.00</temp>
<bpm>0</bpm>
<rpm>0.00</rpm>
</extensions>
</trkpt>
<trkpt lat="63.998394012" lon="-19.069108963">
<ele>751.125000</ele>
<time>2012-07-23T17:14:47Z</time>
<speed>0.800000</speed>
<extensions>
<speed>0.8</speed>
<temp>0.00</temp>
<bpm>0</bpm>
<rpm>0.00</rpm>
</extensions>
</trkpt>
<trkpt lat="63.998390198" lon="-19.069028854">
<ele>749.359375</ele>
<time>2012-07-23T17:14:52Z</time>
<speed>0.450000</speed>
<extensions>
<speed>0.5</speed>
<temp>0.00</temp>
<bpm>0</bpm>
<rpm>0.00</rpm>
</extensions>
</trkpt>
<trkpt lat="63.998344421" lon="-19.068975449">
<ele>747.750000</ele>
<time>2012-07-23T17:14:57Z</time>
<speed>0.850000</speed>
<extensions>
<speed>0.8</speed>
<temp>0.00</temp>
<bpm>0</bpm>
<rpm>0.00</rpm>
</extensions>
</trkpt>
<trkpt lat="63.998298645" lon="-19.068908691">
<ele>746.062500</ele>
<time>2012-07-23T17:15:02Z</time>
<speed>0.930000</speed>
<extensions>
<speed>0.9</speed>
<temp>0.00</temp>
<bpm>0</bpm>
<rpm>0.00</rpm>
</extensions>
</trkpt>
<trkpt lat="63.998279572" lon="-19.068866730">
<ele>745.281250</ele>
<time>2012-07-23T17:15:07Z</time>
<speed>0.050000</speed>
<extensions>
<speed>0.1</speed>
<temp>0.00</temp>
<bpm>0</bpm>
<rpm>0.00</rpm>
</extensions>
</trkpt>
<trkpt lat="63.998279572" lon="-19.068866730">
<ele>745.125000</ele>
<time>2012-07-23T17:15:12Z</time>
<speed>0.010000</speed>
<extensions>
<speed>0.0</speed>
<temp>0.00</temp>
<bpm>0</bpm>
<rpm>0.00</rpm>
</extensions>
</trkpt>
<trkpt lat="63.998279572" lon="-19.068864822">
<ele>745.140625</ele>
<time>2012-07-23T17:15:17Z</time>
<speed>0.110000</speed>
<extensions>
<speed>0.1</speed>
<temp>0.00</temp>
<bpm>0</bpm>
<rpm>0.00</rpm>
</extensions>
</trkpt>
<trkpt lat="63.998222351" lon="-19.068826675">
<ele>744.171875</ele>
<time>2012-07-23T17:15:22Z</time>
<speed>0.680000</speed>
<extensions>
<speed>0.7</speed>
<temp>0.00</temp>
<bpm>0</bpm>
<rpm>0.00</rpm>
</extensions>
</trkpt>
<trkpt lat="63.998218536" lon="-19.068819046">
<ele>742.687500</ele>
<time>2012-07-23T17:15:27Z</time>
<speed>0.610000</speed>
<extensions>
<speed>0.6</speed>
<temp>0.00</temp>
<bpm>0</bpm>
<rpm>0.00</rpm>
</extensions>
</trkpt>
<trkpt lat="63.998222351" lon="-19.068761826">
<ele>741.093750</ele>
<time>2012-07-23T17:15:32Z</time>
<speed>0.610000</speed>
<extensions>
<speed>0.6</speed>
<temp>0.00</temp>
<bpm>0</bpm>
<rpm>0.00</rpm>
</extensions>
</trkpt>
<trkpt lat="63.998199463" lon="-19.068706512">
<ele>739.796875</ele>
<time>2012-07-23T17:15:37Z</time>
<speed>0.700000</speed>
<extensions>
<speed>0.7</speed>
<temp>0.00</temp>
<bpm>0</bpm>
<rpm>0.00</rpm>
</extensions>
</trkpt>
<trkpt lat="63.998222351" lon="-19.068643570">
<ele>737.984375</ele>
<time>2012-07-23T17:15:42Z</time>
<speed>0.930000</speed>
<extensions>
<speed>0.9</speed>
<temp>0.00</temp>
<bpm>0</bpm>
<rpm>0.00</rpm>
</extensions>
</trkpt>
<trkpt lat="63.998210907" lon="-19.068592072">
<ele>736.546875</ele>
<time>2012-07-23T17:15:47Z</time>
<speed>0.260000</speed>
<extensions>
<speed>0.3</speed>
<temp>0.00</temp>
<bpm>0</bpm>
<rpm>0.00</rpm>
</extensions>
</trkpt>
<trkpt lat="63.998176575" lon="-19.068561554">
<ele>735.609375</ele>
<time>2012-07-23T17:15:52Z</time>
<speed>0.690000</speed>
<extensions>
<speed>0.7</speed>
<temp>0.00</temp>
<bpm>0</bpm>
<rpm>0.00</rpm>
</extensions>
</trkpt>
<trkpt lat="63.998153687" lon="-19.068496704">
<ele>734.484375</ele>
<time>2012-07-23T17:15:57Z</time>
<speed>0.620000</speed>
<extensions>
<speed>0.6</speed>
<temp>0.00</temp>
<bpm>0</bpm>
<rpm>0.00</rpm>
</extensions>
</trkpt>
<trkpt lat="63.998119354" lon="-19.068464279">
<ele>733.062500</ele>
<time>2012-07-23T17:16:02Z</time>
<speed>0.550000</speed>
<extensions>
<speed>0.6</speed>
<temp>0.00</temp>
<bpm>0</bpm>
<rpm>0.00</rpm>
</extensions>
</trkpt>
<trkpt lat="63.998081207" lon="-19.068454742">
<ele>731.328125</ele>
<time>2012-07-23T17:16:07Z</time>
<speed>0.600000</speed>
<extensions>
<speed>0.6</speed>
<temp>0.00</temp>
<bpm>0</bpm>
<rpm>0.00</rpm>
</extensions>
</trkpt>
<trkpt lat="63.998111725" lon="-19.068380356">
<ele>729.390625</ele>
<time>2012-07-23T17:16:12Z</time>
<speed>0.820000</speed>
<extensions>
<speed>0.8</speed>
<temp>0.00</temp>
<bpm>0</bpm>
<rpm>0.00</rpm>
</extensions>
</trkpt>
<trkpt lat="63.998134613" lon="-19.068292618">
<ele>728.359375</ele>
<time>2012-07-23T17:16:17Z</time>
<speed>0.570000</speed>
<extensions>
<speed>0.6</speed>
<temp>0.00</temp>
<bpm>0</bpm>
<rpm>0.00</rpm>
</extensions>
</trkpt>
<trkpt lat="63.998096466" lon="-19.068231583">
<ele>727.484375</ele>
<time>2012-07-23T17:16:22Z</time>
<speed>0.550000</speed>
<extensions>
<speed>0.6</speed>
<temp>0.00</temp>
<bpm>0</bpm>
<rpm>0.00</rpm>
</extensions>
</trkpt>
<trkpt lat="63.998073578" lon="-19.068199158">
<ele>726.328125</ele>
<time>2012-07-23T17:16:27Z</time>
<speed>0.530000</speed>
<extensions>
<speed>0.5</speed>
<temp>0.00</temp>
<bpm>0</bpm>
<rpm>0.00</rpm>
</extensions>
</trkpt>
<trkpt lat="63.998100281" lon="-19.068115234">
<ele>724.750000</ele>
<time>2012-07-23T17:16:32Z</time>
<speed>0.650000</speed>
<extensions>
<speed>0.6</speed>
<temp>0.00</temp>
<bpm>0</bpm>
<rpm>0.00</rpm>
</extensions>
</trkpt>
<trkpt lat="63.998100281" lon="-19.068046570">
<ele>723.609375</ele>
<time>2012-07-23T17:16:37Z</time>
<speed>0.690000</speed>
<extensions>
<speed>0.7</speed>
<temp>0.00</temp>
<bpm>0</bpm>
<rpm>0.00</rpm>
</extensions>
</trkpt>
<trkpt lat="63.998096466" lon="-19.068050385">
<ele>721.812500</ele>
<time>2012-07-23T17:16:42Z</time>
<speed>0.070000</speed>
<extensions>
<speed>0.1</speed>
<temp>0.00</temp>
<bpm>0</bpm>
<rpm>0.00</rpm>
</extensions>
</trkpt>
<trkpt lat="63.998050690" lon="-19.068031311">
<ele>720.015625</ele>
<time>2012-07-23T17:16:47Z</time>
<speed>0.720000</speed>
<extensions>
<speed>0.7</speed>
<temp>0.00</temp>
<bpm>0</bpm>
<rpm>0.00</rpm>
</extensions>
</trkpt>
<trkpt lat="63.998031616" lon="-19.067962646">
<ele>718.453125</ele>
<time>2012-07-23T17:16:52Z</time>
<speed>0.760000</speed>
<extensions>
<speed>0.8</speed>
<temp>0.00</temp>
<bpm>0</bpm>
<rpm>0.00</rpm>
</extensions>
</trkpt>
<trkpt lat="63.998001099" lon="-19.067918777">
<ele>717.312500</ele>
<time>2012-07-23T17:16:57Z</time>
<speed>0.670000</speed>
<extensions>
<speed>0.7</speed>
<temp>0.00</temp>
<bpm>0</bpm>
<rpm>0.00</rpm>
</extensions>
</trkpt>
<trkpt lat="63.997962952" lon="-19.067895889">
<ele>716.281250</ele>
<time>2012-07-23T17:17:02Z</time>
<speed>0.710000</speed>
<extensions>
<speed>0.7</speed>
<temp>0.00</temp>
<bpm>0</bpm>
<rpm>0.00</rpm>
</extensions>
</trkpt>
<trkpt lat="63.997955322" lon="-19.067865372">
<ele>715.218750</ele>
<time>2012-07-23T17:17:07Z</time>
<speed>0.440000</speed>
<extensions>
<speed>0.4</speed>
<temp>0.00</temp>
<bpm>0</bpm>
<rpm>0.00</rpm>
</extensions>
</trkpt>
<trkpt lat="63.997974396" lon="-19.067857742">
<ele>713.468750</ele>
<time>2012-07-23T17:17:12Z</time>
<speed>0.100000</speed>
<extensions>
<speed>0.1</speed>
<temp>0.00</temp>
<bpm>0</bpm>
<rpm>0.00</rpm>
</extensions>
</trkpt>
<trkpt lat="63.997974396" lon="-19.067831039">
<ele>712.203125</ele>
<time>2012-07-23T17:17:17Z</time>
<speed>0.620000</speed>
<extensions>
<speed>0.6</speed>
<temp>0.00</temp>
<bpm>0</bpm>
<rpm>0.00</rpm>
</extensions>
</trkpt>
<trkpt lat="63.997966766" lon="-19.067756653">
<ele>710.125000</ele>
<time>2012-07-23T17:17:22Z</time>
<speed>0.850000</speed>
<extensions>
<speed>0.8</speed>
<temp>0.00</temp>
<bpm>0</bpm>
<rpm>0.00</rpm>
</extensions>
</trkpt>
<trkpt lat="63.997943878" lon="-19.067695618">
<ele>708.234375</ele>
<time>2012-07-23T17:17:27Z</time>
<speed>0.090000</speed>
<extensions>
<speed>0.1</speed>
<temp>0.00</temp>
<bpm>0</bpm>
<rpm>0.00</rpm>
</extensions>
</trkpt>
<trkpt lat="63.997951508" lon="-19.067687988">
<ele>708.671875</ele>
<time>2012-07-23T17:17:32Z</time>
<speed>0.830000</speed>
<extensions>
<speed>0.8</speed>
<temp>0.00</temp>
<bpm>0</bpm>
<rpm>0.00</rpm>
</extensions>
</trkpt>
<trkpt lat="63.997928619" lon="-19.067615509">
<ele>707.437500</ele>
<time>2012-07-23T17:17:37Z</time>
<speed>0.850000</speed>
<extensions>
<speed>0.8</speed>
<temp>0.00</temp>
<bpm>0</bpm>
<rpm>0.00</rpm>
</extensions>
</trkpt>
<trkpt lat="63.997924805" lon="-19.067512512">
<ele>705.968750</ele>
<time>2012-07-23T17:17:42Z</time>
<speed>0.890000</speed>
<extensions>
<speed>0.9</speed>
<temp>0.00</temp>
<bpm>0</bpm>
<rpm>0.00</rpm>
</extensions>
</trkpt>
<trkpt lat="63.997928619" lon="-19.067386627">
<ele>705.468750</ele>
<time>2012-07-23T17:17:47Z</time>
<speed>0.480000</speed>
<extensions>
<speed>0.5</speed>
<temp>0.00</temp>
<bpm>0</bpm>
<rpm>0.00</rpm>
</extensions>
</trkpt>
<trkpt lat="63.997940063" lon="-19.067276001">
<ele>704.937500</ele>
<time>2012-07-23T17:17:52Z</time>
<speed>1.170000</speed>
<extensions>
<speed>1.2</speed>
<temp>0.00</temp>
<bpm>0</bpm>
<rpm>0.00</rpm>
</extensions>
</trkpt>
<trkpt lat="63.997951508" lon="-19.067123413">
<ele>704.390625</ele>
<time>2012-07-23T17:17:57Z</time>
<speed>1.290000</speed>
<extensions>
<speed>1.3</speed>
<temp>0.00</temp>
<bpm>0</bpm>
<rpm>0.00</rpm>
</extensions>
</trkpt>
<trkpt lat="63.997940063" lon="-19.067037582">
<ele>704.578125</ele>
<time>2012-07-23T17:18:02Z</time>
<speed>0.680000</speed>
<extensions>
<speed>0.7</speed>
<temp>0.00</temp>
<bpm>0</bpm>
<rpm>0.00</rpm>
</extensions>
</trkpt>
<trkpt lat="63.997882843" lon="-19.067041397">
<ele>702.937500</ele>
<time>2012-07-23T17:18:07Z</time>
<speed>0.580000</speed>
<extensions>
<speed>0.6</speed>
<temp>0.00</temp>
<bpm>0</bpm>
<rpm>0.00</rpm>
</extensions>
</trkpt>
<trkpt lat="63.997871399" lon="-19.067010880">
<ele>702.078125</ele>
<time>2012-07-23T17:18:12Z</time>
<speed>1.020000</speed>
<extensions>
<speed>1.0</speed>
<temp>0.00</temp>
<bpm>0</bpm>
<rpm>0.00</rpm>
</extensions>
</trkpt>
<trkpt lat="63.997829437" lon="-19.066879272">
<ele>700.078125</ele>
<time>2012-07-23T17:18:17Z</time>
<speed>1.070000</speed>
<extensions>
<speed>1.1</speed>
<temp>0.00</temp>
<bpm>0</bpm>
<rpm>0.00</rpm>
</extensions>
</trkpt>
<trkpt lat="63.997837067" lon="-19.066768646">
<ele>700.890625</ele>
<time>2012-07-23T17:18:22Z</time>
<speed>1.310000</speed>
<extensions>
<speed>1.3</speed>
<temp>0.00</temp>
<bpm>0</bpm>
<rpm>0.00</rpm>
</extensions>
</trkpt>
<trkpt lat="63.997806549" lon="-19.066621780">
<ele>700.484375</ele>
<time>2012-07-23T17:18:27Z</time>
<speed>1.190000</speed>
<extensions>
<speed>1.2</speed>
<temp>0.00</temp>
<bpm>0</bpm>
<rpm>0.00</rpm>
</extensions>
</trkpt>
<trkpt lat="63.997795105" lon="-19.066474915">
<ele>700.531250</ele>
<time>2012-07-23T17:18:32Z</time>
<speed>1.470000</speed>
<extensions>
<speed>1.5</speed>
<temp>0.00</temp>
<bpm>0</bpm>
<rpm>0.00</rpm>
</extensions>
</trkpt>
<trkpt lat="63.997749329" lon="-19.066396713">
<ele>698.578125</ele>
<time>2012-07-23T17:18:37Z</time>
<speed>0.650000</speed>
<extensions>
<speed>0.6</speed>
<temp>0.00</temp>
<bpm>0</bpm>
<rpm>0.00</rpm>
</extensions>
</trkpt>
<trkpt lat="63.997730255" lon="-19.066356659">
<ele>698.203125</ele>
<time>2012-07-23T17:18:42Z</time>
<speed>1.140000</speed>
<extensions>
<speed>1.1</speed>
<temp>0.00</temp>
<bpm>0</bpm>
<rpm>0.00</rpm>
</extensions>
</trkpt>
<trkpt lat="63.997722626" lon="-19.066228867">
<ele>698.687500</ele>
<time>2012-07-23T17:18:47Z</time>
<speed>1.210000</speed>
<extensions>
<speed>1.2</speed>
<temp>0.00</temp>
<bpm>0</bpm>
<rpm>0.00</rpm>
</extensions>
</trkpt>
<trkpt lat="63.997699738" lon="-19.066160202">
<ele>699.109375</ele>
<time>2012-07-23T17:18:52Z</time>
<speed>0.580000</speed>
<extensions>
<speed>0.6</speed>
<temp>0.00</temp>
<bpm>0</bpm>
<rpm>0.00</rpm>
</extensions>
</trkpt>
<trkpt lat="63.997669220" lon="-19.066078186">
<ele>698.203125</ele>
<time>2012-07-23T17:18:57Z</time>
<speed>1.100000</speed>
<extensions>
<speed>1.1</speed>
<temp>0.00</temp>
<bpm>0</bpm>
<rpm>0.00</rpm>
</extensions>
</trkpt>
<trkpt lat="63.997653961" lon="-19.065927505">
<ele>698.656250</ele>
<time>2012-07-23T17:19:02Z</time>
<speed>1.340000</speed>
<extensions>
<speed>1.3</speed>
<temp>0.00</temp>
<bpm>0</bpm>
<rpm>0.00</rpm>
</extensions>
</trkpt>
<trkpt lat="63.997623444" lon="-19.065813065">
<ele>698.687500</ele>
<time>2012-07-23T17:19:07Z</time>
<speed>1.320000</speed>
<extensions>
<speed>1.3</speed>
<temp>0.00</temp>
<bpm>0</bpm>
<rpm>0.00</rpm>
</extensions>
</trkpt>
<trkpt lat="63.997585297" lon="-19.065681458">
<ele>697.109375</ele>
<time>2012-07-23T17:19:12Z</time>
<speed>1.220000</speed>
<extensions>
<speed>1.2</speed>
<temp>0.00</temp>
<bpm>0</bpm>
<rpm>0.00</rpm>
</extensions>
</trkpt>
<trkpt lat="63.997558594" lon="-19.065502167">
<ele>696.140625</ele>
<time>2012-07-23T17:19:17Z</time>
<speed>1.740000</speed>
<extensions>
<speed>1.7</speed>
<temp>0.00</temp>
<bpm>0</bpm>
<rpm>0.00</rpm>
</extensions>
</trkpt>
<trkpt lat="63.997528076" lon="-19.065366745">
<ele>695.015625</ele>
<time>2012-07-23T17:19:22Z</time>
<speed>1.500000</speed>
<extensions>
<speed>1.5</speed>
<temp>0.00</temp>
<bpm>0</bpm>
<rpm>0.00</rpm>
</extensions>
</trkpt>
<trkpt lat="63.997493744" lon="-19.065200806">
<ele>694.312500</ele>
<time>2012-07-23T17:19:27Z</time>
<speed>1.470000</speed>
<extensions>
<speed>1.5</speed>
<temp>0.00</temp>
<bpm>0</bpm>
<rpm>0.00</rpm>
</extensions>
</trkpt>
<trkpt lat="63.997474670" lon="-19.065050125">
<ele>695.265625</ele>
<time>2012-07-23T17:19:32Z</time>
<speed>1.210000</speed>
<extensions>
<speed>1.2</speed>
<temp>0.00</temp>
<bpm>0</bpm>
<rpm>0.00</rpm>
</extensions>
</trkpt>
<trkpt lat="63.997436523" lon="-19.064897537">
<ele>694.296875</ele>
<time>2012-07-23T17:19:37Z</time>
<speed>1.570000</speed>
<extensions>
<speed>1.6</speed>
<temp>0.00</temp>
<bpm>0</bpm>
<rpm>0.00</rpm>
</extensions>
</trkpt>
<trkpt lat="63.997379303" lon="-19.064809799">
<ele>692.734375</ele>
<time>2012-07-23T17:19:42Z</time>
<speed>1.220000</speed>
<extensions>
<speed>1.2</speed>
<temp>0.00</temp>
<bpm>0</bpm>
<rpm>0.00</rpm>
</extensions>
</trkpt>
<trkpt lat="63.997314453" lon="-19.064775467">
<ele>692.218750</ele>
<time>2012-07-23T17:19:47Z</time>
<speed>1.720000</speed>
<extensions>
<speed>1.7</speed>
<temp>0.00</temp>
<bpm>0</bpm>
<rpm>0.00</rpm>
</extensions>
</trkpt>
<trkpt lat="63.997226715" lon="-19.064723969">
<ele>691.625000</ele>
<time>2012-07-23T17:19:52Z</time>
<speed>1.390000</speed>
<extensions>
<speed>1.4</speed>
<temp>0.00</temp>
<bpm>0</bpm>
<rpm>0.00</rpm>
</extensions>
</trkpt>
<trkpt lat="63.997158051" lon="-19.064676285">
<ele>691.609375</ele>
<time>2012-07-23T17:19:57Z</time>
<speed>1.370000</speed>
<extensions>
<speed>1.4</speed>
<temp>0.00</temp>
<bpm>0</bpm>
<rpm>0.00</rpm>
</extensions>
</trkpt>
<trkpt lat="63.997108459" lon="-19.064670563">
<ele>691.546875</ele>
<time>2012-07-23T17:20:02Z</time>
<speed>1.600000</speed>
<extensions>
<speed>1.6</speed>
<temp>0.00</temp>
<bpm>0</bpm>
<rpm>0.00</rpm>
</extensions>
</trkpt>
<trkpt lat="63.997043610" lon="-19.064657211">
<ele>691.656250</ele>
<time>2012-07-23T17:20:07Z</time>
<speed>1.250000</speed>
<extensions>
<speed>1.3</speed>
<temp>0.00</temp>
<bpm>0</bpm>
<rpm>0.00</rpm>
</extensions>
</trkpt>
<trkpt lat="63.996974945" lon="-19.064599991">
<ele>692.109375</ele>
<time>2012-07-23T17:20:12Z</time>
<speed>1.540000</speed>
<extensions>
<speed>1.5</speed>
<temp>0.00</temp>
<bpm>0</bpm>
<rpm>0.00</rpm>
</extensions>
</trkpt>
<trkpt lat="63.996883392" lon="-19.064504623">
<ele>690.562500</ele>
<time>2012-07-23T17:20:17Z</time>
<speed>1.390000</speed>
<extensions>
<speed>1.4</speed>
<temp>0.00</temp>
<bpm>0</bpm>
<rpm>0.00</rpm>
</extensions>
</trkpt>
<trkpt lat="63.996841431" lon="-19.064456940">
<ele>689.234375</ele>
<time>2012-07-23T17:20:22Z</time>
<speed>0.050000</speed>
<extensions>
<speed>0.1</speed>
<temp>0.00</temp>
<bpm>0</bpm>
<rpm>0.00</rpm>
</extensions>
</trkpt>
<trkpt lat="63.996795654" lon="-19.064426422">
<ele>688.187500</ele>
<time>2012-07-23T17:20:27Z</time>
<speed>1.710000</speed>
<extensions>
<speed>1.7</speed>
<temp>0.00</temp>
<bpm>0</bpm>
<rpm>0.00</rpm>
</extensions>
</trkpt>
<trkpt lat="63.996723175" lon="-19.064357758">
<ele>685.937500</ele>
<time>2012-07-23T17:20:32Z</time>
<speed>1.320000</speed>
<extensions>
<speed>1.3</speed>
<temp>0.00</temp>
<bpm>0</bpm>
<rpm>0.00</rpm>
</extensions>
</trkpt>
<trkpt lat="63.996654510" lon="-19.064310074">
<ele>685.234375</ele>
<time>2012-07-23T17:20:37Z</time>
<speed>1.370000</speed>
<extensions>
<speed>1.4</speed>
<temp>0.00</temp>
<bpm>0</bpm>
<rpm>0.00</rpm>
</extensions>
</trkpt>
<trkpt lat="63.996593475" lon="-19.064249039">
<ele>685.312500</ele>
<time>2012-07-23T17:20:42Z</time>
<speed>1.390000</speed>
<extensions>
<speed>1.4</speed>
<temp>0.00</temp>
<bpm>0</bpm>
<rpm>0.00</rpm>
</extensions>
</trkpt>
<trkpt lat="63.996528625" lon="-19.064182281">
<ele>684.843750</ele>
<time>2012-07-23T17:20:47Z</time>
<speed>1.120000</speed>
<extensions>
<speed>1.1</speed>
<temp>0.00</temp>
<bpm>0</bpm>
<rpm>0.00</rpm>
</extensions>
</trkpt>
<trkpt lat="63.996459961" lon="-19.064161301">
<ele>683.406250</ele>
<time>2012-07-23T17:20:52Z</time>
<speed>1.390000</speed>
<extensions>
<speed>1.4</speed>
<temp>0.00</temp>
<bpm>0</bpm>
<rpm>0.00</rpm>
</extensions>
</trkpt>
<trkpt lat="63.996395111" lon="-19.064155579">
<ele>683.593750</ele>
<time>2012-07-23T17:20:57Z</time>
<speed>1.500000</speed>
<extensions>
<speed>1.5</speed>
<temp>0.00</temp>
<bpm>0</bpm>
<rpm>0.00</rpm>
</extensions>
</trkpt>
<trkpt lat="63.996334076" lon="-19.064071655">
<ele>683.125000</ele>
<time>2012-07-23T17:21:02Z</time>
<speed>1.540000</speed>
<extensions>
<speed>1.5</speed>
<temp>0.00</temp>
<bpm>0</bpm>
<rpm>0.00</rpm>
</extensions>
</trkpt>
<trkpt lat="63.996269226" lon="-19.064052582">
<ele>684.078125</ele>
<time>2012-07-23T17:21:07Z</time>
<speed>1.370000</speed>
<extensions>
<speed>1.4</speed>
<temp>0.00</temp>
<bpm>0</bpm>
<rpm>0.00</rpm>
</extensions>
</trkpt>
<trkpt lat="63.996223450" lon="-19.064050674">
<ele>685.921875</ele>
<time>2012-07-23T17:21:12Z</time>
<speed>1.340000</speed>
<extensions>
<speed>1.3</speed>
<temp>0.00</temp>
<bpm>0</bpm>
<rpm>0.00</rpm>
</extensions>
</trkpt>
<trkpt lat="63.996200562" lon="-19.064008713">
<ele>687.453125</ele>
<time>2012-07-23T17:21:17Z</time>
<speed>0.920000</speed>
<extensions>
<speed>0.9</speed>
<temp>0.00</temp>
<bpm>0</bpm>
<rpm>0.00</rpm>
</extensions>
</trkpt>
<trkpt lat="63.996215820" lon="-19.063972473">
<ele>689.921875</ele>
<time>2012-07-23T17:21:22Z</time>
<speed>1.000000</speed>
<extensions>
<speed>1.0</speed>
<temp>0.00</temp>
<bpm>0</bpm>
<rpm>0.00</rpm>
</extensions>
</trkpt>
<trkpt lat="63.996231079" lon="-19.064006805">
<ele>693.453125</ele>
<time>2012-07-23T17:21:27Z</time>
<speed>0.150000</speed>
<extensions>
<speed>0.2</speed>
<temp>0.00</temp>
<bpm>0</bpm>
<rpm>0.00</rpm>
</extensions>
</trkpt>
<trkpt lat="63.996242523" lon="-19.064020157">
<ele>695.515625</ele>
<time>2012-07-23T17:21:32Z</time>
<speed>0.560000</speed>
<extensions>
<speed>0.6</speed>
<temp>0.00</temp>
<bpm>0</bpm>
<rpm>0.00</rpm>
</extensions>
</trkpt>
<trkpt lat="63.996231079" lon="-19.064006805">
<ele>696.531250</ele>
<time>2012-07-23T17:21:37Z</time>
<speed>0.610000</speed>
<extensions>
<speed>0.6</speed>
<temp>0.00</temp>
<bpm>0</bpm>
<rpm>0.00</rpm>
</extensions>
</trkpt>
<trkpt lat="63.996238708" lon="-19.063934326">
<ele>698.515625</ele>
<time>2012-07-23T17:21:42Z</time>
<speed>0.990000</speed>
<extensions>
<speed>1.0</speed>
<temp>0.00</temp>
<bpm>0</bpm>
<rpm>0.00</rpm>
</extensions>
</trkpt>
<trkpt lat="63.996196747" lon="-19.063907623">
<ele>698.734375</ele>
<time>2012-07-23T17:21:47Z</time>
<speed>0.750000</speed>
<extensions>
<speed>0.8</speed>
<temp>0.00</temp>
<bpm>0</bpm>
<rpm>0.00</rpm>
</extensions>
</trkpt>
<trkpt lat="63.996170044" lon="-19.063829422">
<ele>698.640625</ele>
<time>2012-07-23T17:21:52Z</time>
<speed>1.060000</speed>
<extensions>
<speed>1.1</speed>
<temp>0.00</temp>
<bpm>0</bpm>
<rpm>0.00</rpm>
</extensions>
</trkpt>
<trkpt lat="63.996131897" lon="-19.063749313">
<ele>699.078125</ele>
<time>2012-07-23T17:21:57Z</time>
<speed>1.350000</speed>
<extensions>
<speed>1.4</speed>
<temp>0.00</temp>
<bpm>0</bpm>
<rpm>0.00</rpm>
</extensions>
</trkpt>
<trkpt lat="63.996086121" lon="-19.063682556">
<ele>698.546875</ele>
<time>2012-07-23T17:22:02Z</time>
<speed>1.500000</speed>
<extensions>
<speed>1.5</speed>
<temp>0.00</temp>
<bpm>0</bpm>
<rpm>0.00</rpm>
</extensions>
</trkpt>
<trkpt lat="63.996047974" lon="-19.063613892">
<ele>698.296875</ele>
<time>2012-07-23T17:22:07Z</time>
<speed>0.730000</speed>
<extensions>
<speed>0.7</speed>
<temp>0.00</temp>
<bpm>0</bpm>
<rpm>0.00</rpm>
</extensions>
</trkpt>
<trkpt lat="63.996006012" lon="-19.063575745">
<ele>698.359375</ele>
<time>2012-07-23T17:22:12Z</time>
<speed>0.960000</speed>
<extensions>
<speed>1.0</speed>
<temp>0.00</temp>
<bpm>0</bpm>
<rpm>0.00</rpm>
</extensions>
</trkpt>
<trkpt lat="63.995986938" lon="-19.063512802">
<ele>697.937500</ele>
<time>2012-07-23T17:22:17Z</time>
<speed>0.480000</speed>
<extensions>
<speed>0.5</speed>
<temp>0.00</temp>
<bpm>0</bpm>
<rpm>0.00</rpm>
</extensions>
</trkpt>
<trkpt lat="63.995964050" lon="-19.063495636">
<ele>697.312500</ele>
<time>2012-07-23T17:22:22Z</time>
<speed>0.810000</speed>
<extensions>
<speed>0.8</speed>
<temp>0.00</temp>
<bpm>0</bpm>
<rpm>0.00</rpm>
</extensions>
</trkpt>
<trkpt lat="63.995941162" lon="-19.063489914">
<ele>696.546875</ele>
<time>2012-07-23T17:22:27Z</time>
<speed>0.900000</speed>
<extensions>
<speed>0.9</speed>
<temp>0.00</temp>
<bpm>0</bpm>
<rpm>0.00</rpm>
</extensions>
</trkpt>
<trkpt lat="63.995914459" lon="-19.063463211">
<ele>696.062500</ele>
<time>2012-07-23T17:22:32Z</time>
<speed>0.760000</speed>
<extensions>
<speed>0.8</speed>
<temp>0.00</temp>
<bpm>0</bpm>
<rpm>0.00</rpm>
</extensions>
</trkpt>
<trkpt lat="63.995891571" lon="-19.063432693">
<ele>695.390625</ele>
<time>2012-07-23T17:22:37Z</time>
<speed>0.900000</speed>
<extensions>
<speed>0.9</speed>
<temp>0.00</temp>
<bpm>0</bpm>
<rpm>0.00</rpm>
</extensions>
</trkpt>
<trkpt lat="63.995868683" lon="-19.063383102">
<ele>695.296875</ele>
<time>2012-07-23T17:22:42Z</time>
<speed>0.680000</speed>
<extensions>
<speed>0.7</speed>
<temp>0.00</temp>
<bpm>0</bpm>
<rpm>0.00</rpm>
</extensions>
</trkpt>
<trkpt lat="63.995822906" lon="-19.063360214">
<ele>694.125000</ele>
<time>2012-07-23T17:22:47Z</time>
<speed>0.670000</speed>
<extensions>
<speed>0.7</speed>
<temp>0.00</temp>
<bpm>0</bpm>
<rpm>0.00</rpm>
</extensions>
</trkpt>
<trkpt lat="63.995780945" lon="-19.063331604">
<ele>692.750000</ele>
<time>2012-07-23T17:22:52Z</time>
<speed>0.590000</speed>
<extensions>
<speed>0.6</speed>
<temp>0.00</temp>
<bpm>0</bpm>
<rpm>0.00</rpm>
</extensions>
</trkpt>
<trkpt lat="63.995754242" lon="-19.063301086">
<ele>692.062500</ele>
<time>2012-07-23T17:22:57Z</time>
<speed>0.930000</speed>
<extensions>
<speed>0.9</speed>
<temp>0.00</temp>
<bpm>0</bpm>
<rpm>0.00</rpm>
</extensions>
</trkpt>
<trkpt lat="63.995727539" lon="-19.063274384">
<ele>691.125000</ele>
<time>2012-07-23T17:23:02Z</time>
<speed>0.680000</speed>
<extensions>
<speed>0.7</speed>
<temp>0.00</temp>
<bpm>0</bpm>
<rpm>0.00</rpm>
</extensions>
</trkpt>
<trkpt lat="63.995723724" lon="-19.063308716">
<ele>689.390625</ele>
<time>2012-07-23T17:23:07Z</time>
<speed>0.670000</speed>
<extensions>
<speed>0.7</speed>
<temp>0.00</temp>
<bpm>0</bpm>
<rpm>0.00</rpm>
</extensions>
</trkpt>
<trkpt lat="63.995708466" lon="-19.063270569">
<ele>688.593750</ele>
<time>2012-07-23T17:23:12Z</time>
<speed>0.770000</speed>
<extensions>
<speed>0.8</speed>
<temp>0.00</temp>
<bpm>0</bpm>
<rpm>0.00</rpm>
</extensions>
</trkpt>
<trkpt lat="63.995674133" lon="-19.063213348">
<ele>688.093750</ele>
<time>2012-07-23T17:23:17Z</time>
<speed>0.800000</speed>
<extensions>
<speed>0.8</speed>
<temp>0.00</temp>
<bpm>0</bpm>
<rpm>0.00</rpm>
</extensions>
</trkpt>
<trkpt lat="63.995628357" lon="-19.063154221">
<ele>687.328125</ele>
<time>2012-07-23T17:23:22Z</time>
<speed>0.560000</speed>
<extensions>
<speed>0.6</speed>
<temp>0.00</temp>
<bpm>0</bpm>
<rpm>0.00</rpm>
</extensions>
</trkpt>
<trkpt lat="63.995613098" lon="-19.063125610">
<ele>686.875000</ele>
<time>2012-07-23T17:23:27Z</time>
<speed>0.260000</speed>
<extensions>
<speed>0.3</speed>
<temp>0.00</temp>
<bpm>0</bpm>
<rpm>0.00</rpm>
</extensions>
</trkpt>
<trkpt lat="63.995567322" lon="-19.063102722">
<ele>685.484375</ele>
<time>2012-07-23T17:23:32Z</time>
<speed>0.420000</speed>
<extensions>
<speed>0.4</speed>
<temp>0.00</temp>
<bpm>0</bpm>
<rpm>0.00</rpm>
</extensions>
</trkpt>
<trkpt lat="63.995548248" lon="-19.063047409">
<ele>683.437500</ele>
<time>2012-07-23T17:23:37Z</time>
<speed>0.910000</speed>
<extensions>
<speed>0.9</speed>
<temp>0.00</temp>
<bpm>0</bpm>
<rpm>0.00</rpm>
</extensions>
</trkpt>
<trkpt lat="63.995521545" lon="-19.062988281">
<ele>680.687500</ele>
<time>2012-07-23T17:23:42Z</time>
<speed>0.960000</speed>
<extensions>
<speed>1.0</speed>
<temp>0.00</temp>
<bpm>0</bpm>
<rpm>0.00</rpm>
</extensions>
</trkpt>
<trkpt lat="63.995487213" lon="-19.062931061">
<ele>679.281250</ele>
<time>2012-07-23T17:23:47Z</time>
<speed>0.680000</speed>
<extensions>
<speed>0.7</speed>
<temp>0.00</temp>
<bpm>0</bpm>
<rpm>0.00</rpm>
</extensions>
</trkpt>
<trkpt lat="63.995452881" lon="-19.062860489">
<ele>679.390625</ele>
<time>2012-07-23T17:23:52Z</time>
<speed>0.920000</speed>
<extensions>
<speed>0.9</speed>
<temp>0.00</temp>
<bpm>0</bpm>
<rpm>0.00</rpm>
</extensions>
</trkpt>
<trkpt lat="63.995433807" lon="-19.062772751">
<ele>679.625000</ele>
<time>2012-07-23T17:23:57Z</time>
<speed>1.210000</speed>
<extensions>
<speed>1.2</speed>
<temp>0.00</temp>
<bpm>0</bpm>
<rpm>0.00</rpm>
</extensions>
</trkpt>
<trkpt lat="63.995403290" lon="-19.062738419">
<ele>679.078125</ele>
<time>2012-07-23T17:24:02Z</time>
<speed>0.780000</speed>
<extensions>
<speed>0.8</speed>
<temp>0.00</temp>
<bpm>0</bpm>
<rpm>0.00</rpm>
</extensions>
</trkpt>
<trkpt lat="63.995426178" lon="-19.062652588">
<ele>678.218750</ele>
<time>2012-07-23T17:24:07Z</time>
<speed>0.840000</speed>
<extensions>
<speed>0.8</speed>
<temp>0.00</temp>
<bpm>0</bpm>
<rpm>0.00</rpm>
</extensions>
</trkpt>
<trkpt lat="63.995365143" lon="-19.062580109">
<ele>675.968750</ele>
<time>2012-07-23T17:24:12Z</time>
<speed>1.350000</speed>
<extensions>
<speed>1.4</speed>
<temp>0.00</temp>
<bpm>0</bpm>
<rpm>0.00</rpm>
</extensions>
</trkpt>
<trkpt lat="63.995311737" lon="-19.062538147">
<ele>674.640625</ele>
<time>2012-07-23T17:24:17Z</time>
<speed>1.030000</speed>
<extensions>
<speed>1.0</speed>
<temp>0.00</temp>
<bpm>0</bpm>
<rpm>0.00</rpm>
</extensions>
</trkpt>
<trkpt lat="63.995330811" lon="-19.062524796">
<ele>674.671875</ele>
<time>2012-07-23T17:24:22Z</time>
<speed>0.350000</speed>
<extensions>
<speed>0.3</speed>
<temp>0.00</temp>
<bpm>0</bpm>
<rpm>0.00</rpm>
</extensions>
</trkpt>
<trkpt lat="63.995334625" lon="-19.062555313">
<ele>672.765625</ele>
<time>2012-07-23T17:24:27Z</time>
<speed>1.270000</speed>
<extensions>
<speed>1.3</speed>
<temp>0.00</temp>
<bpm>0</bpm>
<rpm>0.00</rpm>
</extensions>
</trkpt>
<trkpt lat="63.995304108" lon="-19.062587738">
<ele>670.296875</ele>
<time>2012-07-23T17:24:32Z</time>
<speed>0.960000</speed>
<extensions>
<speed>1.0</speed>
<temp>0.00</temp>
<bpm>0</bpm>
<rpm>0.00</rpm>
</extensions>
</trkpt>
<trkpt lat="63.995277405" lon="-19.062618256">
<ele>668.781250</ele>
<time>2012-07-23T17:24:37Z</time>
<speed>0.990000</speed>
<extensions>
<speed>1.0</speed>
<temp>0.00</temp>
<bpm>0</bpm>
<rpm>0.00</rpm>
</extensions>
</trkpt>
<trkpt lat="63.995246887" lon="-19.062658310">
<ele>667.343750</ele>
<time>2012-07-23T17:24:42Z</time>
<speed>0.680000</speed>
<extensions>
<speed>0.7</speed>
<temp>0.00</temp>
<bpm>0</bpm>
<rpm>0.00</rpm>
</extensions>
</trkpt>
<trkpt lat="63.995223999" lon="-19.062658310">
<ele>665.906250</ele>
<time>2012-07-23T17:24:47Z</time>
<speed>0.230000</speed>
<extensions>
<speed>0.2</speed>
<temp>0.00</temp>
<bpm>0</bpm>
<rpm>0.00</rpm>
</extensions>
</trkpt>
<trkpt lat="63.995208740" lon="-19.062654495">
<ele>665.031250</ele>
<time>2012-07-23T17:24:52Z</time>
<speed>0.210000</speed>
<extensions>
<speed>0.2</speed>
<temp>0.00</temp>
<bpm>0</bpm>
<rpm>0.00</rpm>
</extensions>
</trkpt>
<trkpt lat="63.995193481" lon="-19.062639236">
<ele>664.328125</ele>
<time>2012-07-23T17:24:57Z</time>
<speed>0.510000</speed>
<extensions>
<speed>0.5</speed>
<temp>0.00</temp>
<bpm>0</bpm>
<rpm>0.00</rpm>
</extensions>
</trkpt>
<trkpt lat="63.995204926" lon="-19.062644958">
<ele>664.671875</ele>
<time>2012-07-23T17:25:02Z</time>
<speed>0.080000</speed>
<extensions>
<speed>0.1</speed>
<temp>0.00</temp>
<bpm>0</bpm>
<rpm>0.00</rpm>
</extensions>
</trkpt>
<trkpt lat="63.995220184" lon="-19.062660217">
<ele>664.750000</ele>
<time>2012-07-23T17:25:07Z</time>
<speed>0.010000</speed>
<extensions>
<speed>0.0</speed>
<temp>0.00</temp>
<bpm>0</bpm>
<rpm>0.00</rpm>
</extensions>
</trkpt>
<trkpt lat="63.995220184" lon="-19.062658310">
<ele>664.625000</ele>
<time>2012-07-23T17:25:12Z</time>
<speed>0.080000</speed>
<extensions>
<speed>0.1</speed>
<temp>0.00</temp>
<bpm>0</bpm>
<rpm>0.00</rpm>
</extensions>
</trkpt>
<trkpt lat="63.995220184" lon="-19.062656403">
<ele>664.578125</ele>
<time>2012-07-23T17:25:17Z</time>
<speed>0.040000</speed>
<extensions>
<speed>0.0</speed>
<temp>0.00</temp>
<bpm>0</bpm>
<rpm>0.00</rpm>
</extensions>
</trkpt>
<trkpt lat="63.995220184" lon="-19.062652588">
<ele>664.609375</ele>
<time>2012-07-23T17:25:22Z</time>
<speed>0.280000</speed>
<extensions>
<speed>0.3</speed>
<temp>0.00</temp>
<bpm>0</bpm>
<rpm>0.00</rpm>
</extensions>
</trkpt>
<trkpt lat="63.995220184" lon="-19.062564850">
<ele>664.609375</ele>
<time>2012-07-23T17:25:27Z</time>
<speed>0.760000</speed>
<extensions>
<speed>0.8</speed>
<temp>0.00</temp>
<bpm>0</bpm>
<rpm>0.00</rpm>
</extensions>
</trkpt>
<trkpt lat="63.995220184" lon="-19.062484741">
<ele>664.531250</ele>
<time>2012-07-23T17:25:32Z</time>
<speed>1.000000</speed>
<extensions>
<speed>1.0</speed>
<temp>0.00</temp>
<bpm>0</bpm>
<rpm>0.00</rpm>
</extensions>
</trkpt>
<trkpt lat="63.995235443" lon="-19.062368393">
<ele>664.515625</ele>
<time>2012-07-23T17:25:37Z</time>
<speed>0.760000</speed>
<extensions>
<speed>0.8</speed>
<temp>0.00</temp>
<bpm>0</bpm>
<rpm>0.00</rpm>
</extensions>
</trkpt>
<trkpt lat="63.995223999" lon="-19.062335968">
<ele>663.046875</ele>
<time>2012-07-23T17:25:42Z</time>
<speed>1.050000</speed>
<extensions>
<speed>1.0</speed>
<temp>0.00</temp>
<bpm>0</bpm>
<rpm>0.00</rpm>
</extensions>
</trkpt>
<trkpt lat="63.995216370" lon="-19.062274933">
<ele>662.125000</ele>
<time>2012-07-23T17:25:47Z</time>
<speed>0.370000</speed>
<extensions>
<speed>0.4</speed>
<temp>0.00</temp>
<bpm>0</bpm>
<rpm>0.00</rpm>
</extensions>
</trkpt>
<trkpt lat="63.995223999" lon="-19.062200546">
<ele>661.656250</ele>
<time>2012-07-23T17:25:52Z</time>
<speed>0.250000</speed>
<extensions>
<speed>0.2</speed>
<temp>0.00</temp>
<bpm>0</bpm>
<rpm>0.00</rpm>
</extensions>
</trkpt>
<trkpt lat="63.995231628" lon="-19.062118530">
<ele>661.593750</ele>
<time>2012-07-23T17:25:57Z</time>
<speed>0.960000</speed>
<extensions>
<speed>1.0</speed>
<temp>0.00</temp>
<bpm>0</bpm>
<rpm>0.00</rpm>
</extensions>
</trkpt>
<trkpt lat="63.995201111" lon="-19.062023163">
<ele>660.109375</ele>
<time>2012-07-23T17:26:02Z</time>
<speed>0.460000</speed>
<extensions>
<speed>0.5</speed>
<temp>0.00</temp>
<bpm>0</bpm>
<rpm>0.00</rpm>
</extensions>
</trkpt>
<trkpt lat="63.995159149" lon="-19.062025070">
<ele>657.390625</ele>
<time>2012-07-23T17:26:07Z</time>
<speed>0.460000</speed>
<extensions>
<speed>0.5</speed>
<temp>0.00</temp>
<bpm>0</bpm>
<rpm>0.00</rpm>
</extensions>
</trkpt>
<trkpt lat="63.995140076" lon="-19.062005997">
<ele>655.312500</ele>
<time>2012-07-23T17:26:12Z</time>
<speed>0.390000</speed>
<extensions>
<speed>0.4</speed>
<temp>0.00</temp>
<bpm>0</bpm>
<rpm>0.00</rpm>
</extensions>
</trkpt>
<trkpt lat="63.995132446" lon="-19.061998367">
<ele>654.062500</ele>
<time>2012-07-23T17:26:17Z</time>
<speed>0.310000</speed>
<extensions>
<speed>0.3</speed>
<temp>0.00</temp>
<bpm>0</bpm>
<rpm>0.00</rpm>
</extensions>
</trkpt>
<trkpt lat="63.995121002" lon="-19.061977386">
<ele>651.484375</ele>
<time>2012-07-23T17:26:22Z</time>
<speed>0.330000</speed>
<extensions>
<speed>0.3</speed>
<temp>0.00</temp>
<bpm>0</bpm>
<rpm>0.00</rpm>
</extensions>
</trkpt>
<trkpt lat="63.995109558" lon="-19.061967850">
<ele>650.187500</ele>
<time>2012-07-23T17:26:27Z</time>
<speed>0.430000</speed>
<extensions>
<speed>0.4</speed>
<temp>0.00</temp>
<bpm>0</bpm>
<rpm>0.00</rpm>
</extensions>
</trkpt>
<trkpt lat="63.995079041" lon="-19.061935425">
<ele>648.875000</ele>
<time>2012-07-23T17:26:32Z</time>
<speed>0.830000</speed>
<extensions>
<speed>0.8</speed>
<temp>0.00</temp>
<bpm>0</bpm>
<rpm>0.00</rpm>
</extensions>
</trkpt>
<trkpt lat="63.995048523" lon="-19.061946869">
<ele>646.468750</ele>
<time>2012-07-23T17:26:37Z</time>
<speed>1.040000</speed>
<extensions>
<speed>1.0</speed>
<temp>0.00</temp>
<bpm>0</bpm>
<rpm>0.00</rpm>
</extensions>
</trkpt>
<trkpt lat="63.995033264" lon="-19.061948776">
<ele>644.765625</ele>
<time>2012-07-23T17:26:42Z</time>
<speed>0.550000</speed>
<extensions>
<speed>0.6</speed>
<temp>0.00</temp>
<bpm>0</bpm>
<rpm>0.00</rpm>
</extensions>
</trkpt>
<trkpt lat="63.995006561" lon="-19.061937332">
<ele>641.921875</ele>
<time>2012-07-23T17:26:47Z</time>
<speed>0.820000</speed>
<extensions>
<speed>0.8</speed>
<temp>0.00</temp>
<bpm>0</bpm>
<rpm>0.00</rpm>
</extensions>
</trkpt>
<trkpt lat="63.994983673" lon="-19.061965942">
<ele>640.703125</ele>
<time>2012-07-23T17:26:52Z</time>
<speed>0.680000</speed>
<extensions>
<speed>0.7</speed>
<temp>0.00</temp>
<bpm>0</bpm>
<rpm>0.00</rpm>
</extensions>
</trkpt>
<trkpt lat="63.994945526" lon="-19.061977386">
<ele>638.703125</ele>
<time>2012-07-23T17:26:57Z</time>
<speed>0.790000</speed>
<extensions>
<speed>0.8</speed>
<temp>0.00</temp>
<bpm>0</bpm>
<rpm>0.00</rpm>
</extensions>
</trkpt>
<trkpt lat="63.994937897" lon="-19.061973572">
<ele>638.031250</ele>
<time>2012-07-23T17:27:02Z</time>
<speed>0.590000</speed>
<extensions>
<speed>0.6</speed>
<temp>0.00</temp>
<bpm>0</bpm>
<rpm>0.00</rpm>
</extensions>
</trkpt>
<trkpt lat="63.994915009" lon="-19.061946869">
<ele>636.500000</ele>
<time>2012-07-23T17:27:07Z</time>
<speed>0.440000</speed>
<extensions>
<speed>0.4</speed>
<temp>0.00</temp>
<bpm>0</bpm>
<rpm>0.00</rpm>
</extensions>
</trkpt>
<trkpt lat="63.994895935" lon="-19.061952591">
<ele>635.718750</ele>
<time>2012-07-23T17:27:12Z</time>
<speed>0.230000</speed>
<extensions>
<speed>0.2</speed>
<temp>0.00</temp>
<bpm>0</bpm>
<rpm>0.00</rpm>
</extensions>
</trkpt>
<trkpt lat="63.994865417" lon="-19.061912537">
<ele>634.265625</ele>
<time>2012-07-23T17:27:17Z</time>
<speed>0.640000</speed>
<extensions>
<speed>0.6</speed>
<temp>0.00</temp>
<bpm>0</bpm>
<rpm>0.00</rpm>
</extensions>
</trkpt>
<trkpt lat="63.994812012" lon="-19.061864853">
<ele>632.796875</ele>
<time>2012-07-23T17:27:22Z</time>
<speed>0.480000</speed>
<extensions>
<speed>0.5</speed>
<temp>0.00</temp>
<bpm>0</bpm>
<rpm>0.00</rpm>
</extensions>
</trkpt>
<trkpt lat="63.994758606" lon="-19.061820984">
<ele>631.359375</ele>
<time>2012-07-23T17:27:27Z</time>
<speed>0.440000</speed>
<extensions>
<speed>0.4</speed>
<temp>0.00</temp>
<bpm>0</bpm>
<rpm>0.00</rpm>
</extensions>
</trkpt>
<trkpt lat="63.994724274" lon="-19.061777115">
<ele>630.421875</ele>
<time>2012-07-23T17:27:32Z</time>
<speed>0.550000</speed>
<extensions>
<speed>0.6</speed>
<temp>0.00</temp>
<bpm>0</bpm>
<rpm>0.00</rpm>
</extensions>
</trkpt>
<trkpt lat="63.994728088" lon="-19.061738968">
<ele>629.375000</ele>
<time>2012-07-23T17:27:37Z</time>
<speed>0.600000</speed>
<extensions>
<speed>0.6</speed>
<temp>0.00</temp>
<bpm>0</bpm>
<rpm>0.00</rpm>
</extensions>
</trkpt>
<trkpt lat="63.994705200" lon="-19.061697006">
<ele>628.328125</ele>
<time>2012-07-23T17:27:42Z</time>
<speed>0.390000</speed>
<extensions>
<speed>0.4</speed>
<temp>0.00</temp>
<bpm>0</bpm>
<rpm>0.00</rpm>
</extensions>
</trkpt>
<trkpt lat="63.994655609" lon="-19.061670303">
<ele>627.671875</ele>
<time>2012-07-23T17:27:47Z</time>
<speed>0.450000</speed>
<extensions>
<speed>0.5</speed>
<temp>0.00</temp>
<bpm>0</bpm>
<rpm>0.00</rpm>
</extensions>
</trkpt>
<trkpt lat="63.994655609" lon="-19.061632156">
<ele>627.140625</ele>
<time>2012-07-23T17:27:52Z</time>
<speed>0.470000</speed>
<extensions>
<speed>0.5</speed>
<temp>0.00</temp>
<bpm>0</bpm>
<rpm>0.00</rpm>
</extensions>
</trkpt>
<trkpt lat="63.994693756" lon="-19.061662674">
<ele>628.156250</ele>
<time>2012-07-23T17:27:57Z</time>
<speed>0.320000</speed>
<extensions>
<speed>0.3</speed>
<temp>0.00</temp>
<bpm>0</bpm>
<rpm>0.00</rpm>
</extensions>
</trkpt>
<trkpt lat="63.994686127" lon="-19.061613083">
<ele>626.890625</ele>
<time>2012-07-23T17:28:02Z</time>
<speed>0.420000</speed>
<extensions>
<speed>0.4</speed>
<temp>0.00</temp>
<bpm>0</bpm>
<rpm>0.00</rpm>
</extensions>
</trkpt>
<trkpt lat="63.994670868" lon="-19.061553955">
<ele>625.609375</ele>
<time>2012-07-23T17:28:07Z</time>
<speed>0.680000</speed>
<extensions>
<speed>0.7</speed>
<temp>0.00</temp>
<bpm>0</bpm>
<rpm>0.00</rpm>
</extensions>
</trkpt>
<trkpt lat="63.994663239" lon="-19.061496735">
<ele>624.062500</ele>
<time>2012-07-23T17:28:12Z</time>
<speed>0.260000</speed>
<extensions>
<speed>0.3</speed>
<temp>0.00</temp>
<bpm>0</bpm>
<rpm>0.00</rpm>
</extensions>
</trkpt>
<trkpt lat="63.994659424" lon="-19.061471939">
<ele>623.859375</ele>
<time>2012-07-23T17:28:17Z</time>
<speed>0.420000</speed>
<extensions>
<speed>0.4</speed>
<temp>0.00</temp>
<bpm>0</bpm>
<rpm>0.00</rpm>
</extensions>
</trkpt>
<trkpt lat="63.994667053" lon="-19.061431885">
<ele>622.953125</ele>
<time>2012-07-23T17:28:22Z</time>
<speed>0.290000</speed>
<extensions>
<speed>0.3</speed>
<temp>0.00</temp>
<bpm>0</bpm>
<rpm>0.00</rpm>
</extensions>
</trkpt>
<trkpt lat="63.994644165" lon="-19.061384201">
<ele>621.968750</ele>
<time>2012-07-23T17:28:27Z</time>
<speed>0.540000</speed>
<extensions>
<speed>0.5</speed>
<temp>0.00</temp>
<bpm>0</bpm>
<rpm>0.00</rpm>
</extensions>
</trkpt>
<trkpt lat="63.994613647" lon="-19.061317444">
<ele>620.218750</ele>
<time>2012-07-23T17:28:32Z</time>
<speed>0.520000</speed>
<extensions>
<speed>0.5</speed>
<temp>0.00</temp>
<bpm>0</bpm>
<rpm>0.00</rpm>
</extensions>
</trkpt>
<trkpt lat="63.994583130" lon="-19.061267853">
<ele>618.140625</ele>
<time>2012-07-23T17:28:37Z</time>
<speed>0.360000</speed>
<extensions>
<speed>0.4</speed>
<temp>0.00</temp>
<bpm>0</bpm>
<rpm>0.00</rpm>
</extensions>
</trkpt>
<trkpt lat="63.994560242" lon="-19.061235428">
<ele>617.250000</ele>
<time>2012-07-23T17:28:42Z</time>
<speed>0.340000</speed>
<extensions>
<speed>0.3</speed>
<temp>0.00</temp>
<bpm>0</bpm>
<rpm>0.00</rpm>
</extensions>
</trkpt>
<trkpt lat="63.994571686" lon="-19.061244965">
<ele>616.984375</ele>
<time>2012-07-23T17:28:47Z</time>
<speed>0.430000</speed>
<extensions>
<speed>0.4</speed>
<temp>0.00</temp>
<bpm>0</bpm>
<rpm>0.00</rpm>
</extensions>
</trkpt>
<trkpt lat="63.994552612" lon="-19.061185837">
<ele>615.296875</ele>
<time>2012-07-23T17:28:52Z</time>
<speed>0.770000</speed>
<extensions>
<speed>0.8</speed>
<temp>0.00</temp>
<bpm>0</bpm>
<rpm>0.00</rpm>
</extensions>
</trkpt>
<trkpt lat="63.994552612" lon="-19.061159134">
<ele>614.234375</ele>
<time>2012-07-23T17:28:57Z</time>
<speed>0.660000</speed>
<extensions>
<speed>0.7</speed>
<temp>0.00</temp>
<bpm>0</bpm>
<rpm>0.00</rpm>
</extensions>
</trkpt>
<trkpt lat="63.994564056" lon="-19.061140060">
<ele>611.578125</ele>
<time>2012-07-23T17:29:02Z</time>
<speed>0.220000</speed>
<extensions>
<speed>0.2</speed>
<temp>0.00</temp>
<bpm>0</bpm>
<rpm>0.00</rpm>
</extensions>
</trkpt>
<trkpt lat="63.994567871" lon="-19.061136246">
<ele>611.078125</ele>
<time>2012-07-23T17:29:07Z</time>
<speed>0.650000</speed>
<extensions>
<speed>0.6</speed>
<temp>0.00</temp>
<bpm>0</bpm>
<rpm>0.00</rpm>
</extensions>
</trkpt>
<trkpt lat="63.994544983" lon="-19.061113358">
<ele>610.546875</ele>
<time>2012-07-23T17:29:12Z</time>
<speed>0.580000</speed>
<extensions>
<speed>0.6</speed>
<temp>0.00</temp>
<bpm>0</bpm>
<rpm>0.00</rpm>
</extensions>
</trkpt>
<trkpt lat="63.994514465" lon="-19.061098099">
<ele>607.625000</ele>
<time>2012-07-23T17:29:17Z</time>
<speed>0.880000</speed>
<extensions>
<speed>0.9</speed>
<temp>0.00</temp>
<bpm>0</bpm>
<rpm>0.00</rpm>
</extensions>
</trkpt>
<trkpt lat="63.994487762" lon="-19.061058044">
<ele>606.125000</ele>
<time>2012-07-23T17:29:22Z</time>
<speed>0.850000</speed>
<extensions>
<speed>0.8</speed>
<temp>0.00</temp>
<bpm>0</bpm>
<rpm>0.00</rpm>
</extensions>
</trkpt>
<trkpt lat="63.994457245" lon="-19.061035156">
<ele>604.843750</ele>
<time>2012-07-23T17:29:27Z</time>
<speed>0.760000</speed>
<extensions>
<speed>0.8</speed>
<temp>0.00</temp>
<bpm>0</bpm>
<rpm>0.00</rpm>
</extensions>
</trkpt>
<trkpt lat="63.994415283" lon="-19.061029434">
<ele>603.406250</ele>
<time>2012-07-23T17:29:32Z</time>
<speed>0.110000</speed>
<extensions>
<speed>0.1</speed>
<temp>0.00</temp>
<bpm>0</bpm>
<rpm>0.00</rpm>
</extensions>
</trkpt>
<trkpt lat="63.994373322" lon="-19.060987473">
<ele>603.343750</ele>
<time>2012-07-23T17:29:37Z</time>
<speed>1.110000</speed>
<extensions>
<speed>1.1</speed>
<temp>0.00</temp>
<bpm>0</bpm>
<rpm>0.00</rpm>
</extensions>
</trkpt>
<trkpt lat="63.994316101" lon="-19.060951233">
<ele>603.406250</ele>
<time>2012-07-23T17:29:42Z</time>
<speed>0.830000</speed>
<extensions>
<speed>0.8</speed>
<temp>0.00</temp>
<bpm>0</bpm>
<rpm>0.00</rpm>
</extensions>
</trkpt>
<trkpt lat="63.994308472" lon="-19.060941696">
<ele>602.515625</ele>
<time>2012-07-23T17:29:47Z</time>
<speed>0.130000</speed>
<extensions>
<speed>0.1</speed>
<temp>0.00</temp>
<bpm>0</bpm>
<rpm>0.00</rpm>
</extensions>
</trkpt>
<trkpt lat="63.994297028" lon="-19.060924530">
<ele>601.843750</ele>
<time>2012-07-23T17:29:52Z</time>
<speed>0.950000</speed>
<extensions>
<speed>1.0</speed>
<temp>0.00</temp>
<bpm>0</bpm>
<rpm>0.00</rpm>
</extensions>
</trkpt>
<trkpt lat="63.994289398" lon="-19.060888290">
<ele>600.328125</ele>
<time>2012-07-23T17:29:57Z</time>
<speed>0.070000</speed>
<extensions>
<speed>0.1</speed>
<temp>0.00</temp>
<bpm>0</bpm>
<rpm>0.00</rpm>
</extensions>
</trkpt>
<trkpt lat="63.994293213" lon="-19.060878754">
<ele>600.125000</ele>
<time>2012-07-23T17:30:02Z</time>
<speed>0.340000</speed>
<extensions>
<speed>0.3</speed>
<temp>0.00</temp>
<bpm>0</bpm>
<rpm>0.00</rpm>
</extensions>
</trkpt>
<trkpt lat="63.994255066" lon="-19.060873032">
<ele>598.937500</ele>
<time>2012-07-23T17:30:07Z</time>
<speed>0.590000</speed>
<extensions>
<speed>0.6</speed>
<temp>0.00</temp>
<bpm>0</bpm>
<rpm>0.00</rpm>
</extensions>
</trkpt>
<trkpt lat="63.994190216" lon="-19.060865402">
<ele>597.984375</ele>
<time>2012-07-23T17:30:12Z</time>
<speed>1.320000</speed>
<extensions>
<speed>1.3</speed>
<temp>0.00</temp>
<bpm>0</bpm>
<rpm>0.00</rpm>
</extensions>
</trkpt>
<trkpt lat="63.994129181" lon="-19.060857773">
<ele>597.906250</ele>
<time>2012-07-23T17:30:17Z</time>
<speed>1.390000</speed>
<extensions>
<speed>1.4</speed>
<temp>0.00</temp>
<bpm>0</bpm>
<rpm>0.00</rpm>
</extensions>
</trkpt>
<trkpt lat="63.994064331" lon="-19.060821533">
<ele>597.843750</ele>
<time>2012-07-23T17:30:22Z</time>
<speed>1.020000</speed>
<extensions>
<speed>1.0</speed>
<temp>0.00</temp>
<bpm>0</bpm>
<rpm>0.00</rpm>
</extensions>
</trkpt>
<trkpt lat="63.994010925" lon="-19.060796738">
<ele>597.281250</ele>
<time>2012-07-23T17:30:27Z</time>
<speed>1.320000</speed>
<extensions>
<speed>1.3</speed>
<temp>0.00</temp>
<bpm>0</bpm>
<rpm>0.00</rpm>
</extensions>
</trkpt>
<trkpt lat="63.993949890" lon="-19.060768127">
<ele>597.078125</ele>
<time>2012-07-23T17:30:32Z</time>
<speed>1.280000</speed>
<extensions>
<speed>1.3</speed>
<temp>0.00</temp>
<bpm>0</bpm>
<rpm>0.00</rpm>
</extensions>
</trkpt>
<trkpt lat="63.993900299" lon="-19.060737610">
<ele>596.953125</ele>
<time>2012-07-23T17:30:37Z</time>
<speed>0.210000</speed>
<extensions>
<speed>0.2</speed>
<temp>0.00</temp>
<bpm>0</bpm>
<rpm>0.00</rpm>
</extensions>
</trkpt>
<trkpt lat="63.993888855" lon="-19.060741425">
<ele>596.875000</ele>
<time>2012-07-23T17:30:42Z</time>
<speed>0.040000</speed>
<extensions>
<speed>0.0</speed>
<temp>0.00</temp>
<bpm>0</bpm>
<rpm>0.00</rpm>
</extensions>
</trkpt>
<trkpt lat="63.993885040" lon="-19.060745239">
<ele>596.515625</ele>
<time>2012-07-23T17:30:47Z</time>
<speed>0.300000</speed>
<extensions>
<speed>0.3</speed>
<temp>0.00</temp>
<bpm>0</bpm>
<rpm>0.00</rpm>
</extensions>
</trkpt>
<trkpt lat="63.993824005" lon="-19.060701370">
<ele>596.640625</ele>
<time>2012-07-23T17:30:52Z</time>
<speed>1.470000</speed>
<extensions>
<speed>1.5</speed>
<temp>0.00</temp>
<bpm>0</bpm>
<rpm>0.00</rpm>
</extensions>
</trkpt>
<trkpt lat="63.993812561" lon="-19.060707092">
<ele>595.625000</ele>
<time>2012-07-23T17:30:57Z</time>
<speed>0.400000</speed>
<extensions>
<speed>0.4</speed>
<temp>0.00</temp>
<bpm>0</bpm>
<rpm>0.00</rpm>
</extensions>
</trkpt>
<trkpt lat="63.993778229" lon="-19.060688019">
<ele>594.203125</ele>
<time>2012-07-23T17:31:02Z</time>
<speed>1.240000</speed>
<extensions>
<speed>1.2</speed>
<temp>0.00</temp>
<bpm>0</bpm>
<rpm>0.00</rpm>
</extensions>
</trkpt>
<trkpt lat="63.993721008" lon="-19.060625076">
<ele>592.015625</ele>
<time>2012-07-23T17:31:07Z</time>
<speed>0.850000</speed>
<extensions>
<speed>0.8</speed>
<temp>0.00</temp>
<bpm>0</bpm>
<rpm>0.00</rpm>
</extensions>
</trkpt>
<trkpt lat="63.993698120" lon="-19.060630798">
<ele>590.687500</ele>
<time>2012-07-23T17:31:12Z</time>
<speed>0.040000</speed>
<extensions>
<speed>0.0</speed>
<temp>0.00</temp>
<bpm>0</bpm>
<rpm>0.00</rpm>
</extensions>
</trkpt>
<trkpt lat="63.993705750" lon="-19.060636520">
<ele>589.843750</ele>
<time>2012-07-23T17:31:17Z</time>
<speed>0.080000</speed>
<extensions>
<speed>0.1</speed>
<temp>0.00</temp>
<bpm>0</bpm>
<rpm>0.00</rpm>
</extensions>
</trkpt>
<trkpt lat="63.993701935" lon="-19.060636520">
<ele>589.656250</ele>
<time>2012-07-23T17:31:22Z</time>
<speed>0.020000</speed>
<extensions>
<speed>0.0</speed>
<temp>0.00</temp>
<bpm>0</bpm>
<rpm>0.00</rpm>
</extensions>
</trkpt>
<trkpt lat="63.993701935" lon="-19.060636520">
<ele>589.578125</ele>
<time>2012-07-23T17:31:27Z</time>
<speed>0.330000</speed>
<extensions>
<speed>0.3</speed>
<temp>0.00</temp>
<bpm>0</bpm>
<rpm>0.00</rpm>
</extensions>
</trkpt>
<trkpt lat="63.993698120" lon="-19.060640335">
<ele>589.265625</ele>
<time>2012-07-23T17:31:32Z</time>
<speed>0.020000</speed>
<extensions>
<speed>0.0</speed>
<temp>0.00</temp>
<bpm>0</bpm>
<rpm>0.00</rpm>
</extensions>
</trkpt>
<trkpt lat="63.993690491" lon="-19.060659409">
<ele>589.921875</ele>
<time>2012-07-23T17:31:37Z</time>
<speed>0.970000</speed>
<extensions>
<speed>1.0</speed>
<temp>0.00</temp>
<bpm>0</bpm>
<rpm>0.00</rpm>
</extensions>
</trkpt>
<trkpt lat="63.993648529" lon="-19.060689926">
<ele>590.500000</ele>
<time>2012-07-23T17:31:42Z</time>
<speed>1.240000</speed>
<extensions>
<speed>1.2</speed>
<temp>0.00</temp>
<bpm>0</bpm>
<rpm>0.00</rpm>
</extensions>
</trkpt>
<trkpt lat="63.993591309" lon="-19.060735703">
<ele>591.140625</ele>
<time>2012-07-23T17:31:47Z</time>
<speed>1.420000</speed>
<extensions>
<speed>1.4</speed>
<temp>0.00</temp>
<bpm>0</bpm>
<rpm>0.00</rpm>
</extensions>
</trkpt>
<trkpt lat="63.993537903" lon="-19.060781479">
<ele>591.687500</ele>
<time>2012-07-23T17:31:52Z</time>
<speed>1.410000</speed>
<extensions>
<speed>1.4</speed>
<temp>0.00</temp>
<bpm>0</bpm>
<rpm>0.00</rpm>
</extensions>
</trkpt>
<trkpt lat="63.993488312" lon="-19.060798645">
<ele>592.281250</ele>
<time>2012-07-23T17:31:57Z</time>
<speed>0.860000</speed>
<extensions>
<speed>0.9</speed>
<temp>0.00</temp>
<bpm>0</bpm>
<rpm>0.00</rpm>
</extensions>
</trkpt>
<trkpt lat="63.993469238" lon="-19.060710907">
<ele>592.015625</ele>
<time>2012-07-23T17:32:02Z</time>
<speed>0.870000</speed>
<extensions>
<speed>0.9</speed>
<temp>0.00</temp>
<bpm>0</bpm>
<rpm>0.00</rpm>
</extensions>
</trkpt>
<trkpt lat="63.993446350" lon="-19.060653687">
<ele>592.421875</ele>
<time>2012-07-23T17:32:07Z</time>
<speed>0.700000</speed>
<extensions>
<speed>0.7</speed>
<temp>0.00</temp>
<bpm>0</bpm>
<rpm>0.00</rpm>
</extensions>
</trkpt>
<trkpt lat="63.993385315" lon="-19.060567856">
<ele>593.203125</ele>
<time>2012-07-23T17:32:12Z</time>
<speed>1.320000</speed>
<extensions>
<speed>1.3</speed>
<temp>0.00</temp>
<bpm>0</bpm>
<rpm>0.00</rpm>
</extensions>
</trkpt>
<trkpt lat="63.993324280" lon="-19.060508728">
<ele>593.875000</ele>
<time>2012-07-23T17:32:17Z</time>
<speed>0.910000</speed>
<extensions>
<speed>0.9</speed>
<temp>0.00</temp>
<bpm>0</bpm>
<rpm>0.00</rpm>
</extensions>
</trkpt>
<trkpt lat="63.993251801" lon="-19.060461044">
<ele>594.234375</ele>
<time>2012-07-23T17:32:22Z</time>
<speed>1.170000</speed>
<extensions>
<speed>1.2</speed>
<temp>0.00</temp>
<bpm>0</bpm>
<rpm>0.00</rpm>
</extensions>
</trkpt>
<trkpt lat="63.993160248" lon="-19.060369492">
<ele>594.328125</ele>
<time>2012-07-23T17:32:27Z</time>
<speed>1.340000</speed>
<extensions>
<speed>1.3</speed>
<temp>0.00</temp>
<bpm>0</bpm>
<rpm>0.00</rpm>
</extensions>
</trkpt>
<trkpt lat="63.993118286" lon="-19.060245514">
<ele>594.171875</ele>
<time>2012-07-23T17:32:32Z</time>
<speed>1.400000</speed>
<extensions>
<speed>1.4</speed>
<temp>0.00</temp>
<bpm>0</bpm>
<rpm>0.00</rpm>
</extensions>
</trkpt>
<trkpt lat="63.993068695" lon="-19.060184479">
<ele>595.312500</ele>
<time>2012-07-23T17:32:37Z</time>
<speed>1.500000</speed>
<extensions>
<speed>1.5</speed>
<temp>0.00</temp>
<bpm>0</bpm>
<rpm>0.00</rpm>
</extensions>
</trkpt>
<trkpt lat="63.993015289" lon="-19.060096741">
<ele>594.890625</ele>
<time>2012-07-23T17:32:42Z</time>
<speed>1.410000</speed>
<extensions>
<speed>1.4</speed>
<temp>0.00</temp>
<bpm>0</bpm>
<rpm>0.00</rpm>
</extensions>
</trkpt>
<trkpt lat="63.992954254" lon="-19.060043335">
<ele>594.593750</ele>
<time>2012-07-23T17:32:47Z</time>
<speed>1.290000</speed>
<extensions>
<speed>1.3</speed>
<temp>0.00</temp>
<bpm>0</bpm>
<rpm>0.00</rpm>
</extensions>
</trkpt>
<trkpt lat="63.992900848" lon="-19.059976578">
<ele>593.000000</ele>
<time>2012-07-23T17:32:52Z</time>
<speed>1.620000</speed>
<extensions>
<speed>1.6</speed>
<temp>0.00</temp>
<bpm>0</bpm>
<rpm>0.00</rpm>
</extensions>
</trkpt>
<trkpt lat="63.992835999" lon="-19.059907913">
<ele>593.187500</ele>
<time>2012-07-23T17:32:57Z</time>
<speed>1.690000</speed>
<extensions>
<speed>1.7</speed>
<temp>0.00</temp>
<bpm>0</bpm>
<rpm>0.00</rpm>
</extensions>
</trkpt>
<trkpt lat="63.992778778" lon="-19.059854507">
<ele>592.593750</ele>
<time>2012-07-23T17:33:02Z</time>
<speed>1.400000</speed>
<extensions>
<speed>1.4</speed>
<temp>0.00</temp>
<bpm>0</bpm>
<rpm>0.00</rpm>
</extensions>
</trkpt>
<trkpt lat="63.992721558" lon="-19.059814453">
<ele>591.671875</ele>
<time>2012-07-23T17:33:07Z</time>
<speed>1.520000</speed>
<extensions>
<speed>1.5</speed>
<temp>0.00</temp>
<bpm>0</bpm>
<rpm>0.00</rpm>
</extensions>
</trkpt>
<trkpt lat="63.992652893" lon="-19.059736252">
<ele>590.859375</ele>
<time>2012-07-23T17:33:12Z</time>
<speed>1.600000</speed>
<extensions>
<speed>1.6</speed>
<temp>0.00</temp>
<bpm>0</bpm>
<rpm>0.00</rpm>
</extensions>
</trkpt>
<trkpt lat="63.992584229" lon="-19.059688568">
<ele>590.156250</ele>
<time>2012-07-23T17:33:17Z</time>
<speed>1.440000</speed>
<extensions>
<speed>1.4</speed>
<temp>0.00</temp>
<bpm>0</bpm>
<rpm>0.00</rpm>
</extensions>
</trkpt>
<trkpt lat="63.992523193" lon="-19.059627533">
<ele>590.562500</ele>
<time>2012-07-23T17:33:22Z</time>
<speed>1.400000</speed>
<extensions>
<speed>1.4</speed>
<temp>0.00</temp>
<bpm>0</bpm>
<rpm>0.00</rpm>
</extensions>
</trkpt>
<trkpt lat="63.992454529" lon="-19.059566498">
<ele>589.718750</ele>
<time>2012-07-23T17:33:27Z</time>
<speed>1.780000</speed>
<extensions>
<speed>1.8</speed>
<temp>0.00</temp>
<bpm>0</bpm>
<rpm>0.00</rpm>
</extensions>
</trkpt>
<trkpt lat="63.992382050" lon="-19.059503555">
<ele>589.296875</ele>
<time>2012-07-23T17:33:32Z</time>
<speed>1.560000</speed>
<extensions>
<speed>1.6</speed>
<temp>0.00</temp>
<bpm>0</bpm>
<rpm>0.00</rpm>
</extensions>
</trkpt>
<trkpt lat="63.992313385" lon="-19.059453964">
<ele>589.109375</ele>
<time>2012-07-23T17:33:37Z</time>
<speed>1.470000</speed>
<extensions>
<speed>1.5</speed>
<temp>0.00</temp>
<bpm>0</bpm>
<rpm>0.00</rpm>
</extensions>
</trkpt>
<trkpt lat="63.992259979" lon="-19.059408188">
<ele>589.937500</ele>
<time>2012-07-23T17:33:42Z</time>
<speed>1.540000</speed>
<extensions>
<speed>1.5</speed>
<temp>0.00</temp>
<bpm>0</bpm>
<rpm>0.00</rpm>
</extensions>
</trkpt>
<trkpt lat="63.992206573" lon="-19.059389114">
<ele>590.453125</ele>
<time>2012-07-23T17:33:47Z</time>
<speed>1.530000</speed>
<extensions>
<speed>1.5</speed>
<temp>0.00</temp>
<bpm>0</bpm>
<rpm>0.00</rpm>
</extensions>
</trkpt>
<trkpt lat="63.992141724" lon="-19.059343338">
<ele>590.968750</ele>
<time>2012-07-23T17:33:52Z</time>
<speed>1.470000</speed>
<extensions>
<speed>1.5</speed>
<temp>0.00</temp>
<bpm>0</bpm>
<rpm>0.00</rpm>
</extensions>
</trkpt>
<trkpt lat="63.992073059" lon="-19.059284210">
<ele>592.046875</ele>
<time>2012-07-23T17:33:57Z</time>
<speed>1.710000</speed>
<extensions>
<speed>1.7</speed>
<temp>0.00</temp>
<bpm>0</bpm>
<rpm>0.00</rpm>
</extensions>
</trkpt>
<trkpt lat="63.992012024" lon="-19.059291840">
<ele>592.937500</ele>
<time>2012-07-23T17:34:02Z</time>
<speed>1.520000</speed>
<extensions>
<speed>1.5</speed>
<temp>0.00</temp>
<bpm>0</bpm>
<rpm>0.00</rpm>
</extensions>
</trkpt>
<trkpt lat="63.991962433" lon="-19.059278488">
<ele>594.531250</ele>
<time>2012-07-23T17:34:07Z</time>
<speed>1.190000</speed>
<extensions>
<speed>1.2</speed>
<temp>0.00</temp>
<bpm>0</bpm>
<rpm>0.00</rpm>
</extensions>
</trkpt>
<trkpt lat="63.991897583" lon="-19.059255600">
<ele>594.781250</ele>
<time>2012-07-23T17:34:12Z</time>
<speed>1.380000</speed>
<extensions>
<speed>1.4</speed>
<temp>0.00</temp>
<bpm>0</bpm>
<rpm>0.00</rpm>
</extensions>
</trkpt>
<trkpt lat="63.991844177" lon="-19.059299469">
<ele>595.890625</ele>
<time>2012-07-23T17:34:17Z</time>
<speed>1.490000</speed>
<extensions>
<speed>1.5</speed>
<temp>0.00</temp>
<bpm>0</bpm>
<rpm>0.00</rpm>
</extensions>
</trkpt>
<trkpt lat="63.991786957" lon="-19.059362411">
<ele>596.625000</ele>
<time>2012-07-23T17:34:22Z</time>
<speed>1.410000</speed>
<extensions>
<speed>1.4</speed>
<temp>0.00</temp>
<bpm>0</bpm>
<rpm>0.00</rpm>
</extensions>
</trkpt>
<trkpt lat="63.991725922" lon="-19.059410095">
<ele>596.593750</ele>
<time>2012-07-23T17:34:27Z</time>
<speed>1.380000</speed>
<extensions>
<speed>1.4</speed>
<temp>0.00</temp>
<bpm>0</bpm>
<rpm>0.00</rpm>
</extensions>
</trkpt>
<trkpt lat="63.991668701" lon="-19.059461594">
<ele>596.781250</ele>
<time>2012-07-23T17:34:32Z</time>
<speed>1.500000</speed>
<extensions>
<speed>1.5</speed>
<temp>0.00</temp>
<bpm>0</bpm>
<rpm>0.00</rpm>
</extensions>
</trkpt>
<trkpt lat="63.991611481" lon="-19.059514999">
<ele>596.593750</ele>
<time>2012-07-23T17:34:37Z</time>
<speed>1.480000</speed>
<extensions>
<speed>1.5</speed>
<temp>0.00</temp>
<bpm>0</bpm>
<rpm>0.00</rpm>
</extensions>
</trkpt>
<trkpt lat="63.991558075" lon="-19.059579849">
<ele>596.734375</ele>
<time>2012-07-23T17:34:42Z</time>
<speed>1.470000</speed>
<extensions>
<speed>1.5</speed>
<temp>0.00</temp>
<bpm>0</bpm>
<rpm>0.00</rpm>
</extensions>
</trkpt>
<trkpt lat="63.991508484" lon="-19.059667587">
<ele>596.796875</ele>
<time>2012-07-23T17:34:47Z</time>
<speed>1.470000</speed>
<extensions>
<speed>1.5</speed>
<temp>0.00</temp>
<bpm>0</bpm>
<rpm>0.00</rpm>
</extensions>
</trkpt>
<trkpt lat="63.991451263" lon="-19.059736252">
<ele>596.703125</ele>
<time>2012-07-23T17:34:52Z</time>
<speed>1.490000</speed>
<extensions>
<speed>1.5</speed>
<temp>0.00</temp>
<bpm>0</bpm>
<rpm>0.00</rpm>
</extensions>
</trkpt>
<trkpt lat="63.991401672" lon="-19.059799194">
<ele>597.000000</ele>
<time>2012-07-23T17:34:57Z</time>
<speed>1.510000</speed>
<extensions>
<speed>1.5</speed>
<temp>0.00</temp>
<bpm>0</bpm>
<rpm>0.00</rpm>
</extensions>
</trkpt>
<trkpt lat="63.991336823" lon="-19.059864044">
<ele>597.234375</ele>
<time>2012-07-23T17:35:02Z</time>
<speed>1.430000</speed>
<extensions>
<speed>1.4</speed>
<temp>0.00</temp>
<bpm>0</bpm>
<rpm>0.00</rpm>
</extensions>
</trkpt>
<trkpt lat="63.991279602" lon="-19.059926987">
<ele>597.234375</ele>
<time>2012-07-23T17:35:07Z</time>
<speed>1.520000</speed>
<extensions>
<speed>1.5</speed>
<temp>0.00</temp>
<bpm>0</bpm>
<rpm>0.00</rpm>
</extensions>
</trkpt>
<trkpt lat="63.991222382" lon="-19.059997559">
<ele>597.421875</ele>
<time>2012-07-23T17:35:12Z</time>
<speed>1.470000</speed>
<extensions>
<speed>1.5</speed>
<temp>0.00</temp>
<bpm>0</bpm>
<rpm>0.00</rpm>
</extensions>
</trkpt>
<trkpt lat="63.991165161" lon="-19.060075760">
<ele>597.781250</ele>
<time>2012-07-23T17:35:17Z</time>
<speed>1.540000</speed>
<extensions>
<speed>1.5</speed>
<temp>0.00</temp>
<bpm>0</bpm>
<rpm>0.00</rpm>
</extensions>
</trkpt>
<trkpt lat="63.991104126" lon="-19.060138702">
<ele>598.093750</ele>
<time>2012-07-23T17:35:22Z</time>
<speed>1.470000</speed>
<extensions>
<speed>1.5</speed>
<temp>0.00</temp>
<bpm>0</bpm>
<rpm>0.00</rpm>
</extensions>
</trkpt>
<trkpt lat="63.991031647" lon="-19.060213089">
<ele>598.468750</ele>
<time>2012-07-23T17:35:27Z</time>
<speed>1.410000</speed>
<extensions>
<speed>1.4</speed>
<temp>0.00</temp>
<bpm>0</bpm>
<rpm>0.00</rpm>
</extensions>
</trkpt>
<trkpt lat="63.990970612" lon="-19.060270309">
<ele>598.937500</ele>
<time>2012-07-23T17:35:32Z</time>
<speed>1.500000</speed>
<extensions>
<speed>1.5</speed>
<temp>0.00</temp>
<bpm>0</bpm>
<rpm>0.00</rpm>
</extensions>
</trkpt>
<trkpt lat="63.990917206" lon="-19.060325623">
<ele>598.531250</ele>
<time>2012-07-23T17:35:37Z</time>
<speed>1.410000</speed>
<extensions>
<speed>1.4</speed>
<temp>0.00</temp>
<bpm>0</bpm>
<rpm>0.00</rpm>
</extensions>
</trkpt>
<trkpt lat="63.990856171" lon="-19.060394287">
<ele>598.453125</ele>
<time>2012-07-23T17:35:42Z</time>
<speed>1.580000</speed>
<extensions>
<speed>1.6</speed>
<temp>0.00</temp>
<bpm>0</bpm>
<rpm>0.00</rpm>
</extensions>
</trkpt>
<trkpt lat="63.990802765" lon="-19.060417175">
<ele>598.578125</ele>
<time>2012-07-23T17:35:47Z</time>
<speed>1.420000</speed>
<extensions>
<speed>1.4</speed>
<temp>0.00</temp>
<bpm>0</bpm>
<rpm>0.00</rpm>
</extensions>
</trkpt>
<trkpt lat="63.990768433" lon="-19.060369492">
<ele>598.812500</ele>
<time>2012-07-23T17:35:52Z</time>
<speed>1.110000</speed>
<extensions>
<speed>1.1</speed>
<temp>0.00</temp>
<bpm>0</bpm>
<rpm>0.00</rpm>
</extensions>
</trkpt>
<trkpt lat="63.990711212" lon="-19.060314178">
<ele>598.968750</ele>
<time>2012-07-23T17:35:57Z</time>
<speed>1.480000</speed>
<extensions>
<speed>1.5</speed>
<temp>0.00</temp>
<bpm>0</bpm>
<rpm>0.00</rpm>
</extensions>
</trkpt>
<trkpt lat="63.990657806" lon="-19.060279846">
<ele>598.234375</ele>
<time>2012-07-23T17:36:02Z</time>
<speed>0.770000</speed>
<extensions>
<speed>0.8</speed>
<temp>0.00</temp>
<bpm>0</bpm>
<rpm>0.00</rpm>
</extensions>
</trkpt>
<trkpt lat="63.990646362" lon="-19.060268402">
<ele>598.781250</ele>
<time>2012-07-23T17:36:07Z</time>
<speed>0.210000</speed>
<extensions>
<speed>0.2</speed>
<temp>0.00</temp>
<bpm>0</bpm>
<rpm>0.00</rpm>
</extensions>
</trkpt>
<trkpt lat="63.990638733" lon="-19.060255051">
<ele>598.875000</ele>
<time>2012-07-23T17:36:12Z</time>
<speed>0.350000</speed>
<extensions>
<speed>0.3</speed>
<temp>0.00</temp>
<bpm>0</bpm>
<rpm>0.00</rpm>
</extensions>
</trkpt>
<trkpt lat="63.990623474" lon="-19.060253143">
<ele>598.812500</ele>
<time>2012-07-23T17:36:17Z</time>
<speed>0.100000</speed>
<extensions>
<speed>0.1</speed>
<temp>0.00</temp>
<bpm>0</bpm>
<rpm>0.00</rpm>
</extensions>
</trkpt>
<trkpt lat="63.990627289" lon="-19.060253143">
<ele>598.843750</ele>
<time>2012-07-23T17:36:22Z</time>
<speed>0.050000</speed>
<extensions>
<speed>0.1</speed>
<temp>0.00</temp>
<bpm>0</bpm>
<rpm>0.00</rpm>
</extensions>
</trkpt>
<trkpt lat="63.990627289" lon="-19.060243607">
<ele>598.843750</ele>
<time>2012-07-23T17:36:27Z</time>
<speed>0.230000</speed>
<extensions>
<speed>0.2</speed>
<temp>0.00</temp>
<bpm>0</bpm>
<rpm>0.00</rpm>
</extensions>
</trkpt>
<trkpt lat="63.990627289" lon="-19.060228348">
<ele>598.843750</ele>
<time>2012-07-23T17:36:32Z</time>
<speed>0.110000</speed>
<extensions>
<speed>0.1</speed>
<temp>0.00</temp>
<bpm>0</bpm>
<rpm>0.00</rpm>
</extensions>
</trkpt>
<trkpt lat="63.990627289" lon="-19.060226440">
<ele>598.843750</ele>
<time>2012-07-23T17:36:37Z</time>
<speed>0.090000</speed>
<extensions>
<speed>0.1</speed>
<temp>0.00</temp>
<bpm>0</bpm>
<rpm>0.00</rpm>
</extensions>
</trkpt>
<trkpt lat="63.990631104" lon="-19.060235977">
<ele>598.843750</ele>
<time>2012-07-23T17:36:42Z</time>
<speed>0.180000</speed>
<extensions>
<speed>0.2</speed>
<temp>0.00</temp>
<bpm>0</bpm>
<rpm>0.00</rpm>
</extensions>
</trkpt>
<trkpt lat="63.990600586" lon="-19.060262680">
<ele>598.609375</ele>
<time>2012-07-23T17:36:47Z</time>
<speed>0.250000</speed>
<extensions>
<speed>0.2</speed>
<temp>0.00</temp>
<bpm>0</bpm>
<rpm>0.00</rpm>
</extensions>
</trkpt>
<trkpt lat="63.990570068" lon="-19.060245514">
<ele>598.312500</ele>
<time>2012-07-23T17:36:52Z</time>
<speed>0.340000</speed>
<extensions>
<speed>0.3</speed>
<temp>0.00</temp>
<bpm>0</bpm>
<rpm>0.00</rpm>
</extensions>
</trkpt>
<trkpt lat="63.990558624" lon="-19.060205460">
<ele>597.890625</ele>
<time>2012-07-23T17:36:57Z</time>
<speed>0.130000</speed>
<extensions>
<speed>0.1</speed>
<temp>0.00</temp>
<bpm>0</bpm>
<rpm>0.00</rpm>
</extensions>
</trkpt>
<trkpt lat="63.990558624" lon="-19.060190201">
<ele>597.812500</ele>
<time>2012-07-23T17:37:02Z</time>
<speed>0.330000</speed>
<extensions>
<speed>0.3</speed>
<temp>0.00</temp>
<bpm>0</bpm>
<rpm>0.00</rpm>
</extensions>
</trkpt>
<trkpt lat="63.990550995" lon="-19.060106277">
<ele>597.546875</ele>
<time>2012-07-23T17:37:07Z</time>
<speed>0.290000</speed>
<extensions>
<speed>0.3</speed>
<temp>0.00</temp>
<bpm>0</bpm>
<rpm>0.00</rpm>
</extensions>
</trkpt>
<trkpt lat="63.990550995" lon="-19.060098648">
<ele>597.421875</ele>
<time>2012-07-23T17:37:12Z</time>
<speed>0.040000</speed>
<extensions>
<speed>0.0</speed>
<temp>0.00</temp>
<bpm>0</bpm>
<rpm>0.00</rpm>
</extensions>
</trkpt>
<trkpt lat="63.990547180" lon="-19.060108185">
<ele>597.406250</ele>
<time>2012-07-23T17:37:17Z</time>
<speed>0.080000</speed>
<extensions>
<speed>0.1</speed>
<temp>0.00</temp>
<bpm>0</bpm>
<rpm>0.00</rpm>
</extensions>
</trkpt>
<trkpt lat="63.990539551" lon="-19.060117722">
<ele>597.390625</ele>
<time>2012-07-23T17:37:22Z</time>
<speed>0.300000</speed>
<extensions>
<speed>0.3</speed>
<temp>0.00</temp>
<bpm>0</bpm>
<rpm>0.00</rpm>
</extensions>
</trkpt>
<trkpt lat="63.990528107" lon="-19.060131073">
<ele>597.218750</ele>
<time>2012-07-23T17:37:27Z</time>
<speed>0.170000</speed>
<extensions>
<speed>0.2</speed>
<temp>0.00</temp>
<bpm>0</bpm>
<rpm>0.00</rpm>
</extensions>
</trkpt>
<trkpt lat="63.990528107" lon="-19.060163498">
<ele>597.125000</ele>
<time>2012-07-23T17:37:32Z</time>
<speed>0.250000</speed>
<extensions>
<speed>0.2</speed>
<temp>0.00</temp>
<bpm>0</bpm>
<rpm>0.00</rpm>
</extensions>
</trkpt>
<trkpt lat="63.990520477" lon="-19.060174942">
<ele>597.031250</ele>
<time>2012-07-23T17:37:37Z</time>
<speed>0.130000</speed>
<extensions>
<speed>0.1</speed>
<temp>0.00</temp>
<bpm>0</bpm>
<rpm>0.00</rpm>
</extensions>
</trkpt>
<trkpt lat="63.990539551" lon="-19.060216904">
<ele>597.062500</ele>
<time>2012-07-23T17:37:42Z</time>
<speed>0.190000</speed>
<extensions>
<speed>0.2</speed>
<temp>0.00</temp>
<bpm>0</bpm>
<rpm>0.00</rpm>
</extensions>
</trkpt>
<trkpt lat="63.990531921" lon="-19.060186386">
<ele>597.000000</ele>
<time>2012-07-23T17:37:47Z</time>
<speed>0.100000</speed>
<extensions>
<speed>0.1</speed>
<temp>0.00</temp>
<bpm>0</bpm>
<rpm>0.00</rpm>
</extensions>
</trkpt>
<trkpt lat="63.990531921" lon="-19.060176849">
<ele>596.984375</ele>
<time>2012-07-23T17:37:52Z</time>
<speed>0.020000</speed>
<extensions>
<speed>0.0</speed>
<temp>0.00</temp>
<bpm>0</bpm>
<rpm>0.00</rpm>
</extensions>
</trkpt>
<trkpt lat="63.990531921" lon="-19.060165405">
<ele>596.953125</ele>
<time>2012-07-23T17:37:57Z</time>
<speed>0.200000</speed>
<extensions>
<speed>0.2</speed>
<temp>0.00</temp>
<bpm>0</bpm>
<rpm>0.00</rpm>
</extensions>
</trkpt>
<trkpt lat="63.990531921" lon="-19.060113907">
<ele>596.906250</ele>
<time>2012-07-23T17:38:02Z</time>
<speed>0.370000</speed>
<extensions>
<speed>0.4</speed>
<temp>0.00</temp>
<bpm>0</bpm>
<rpm>0.00</rpm>
</extensions>
</trkpt>
<trkpt lat="63.990558624" lon="-19.060066223">
<ele>597.078125</ele>
<time>2012-07-23T17:38:07Z</time>
<speed>0.300000</speed>
<extensions>
<speed>0.3</speed>
<temp>0.00</temp>
<bpm>0</bpm>
<rpm>0.00</rpm>
</extensions>
</trkpt>
<trkpt lat="63.990604401" lon="-19.060113907">
<ele>597.281250</ele>
<time>2012-07-23T17:38:12Z</time>
<speed>0.260000</speed>
<extensions>
<speed>0.3</speed>
<temp>0.00</temp>
<bpm>0</bpm>
<rpm>0.00</rpm>
</extensions>
</trkpt>
<trkpt lat="63.990612030" lon="-19.060091019">
<ele>597.328125</ele>
<time>2012-07-23T17:38:17Z</time>
<speed>0.250000</speed>
<extensions>
<speed>0.2</speed>
<temp>0.00</temp>
<bpm>0</bpm>
<rpm>0.00</rpm>
</extensions>
</trkpt>
<trkpt lat="63.990619659" lon="-19.060071945">
<ele>597.234375</ele>
<time>2012-07-23T17:38:22Z</time>
<speed>0.260000</speed>
<extensions>
<speed>0.3</speed>
<temp>0.00</temp>
<bpm>0</bpm>
<rpm>0.00</rpm>
</extensions>
</trkpt>
<trkpt lat="63.990634918" lon="-19.060060501">
<ele>597.109375</ele>
<time>2012-07-23T17:38:27Z</time>
<speed>0.210000</speed>
<extensions>
<speed>0.2</speed>
<temp>0.00</temp>
<bpm>0</bpm>
<rpm>0.00</rpm>
</extensions>
</trkpt>
</trkseg>
</trk>
</gpx>